<?xml version='1.0' encoding='UTF-8'?><gpx version="1.1" creator="JPX - https://github.com/jenetics/jpx" xmlns="http://www.topografix.com/GPX/1/1"><trk><trkseg><trkpt lat="43.1852657" lon="10.5453211"><ele>3.9999999999999996</ele><time>2026-04-03T12:20:47.645Z</time></trkpt><trkpt lat="43.1851841" lon="10.5453496"><ele>4.0</ele><time>2026-04-03T12:20:52.461Z</time></trkpt><trkpt lat="43.1851221" lon="10.5453892"><ele>4.0</ele><time>2026-04-03T12:20:54.246Z</time></trkpt><trkpt lat="43.1850627" lon="10.5454324"><ele>4.0</ele><time>2026-04-03T12:20:56.211Z</time></trkpt><trkpt lat="43.185001" lon="10.5454961"><ele>3.9999999999999996</ele><time>2026-04-03T12:20:58.219Z</time></trkpt><trkpt lat="43.1849503" lon="10.5455577"><ele>4.0</ele><time>2026-04-03T12:21:00.199Z</time></trkpt><trkpt lat="43.1849277" lon="10.5456836"><ele>3.2</ele><time>2026-04-03T12:21:03.208Z</time></trkpt><trkpt lat="43.1849954" lon="10.5458041"><ele>2.4000000000000004</ele><time>2026-04-03T12:21:05.204Z</time></trkpt><trkpt lat="43.1850454" lon="10.5458893"><ele>1.6</ele><time>2026-04-03T12:21:06.203Z</time></trkpt><trkpt lat="43.1851062" lon="10.5459979"><ele>0.8</ele><time>2026-04-03T12:21:08.206Z</time></trkpt><trkpt lat="43.1851727" lon="10.546111"><ele>0.0</ele><time>2026-04-03T12:21:10.205Z</time></trkpt><trkpt lat="43.1852482" lon="10.5461993"><ele>0.0</ele><time>2026-04-03T12:21:12.205Z</time></trkpt><trkpt lat="43.1853184" lon="10.5462859"><ele>0.0</ele><time>2026-04-03T12:21:14.208Z</time></trkpt><trkpt lat="43.1853893" lon="10.5463779"><ele>0.0</ele><time>2026-04-03T12:21:16.204Z</time></trkpt><trkpt lat="43.1854609" lon="10.5464678"><ele>0.0</ele><time>2026-04-03T12:21:18.204Z</time></trkpt><trkpt lat="43.1855351" lon="10.546558"><ele>0.0</ele><time>2026-04-03T12:21:20.207Z</time></trkpt><trkpt lat="43.1856003" lon="10.546646"><ele>0.0</ele><time>2026-04-03T12:21:22.217Z</time></trkpt><trkpt lat="43.1856627" lon="10.5467335"><ele>0.0</ele><time>2026-04-03T12:21:24.212Z</time></trkpt><trkpt lat="43.185726" lon="10.5468258"><ele>0.0</ele><time>2026-04-03T12:21:26.21Z</time></trkpt><trkpt lat="43.1857901" lon="10.5469151"><ele>0.0</ele><time>2026-04-03T12:21:28.211Z</time></trkpt><trkpt lat="43.1858553" lon="10.5469967"><ele>0.0</ele><time>2026-04-03T12:21:30.226Z</time></trkpt><trkpt lat="43.1859152" lon="10.5470748"><ele>0.0</ele><time>2026-04-03T12:21:32.204Z</time></trkpt><trkpt lat="43.185971" lon="10.5471572"><ele>0.0</ele><time>2026-04-03T12:21:34.203Z</time></trkpt><trkpt lat="43.1860262" lon="10.5472404"><ele>0.0</ele><time>2026-04-03T12:21:36.211Z</time></trkpt><trkpt lat="43.1860657" lon="10.5473343"><ele>0.0</ele><time>2026-04-03T12:21:38.202Z</time></trkpt><trkpt lat="43.1860313" lon="10.5474279"><ele>0.0</ele><time>2026-04-03T12:21:40.207Z</time></trkpt><trkpt lat="43.1859553" lon="10.5474909"><ele>0.0</ele><time>2026-04-03T12:21:42.207Z</time></trkpt><trkpt lat="43.1858739" lon="10.5475339"><ele>0.0</ele><time>2026-04-03T12:21:44.221Z</time></trkpt><trkpt lat="43.1857945" lon="10.5475791"><ele>0.0</ele><time>2026-04-03T12:21:46.207Z</time></trkpt><trkpt lat="43.1857103" lon="10.5476311"><ele>0.0</ele><time>2026-04-03T12:21:48.207Z</time></trkpt><trkpt lat="43.1856234" lon="10.5476813"><ele>0.0</ele><time>2026-04-03T12:21:50.206Z</time></trkpt><trkpt lat="43.1855403" lon="10.5477413"><ele>0.0</ele><time>2026-04-03T12:21:52.205Z</time></trkpt><trkpt lat="43.1854671" lon="10.5478021"><ele>0.0</ele><time>2026-04-03T12:21:54.206Z</time></trkpt><trkpt lat="43.1854013" lon="10.547867"><ele>0.0</ele><time>2026-04-03T12:21:56.207Z</time></trkpt><trkpt lat="43.1853371" lon="10.5479361"><ele>0.0</ele><time>2026-04-03T12:21:58.207Z</time></trkpt><trkpt lat="43.1853163" lon="10.5480371"><ele>0.0</ele><time>2026-04-03T12:22:00.212Z</time></trkpt><trkpt lat="43.1852884" lon="10.5481274"><ele>0.0</ele><time>2026-04-03T12:22:02.207Z</time></trkpt><trkpt lat="43.1852201" lon="10.5481662"><ele>0.0</ele><time>2026-04-03T12:22:04.213Z</time></trkpt><trkpt lat="43.1851408" lon="10.548218"><ele>0.0</ele><time>2026-04-03T12:22:06.201Z</time></trkpt><trkpt lat="43.1850639" lon="10.5482595"><ele>0.0</ele><time>2026-04-03T12:22:08.206Z</time></trkpt><trkpt lat="43.1849825" lon="10.5483113"><ele>0.0</ele><time>2026-04-03T12:22:10.201Z</time></trkpt><trkpt lat="43.1849052" lon="10.5483608"><ele>0.0</ele><time>2026-04-03T12:22:12.205Z</time></trkpt><trkpt lat="43.1848302" lon="10.5484178"><ele>0.0</ele><time>2026-04-03T12:22:14.211Z</time></trkpt><trkpt lat="43.1847543" lon="10.5484784"><ele>0.0</ele><time>2026-04-03T12:22:16.205Z</time></trkpt><trkpt lat="43.1846656" lon="10.548536"><ele>0.0</ele><time>2026-04-03T12:22:18.21Z</time></trkpt><trkpt lat="43.1845773" lon="10.548595"><ele>0.0</ele><time>2026-04-03T12:22:20.209Z</time></trkpt><trkpt lat="43.184491" lon="10.5486532"><ele>0.0</ele><time>2026-04-03T12:22:22.212Z</time></trkpt><trkpt lat="43.1844074" lon="10.5487167"><ele>0.0</ele><time>2026-04-03T12:22:24.213Z</time></trkpt><trkpt lat="43.18432" lon="10.5487742"><ele>0.0</ele><time>2026-04-03T12:22:26.204Z</time></trkpt><trkpt lat="43.184237" lon="10.548832"><ele>0.0</ele><time>2026-04-03T12:22:28.208Z</time></trkpt><trkpt lat="43.184156" lon="10.5488827"><ele>-0.2</ele><time>2026-04-03T12:22:30.206Z</time></trkpt><trkpt lat="43.1840687" lon="10.5489341"><ele>-0.4</ele><time>2026-04-03T12:22:32.259Z</time></trkpt><trkpt lat="43.1839858" lon="10.5489957"><ele>-0.6000000000000001</ele><time>2026-04-03T12:22:34.209Z</time></trkpt><trkpt lat="43.1838962" lon="10.5490513"><ele>-0.8</ele><time>2026-04-03T12:22:36.216Z</time></trkpt><trkpt lat="43.1838206" lon="10.5491073"><ele>-1.0</ele><time>2026-04-03T12:22:38.209Z</time></trkpt><trkpt lat="43.1837401" lon="10.5491597"><ele>-0.4</ele><time>2026-04-03T12:22:40.215Z</time></trkpt><trkpt lat="43.1836542" lon="10.5492082"><ele>0.19999999999999996</ele><time>2026-04-03T12:22:42.204Z</time></trkpt><trkpt lat="43.1835649" lon="10.549269"><ele>0.8000000000000002</ele><time>2026-04-03T12:22:44.208Z</time></trkpt><trkpt lat="43.1834847" lon="10.5493291"><ele>1.4000000000000001</ele><time>2026-04-03T12:22:46.214Z</time></trkpt><trkpt lat="43.1834022" lon="10.5493908"><ele>2.0</ele><time>2026-04-03T12:22:48.214Z</time></trkpt><trkpt lat="43.1833243" lon="10.5494515"><ele>1.9999999999999998</ele><time>2026-04-03T12:22:50.215Z</time></trkpt><trkpt lat="43.1832468" lon="10.5495126"><ele>2.0</ele><time>2026-04-03T12:22:52.211Z</time></trkpt><trkpt lat="43.1831659" lon="10.5495612"><ele>2.0</ele><time>2026-04-03T12:22:54.212Z</time></trkpt><trkpt lat="43.1830844" lon="10.549612"><ele>2.0</ele><time>2026-04-03T12:22:56.213Z</time></trkpt><trkpt lat="43.1830039" lon="10.549672"><ele>1.9999999999999998</ele><time>2026-04-03T12:22:58.209Z</time></trkpt><trkpt lat="43.1829256" lon="10.5497282"><ele>2.0</ele><time>2026-04-03T12:23:00.213Z</time></trkpt><trkpt lat="43.1828483" lon="10.5497841"><ele>2.0</ele><time>2026-04-03T12:23:02.238Z</time></trkpt><trkpt lat="43.1827588" lon="10.5498348"><ele>2.0</ele><time>2026-04-03T12:23:04.216Z</time></trkpt><trkpt lat="43.1826774" lon="10.5498891"><ele>2.0</ele><time>2026-04-03T12:23:06.218Z</time></trkpt><trkpt lat="43.1825996" lon="10.5499458"><ele>2.0</ele><time>2026-04-03T12:23:08.217Z</time></trkpt><trkpt lat="43.1825132" lon="10.5499983"><ele>2.0</ele><time>2026-04-03T12:23:10.207Z</time></trkpt><trkpt lat="43.1824397" lon="10.5500675"><ele>2.0</ele><time>2026-04-03T12:23:12.207Z</time></trkpt><trkpt lat="43.1823595" lon="10.5501272"><ele>2.0</ele><time>2026-04-03T12:23:14.208Z</time></trkpt><trkpt lat="43.1822768" lon="10.5501885"><ele>2.0</ele><time>2026-04-03T12:23:16.21Z</time></trkpt><trkpt lat="43.1821864" lon="10.5502372"><ele>2.0</ele><time>2026-04-03T12:23:18.215Z</time></trkpt><trkpt lat="43.1821051" lon="10.5502893"><ele>2.0</ele><time>2026-04-03T12:23:20.211Z</time></trkpt><trkpt lat="43.1820274" lon="10.5503302"><ele>2.333333333333333</ele><time>2026-04-03T12:23:22.201Z</time></trkpt><trkpt lat="43.1819418" lon="10.5503431"><ele>2.6666666666666665</ele><time>2026-04-03T12:23:24.201Z</time></trkpt><trkpt lat="43.18185" lon="10.5503442"><ele>3.0</ele><time>2026-04-03T12:23:26.205Z</time></trkpt><trkpt lat="43.1817564" lon="10.5503672"><ele>3.333333333333333</ele><time>2026-04-03T12:23:28.202Z</time></trkpt><trkpt lat="43.1816674" lon="10.5503871"><ele>3.6666666666666665</ele><time>2026-04-03T12:23:30.202Z</time></trkpt><trkpt lat="43.1815838" lon="10.5504035"><ele>4.0</ele><time>2026-04-03T12:23:32.217Z</time></trkpt><trkpt lat="43.1814799" lon="10.5504264"><ele>4.4</ele><time>2026-04-03T12:23:34.207Z</time></trkpt><trkpt lat="43.1813711" lon="10.5504404"><ele>4.800000000000001</ele><time>2026-04-03T12:23:36.208Z</time></trkpt><trkpt lat="43.1812744" lon="10.5504704"><ele>5.199999999999999</ele><time>2026-04-03T12:23:38.211Z</time></trkpt><trkpt lat="43.1811824" lon="10.5504927"><ele>5.6</ele><time>2026-04-03T12:23:40.207Z</time></trkpt><trkpt lat="43.1810916" lon="10.5505054"><ele>6.0</ele><time>2026-04-03T12:23:42.207Z</time></trkpt><trkpt lat="43.1810042" lon="10.5505184"><ele>6.0</ele><time>2026-04-03T12:23:44.207Z</time></trkpt><trkpt lat="43.180902" lon="10.5505278"><ele>6.0</ele><time>2026-04-03T12:23:46.206Z</time></trkpt><trkpt lat="43.1808132" lon="10.5505567"><ele>6.0</ele><time>2026-04-03T12:23:48.212Z</time></trkpt><trkpt lat="43.1807221" lon="10.5505784"><ele>6.0</ele><time>2026-04-03T12:23:50.206Z</time></trkpt><trkpt lat="43.180628" lon="10.5505796"><ele>6.0</ele><time>2026-04-03T12:23:52.203Z</time></trkpt><trkpt lat="43.1805434" lon="10.5505524"><ele>7.0</ele><time>2026-04-03T12:23:54.204Z</time></trkpt><trkpt lat="43.1804534" lon="10.5504931"><ele>8.0</ele><time>2026-04-03T12:23:56.204Z</time></trkpt><trkpt lat="43.1803775" lon="10.5503928"><ele>9.0</ele><time>2026-04-03T12:23:58.204Z</time></trkpt><trkpt lat="43.1803122" lon="10.5502871"><ele>10.0</ele><time>2026-04-03T12:24:00.195Z</time></trkpt><trkpt lat="43.1802276" lon="10.5502498"><ele>11.0</ele><time>2026-04-03T12:24:02.191Z</time></trkpt><trkpt lat="43.1801378" lon="10.5502724"><ele>11.4</ele><time>2026-04-03T12:24:04.215Z</time></trkpt><trkpt lat="43.1800382" lon="10.5502966"><ele>11.8</ele><time>2026-04-03T12:24:06.208Z</time></trkpt><trkpt lat="43.1799359" lon="10.5502996"><ele>12.200000000000001</ele><time>2026-04-03T12:24:08.214Z</time></trkpt><trkpt lat="43.1798468" lon="10.5502855"><ele>12.600000000000001</ele><time>2026-04-03T12:24:10.198Z</time></trkpt><trkpt lat="43.1797619" lon="10.5502601"><ele>13.0</ele><time>2026-04-03T12:24:12.187Z</time></trkpt><trkpt lat="43.179659" lon="10.5502521"><ele>13.666666666666666</ele><time>2026-04-03T12:24:14.184Z</time></trkpt><trkpt lat="43.1795701" lon="10.5502423"><ele>14.333333333333332</ele><time>2026-04-03T12:24:16.192Z</time></trkpt><trkpt lat="43.1794786" lon="10.5502272"><ele>15.0</ele><time>2026-04-03T12:24:18.19Z</time></trkpt><trkpt lat="43.1793943" lon="10.5501933"><ele>15.666666666666668</ele><time>2026-04-03T12:24:20.19Z</time></trkpt><trkpt lat="43.1793223" lon="10.5501502"><ele>16.333333333333336</ele><time>2026-04-03T12:24:22.188Z</time></trkpt><trkpt lat="43.1792588" lon="10.5501135"><ele>17.0</ele><time>2026-04-03T12:24:24.188Z</time></trkpt><trkpt lat="43.1791945" lon="10.5500747"><ele>16.999999999999996</ele><time>2026-04-03T12:24:26.179Z</time></trkpt><trkpt lat="43.1791284" lon="10.5500563"><ele>17.0</ele><time>2026-04-03T12:24:28.183Z</time></trkpt><trkpt lat="43.1790651" lon="10.5500259"><ele>17.0</ele><time>2026-04-03T12:24:30.186Z</time></trkpt><trkpt lat="43.17899" lon="10.5500065"><ele>17.0</ele><time>2026-04-03T12:24:32.183Z</time></trkpt><trkpt lat="43.1789255" lon="10.5499909"><ele>17.0</ele><time>2026-04-03T12:24:34.183Z</time></trkpt><trkpt lat="43.1788498" lon="10.5499713"><ele>16.999999999999996</ele><time>2026-04-03T12:24:36.182Z</time></trkpt><trkpt lat="43.1787796" lon="10.5499517"><ele>17.0</ele><time>2026-04-03T12:24:38.186Z</time></trkpt><trkpt lat="43.1786865" lon="10.5499554"><ele>16.833333333333336</ele><time>2026-04-03T12:24:40.186Z</time></trkpt><trkpt lat="43.1785994" lon="10.5499595"><ele>16.666666666666668</ele><time>2026-04-03T12:24:42.178Z</time></trkpt><trkpt lat="43.1785148" lon="10.5499582"><ele>16.5</ele><time>2026-04-03T12:24:44.182Z</time></trkpt><trkpt lat="43.1784346" lon="10.5499417"><ele>16.333333333333332</ele><time>2026-04-03T12:24:46.174Z</time></trkpt><trkpt lat="43.1783618" lon="10.5499235"><ele>16.166666666666664</ele><time>2026-04-03T12:24:48.177Z</time></trkpt><trkpt lat="43.1782815" lon="10.5499131"><ele>16.0</ele><time>2026-04-03T12:24:50.173Z</time></trkpt><trkpt lat="43.178211" lon="10.5499006"><ele>16.333333333333332</ele><time>2026-04-03T12:24:52.174Z</time></trkpt><trkpt lat="43.1781363" lon="10.5498919"><ele>16.666666666666664</ele><time>2026-04-03T12:24:54.178Z</time></trkpt><trkpt lat="43.1780529" lon="10.5498959"><ele>17.0</ele><time>2026-04-03T12:24:56.177Z</time></trkpt><trkpt lat="43.1779687" lon="10.5498946"><ele>17.333333333333332</ele><time>2026-04-03T12:24:58.174Z</time></trkpt><trkpt lat="43.1778917" lon="10.5498749"><ele>17.666666666666668</ele><time>2026-04-03T12:25:00.172Z</time></trkpt><trkpt lat="43.1778248" lon="10.5498478"><ele>18.0</ele><time>2026-04-03T12:25:02.18Z</time></trkpt><trkpt lat="43.1777443" lon="10.5498226"><ele>18.0</ele><time>2026-04-03T12:25:04.171Z</time></trkpt><trkpt lat="43.1776473" lon="10.549823"><ele>18.0</ele><time>2026-04-03T12:25:06.19Z</time></trkpt><trkpt lat="43.1775746" lon="10.5498075"><ele>18.0</ele><time>2026-04-03T12:25:08.18Z</time></trkpt><trkpt lat="43.177503" lon="10.549806"><ele>18.0</ele><time>2026-04-03T12:25:10.171Z</time></trkpt><trkpt lat="43.1774355" lon="10.5497904"><ele>18.0</ele><time>2026-04-03T12:25:12.18Z</time></trkpt><trkpt lat="43.1773502" lon="10.5497732"><ele>18.0</ele><time>2026-04-03T12:25:14.176Z</time></trkpt><trkpt lat="43.1772523" lon="10.5497336"><ele>17.833333333333332</ele><time>2026-04-03T12:25:17.171Z</time></trkpt><trkpt lat="43.1771531" lon="10.5497352"><ele>17.666666666666668</ele><time>2026-04-03T12:25:19.167Z</time></trkpt><trkpt lat="43.1770491" lon="10.5497226"><ele>17.5</ele><time>2026-04-03T12:25:21.161Z</time></trkpt><trkpt lat="43.1769613" lon="10.5497476"><ele>17.333333333333336</ele><time>2026-04-03T12:25:23.162Z</time></trkpt><trkpt lat="43.1768948" lon="10.5497533"><ele>17.166666666666668</ele><time>2026-04-03T12:25:25.166Z</time></trkpt><trkpt lat="43.1768178" lon="10.5497796"><ele>17.0</ele><time>2026-04-03T12:25:27.159Z</time></trkpt><trkpt lat="43.1767305" lon="10.5497882"><ele>17.0</ele><time>2026-04-03T12:25:29.167Z</time></trkpt><trkpt lat="43.1766466" lon="10.5497876"><ele>17.0</ele><time>2026-04-03T12:25:31.159Z</time></trkpt><trkpt lat="43.1765644" lon="10.5497901"><ele>17.0</ele><time>2026-04-03T12:25:33.16Z</time></trkpt><trkpt lat="43.1764954" lon="10.5497653"><ele>17.0</ele><time>2026-04-03T12:25:35.163Z</time></trkpt><trkpt lat="43.1764007" lon="10.5497167"><ele>17.0</ele><time>2026-04-03T12:25:38.167Z</time></trkpt><trkpt lat="43.1763095" lon="10.5496904"><ele>17.0</ele><time>2026-04-03T12:25:40.169Z</time></trkpt><trkpt lat="43.1762063" lon="10.5496762"><ele>16.833333333333336</ele><time>2026-04-03T12:25:42.163Z</time></trkpt><trkpt lat="43.176115" lon="10.5496826"><ele>16.666666666666668</ele><time>2026-04-03T12:25:44.176Z</time></trkpt><trkpt lat="43.1760363" lon="10.5496842"><ele>16.5</ele><time>2026-04-03T12:25:46.167Z</time></trkpt><trkpt lat="43.175938" lon="10.5496638"><ele>16.333333333333332</ele><time>2026-04-03T12:25:48.176Z</time></trkpt><trkpt lat="43.175862" lon="10.5496153"><ele>16.166666666666664</ele><time>2026-04-03T12:25:50.173Z</time></trkpt><trkpt lat="43.1757946" lon="10.5495816"><ele>16.0</ele><time>2026-04-03T12:25:53.161Z</time></trkpt><trkpt lat="43.1756784" lon="10.5495545"><ele>15.833333333333332</ele><time>2026-04-03T12:25:58.15Z</time></trkpt><trkpt lat="43.1756134" lon="10.5495253"><ele>15.666666666666666</ele><time>2026-04-03T12:25:59.152Z</time></trkpt><trkpt lat="43.1755459" lon="10.549515"><ele>15.5</ele><time>2026-04-03T12:26:00.153Z</time></trkpt><trkpt lat="43.1754798" lon="10.5494927"><ele>15.333333333333332</ele><time>2026-04-03T12:26:01.164Z</time></trkpt><trkpt lat="43.1754091" lon="10.5494998"><ele>15.166666666666666</ele><time>2026-04-03T12:26:02.175Z</time></trkpt><trkpt lat="43.1753086" lon="10.5495275"><ele>15.0</ele><time>2026-04-03T12:26:04.179Z</time></trkpt><trkpt lat="43.1752299" lon="10.5495298"><ele>15.0</ele><time>2026-04-03T12:26:06.187Z</time></trkpt><trkpt lat="43.1751616" lon="10.5495364"><ele>15.0</ele><time>2026-04-03T12:26:08.205Z</time></trkpt><trkpt lat="43.1750686" lon="10.5495456"><ele>15.0</ele><time>2026-04-03T12:26:11.192Z</time></trkpt><trkpt lat="43.1749907" lon="10.54957"><ele>15.0</ele><time>2026-04-03T12:26:13.201Z</time></trkpt><trkpt lat="43.1749089" lon="10.5495903"><ele>15.0</ele><time>2026-04-03T12:26:15.198Z</time></trkpt><trkpt lat="43.1748284" lon="10.5496157"><ele>15.0</ele><time>2026-04-03T12:26:17.197Z</time></trkpt><trkpt lat="43.1747538" lon="10.5496324"><ele>15.0</ele><time>2026-04-03T12:26:19.202Z</time></trkpt><trkpt lat="43.1746808" lon="10.5496409"><ele>15.0</ele><time>2026-04-03T12:26:21.195Z</time></trkpt><trkpt lat="43.174583" lon="10.5496314"><ele>15.0</ele><time>2026-04-03T12:26:23.198Z</time></trkpt><trkpt lat="43.1744924" lon="10.5496136"><ele>15.0</ele><time>2026-04-03T12:26:25.198Z</time></trkpt><trkpt lat="43.1744141" lon="10.5495976"><ele>15.0</ele><time>2026-04-03T12:26:27.2Z</time></trkpt><trkpt lat="43.1743278" lon="10.5496005"><ele>15.0</ele><time>2026-04-03T12:26:29.211Z</time></trkpt><trkpt lat="43.1742315" lon="10.5495945"><ele>15.0</ele><time>2026-04-03T12:26:31.211Z</time></trkpt><trkpt lat="43.1741292" lon="10.5495957"><ele>15.0</ele><time>2026-04-03T12:26:33.203Z</time></trkpt><trkpt lat="43.1740331" lon="10.5496051"><ele>15.0</ele><time>2026-04-03T12:26:35.206Z</time></trkpt><trkpt lat="43.1739466" lon="10.5496083"><ele>15.0</ele><time>2026-04-03T12:26:37.2Z</time></trkpt><trkpt lat="43.1738697" lon="10.549595"><ele>15.0</ele><time>2026-04-03T12:26:39.225Z</time></trkpt><trkpt lat="43.1737945" lon="10.5495758"><ele>15.0</ele><time>2026-04-03T12:26:41.208Z</time></trkpt><trkpt lat="43.1737232" lon="10.5495553"><ele>14.0</ele><time>2026-04-03T12:26:43.196Z</time></trkpt><trkpt lat="43.17364" lon="10.5495433"><ele>13.0</ele><time>2026-04-03T12:26:45.201Z</time></trkpt><trkpt lat="43.1735638" lon="10.5495298"><ele>12.0</ele><time>2026-04-03T12:26:47.2Z</time></trkpt><trkpt lat="43.173478" lon="10.5495205"><ele>11.0</ele><time>2026-04-03T12:26:49.196Z</time></trkpt><trkpt lat="43.1734065" lon="10.5495244"><ele>10.0</ele><time>2026-04-03T12:26:51.203Z</time></trkpt><trkpt lat="43.173321" lon="10.549512"><ele>9.0</ele><time>2026-04-03T12:26:54.198Z</time></trkpt><trkpt lat="43.1732389" lon="10.5495128"><ele>11.0</ele><time>2026-04-03T12:26:56.19Z</time></trkpt><trkpt lat="43.173168" lon="10.5495052"><ele>13.0</ele><time>2026-04-03T12:26:58.184Z</time></trkpt><trkpt lat="43.1730846" lon="10.5494955"><ele>15.0</ele><time>2026-04-03T12:27:00.19Z</time></trkpt><trkpt lat="43.1729941" lon="10.5495001"><ele>17.0</ele><time>2026-04-03T12:27:02.196Z</time></trkpt><trkpt lat="43.172909" lon="10.5495092"><ele>19.0</ele><time>2026-04-03T12:27:04.197Z</time></trkpt><trkpt lat="43.1728115" lon="10.5495126"><ele>21.0</ele><time>2026-04-03T12:27:06.198Z</time></trkpt><trkpt lat="43.1727009" lon="10.54949"><ele>21.0</ele><time>2026-04-03T12:27:08.199Z</time></trkpt><trkpt lat="43.1726096" lon="10.5494609"><ele>21.0</ele><time>2026-04-03T12:27:10.234Z</time></trkpt><trkpt lat="43.1725086" lon="10.5494197"><ele>21.0</ele><time>2026-04-03T12:27:12.198Z</time></trkpt><trkpt lat="43.1724192" lon="10.5493963"><ele>21.0</ele><time>2026-04-03T12:27:14.196Z</time></trkpt><trkpt lat="43.1723427" lon="10.5493699"><ele>21.0</ele><time>2026-04-03T12:27:16.194Z</time></trkpt><trkpt lat="43.1722706" lon="10.5493409"><ele>21.0</ele><time>2026-04-03T12:27:18.188Z</time></trkpt><trkpt lat="43.1721906" lon="10.5493396"><ele>20.833333333333332</ele><time>2026-04-03T12:27:20.188Z</time></trkpt><trkpt lat="43.1721248" lon="10.5493422"><ele>20.666666666666668</ele><time>2026-04-03T12:27:22.17Z</time></trkpt><trkpt lat="43.172056" lon="10.5493452"><ele>20.5</ele><time>2026-04-03T12:27:24.185Z</time></trkpt><trkpt lat="43.1719832" lon="10.549345"><ele>20.333333333333336</ele><time>2026-04-03T12:27:26.171Z</time></trkpt><trkpt lat="43.1718933" lon="10.5493688"><ele>20.166666666666668</ele><time>2026-04-03T12:27:28.176Z</time></trkpt><trkpt lat="43.1717732" lon="10.5493669"><ele>20.0</ele><time>2026-04-03T12:27:30.17Z</time></trkpt><trkpt lat="43.1716614" lon="10.5493539"><ele>20.0</ele><time>2026-04-03T12:27:32.167Z</time></trkpt><trkpt lat="43.1715587" lon="10.5493278"><ele>20.0</ele><time>2026-04-03T12:27:34.18Z</time></trkpt><trkpt lat="43.1714951" lon="10.5493518"><ele>20.0</ele><time>2026-04-03T12:27:35.185Z</time></trkpt><trkpt lat="43.1714378" lon="10.5494743"><ele>20.0</ele><time>2026-04-03T12:27:37.18Z</time></trkpt><trkpt lat="43.17142" lon="10.5495571"><ele>20.0</ele><time>2026-04-03T12:27:38.193Z</time></trkpt><trkpt lat="43.1713994" lon="10.549714"><ele>18.5</ele><time>2026-04-03T12:27:40.218Z</time></trkpt><trkpt lat="43.1713902" lon="10.5498006"><ele>17.0</ele><time>2026-04-03T12:27:41.195Z</time></trkpt><trkpt lat="43.1713685" lon="10.5499308"><ele>15.5</ele><time>2026-04-03T12:27:43.198Z</time></trkpt><trkpt lat="43.1713674" lon="10.550046"><ele>14.0</ele><time>2026-04-03T12:27:45.197Z</time></trkpt><trkpt lat="43.1713563" lon="10.5501497"><ele>12.5</ele><time>2026-04-03T12:27:47.204Z</time></trkpt><trkpt lat="43.1713481" lon="10.5502431"><ele>11.0</ele><time>2026-04-03T12:27:49.194Z</time></trkpt><trkpt lat="43.1713439" lon="10.5503386"><ele>10.5</ele><time>2026-04-03T12:27:51.199Z</time></trkpt><trkpt lat="43.1713392" lon="10.550442"><ele>10.0</ele><time>2026-04-03T12:27:53.201Z</time></trkpt><trkpt lat="43.1713186" lon="10.5505494"><ele>9.5</ele><time>2026-04-03T12:27:55.203Z</time></trkpt><trkpt lat="43.1712963" lon="10.5506644"><ele>9.0</ele><time>2026-04-03T12:27:57.205Z</time></trkpt><trkpt lat="43.1712806" lon="10.5507761"><ele>8.5</ele><time>2026-04-03T12:27:59.223Z</time></trkpt><trkpt lat="43.1712705" lon="10.5508881"><ele>8.0</ele><time>2026-04-03T12:28:01.213Z</time></trkpt><trkpt lat="43.1712577" lon="10.550987"><ele>7.999999999999999</ele><time>2026-04-03T12:28:03.203Z</time></trkpt><trkpt lat="43.1712439" lon="10.5510958"><ele>8.0</ele><time>2026-04-03T12:28:05.205Z</time></trkpt><trkpt lat="43.1712302" lon="10.5512126"><ele>8.0</ele><time>2026-04-03T12:28:07.209Z</time></trkpt><trkpt lat="43.1712125" lon="10.5513369"><ele>8.0</ele><time>2026-04-03T12:28:09.202Z</time></trkpt><trkpt lat="43.1711897" lon="10.551443"><ele>7.999999999999999</ele><time>2026-04-03T12:28:11.225Z</time></trkpt><trkpt lat="43.1711661" lon="10.5515506"><ele>8.0</ele><time>2026-04-03T12:28:13.2Z</time></trkpt><trkpt lat="43.1711526" lon="10.551661"><ele>8.166666666666666</ele><time>2026-04-03T12:28:15.205Z</time></trkpt><trkpt lat="43.1711403" lon="10.5517724"><ele>8.333333333333332</ele><time>2026-04-03T12:28:17.207Z</time></trkpt><trkpt lat="43.1711246" lon="10.5518859"><ele>8.5</ele><time>2026-04-03T12:28:19.206Z</time></trkpt><trkpt lat="43.1711091" lon="10.5520008"><ele>8.666666666666666</ele><time>2026-04-03T12:28:21.207Z</time></trkpt><trkpt lat="43.1710941" lon="10.5521112"><ele>8.833333333333334</ele><time>2026-04-03T12:28:23.208Z</time></trkpt><trkpt lat="43.171074" lon="10.5522204"><ele>9.0</ele><time>2026-04-03T12:28:25.207Z</time></trkpt><trkpt lat="43.1710572" lon="10.5523348"><ele>9.166666666666666</ele><time>2026-04-03T12:28:27.205Z</time></trkpt><trkpt lat="43.1710432" lon="10.552448"><ele>9.333333333333334</ele><time>2026-04-03T12:28:29.217Z</time></trkpt><trkpt lat="43.1710306" lon="10.5525759"><ele>9.5</ele><time>2026-04-03T12:28:31.213Z</time></trkpt><trkpt lat="43.1710144" lon="10.5527028"><ele>9.666666666666668</ele><time>2026-04-03T12:28:33.208Z</time></trkpt><trkpt lat="43.1709926" lon="10.5528211"><ele>9.833333333333334</ele><time>2026-04-03T12:28:35.208Z</time></trkpt><trkpt lat="43.1709733" lon="10.5529372"><ele>10.0</ele><time>2026-04-03T12:28:37.208Z</time></trkpt><trkpt lat="43.1709537" lon="10.5530587"><ele>10.0</ele><time>2026-04-03T12:28:39.205Z</time></trkpt><trkpt lat="43.1709293" lon="10.5531813"><ele>10.0</ele><time>2026-04-03T12:28:41.207Z</time></trkpt><trkpt lat="43.1709067" lon="10.5533125"><ele>10.0</ele><time>2026-04-03T12:28:43.202Z</time></trkpt><trkpt lat="43.1708862" lon="10.5534298"><ele>10.0</ele><time>2026-04-03T12:28:45.205Z</time></trkpt><trkpt lat="43.1708671" lon="10.5535479"><ele>10.0</ele><time>2026-04-03T12:28:47.203Z</time></trkpt><trkpt lat="43.1708492" lon="10.553673"><ele>10.0</ele><time>2026-04-03T12:28:49.204Z</time></trkpt><trkpt lat="43.1708283" lon="10.5537961"><ele>10.0</ele><time>2026-04-03T12:28:51.202Z</time></trkpt><trkpt lat="43.1708077" lon="10.5539178"><ele>10.0</ele><time>2026-04-03T12:28:53.204Z</time></trkpt><trkpt lat="43.1707902" lon="10.554045"><ele>10.0</ele><time>2026-04-03T12:28:55.205Z</time></trkpt><trkpt lat="43.170767" lon="10.5541594"><ele>10.0</ele><time>2026-04-03T12:28:57.2Z</time></trkpt><trkpt lat="43.1707449" lon="10.554277"><ele>10.0</ele><time>2026-04-03T12:28:59.209Z</time></trkpt><trkpt lat="43.170724" lon="10.5543981"><ele>10.0</ele><time>2026-04-03T12:29:01.212Z</time></trkpt><trkpt lat="43.1707079" lon="10.5545256"><ele>10.0</ele><time>2026-04-03T12:29:03.207Z</time></trkpt><trkpt lat="43.1706949" lon="10.5546577"><ele>10.0</ele><time>2026-04-03T12:29:05.203Z</time></trkpt><trkpt lat="43.1706831" lon="10.5547758"><ele>10.0</ele><time>2026-04-03T12:29:07.201Z</time></trkpt><trkpt lat="43.1706625" lon="10.5548784"><ele>10.0</ele><time>2026-04-03T12:29:09.208Z</time></trkpt><trkpt lat="43.1706442" lon="10.5549775"><ele>10.166666666666668</ele><time>2026-04-03T12:29:11.212Z</time></trkpt><trkpt lat="43.1706346" lon="10.5550894"><ele>10.333333333333334</ele><time>2026-04-03T12:29:13.227Z</time></trkpt><trkpt lat="43.1706194" lon="10.5551978"><ele>10.5</ele><time>2026-04-03T12:29:15.202Z</time></trkpt><trkpt lat="43.1706037" lon="10.5553137"><ele>10.666666666666666</ele><time>2026-04-03T12:29:17.2Z</time></trkpt><trkpt lat="43.1705874" lon="10.5554332"><ele>10.833333333333332</ele><time>2026-04-03T12:29:19.203Z</time></trkpt><trkpt lat="43.1705801" lon="10.555559"><ele>11.0</ele><time>2026-04-03T12:29:21.197Z</time></trkpt><trkpt lat="43.1705597" lon="10.5556829"><ele>11.5</ele><time>2026-04-03T12:29:23.194Z</time></trkpt><trkpt lat="43.1705385" lon="10.5557916"><ele>12.0</ele><time>2026-04-03T12:29:25.19Z</time></trkpt><trkpt lat="43.1705205" lon="10.5559058"><ele>12.5</ele><time>2026-04-03T12:29:27.192Z</time></trkpt><trkpt lat="43.1705032" lon="10.5560281"><ele>13.0</ele><time>2026-04-03T12:29:29.198Z</time></trkpt><trkpt lat="43.1704905" lon="10.5561462"><ele>13.500000000000002</ele><time>2026-04-03T12:29:31.193Z</time></trkpt><trkpt lat="43.1704619" lon="10.5562599"><ele>14.0</ele><time>2026-04-03T12:29:33.192Z</time></trkpt><trkpt lat="43.1704348" lon="10.5563667"><ele>14.2</ele><time>2026-04-03T12:29:35.196Z</time></trkpt><trkpt lat="43.1704136" lon="10.5564934"><ele>14.399999999999999</ele><time>2026-04-03T12:29:37.195Z</time></trkpt><trkpt lat="43.1704038" lon="10.5566234"><ele>14.6</ele><time>2026-04-03T12:29:39.204Z</time></trkpt><trkpt lat="43.1703836" lon="10.5567436"><ele>14.8</ele><time>2026-04-03T12:29:41.198Z</time></trkpt><trkpt lat="43.1703694" lon="10.5568745"><ele>15.0</ele><time>2026-04-03T12:29:43.199Z</time></trkpt><trkpt lat="43.1703578" lon="10.5570061"><ele>15.0</ele><time>2026-04-03T12:29:45.198Z</time></trkpt><trkpt lat="43.1703438" lon="10.557122"><ele>15.0</ele><time>2026-04-03T12:29:47.198Z</time></trkpt><trkpt lat="43.1703227" lon="10.5572514"><ele>15.0</ele><time>2026-04-03T12:29:49.202Z</time></trkpt><trkpt lat="43.1703007" lon="10.5573721"><ele>15.0</ele><time>2026-04-03T12:29:51.199Z</time></trkpt><trkpt lat="43.1702842" lon="10.557489"><ele>15.0</ele><time>2026-04-03T12:29:53.199Z</time></trkpt><trkpt lat="43.1702678" lon="10.5576082"><ele>15.0</ele><time>2026-04-03T12:29:55.204Z</time></trkpt><trkpt lat="43.1702552" lon="10.5577343"><ele>15.0</ele><time>2026-04-03T12:29:57.207Z</time></trkpt><trkpt lat="43.1702432" lon="10.5578615"><ele>15.0</ele><time>2026-04-03T12:29:59.216Z</time></trkpt><trkpt lat="43.1702259" lon="10.5579892"><ele>15.0</ele><time>2026-04-03T12:30:01.208Z</time></trkpt><trkpt lat="43.1702115" lon="10.5581129"><ele>15.0</ele><time>2026-04-03T12:30:03.208Z</time></trkpt><trkpt lat="43.1701922" lon="10.5582416"><ele>15.0</ele><time>2026-04-03T12:30:05.208Z</time></trkpt><trkpt lat="43.1701717" lon="10.5583623"><ele>15.0</ele><time>2026-04-03T12:30:07.202Z</time></trkpt><trkpt lat="43.170152" lon="10.5584787"><ele>15.0</ele><time>2026-04-03T12:30:09.202Z</time></trkpt><trkpt lat="43.1701311" lon="10.5585933"><ele>15.0</ele><time>2026-04-03T12:30:11.205Z</time></trkpt><trkpt lat="43.1701111" lon="10.5587127"><ele>15.0</ele><time>2026-04-03T12:30:13.201Z</time></trkpt><trkpt lat="43.170092" lon="10.5588304"><ele>15.0</ele><time>2026-04-03T12:30:15.22Z</time></trkpt><trkpt lat="43.1700741" lon="10.5589479"><ele>15.0</ele><time>2026-04-03T12:30:17.202Z</time></trkpt><trkpt lat="43.1700488" lon="10.5590601"><ele>15.2</ele><time>2026-04-03T12:30:19.202Z</time></trkpt><trkpt lat="43.1700279" lon="10.5591839"><ele>15.4</ele><time>2026-04-03T12:30:21.2Z</time></trkpt><trkpt lat="43.1700132" lon="10.5593046"><ele>15.600000000000001</ele><time>2026-04-03T12:30:23.203Z</time></trkpt><trkpt lat="43.169992" lon="10.5594184"><ele>15.8</ele><time>2026-04-03T12:30:25.208Z</time></trkpt><trkpt lat="43.1699744" lon="10.5595385"><ele>16.0</ele><time>2026-04-03T12:30:27.208Z</time></trkpt><trkpt lat="43.16996" lon="10.5596701"><ele>16.2</ele><time>2026-04-03T12:30:29.214Z</time></trkpt><trkpt lat="43.1699444" lon="10.5597954"><ele>16.400000000000002</ele><time>2026-04-03T12:30:31.209Z</time></trkpt><trkpt lat="43.169927" lon="10.5599239"><ele>16.6</ele><time>2026-04-03T12:30:33.214Z</time></trkpt><trkpt lat="43.1699133" lon="10.5600548"><ele>16.8</ele><time>2026-04-03T12:30:35.213Z</time></trkpt><trkpt lat="43.1698953" lon="10.5601797"><ele>17.0</ele><time>2026-04-03T12:30:37.212Z</time></trkpt><trkpt lat="43.1698698" lon="10.5602956"><ele>17.0</ele><time>2026-04-03T12:30:39.201Z</time></trkpt><trkpt lat="43.169847" lon="10.5604104"><ele>17.0</ele><time>2026-04-03T12:30:41.205Z</time></trkpt><trkpt lat="43.1698254" lon="10.5605377"><ele>17.0</ele><time>2026-04-03T12:30:43.206Z</time></trkpt><trkpt lat="43.1698113" lon="10.5606514"><ele>17.0</ele><time>2026-04-03T12:30:45.209Z</time></trkpt><trkpt lat="43.1697894" lon="10.560773"><ele>17.0</ele><time>2026-04-03T12:30:47.207Z</time></trkpt><trkpt lat="43.1697723" lon="10.560906"><ele>17.0</ele><time>2026-04-03T12:30:49.212Z</time></trkpt><trkpt lat="43.169762" lon="10.5610354"><ele>17.0</ele><time>2026-04-03T12:30:51.214Z</time></trkpt><trkpt lat="43.1697422" lon="10.5611599"><ele>17.0</ele><time>2026-04-03T12:30:53.212Z</time></trkpt><trkpt lat="43.1697221" lon="10.5612875"><ele>17.0</ele><time>2026-04-03T12:30:55.198Z</time></trkpt><trkpt lat="43.1697088" lon="10.561411"><ele>17.0</ele><time>2026-04-03T12:30:57.205Z</time></trkpt><trkpt lat="43.1696935" lon="10.561543"><ele>17.0</ele><time>2026-04-03T12:30:59.218Z</time></trkpt><trkpt lat="43.169674" lon="10.5616707"><ele>17.0</ele><time>2026-04-03T12:31:01.209Z</time></trkpt><trkpt lat="43.1696573" lon="10.5618004"><ele>17.0</ele><time>2026-04-03T12:31:03.207Z</time></trkpt><trkpt lat="43.1696306" lon="10.5619234"><ele>17.0</ele><time>2026-04-03T12:31:05.205Z</time></trkpt><trkpt lat="43.1696012" lon="10.5620387"><ele>17.0</ele><time>2026-04-03T12:31:07.208Z</time></trkpt><trkpt lat="43.1695824" lon="10.562165"><ele>17.0</ele><time>2026-04-03T12:31:09.209Z</time></trkpt><trkpt lat="43.1695686" lon="10.5622974"><ele>17.0</ele><time>2026-04-03T12:31:11.208Z</time></trkpt><trkpt lat="43.1695458" lon="10.5624264"><ele>17.0</ele><time>2026-04-03T12:31:13.199Z</time></trkpt><trkpt lat="43.1695281" lon="10.5625433"><ele>17.0</ele><time>2026-04-03T12:31:15.209Z</time></trkpt><trkpt lat="43.1695147" lon="10.5626605"><ele>17.0</ele><time>2026-04-03T12:31:17.221Z</time></trkpt><trkpt lat="43.1694991" lon="10.562773"><ele>17.333333333333336</ele><time>2026-04-03T12:31:19.197Z</time></trkpt><trkpt lat="43.1694856" lon="10.5628722"><ele>17.666666666666668</ele><time>2026-04-03T12:31:21.193Z</time></trkpt><trkpt lat="43.1694609" lon="10.5629886"><ele>18.0</ele><time>2026-04-03T12:31:23.155Z</time></trkpt><trkpt lat="43.1694443" lon="10.5631287"><ele>18.333333333333332</ele><time>2026-04-03T12:31:25.177Z</time></trkpt><trkpt lat="43.1694274" lon="10.5632435"><ele>18.666666666666664</ele><time>2026-04-03T12:31:27.209Z</time></trkpt><trkpt lat="43.169407" lon="10.5633535"><ele>19.0</ele><time>2026-04-03T12:31:29.21Z</time></trkpt><trkpt lat="43.1693796" lon="10.5634659"><ele>19.0</ele><time>2026-04-03T12:31:31.206Z</time></trkpt><trkpt lat="43.1693626" lon="10.5635927"><ele>19.0</ele><time>2026-04-03T12:31:33.204Z</time></trkpt><trkpt lat="43.1693568" lon="10.5637092"><ele>19.0</ele><time>2026-04-03T12:31:35.208Z</time></trkpt><trkpt lat="43.1693193" lon="10.5637886"><ele>19.0</ele><time>2026-04-03T12:31:37.211Z</time></trkpt><trkpt lat="43.1692496" lon="10.5637684"><ele>19.0</ele><time>2026-04-03T12:31:39.198Z</time></trkpt><trkpt lat="43.1691629" lon="10.5637203"><ele>19.0</ele><time>2026-04-03T12:31:41.204Z</time></trkpt><trkpt lat="43.1690864" lon="10.5636685"><ele>18.599999999999998</ele><time>2026-04-03T12:31:43.204Z</time></trkpt><trkpt lat="43.1690004" lon="10.5636245"><ele>18.2</ele><time>2026-04-03T12:31:45.196Z</time></trkpt><trkpt lat="43.1689163" lon="10.5635949"><ele>17.799999999999997</ele><time>2026-04-03T12:31:47.208Z</time></trkpt><trkpt lat="43.1688261" lon="10.5635608"><ele>17.4</ele><time>2026-04-03T12:31:49.208Z</time></trkpt><trkpt lat="43.1687304" lon="10.5635202"><ele>17.0</ele><time>2026-04-03T12:31:51.212Z</time></trkpt><trkpt lat="43.1686321" lon="10.5634721"><ele>17.0</ele><time>2026-04-03T12:31:53.208Z</time></trkpt><trkpt lat="43.1685188" lon="10.5634257"><ele>17.0</ele><time>2026-04-03T12:31:55.206Z</time></trkpt><trkpt lat="43.1684189" lon="10.5634013"><ele>17.0</ele><time>2026-04-03T12:31:57.198Z</time></trkpt><trkpt lat="43.1683437" lon="10.5634259"><ele>17.0</ele><time>2026-04-03T12:31:59.192Z</time></trkpt><trkpt lat="43.168301" lon="10.5634904"><ele>17.0</ele><time>2026-04-03T12:32:01.165Z</time></trkpt><trkpt lat="43.1682709" lon="10.5636019"><ele>17.0</ele><time>2026-04-03T12:32:03.145Z</time></trkpt><trkpt lat="43.1682494" lon="10.5637457"><ele>17.5</ele><time>2026-04-03T12:32:05.165Z</time></trkpt><trkpt lat="43.1682427" lon="10.5638662"><ele>18.0</ele><time>2026-04-03T12:32:07.178Z</time></trkpt><trkpt lat="43.1682419" lon="10.563971"><ele>18.5</ele><time>2026-04-03T12:32:09.179Z</time></trkpt><trkpt lat="43.1682394" lon="10.5640793"><ele>19.0</ele><time>2026-04-03T12:32:11.185Z</time></trkpt><trkpt lat="43.168275" lon="10.5641549"><ele>19.5</ele><time>2026-04-03T12:32:13.175Z</time></trkpt><trkpt lat="43.1683537" lon="10.5641883"><ele>20.0</ele><time>2026-04-03T12:32:15.18Z</time></trkpt><trkpt lat="43.1684389" lon="10.5642146"><ele>20.0</ele><time>2026-04-03T12:32:17.199Z</time></trkpt><trkpt lat="43.1685023" lon="10.5642348"><ele>20.0</ele><time>2026-04-03T12:32:19.195Z</time></trkpt><trkpt lat="43.168523" lon="10.5643474"><ele>20.0</ele><time>2026-04-03T12:32:22.202Z</time></trkpt><trkpt lat="43.1685133" lon="10.5644576"><ele>20.0</ele><time>2026-04-03T12:32:25.216Z</time></trkpt><trkpt lat="43.1684985" lon="10.5645661"><ele>20.0</ele><time>2026-04-03T12:32:28.211Z</time></trkpt><trkpt lat="43.1685083" lon="10.5646562"><ele>20.0</ele><time>2026-04-03T12:32:31.209Z</time></trkpt><trkpt lat="43.168505" lon="10.5647762"><ele>20.166666666666668</ele><time>2026-04-03T12:32:34.204Z</time></trkpt><trkpt lat="43.1685058" lon="10.5648801"><ele>20.333333333333336</ele><time>2026-04-03T12:32:36.2Z</time></trkpt><trkpt lat="43.1684869" lon="10.5649996"><ele>20.5</ele><time>2026-04-03T12:32:38.211Z</time></trkpt><trkpt lat="43.1684702" lon="10.5650904"><ele>20.666666666666668</ele><time>2026-04-03T12:32:40.204Z</time></trkpt><trkpt lat="43.1684714" lon="10.5651944"><ele>20.833333333333332</ele><time>2026-04-03T12:32:42.199Z</time></trkpt><trkpt lat="43.1684773" lon="10.5652953"><ele>21.0</ele><time>2026-04-03T12:32:44.201Z</time></trkpt><trkpt lat="43.1684678" lon="10.5654015"><ele>21.333333333333332</ele><time>2026-04-03T12:32:46.193Z</time></trkpt><trkpt lat="43.1684565" lon="10.5655177"><ele>21.666666666666668</ele><time>2026-04-03T12:32:48.187Z</time></trkpt><trkpt lat="43.1684475" lon="10.5656254"><ele>22.0</ele><time>2026-04-03T12:32:50.204Z</time></trkpt><trkpt lat="43.16842" lon="10.5657243"><ele>22.333333333333336</ele><time>2026-04-03T12:32:52.195Z</time></trkpt><trkpt lat="43.1683923" lon="10.5658428"><ele>22.666666666666668</ele><time>2026-04-03T12:32:54.199Z</time></trkpt><trkpt lat="43.168367" lon="10.5659574"><ele>23.0</ele><time>2026-04-03T12:32:56.21Z</time></trkpt><trkpt lat="43.1683504" lon="10.5660771"><ele>23.0</ele><time>2026-04-03T12:32:58.219Z</time></trkpt><trkpt lat="43.1683269" lon="10.5661871"><ele>23.0</ele><time>2026-04-03T12:33:00.211Z</time></trkpt><trkpt lat="43.1683042" lon="10.5662706"><ele>23.0</ele><time>2026-04-03T12:33:03.208Z</time></trkpt><trkpt lat="43.1682923" lon="10.5663724"><ele>23.0</ele><time>2026-04-03T12:33:06.204Z</time></trkpt><trkpt lat="43.1682835" lon="10.566465"><ele>23.0</ele><time>2026-04-03T12:33:08.215Z</time></trkpt><trkpt lat="43.168345" lon="10.5664417"><ele>23.0</ele><time>2026-04-03T12:33:12.199Z</time></trkpt><trkpt lat="43.1683918" lon="10.5663442"><ele>23.0</ele><time>2026-04-03T12:33:15.205Z</time></trkpt><trkpt lat="43.168367" lon="10.5662544"><ele>23.0</ele><time>2026-04-03T12:33:18.217Z</time></trkpt><trkpt lat="43.168361" lon="10.5663409"><ele>23.0</ele><time>2026-04-03T12:34:54.195Z</time></trkpt><trkpt lat="43.1683158" lon="10.5664315"><ele>23.0</ele><time>2026-04-03T12:34:57.198Z</time></trkpt><trkpt lat="43.1682795" lon="10.566532"><ele>23.0</ele><time>2026-04-03T12:34:59.199Z</time></trkpt><trkpt lat="43.1682523" lon="10.5666507"><ele>23.0</ele><time>2026-04-03T12:35:01.196Z</time></trkpt><trkpt lat="43.1682304" lon="10.5667658"><ele>23.0</ele><time>2026-04-03T12:35:03.197Z</time></trkpt><trkpt lat="43.1682033" lon="10.5668793"><ele>22.857142857142858</ele><time>2026-04-03T12:35:05.2Z</time></trkpt><trkpt lat="43.1681881" lon="10.5669828"><ele>22.71428571428571</ele><time>2026-04-03T12:35:07.196Z</time></trkpt><trkpt lat="43.1681715" lon="10.5670872"><ele>22.57142857142857</ele><time>2026-04-03T12:35:09.189Z</time></trkpt><trkpt lat="43.168157" lon="10.5671995"><ele>22.42857142857143</ele><time>2026-04-03T12:35:11.188Z</time></trkpt><trkpt lat="43.1681392" lon="10.5672986"><ele>22.285714285714285</ele><time>2026-04-03T12:35:13.189Z</time></trkpt><trkpt lat="43.1681127" lon="10.5673865"><ele>22.142857142857142</ele><time>2026-04-03T12:35:15.195Z</time></trkpt><trkpt lat="43.168059" lon="10.5674346"><ele>22.0</ele><time>2026-04-03T12:35:17.2Z</time></trkpt><trkpt lat="43.1679832" lon="10.5674101"><ele>22.0</ele><time>2026-04-03T12:35:19.2Z</time></trkpt><trkpt lat="43.1679148" lon="10.5673606"><ele>22.0</ele><time>2026-04-03T12:35:21.198Z</time></trkpt><trkpt lat="43.1678381" lon="10.5673336"><ele>22.0</ele><time>2026-04-03T12:35:23.196Z</time></trkpt><trkpt lat="43.1677632" lon="10.5673263"><ele>22.0</ele><time>2026-04-03T12:35:25.199Z</time></trkpt><trkpt lat="43.1676868" lon="10.5673019"><ele>22.0</ele><time>2026-04-03T12:35:27.205Z</time></trkpt><trkpt lat="43.1676001" lon="10.5672743"><ele>22.0</ele><time>2026-04-03T12:35:29.201Z</time></trkpt><trkpt lat="43.1675245" lon="10.5672515"><ele>22.0</ele><time>2026-04-03T12:35:31.202Z</time></trkpt><trkpt lat="43.1674368" lon="10.5672259"><ele>22.0</ele><time>2026-04-03T12:35:33.201Z</time></trkpt><trkpt lat="43.1673416" lon="10.5672006"><ele>22.0</ele><time>2026-04-03T12:35:35.207Z</time></trkpt><trkpt lat="43.1672498" lon="10.5671884"><ele>22.0</ele><time>2026-04-03T12:35:37.206Z</time></trkpt><trkpt lat="43.1671663" lon="10.5671691"><ele>22.0</ele><time>2026-04-03T12:35:39.209Z</time></trkpt><trkpt lat="43.1670802" lon="10.56715"><ele>22.0</ele><time>2026-04-03T12:35:41.208Z</time></trkpt><trkpt lat="43.1669875" lon="10.5671353"><ele>22.0</ele><time>2026-04-03T12:35:43.202Z</time></trkpt><trkpt lat="43.1668944" lon="10.5671162"><ele>22.0</ele><time>2026-04-03T12:35:45.203Z</time></trkpt><trkpt lat="43.1667993" lon="10.5670921"><ele>22.0</ele><time>2026-04-03T12:35:47.212Z</time></trkpt><trkpt lat="43.1667077" lon="10.5670665"><ele>22.0</ele><time>2026-04-03T12:35:49.203Z</time></trkpt><trkpt lat="43.1666089" lon="10.5670368"><ele>21.8</ele><time>2026-04-03T12:35:51.207Z</time></trkpt><trkpt lat="43.1665122" lon="10.5670271"><ele>21.6</ele><time>2026-04-03T12:35:53.211Z</time></trkpt><trkpt lat="43.1664178" lon="10.567027"><ele>21.400000000000002</ele><time>2026-04-03T12:35:55.222Z</time></trkpt><trkpt lat="43.1663113" lon="10.5670353"><ele>21.200000000000003</ele><time>2026-04-03T12:35:57.199Z</time></trkpt><trkpt lat="43.1662186" lon="10.56701"><ele>21.0</ele><time>2026-04-03T12:35:59.201Z</time></trkpt><trkpt lat="43.1661232" lon="10.5669889"><ele>21.0</ele><time>2026-04-03T12:36:01.209Z</time></trkpt><trkpt lat="43.1660352" lon="10.5669648"><ele>21.0</ele><time>2026-04-03T12:36:03.21Z</time></trkpt><trkpt lat="43.1659346" lon="10.566935"><ele>21.0</ele><time>2026-04-03T12:36:05.204Z</time></trkpt><trkpt lat="43.1658466" lon="10.5669054"><ele>21.0</ele><time>2026-04-03T12:36:07.207Z</time></trkpt><trkpt lat="43.1657612" lon="10.5668927"><ele>21.0</ele><time>2026-04-03T12:36:09.204Z</time></trkpt><trkpt lat="43.1656545" lon="10.5668903"><ele>21.200000000000003</ele><time>2026-04-03T12:36:11.202Z</time></trkpt><trkpt lat="43.1655852" lon="10.5669784"><ele>21.400000000000002</ele><time>2026-04-03T12:36:13.202Z</time></trkpt><trkpt lat="43.1655699" lon="10.5671329"><ele>21.6</ele><time>2026-04-03T12:36:15.197Z</time></trkpt><trkpt lat="43.1655377" lon="10.567277"><ele>21.8</ele><time>2026-04-03T12:36:17.198Z</time></trkpt><trkpt lat="43.1655221" lon="10.5674127"><ele>22.0</ele><time>2026-04-03T12:36:19.199Z</time></trkpt><trkpt lat="43.1655049" lon="10.5675274"><ele>22.0</ele><time>2026-04-03T12:36:21.198Z</time></trkpt><trkpt lat="43.165496" lon="10.5676165"><ele>22.0</ele><time>2026-04-03T12:36:23.205Z</time></trkpt><trkpt lat="43.1654909" lon="10.5677284"><ele>22.0</ele><time>2026-04-03T12:36:25.197Z</time></trkpt><trkpt lat="43.165481" lon="10.567867"><ele>22.0</ele><time>2026-04-03T12:36:27.201Z</time></trkpt><trkpt lat="43.165479" lon="10.5680104"><ele>22.0</ele><time>2026-04-03T12:36:29.199Z</time></trkpt><trkpt lat="43.1654691" lon="10.5681514"><ele>22.166666666666664</ele><time>2026-04-03T12:36:31.199Z</time></trkpt><trkpt lat="43.1654587" lon="10.5682822"><ele>22.333333333333332</ele><time>2026-04-03T12:36:33.198Z</time></trkpt><trkpt lat="43.16544" lon="10.5684018"><ele>22.5</ele><time>2026-04-03T12:36:35.195Z</time></trkpt><trkpt lat="43.1654144" lon="10.5685212"><ele>22.666666666666668</ele><time>2026-04-03T12:36:37.202Z</time></trkpt><trkpt lat="43.1653849" lon="10.5686056"><ele>22.833333333333336</ele><time>2026-04-03T12:36:39.197Z</time></trkpt><trkpt lat="43.1652958" lon="10.5686008"><ele>23.0</ele><time>2026-04-03T12:36:43.195Z</time></trkpt><trkpt lat="43.1652124" lon="10.568543"><ele>23.0</ele><time>2026-04-03T12:36:45.2Z</time></trkpt><trkpt lat="43.1651141" lon="10.5685038"><ele>23.0</ele><time>2026-04-03T12:36:47.194Z</time></trkpt><trkpt lat="43.1650226" lon="10.5684765"><ele>23.0</ele><time>2026-04-03T12:36:49.205Z</time></trkpt><trkpt lat="43.1649457" lon="10.5684724"><ele>23.0</ele><time>2026-04-03T12:36:51.205Z</time></trkpt><trkpt lat="43.1648846" lon="10.5685227"><ele>23.0</ele><time>2026-04-03T12:36:55.2Z</time></trkpt><trkpt lat="43.1648682" lon="10.5686398"><ele>23.0</ele><time>2026-04-03T12:36:57.201Z</time></trkpt><trkpt lat="43.1648695" lon="10.5687843"><ele>23.2</ele><time>2026-04-03T12:36:59.209Z</time></trkpt><trkpt lat="43.1648726" lon="10.568928"><ele>23.4</ele><time>2026-04-03T12:37:01.205Z</time></trkpt><trkpt lat="43.1648759" lon="10.5690724"><ele>23.599999999999998</ele><time>2026-04-03T12:37:03.201Z</time></trkpt><trkpt lat="43.1648781" lon="10.5692049"><ele>23.799999999999997</ele><time>2026-04-03T12:37:05.201Z</time></trkpt><trkpt lat="43.1648851" lon="10.5693397"><ele>24.0</ele><time>2026-04-03T12:37:07.201Z</time></trkpt><trkpt lat="43.1648851" lon="10.5694624"><ele>24.0</ele><time>2026-04-03T12:37:09.208Z</time></trkpt><trkpt lat="43.1648881" lon="10.5695866"><ele>24.0</ele><time>2026-04-03T12:37:11.203Z</time></trkpt><trkpt lat="43.1648889" lon="10.5697093"><ele>24.0</ele><time>2026-04-03T12:37:13.197Z</time></trkpt><trkpt lat="43.1648796" lon="10.5698295"><ele>24.0</ele><time>2026-04-03T12:37:15.203Z</time></trkpt><trkpt lat="43.1648705" lon="10.5699484"><ele>24.0</ele><time>2026-04-03T12:37:17.206Z</time></trkpt><trkpt lat="43.1648632" lon="10.5700698"><ele>24.0</ele><time>2026-04-03T12:37:19.205Z</time></trkpt><trkpt lat="43.1648619" lon="10.570199"><ele>24.0</ele><time>2026-04-03T12:37:21.204Z</time></trkpt><trkpt lat="43.164858" lon="10.5703248"><ele>24.0</ele><time>2026-04-03T12:37:23.204Z</time></trkpt><trkpt lat="43.1648514" lon="10.5704525"><ele>24.0</ele><time>2026-04-03T12:37:25.204Z</time></trkpt><trkpt lat="43.1648477" lon="10.5705754"><ele>24.0</ele><time>2026-04-03T12:37:27.227Z</time></trkpt><trkpt lat="43.1648437" lon="10.5707054"><ele>24.0</ele><time>2026-04-03T12:37:29.198Z</time></trkpt><trkpt lat="43.1648477" lon="10.5708313"><ele>24.2</ele><time>2026-04-03T12:37:31.202Z</time></trkpt><trkpt lat="43.164843" lon="10.5709723"><ele>24.4</ele><time>2026-04-03T12:37:33.202Z</time></trkpt><trkpt lat="43.1648387" lon="10.5710973"><ele>24.6</ele><time>2026-04-03T12:37:35.197Z</time></trkpt><trkpt lat="43.1648418" lon="10.5712138"><ele>24.8</ele><time>2026-04-03T12:37:37.194Z</time></trkpt><trkpt lat="43.1648397" lon="10.571338"><ele>25.0</ele><time>2026-04-03T12:37:39.2Z</time></trkpt><trkpt lat="43.1648296" lon="10.5714612"><ele>25.333333333333336</ele><time>2026-04-03T12:37:41.202Z</time></trkpt><trkpt lat="43.1648229" lon="10.5715807"><ele>25.666666666666668</ele><time>2026-04-03T12:37:43.191Z</time></trkpt><trkpt lat="43.16482" lon="10.5716998"><ele>26.0</ele><time>2026-04-03T12:37:45.202Z</time></trkpt><trkpt lat="43.1648209" lon="10.5718263"><ele>26.333333333333336</ele><time>2026-04-03T12:37:47.2Z</time></trkpt><trkpt lat="43.1648138" lon="10.5719485"><ele>26.666666666666668</ele><time>2026-04-03T12:37:49.196Z</time></trkpt><trkpt lat="43.1648082" lon="10.5720751"><ele>27.0</ele><time>2026-04-03T12:37:51.195Z</time></trkpt><trkpt lat="43.164804" lon="10.5722028"><ele>27.0</ele><time>2026-04-03T12:37:53.202Z</time></trkpt><trkpt lat="43.1648004" lon="10.5723302"><ele>27.0</ele><time>2026-04-03T12:37:55.2Z</time></trkpt><trkpt lat="43.1648019" lon="10.5724584"><ele>27.0</ele><time>2026-04-03T12:37:57.195Z</time></trkpt><trkpt lat="43.164803" lon="10.5725741"><ele>27.0</ele><time>2026-04-03T12:37:59.204Z</time></trkpt><trkpt lat="43.164802" lon="10.5726974"><ele>27.0</ele><time>2026-04-03T12:38:01.208Z</time></trkpt><trkpt lat="43.1648023" lon="10.5728164"><ele>27.0</ele><time>2026-04-03T12:38:03.202Z</time></trkpt><trkpt lat="43.1648033" lon="10.572937"><ele>27.166666666666668</ele><time>2026-04-03T12:38:05.198Z</time></trkpt><trkpt lat="43.1648033" lon="10.5730466"><ele>27.333333333333336</ele><time>2026-04-03T12:38:07.204Z</time></trkpt><trkpt lat="43.1647988" lon="10.5731524"><ele>27.5</ele><time>2026-04-03T12:38:09.203Z</time></trkpt><trkpt lat="43.1647768" lon="10.5732515"><ele>27.666666666666668</ele><time>2026-04-03T12:38:11.193Z</time></trkpt><trkpt lat="43.1647216" lon="10.5733288"><ele>27.833333333333336</ele><time>2026-04-03T12:38:13.197Z</time></trkpt><trkpt lat="43.1646712" lon="10.5733971"><ele>28.0</ele><time>2026-04-03T12:38:15.199Z</time></trkpt><trkpt lat="43.1646009" lon="10.5734735"><ele>28.000000000000004</ele><time>2026-04-03T12:38:17.204Z</time></trkpt><trkpt lat="43.1645266" lon="10.5735523"><ele>28.0</ele><time>2026-04-03T12:38:19.2Z</time></trkpt><trkpt lat="43.1644639" lon="10.5736286"><ele>28.0</ele><time>2026-04-03T12:38:21.205Z</time></trkpt><trkpt lat="43.164402" lon="10.5737062"><ele>28.0</ele><time>2026-04-03T12:38:23.205Z</time></trkpt><trkpt lat="43.1643454" lon="10.573788"><ele>28.000000000000004</ele><time>2026-04-03T12:38:25.203Z</time></trkpt><trkpt lat="43.1642901" lon="10.5738687"><ele>28.0</ele><time>2026-04-03T12:38:27.211Z</time></trkpt><trkpt lat="43.1642376" lon="10.57395"><ele>28.166666666666668</ele><time>2026-04-03T12:38:29.232Z</time></trkpt><trkpt lat="43.1641892" lon="10.5740351"><ele>28.333333333333336</ele><time>2026-04-03T12:38:31.205Z</time></trkpt><trkpt lat="43.1641279" lon="10.5741173"><ele>28.5</ele><time>2026-04-03T12:38:33.203Z</time></trkpt><trkpt lat="43.1640738" lon="10.5741893"><ele>28.666666666666664</ele><time>2026-04-03T12:38:35.206Z</time></trkpt><trkpt lat="43.1640131" lon="10.5742578"><ele>28.833333333333332</ele><time>2026-04-03T12:38:37.207Z</time></trkpt><trkpt lat="43.1639466" lon="10.5743398"><ele>29.0</ele><time>2026-04-03T12:38:39.204Z</time></trkpt><trkpt lat="43.1638897" lon="10.5744331"><ele>29.166666666666664</ele><time>2026-04-03T12:38:41.213Z</time></trkpt><trkpt lat="43.1638372" lon="10.5745182"><ele>29.333333333333332</ele><time>2026-04-03T12:38:43.203Z</time></trkpt><trkpt lat="43.163783" lon="10.5746027"><ele>29.5</ele><time>2026-04-03T12:38:45.203Z</time></trkpt><trkpt lat="43.1637377" lon="10.5746819"><ele>29.666666666666664</ele><time>2026-04-03T12:38:47.2Z</time></trkpt><trkpt lat="43.163685" lon="10.5747663"><ele>29.833333333333332</ele><time>2026-04-03T12:38:49.203Z</time></trkpt><trkpt lat="43.1636156" lon="10.5748547"><ele>30.0</ele><time>2026-04-03T12:38:51.203Z</time></trkpt><trkpt lat="43.1635572" lon="10.5749421"><ele>30.0</ele><time>2026-04-03T12:38:53.207Z</time></trkpt><trkpt lat="43.1634941" lon="10.5750312"><ele>30.0</ele><time>2026-04-03T12:38:55.202Z</time></trkpt><trkpt lat="43.1634357" lon="10.5751168"><ele>30.0</ele><time>2026-04-03T12:38:57.201Z</time></trkpt><trkpt lat="43.1633797" lon="10.5751971"><ele>30.0</ele><time>2026-04-03T12:38:59.206Z</time></trkpt><trkpt lat="43.1633211" lon="10.5752857"><ele>30.0</ele><time>2026-04-03T12:39:01.203Z</time></trkpt><trkpt lat="43.1632712" lon="10.575376"><ele>30.0</ele><time>2026-04-03T12:39:03.206Z</time></trkpt><trkpt lat="43.1632033" lon="10.5754523"><ele>30.166666666666668</ele><time>2026-04-03T12:39:05.2Z</time></trkpt><trkpt lat="43.163138" lon="10.5755283"><ele>30.333333333333336</ele><time>2026-04-03T12:39:07.205Z</time></trkpt><trkpt lat="43.1630805" lon="10.5756135"><ele>30.5</ele><time>2026-04-03T12:39:09.205Z</time></trkpt><trkpt lat="43.1630188" lon="10.5756977"><ele>30.666666666666668</ele><time>2026-04-03T12:39:11.203Z</time></trkpt><trkpt lat="43.1629576" lon="10.5757906"><ele>30.833333333333336</ele><time>2026-04-03T12:39:13.205Z</time></trkpt><trkpt lat="43.1628985" lon="10.5758883"><ele>31.0</ele><time>2026-04-03T12:39:15.207Z</time></trkpt><trkpt lat="43.1628374" lon="10.5759872"><ele>31.000000000000004</ele><time>2026-04-03T12:39:17.203Z</time></trkpt><trkpt lat="43.1627831" lon="10.5760711"><ele>31.0</ele><time>2026-04-03T12:39:19.204Z</time></trkpt><trkpt lat="43.1627382" lon="10.5761624"><ele>31.0</ele><time>2026-04-03T12:39:21.202Z</time></trkpt><trkpt lat="43.1626814" lon="10.5762447"><ele>31.0</ele><time>2026-04-03T12:39:24.199Z</time></trkpt><trkpt lat="43.1625961" lon="10.5763239"><ele>31.000000000000004</ele><time>2026-04-03T12:39:27.201Z</time></trkpt><trkpt lat="43.1625289" lon="10.5764051"><ele>31.0</ele><time>2026-04-03T12:39:29.209Z</time></trkpt><trkpt lat="43.162468" lon="10.5764864"><ele>31.000000000000004</ele><time>2026-04-03T12:39:31.227Z</time></trkpt><trkpt lat="43.1624092" lon="10.5765685"><ele>31.0</ele><time>2026-04-03T12:39:33.202Z</time></trkpt><trkpt lat="43.1623531" lon="10.5766484"><ele>31.0</ele><time>2026-04-03T12:39:35.202Z</time></trkpt><trkpt lat="43.1622892" lon="10.5767213"><ele>31.0</ele><time>2026-04-03T12:39:37.206Z</time></trkpt><trkpt lat="43.1622241" lon="10.5767979"><ele>31.000000000000004</ele><time>2026-04-03T12:39:39.204Z</time></trkpt><trkpt lat="43.1621573" lon="10.5768828"><ele>31.0</ele><time>2026-04-03T12:39:41.204Z</time></trkpt><trkpt lat="43.1620946" lon="10.5769687"><ele>31.200000000000003</ele><time>2026-04-03T12:39:43.204Z</time></trkpt><trkpt lat="43.1620307" lon="10.5770507"><ele>31.400000000000002</ele><time>2026-04-03T12:39:45.207Z</time></trkpt><trkpt lat="43.1619619" lon="10.5771337"><ele>31.6</ele><time>2026-04-03T12:39:47.203Z</time></trkpt><trkpt lat="43.1618883" lon="10.5772174"><ele>31.8</ele><time>2026-04-03T12:39:49.2Z</time></trkpt><trkpt lat="43.1618202" lon="10.5773059"><ele>32.0</ele><time>2026-04-03T12:39:51.204Z</time></trkpt><trkpt lat="43.1617466" lon="10.577401"><ele>32.0</ele><time>2026-04-03T12:39:53.206Z</time></trkpt><trkpt lat="43.1616824" lon="10.5774995"><ele>32.0</ele><time>2026-04-03T12:39:55.202Z</time></trkpt><trkpt lat="43.1616207" lon="10.5775896"><ele>32.0</ele><time>2026-04-03T12:39:57.204Z</time></trkpt><trkpt lat="43.161562" lon="10.577682"><ele>32.0</ele><time>2026-04-03T12:39:59.205Z</time></trkpt><trkpt lat="43.1614946" lon="10.5777665"><ele>32.0</ele><time>2026-04-03T12:40:01.202Z</time></trkpt><trkpt lat="43.1614313" lon="10.5778595"><ele>32.0</ele><time>2026-04-03T12:40:03.207Z</time></trkpt><trkpt lat="43.1613701" lon="10.5779449"><ele>32.0</ele><time>2026-04-03T12:40:05.193Z</time></trkpt><trkpt lat="43.1613017" lon="10.5780332"><ele>32.0</ele><time>2026-04-03T12:40:07.198Z</time></trkpt><trkpt lat="43.1612362" lon="10.5781179"><ele>32.0</ele><time>2026-04-03T12:40:09.2Z</time></trkpt><trkpt lat="43.1611668" lon="10.5782079"><ele>32.0</ele><time>2026-04-03T12:40:11.201Z</time></trkpt><trkpt lat="43.1610952" lon="10.5782884"><ele>31.999999999999996</ele><time>2026-04-03T12:40:13.203Z</time></trkpt><trkpt lat="43.1610329" lon="10.578371"><ele>32.0</ele><time>2026-04-03T12:40:15.208Z</time></trkpt><trkpt lat="43.1609704" lon="10.5784663"><ele>32.0</ele><time>2026-04-03T12:40:17.204Z</time></trkpt><trkpt lat="43.1609147" lon="10.5785519"><ele>32.0</ele><time>2026-04-03T12:40:19.207Z</time></trkpt><trkpt lat="43.1608526" lon="10.5786405"><ele>31.999999999999996</ele><time>2026-04-03T12:40:21.202Z</time></trkpt><trkpt lat="43.1607894" lon="10.5787326"><ele>32.0</ele><time>2026-04-03T12:40:23.203Z</time></trkpt><trkpt lat="43.160726" lon="10.5788312"><ele>32.6</ele><time>2026-04-03T12:40:25.201Z</time></trkpt><trkpt lat="43.1606421" lon="10.5789258"><ele>33.2</ele><time>2026-04-03T12:40:27.205Z</time></trkpt><trkpt lat="43.1605676" lon="10.5790081"><ele>33.8</ele><time>2026-04-03T12:40:29.203Z</time></trkpt><trkpt lat="43.1605015" lon="10.5790897"><ele>34.4</ele><time>2026-04-03T12:40:31.213Z</time></trkpt><trkpt lat="43.160439" lon="10.5791907"><ele>35.0</ele><time>2026-04-03T12:40:33.223Z</time></trkpt><trkpt lat="43.1603777" lon="10.5792802"><ele>35.0</ele><time>2026-04-03T12:40:35.206Z</time></trkpt><trkpt lat="43.1603074" lon="10.5793743"><ele>35.0</ele><time>2026-04-03T12:40:37.204Z</time></trkpt><trkpt lat="43.160237" lon="10.579463"><ele>35.0</ele><time>2026-04-03T12:40:39.205Z</time></trkpt><trkpt lat="43.1601607" lon="10.5795437"><ele>35.0</ele><time>2026-04-03T12:40:41.206Z</time></trkpt><trkpt lat="43.1600908" lon="10.5796192"><ele>35.0</ele><time>2026-04-03T12:40:43.202Z</time></trkpt><trkpt lat="43.1600151" lon="10.5797005"><ele>35.0</ele><time>2026-04-03T12:40:45.208Z</time></trkpt><trkpt lat="43.1599553" lon="10.5797851"><ele>35.0</ele><time>2026-04-03T12:40:47.204Z</time></trkpt><trkpt lat="43.1598955" lon="10.579876"><ele>35.0</ele><time>2026-04-03T12:40:49.208Z</time></trkpt><trkpt lat="43.1598332" lon="10.5799681"><ele>35.0</ele><time>2026-04-03T12:40:51.204Z</time></trkpt><trkpt lat="43.159762" lon="10.5800561"><ele>35.0</ele><time>2026-04-03T12:40:53.198Z</time></trkpt><trkpt lat="43.1596907" lon="10.5801416"><ele>35.0</ele><time>2026-04-03T12:40:55.187Z</time></trkpt><trkpt lat="43.1596394" lon="10.5802324"><ele>35.0</ele><time>2026-04-03T12:40:57.192Z</time></trkpt><trkpt lat="43.1595767" lon="10.5803311"><ele>35.0</ele><time>2026-04-03T12:40:59.192Z</time></trkpt><trkpt lat="43.1595138" lon="10.5804194"><ele>35.0</ele><time>2026-04-03T12:41:01.211Z</time></trkpt><trkpt lat="43.1594423" lon="10.5805082"><ele>35.0</ele><time>2026-04-03T12:41:03.205Z</time></trkpt><trkpt lat="43.159363" lon="10.5805868"><ele>35.0</ele><time>2026-04-03T12:41:05.208Z</time></trkpt><trkpt lat="43.1592909" lon="10.5806822"><ele>35.0</ele><time>2026-04-03T12:41:07.199Z</time></trkpt><trkpt lat="43.1592206" lon="10.580782"><ele>35.0</ele><time>2026-04-03T12:41:09.19Z</time></trkpt><trkpt lat="43.1591589" lon="10.5808733"><ele>35.0</ele><time>2026-04-03T12:41:11.197Z</time></trkpt><trkpt lat="43.1591018" lon="10.5809704"><ele>35.0</ele><time>2026-04-03T12:41:13.193Z</time></trkpt><trkpt lat="43.1590385" lon="10.5810567"><ele>35.0</ele><time>2026-04-03T12:41:15.196Z</time></trkpt><trkpt lat="43.1589719" lon="10.5811397"><ele>35.0</ele><time>2026-04-03T12:41:17.2Z</time></trkpt><trkpt lat="43.1589168" lon="10.5812164"><ele>35.0</ele><time>2026-04-03T12:41:19.193Z</time></trkpt><trkpt lat="43.15885" lon="10.5812854"><ele>35.0</ele><time>2026-04-03T12:41:21.202Z</time></trkpt><trkpt lat="43.1587757" lon="10.5813766"><ele>35.0</ele><time>2026-04-03T12:41:23.205Z</time></trkpt><trkpt lat="43.1586996" lon="10.5814637"><ele>35.2</ele><time>2026-04-03T12:41:25.198Z</time></trkpt><trkpt lat="43.1586335" lon="10.5815582"><ele>35.4</ele><time>2026-04-03T12:41:27.209Z</time></trkpt><trkpt lat="43.1585671" lon="10.5816545"><ele>35.6</ele><time>2026-04-03T12:41:29.208Z</time></trkpt><trkpt lat="43.1584994" lon="10.5817391"><ele>35.8</ele><time>2026-04-03T12:41:31.208Z</time></trkpt><trkpt lat="43.1584283" lon="10.5818244"><ele>36.0</ele><time>2026-04-03T12:41:33.203Z</time></trkpt><trkpt lat="43.1583602" lon="10.581912"><ele>36.0</ele><time>2026-04-03T12:41:35.225Z</time></trkpt><trkpt lat="43.1582907" lon="10.5820011"><ele>36.0</ele><time>2026-04-03T12:41:37.202Z</time></trkpt><trkpt lat="43.1582191" lon="10.5820872"><ele>36.0</ele><time>2026-04-03T12:41:39.203Z</time></trkpt><trkpt lat="43.1581525" lon="10.5821889"><ele>36.0</ele><time>2026-04-03T12:41:41.202Z</time></trkpt><trkpt lat="43.1581019" lon="10.5822782"><ele>36.0</ele><time>2026-04-03T12:41:43.199Z</time></trkpt><trkpt lat="43.1580458" lon="10.5823593"><ele>36.4</ele><time>2026-04-03T12:41:45.195Z</time></trkpt><trkpt lat="43.1579698" lon="10.5824453"><ele>36.8</ele><time>2026-04-03T12:41:47.198Z</time></trkpt><trkpt lat="43.1578903" lon="10.5825453"><ele>37.199999999999996</ele><time>2026-04-03T12:41:49.205Z</time></trkpt><trkpt lat="43.1578218" lon="10.5826289"><ele>37.6</ele><time>2026-04-03T12:41:51.197Z</time></trkpt><trkpt lat="43.1577569" lon="10.5827161"><ele>38.0</ele><time>2026-04-03T12:41:53.201Z</time></trkpt><trkpt lat="43.1576875" lon="10.5828011"><ele>38.0</ele><time>2026-04-03T12:41:55.197Z</time></trkpt><trkpt lat="43.1576142" lon="10.5828988"><ele>38.0</ele><time>2026-04-03T12:41:57.199Z</time></trkpt><trkpt lat="43.1575483" lon="10.5830037"><ele>38.0</ele><time>2026-04-03T12:41:59.197Z</time></trkpt><trkpt lat="43.1574831" lon="10.5830947"><ele>38.0</ele><time>2026-04-03T12:42:01.197Z</time></trkpt><trkpt lat="43.1574093" lon="10.5831853"><ele>38.0</ele><time>2026-04-03T12:42:03.182Z</time></trkpt><trkpt lat="43.1573421" lon="10.5832667"><ele>38.0</ele><time>2026-04-03T12:42:05.185Z</time></trkpt><trkpt lat="43.1572766" lon="10.5833382"><ele>38.0</ele><time>2026-04-03T12:42:07.194Z</time></trkpt><trkpt lat="43.1572047" lon="10.5834216"><ele>38.0</ele><time>2026-04-03T12:42:09.197Z</time></trkpt><trkpt lat="43.157136" lon="10.5835133"><ele>38.0</ele><time>2026-04-03T12:42:11.198Z</time></trkpt><trkpt lat="43.1570662" lon="10.5836019"><ele>38.0</ele><time>2026-04-03T12:42:13.198Z</time></trkpt><trkpt lat="43.1570046" lon="10.5836983"><ele>38.4</ele><time>2026-04-03T12:42:15.202Z</time></trkpt><trkpt lat="43.1569379" lon="10.5837856"><ele>38.8</ele><time>2026-04-03T12:42:17.2Z</time></trkpt><trkpt lat="43.1568851" lon="10.5838784"><ele>39.2</ele><time>2026-04-03T12:42:19.205Z</time></trkpt><trkpt lat="43.1568218" lon="10.5839716"><ele>39.6</ele><time>2026-04-03T12:42:21.203Z</time></trkpt><trkpt lat="43.1567669" lon="10.5840684"><ele>40.0</ele><time>2026-04-03T12:42:23.206Z</time></trkpt><trkpt lat="43.1567092" lon="10.5841674"><ele>40.0</ele><time>2026-04-03T12:42:25.207Z</time></trkpt><trkpt lat="43.1566403" lon="10.5842487"><ele>40.0</ele><time>2026-04-03T12:42:27.206Z</time></trkpt><trkpt lat="43.156566" lon="10.5843315"><ele>40.0</ele><time>2026-04-03T12:42:29.207Z</time></trkpt><trkpt lat="43.1564852" lon="10.5844156"><ele>40.0</ele><time>2026-04-03T12:42:31.209Z</time></trkpt><trkpt lat="43.1564093" lon="10.5845065"><ele>40.0</ele><time>2026-04-03T12:42:33.205Z</time></trkpt><trkpt lat="43.1563344" lon="10.5845959"><ele>40.2</ele><time>2026-04-03T12:42:35.21Z</time></trkpt><trkpt lat="43.1562665" lon="10.5846815"><ele>40.4</ele><time>2026-04-03T12:42:37.227Z</time></trkpt><trkpt lat="43.1562018" lon="10.5847679"><ele>40.599999999999994</ele><time>2026-04-03T12:42:39.203Z</time></trkpt><trkpt lat="43.1561374" lon="10.5848537"><ele>40.8</ele><time>2026-04-03T12:42:41.198Z</time></trkpt><trkpt lat="43.1560681" lon="10.5849393"><ele>41.0</ele><time>2026-04-03T12:42:43.202Z</time></trkpt><trkpt lat="43.1560074" lon="10.5850306"><ele>41.0</ele><time>2026-04-03T12:42:45.203Z</time></trkpt><trkpt lat="43.1559467" lon="10.5851034"><ele>41.0</ele><time>2026-04-03T12:42:47.197Z</time></trkpt><trkpt lat="43.1558866" lon="10.5851868"><ele>41.0</ele><time>2026-04-03T12:42:49.203Z</time></trkpt><trkpt lat="43.155819" lon="10.5852752"><ele>41.0</ele><time>2026-04-03T12:42:51.201Z</time></trkpt><trkpt lat="43.155748" lon="10.5853736"><ele>41.0</ele><time>2026-04-03T12:42:53.205Z</time></trkpt><trkpt lat="43.155678" lon="10.5854653"><ele>41.166666666666664</ele><time>2026-04-03T12:42:55.211Z</time></trkpt><trkpt lat="43.1556139" lon="10.5855584"><ele>41.33333333333333</ele><time>2026-04-03T12:42:57.204Z</time></trkpt><trkpt lat="43.1555506" lon="10.5856478"><ele>41.5</ele><time>2026-04-03T12:42:59.211Z</time></trkpt><trkpt lat="43.1554869" lon="10.5857327"><ele>41.666666666666664</ele><time>2026-04-03T12:43:01.212Z</time></trkpt><trkpt lat="43.1554233" lon="10.5858044"><ele>41.833333333333336</ele><time>2026-04-03T12:43:03.206Z</time></trkpt><trkpt lat="43.1553652" lon="10.5858578"><ele>42.0</ele><time>2026-04-03T12:43:05.195Z</time></trkpt><trkpt lat="43.1553051" lon="10.5859109"><ele>42.0</ele><time>2026-04-03T12:43:08.217Z</time></trkpt><trkpt lat="43.1553078" lon="10.5860119"><ele>42.0</ele><time>2026-04-03T12:43:10.198Z</time></trkpt><trkpt lat="43.1553334" lon="10.5861263"><ele>42.0</ele><time>2026-04-03T12:43:12.199Z</time></trkpt><trkpt lat="43.1553624" lon="10.5862498"><ele>42.0</ele><time>2026-04-03T12:43:14.208Z</time></trkpt><trkpt lat="43.1553934" lon="10.5863601"><ele>42.0</ele><time>2026-04-03T12:43:16.197Z</time></trkpt><trkpt lat="43.155428" lon="10.5864708"><ele>42.0</ele><time>2026-04-03T12:43:18.202Z</time></trkpt><trkpt lat="43.1554617" lon="10.5865821"><ele>42.166666666666664</ele><time>2026-04-03T12:43:20.208Z</time></trkpt><trkpt lat="43.1554876" lon="10.5866896"><ele>42.333333333333336</ele><time>2026-04-03T12:43:22.203Z</time></trkpt><trkpt lat="43.1555077" lon="10.5868028"><ele>42.5</ele><time>2026-04-03T12:43:24.201Z</time></trkpt><trkpt lat="43.1555312" lon="10.5869081"><ele>42.66666666666667</ele><time>2026-04-03T12:43:26.205Z</time></trkpt><trkpt lat="43.1555581" lon="10.5870202"><ele>42.833333333333336</ele><time>2026-04-03T12:43:28.208Z</time></trkpt><trkpt lat="43.1555812" lon="10.5871295"><ele>43.0</ele><time>2026-04-03T12:43:30.206Z</time></trkpt><trkpt lat="43.1556026" lon="10.5872324"><ele>43.0</ele><time>2026-04-03T12:43:32.209Z</time></trkpt><trkpt lat="43.1556197" lon="10.5873367"><ele>43.0</ele><time>2026-04-03T12:43:34.205Z</time></trkpt><trkpt lat="43.1556402" lon="10.5874424"><ele>43.0</ele><time>2026-04-03T12:43:36.209Z</time></trkpt><trkpt lat="43.1556686" lon="10.5875442"><ele>43.0</ele><time>2026-04-03T12:43:38.205Z</time></trkpt><trkpt lat="43.1556907" lon="10.5876508"><ele>43.0</ele><time>2026-04-03T12:43:40.202Z</time></trkpt><trkpt lat="43.1557128" lon="10.5877641"><ele>43.0</ele><time>2026-04-03T12:43:42.205Z</time></trkpt><trkpt lat="43.155742" lon="10.5878772"><ele>43.5</ele><time>2026-04-03T12:43:44.203Z</time></trkpt><trkpt lat="43.1557672" lon="10.5879846"><ele>44.0</ele><time>2026-04-03T12:43:46.206Z</time></trkpt><trkpt lat="43.155799" lon="10.5880913"><ele>44.5</ele><time>2026-04-03T12:43:48.202Z</time></trkpt><trkpt lat="43.1558267" lon="10.5881915"><ele>45.0</ele><time>2026-04-03T12:43:50.204Z</time></trkpt><trkpt lat="43.1558501" lon="10.5882919"><ele>45.5</ele><time>2026-04-03T12:43:52.206Z</time></trkpt><trkpt lat="43.1558726" lon="10.5883909"><ele>46.0</ele><time>2026-04-03T12:43:54.202Z</time></trkpt><trkpt lat="43.1558965" lon="10.5884941"><ele>46.0</ele><time>2026-04-03T12:43:56.204Z</time></trkpt><trkpt lat="43.1559221" lon="10.5886052"><ele>46.0</ele><time>2026-04-03T12:43:58.206Z</time></trkpt><trkpt lat="43.1559378" lon="10.5887127"><ele>46.0</ele><time>2026-04-03T12:44:00.207Z</time></trkpt><trkpt lat="43.155959" lon="10.5888207"><ele>46.0</ele><time>2026-04-03T12:44:02.207Z</time></trkpt><trkpt lat="43.1559857" lon="10.5889262"><ele>46.0</ele><time>2026-04-03T12:44:04.208Z</time></trkpt><trkpt lat="43.1560142" lon="10.5890359"><ele>46.0</ele><time>2026-04-03T12:44:06.208Z</time></trkpt><trkpt lat="43.1560381" lon="10.5891446"><ele>45.833333333333336</ele><time>2026-04-03T12:44:08.212Z</time></trkpt><trkpt lat="43.1560705" lon="10.5892612"><ele>45.66666666666667</ele><time>2026-04-03T12:44:10.227Z</time></trkpt><trkpt lat="43.1560907" lon="10.5893766"><ele>45.5</ele><time>2026-04-03T12:44:12.204Z</time></trkpt><trkpt lat="43.1561156" lon="10.58949"><ele>45.333333333333336</ele><time>2026-04-03T12:44:14.208Z</time></trkpt><trkpt lat="43.1561486" lon="10.5896006"><ele>45.166666666666664</ele><time>2026-04-03T12:44:16.209Z</time></trkpt><trkpt lat="43.1561719" lon="10.5897086"><ele>45.0</ele><time>2026-04-03T12:44:18.204Z</time></trkpt><trkpt lat="43.156188" lon="10.5898202"><ele>44.833333333333336</ele><time>2026-04-03T12:44:20.204Z</time></trkpt><trkpt lat="43.15621" lon="10.5899249"><ele>44.666666666666664</ele><time>2026-04-03T12:44:22.204Z</time></trkpt><trkpt lat="43.1562402" lon="10.5900272"><ele>44.5</ele><time>2026-04-03T12:44:24.21Z</time></trkpt><trkpt lat="43.1562711" lon="10.5901283"><ele>44.33333333333333</ele><time>2026-04-03T12:44:26.208Z</time></trkpt><trkpt lat="43.1562895" lon="10.5902246"><ele>44.166666666666664</ele><time>2026-04-03T12:44:28.213Z</time></trkpt><trkpt lat="43.1563132" lon="10.5903215"><ele>44.0</ele><time>2026-04-03T12:44:30.203Z</time></trkpt><trkpt lat="43.1563358" lon="10.5904272"><ele>45.0</ele><time>2026-04-03T12:44:32.201Z</time></trkpt><trkpt lat="43.1563659" lon="10.5905332"><ele>46.0</ele><time>2026-04-03T12:44:34.203Z</time></trkpt><trkpt lat="43.1563986" lon="10.590645"><ele>47.0</ele><time>2026-04-03T12:44:36.199Z</time></trkpt><trkpt lat="43.1564257" lon="10.5907517"><ele>48.0</ele><time>2026-04-03T12:44:38.201Z</time></trkpt><trkpt lat="43.1564522" lon="10.590859"><ele>49.00000000000001</ele><time>2026-04-03T12:44:40.205Z</time></trkpt><trkpt lat="43.1564752" lon="10.5909678"><ele>50.0</ele><time>2026-04-03T12:44:42.197Z</time></trkpt><trkpt lat="43.1564898" lon="10.5910848"><ele>50.16666666666667</ele><time>2026-04-03T12:44:44.202Z</time></trkpt><trkpt lat="43.156521" lon="10.5911999"><ele>50.333333333333336</ele><time>2026-04-03T12:44:46.197Z</time></trkpt><trkpt lat="43.1565571" lon="10.5913065"><ele>50.5</ele><time>2026-04-03T12:44:48.187Z</time></trkpt><trkpt lat="43.156568" lon="10.5914224"><ele>50.66666666666667</ele><time>2026-04-03T12:44:50.189Z</time></trkpt><trkpt lat="43.1565999" lon="10.591521"><ele>50.833333333333336</ele><time>2026-04-03T12:44:52.187Z</time></trkpt><trkpt lat="43.1566188" lon="10.5916206"><ele>51.0</ele><time>2026-04-03T12:44:54.197Z</time></trkpt><trkpt lat="43.1566316" lon="10.591719"><ele>51.0</ele><time>2026-04-03T12:44:56.198Z</time></trkpt><trkpt lat="43.1566517" lon="10.5918234"><ele>51.0</ele><time>2026-04-03T12:44:58.201Z</time></trkpt><trkpt lat="43.1566761" lon="10.591917"><ele>51.0</ele><time>2026-04-03T12:45:00.199Z</time></trkpt><trkpt lat="43.1566997" lon="10.5920052"><ele>51.0</ele><time>2026-04-03T12:45:02.2Z</time></trkpt><trkpt lat="43.156725" lon="10.5921054"><ele>51.0</ele><time>2026-04-03T12:45:04.206Z</time></trkpt><trkpt lat="43.1567614" lon="10.5922035"><ele>51.0</ele><time>2026-04-03T12:45:06.205Z</time></trkpt><trkpt lat="43.1567975" lon="10.5922949"><ele>51.142857142857146</ele><time>2026-04-03T12:45:08.207Z</time></trkpt><trkpt lat="43.1568365" lon="10.5923874"><ele>51.28571428571429</ele><time>2026-04-03T12:45:10.204Z</time></trkpt><trkpt lat="43.156866" lon="10.5924754"><ele>51.42857142857143</ele><time>2026-04-03T12:45:12.225Z</time></trkpt><trkpt lat="43.1568951" lon="10.5925681"><ele>51.57142857142857</ele><time>2026-04-03T12:45:14.211Z</time></trkpt><trkpt lat="43.1569277" lon="10.5926517"><ele>51.714285714285715</ele><time>2026-04-03T12:45:16.196Z</time></trkpt><trkpt lat="43.1569536" lon="10.5927333"><ele>51.857142857142854</ele><time>2026-04-03T12:45:18.206Z</time></trkpt><trkpt lat="43.1569929" lon="10.5928236"><ele>52.0</ele><time>2026-04-03T12:45:20.205Z</time></trkpt><trkpt lat="43.157033" lon="10.5929117"><ele>52.42857142857142</ele><time>2026-04-03T12:45:22.208Z</time></trkpt><trkpt lat="43.1570608" lon="10.5930035"><ele>52.85714285714286</ele><time>2026-04-03T12:45:24.208Z</time></trkpt><trkpt lat="43.157101" lon="10.5931002"><ele>53.285714285714285</ele><time>2026-04-03T12:45:26.208Z</time></trkpt><trkpt lat="43.1571374" lon="10.5931885"><ele>53.71428571428571</ele><time>2026-04-03T12:45:28.212Z</time></trkpt><trkpt lat="43.1571686" lon="10.593285"><ele>54.14285714285714</ele><time>2026-04-03T12:45:30.204Z</time></trkpt><trkpt lat="43.157205" lon="10.5933728"><ele>54.57142857142857</ele><time>2026-04-03T12:45:32.207Z</time></trkpt><trkpt lat="43.1572426" lon="10.5934556"><ele>55.0</ele><time>2026-04-03T12:45:34.206Z</time></trkpt><trkpt lat="43.1572739" lon="10.5935306"><ele>54.99999999999999</ele><time>2026-04-03T12:45:36.206Z</time></trkpt><trkpt lat="43.1573017" lon="10.5936141"><ele>55.0</ele><time>2026-04-03T12:45:38.205Z</time></trkpt><trkpt lat="43.1573347" lon="10.593695"><ele>55.0</ele><time>2026-04-03T12:45:40.207Z</time></trkpt><trkpt lat="43.1573717" lon="10.5937764"><ele>55.0</ele><time>2026-04-03T12:45:42.211Z</time></trkpt><trkpt lat="43.1574061" lon="10.5938679"><ele>55.0</ele><time>2026-04-03T12:45:44.207Z</time></trkpt><trkpt lat="43.1574376" lon="10.593952"><ele>54.99999999999999</ele><time>2026-04-03T12:45:46.211Z</time></trkpt><trkpt lat="43.157468" lon="10.5940399"><ele>55.0</ele><time>2026-04-03T12:45:48.206Z</time></trkpt><trkpt lat="43.1574997" lon="10.5941268"><ele>55.14285714285714</ele><time>2026-04-03T12:45:50.206Z</time></trkpt><trkpt lat="43.1575324" lon="10.5942116"><ele>55.285714285714285</ele><time>2026-04-03T12:45:52.205Z</time></trkpt><trkpt lat="43.1575612" lon="10.5943037"><ele>55.42857142857143</ele><time>2026-04-03T12:45:54.206Z</time></trkpt><trkpt lat="43.1575979" lon="10.5943888"><ele>55.57142857142857</ele><time>2026-04-03T12:45:56.201Z</time></trkpt><trkpt lat="43.1576373" lon="10.5944642"><ele>55.714285714285715</ele><time>2026-04-03T12:45:58.206Z</time></trkpt><trkpt lat="43.1576686" lon="10.5945437"><ele>55.857142857142854</ele><time>2026-04-03T12:46:00.198Z</time></trkpt><trkpt lat="43.1576904" lon="10.5946345"><ele>56.0</ele><time>2026-04-03T12:46:02.199Z</time></trkpt><trkpt lat="43.1577253" lon="10.59472"><ele>56.333333333333336</ele><time>2026-04-03T12:46:04.199Z</time></trkpt><trkpt lat="43.1577509" lon="10.5948089"><ele>56.66666666666667</ele><time>2026-04-03T12:46:06.2Z</time></trkpt><trkpt lat="43.1577569" lon="10.594936"><ele>57.0</ele><time>2026-04-03T12:46:09.192Z</time></trkpt><trkpt lat="43.1577651" lon="10.5950314"><ele>57.33333333333333</ele><time>2026-04-03T12:46:11.191Z</time></trkpt><trkpt lat="43.1577715" lon="10.5951246"><ele>57.666666666666664</ele><time>2026-04-03T12:46:13.194Z</time></trkpt><trkpt lat="43.1577906" lon="10.5952224"><ele>58.0</ele><time>2026-04-03T12:46:15.191Z</time></trkpt><trkpt lat="43.1578155" lon="10.595322"><ele>58.33333333333333</ele><time>2026-04-03T12:46:17.19Z</time></trkpt><trkpt lat="43.1578435" lon="10.5954175"><ele>58.666666666666664</ele><time>2026-04-03T12:46:19.184Z</time></trkpt><trkpt lat="43.1578795" lon="10.5955134"><ele>59.0</ele><time>2026-04-03T12:46:21.18Z</time></trkpt><trkpt lat="43.1579138" lon="10.5956095"><ele>59.33333333333333</ele><time>2026-04-03T12:46:23.181Z</time></trkpt><trkpt lat="43.1579632" lon="10.5956988"><ele>59.666666666666664</ele><time>2026-04-03T12:46:25.178Z</time></trkpt><trkpt lat="43.1580165" lon="10.5957792"><ele>60.0</ele><time>2026-04-03T12:46:27.185Z</time></trkpt><trkpt lat="43.1580512" lon="10.5958899"><ele>60.0</ele><time>2026-04-03T12:46:29.19Z</time></trkpt><trkpt lat="43.1580983" lon="10.5959889"><ele>60.0</ele><time>2026-04-03T12:46:31.189Z</time></trkpt><trkpt lat="43.1581378" lon="10.5960849"><ele>60.0</ele><time>2026-04-03T12:46:33.203Z</time></trkpt><trkpt lat="43.1581829" lon="10.5961797"><ele>60.0</ele><time>2026-04-03T12:46:35.202Z</time></trkpt><trkpt lat="43.1582386" lon="10.5962768"><ele>60.0</ele><time>2026-04-03T12:46:37.205Z</time></trkpt><trkpt lat="43.1583054" lon="10.5963684"><ele>60.0</ele><time>2026-04-03T12:46:39.204Z</time></trkpt><trkpt lat="43.1583671" lon="10.5964605"><ele>59.333333333333336</ele><time>2026-04-03T12:46:41.201Z</time></trkpt><trkpt lat="43.1584314" lon="10.5965469"><ele>58.66666666666667</ele><time>2026-04-03T12:46:43.201Z</time></trkpt><trkpt lat="43.1584953" lon="10.5966219"><ele>58.0</ele><time>2026-04-03T12:46:45.2Z</time></trkpt><trkpt lat="43.1585539" lon="10.5966976"><ele>57.333333333333336</ele><time>2026-04-03T12:46:47.2Z</time></trkpt><trkpt lat="43.1586119" lon="10.596767"><ele>56.66666666666667</ele><time>2026-04-03T12:46:49.197Z</time></trkpt><trkpt lat="43.1586674" lon="10.5968435"><ele>56.0</ele><time>2026-04-03T12:46:51.196Z</time></trkpt><trkpt lat="43.1587215" lon="10.5969291"><ele>56.16666666666667</ele><time>2026-04-03T12:46:53.202Z</time></trkpt><trkpt lat="43.1587814" lon="10.5970028"><ele>56.333333333333336</ele><time>2026-04-03T12:46:55.205Z</time></trkpt><trkpt lat="43.1588464" lon="10.5970644"><ele>56.5</ele><time>2026-04-03T12:46:57.212Z</time></trkpt><trkpt lat="43.1589085" lon="10.5971357"><ele>56.66666666666667</ele><time>2026-04-03T12:46:59.212Z</time></trkpt><trkpt lat="43.1589766" lon="10.5971972"><ele>56.833333333333336</ele><time>2026-04-03T12:47:01.213Z</time></trkpt><trkpt lat="43.1590402" lon="10.5972624"><ele>57.0</ele><time>2026-04-03T12:47:03.209Z</time></trkpt><trkpt lat="43.1591096" lon="10.5973146"><ele>57.0</ele><time>2026-04-03T12:47:05.211Z</time></trkpt><trkpt lat="43.159193" lon="10.597356"><ele>57.0</ele><time>2026-04-03T12:47:07.213Z</time></trkpt><trkpt lat="43.1592746" lon="10.5973889"><ele>57.0</ele><time>2026-04-03T12:47:09.211Z</time></trkpt><trkpt lat="43.159356" lon="10.5974199"><ele>57.0</ele><time>2026-04-03T12:47:11.209Z</time></trkpt><trkpt lat="43.1594421" lon="10.5974386"><ele>57.0</ele><time>2026-04-03T12:47:13.204Z</time></trkpt><trkpt lat="43.1595287" lon="10.5974601"><ele>57.0</ele><time>2026-04-03T12:47:15.231Z</time></trkpt><trkpt lat="43.1596201" lon="10.5974769"><ele>57.0</ele><time>2026-04-03T12:47:17.214Z</time></trkpt><trkpt lat="43.1597105" lon="10.5974985"><ele>57.0</ele><time>2026-04-03T12:47:19.222Z</time></trkpt><trkpt lat="43.1597915" lon="10.5975173"><ele>57.0</ele><time>2026-04-03T12:47:21.205Z</time></trkpt><trkpt lat="43.1598682" lon="10.59754"><ele>57.0</ele><time>2026-04-03T12:47:23.213Z</time></trkpt><trkpt lat="43.1599288" lon="10.5975961"><ele>57.0</ele><time>2026-04-03T12:47:25.212Z</time></trkpt><trkpt lat="43.1599838" lon="10.5976659"><ele>57.0</ele><time>2026-04-03T12:47:27.202Z</time></trkpt><trkpt lat="43.1600055" lon="10.5977506"><ele>57.0</ele><time>2026-04-03T12:47:29.199Z</time></trkpt><trkpt lat="43.1600124" lon="10.5978462"><ele>56.99999999999999</ele><time>2026-04-03T12:47:31.194Z</time></trkpt><trkpt lat="43.1600141" lon="10.5979413"><ele>57.0</ele><time>2026-04-03T12:47:33.201Z</time></trkpt><trkpt lat="43.1600124" lon="10.5980484"><ele>57.0</ele><time>2026-04-03T12:47:35.203Z</time></trkpt><trkpt lat="43.1600012" lon="10.5981479"><ele>56.99999999999999</ele><time>2026-04-03T12:47:37.205Z</time></trkpt><trkpt lat="43.1599969" lon="10.5982453"><ele>57.0</ele><time>2026-04-03T12:47:39.204Z</time></trkpt><trkpt lat="43.1599928" lon="10.5983423"><ele>57.0</ele><time>2026-04-03T12:47:41.201Z</time></trkpt><trkpt lat="43.1599822" lon="10.598442"><ele>57.0</ele><time>2026-04-03T12:47:43.192Z</time></trkpt><trkpt lat="43.1599596" lon="10.5985317"><ele>56.99999999999999</ele><time>2026-04-03T12:47:45.2Z</time></trkpt><trkpt lat="43.1599454" lon="10.59862"><ele>57.0</ele><time>2026-04-03T12:47:47.202Z</time></trkpt><trkpt lat="43.1599344" lon="10.5987123"><ele>57.0</ele><time>2026-04-03T12:47:49.205Z</time></trkpt><trkpt lat="43.159919" lon="10.5988114"><ele>56.99999999999999</ele><time>2026-04-03T12:47:51.197Z</time></trkpt><trkpt lat="43.1599111" lon="10.5989108"><ele>57.0</ele><time>2026-04-03T12:47:53.201Z</time></trkpt><trkpt lat="43.159901" lon="10.5990124"><ele>57.0</ele><time>2026-04-03T12:47:55.2Z</time></trkpt><trkpt lat="43.1598954" lon="10.5991073"><ele>57.0</ele><time>2026-04-03T12:47:57.2Z</time></trkpt><trkpt lat="43.1598847" lon="10.5992057"><ele>56.99999999999999</ele><time>2026-04-03T12:47:59.195Z</time></trkpt><trkpt lat="43.1598784" lon="10.5993056"><ele>57.0</ele><time>2026-04-03T12:48:01.198Z</time></trkpt><trkpt lat="43.1598801" lon="10.5994034"><ele>57.0</ele><time>2026-04-03T12:48:03.2Z</time></trkpt><trkpt lat="43.1598799" lon="10.5995005"><ele>56.99999999999999</ele><time>2026-04-03T12:48:05.202Z</time></trkpt><trkpt lat="43.1598814" lon="10.5995982"><ele>57.0</ele><time>2026-04-03T12:48:07.205Z</time></trkpt><trkpt lat="43.1598799" lon="10.5996905"><ele>57.0</ele><time>2026-04-03T12:48:09.205Z</time></trkpt><trkpt lat="43.1598713" lon="10.5997916"><ele>57.71428571428571</ele><time>2026-04-03T12:48:11.202Z</time></trkpt><trkpt lat="43.1598597" lon="10.59989"><ele>58.42857142857142</ele><time>2026-04-03T12:48:13.202Z</time></trkpt><trkpt lat="43.1598605" lon="10.5999887"><ele>59.14285714285714</ele><time>2026-04-03T12:48:15.203Z</time></trkpt><trkpt lat="43.1598735" lon="10.6000854"><ele>59.85714285714286</ele><time>2026-04-03T12:48:17.217Z</time></trkpt><trkpt lat="43.1598932" lon="10.600179"><ele>60.57142857142858</ele><time>2026-04-03T12:48:19.206Z</time></trkpt><trkpt lat="43.1599322" lon="10.6002694"><ele>61.28571428571429</ele><time>2026-04-03T12:48:21.201Z</time></trkpt><trkpt lat="43.1599729" lon="10.6003447"><ele>62.0</ele><time>2026-04-03T12:48:23.201Z</time></trkpt><trkpt lat="43.1600291" lon="10.6003967"><ele>63.28571428571429</ele><time>2026-04-03T12:48:25.203Z</time></trkpt><trkpt lat="43.1600842" lon="10.6004478"><ele>64.57142857142858</ele><time>2026-04-03T12:48:27.19Z</time></trkpt><trkpt lat="43.1601473" lon="10.6004936"><ele>65.85714285714286</ele><time>2026-04-03T12:48:29.192Z</time></trkpt><trkpt lat="43.1602075" lon="10.6005269"><ele>67.14285714285714</ele><time>2026-04-03T12:48:31.191Z</time></trkpt><trkpt lat="43.1602833" lon="10.6005764"><ele>68.42857142857142</ele><time>2026-04-03T12:48:33.198Z</time></trkpt><trkpt lat="43.1603664" lon="10.6006236"><ele>69.71428571428571</ele><time>2026-04-03T12:48:36.186Z</time></trkpt><trkpt lat="43.1604273" lon="10.6006637"><ele>71.0</ele><time>2026-04-03T12:48:38.189Z</time></trkpt><trkpt lat="43.1604864" lon="10.6007017"><ele>71.0</ele><time>2026-04-03T12:48:40.197Z</time></trkpt><trkpt lat="43.1605503" lon="10.6007691"><ele>71.0</ele><time>2026-04-03T12:48:42.198Z</time></trkpt><trkpt lat="43.1606084" lon="10.6008341"><ele>71.0</ele><time>2026-04-03T12:48:44.198Z</time></trkpt><trkpt lat="43.1606699" lon="10.6008945"><ele>71.0</ele><time>2026-04-03T12:48:46.2Z</time></trkpt><trkpt lat="43.1607301" lon="10.6009575"><ele>71.0</ele><time>2026-04-03T12:48:48.217Z</time></trkpt><trkpt lat="43.1608073" lon="10.6010019"><ele>71.0</ele><time>2026-04-03T12:48:50.197Z</time></trkpt><trkpt lat="43.1608658" lon="10.6010518"><ele>71.39999999999999</ele><time>2026-04-03T12:48:52.184Z</time></trkpt><trkpt lat="43.1609412" lon="10.6010947"><ele>71.8</ele><time>2026-04-03T12:48:54.195Z</time></trkpt><trkpt lat="43.1610171" lon="10.6011404"><ele>72.19999999999999</ele><time>2026-04-03T12:48:56.19Z</time></trkpt><trkpt lat="43.1610993" lon="10.6011812"><ele>72.6</ele><time>2026-04-03T12:48:58.2Z</time></trkpt><trkpt lat="43.1611884" lon="10.6012348"><ele>73.0</ele><time>2026-04-03T12:49:00.204Z</time></trkpt><trkpt lat="43.1612939" lon="10.6012842"><ele>73.0</ele><time>2026-04-03T12:49:02.199Z</time></trkpt><trkpt lat="43.1614008" lon="10.601334"><ele>73.0</ele><time>2026-04-03T12:49:04.202Z</time></trkpt><trkpt lat="43.1615085" lon="10.6013865"><ele>73.0</ele><time>2026-04-03T12:49:06.204Z</time></trkpt><trkpt lat="43.161596" lon="10.6014396"><ele>73.0</ele><time>2026-04-03T12:49:08.211Z</time></trkpt><trkpt lat="43.1616785" lon="10.6014877"><ele>73.0</ele><time>2026-04-03T12:49:10.206Z</time></trkpt><trkpt lat="43.1617656" lon="10.6015373"><ele>72.0</ele><time>2026-04-03T12:49:12.209Z</time></trkpt><trkpt lat="43.1618528" lon="10.6015934"><ele>71.0</ele><time>2026-04-03T12:49:14.201Z</time></trkpt><trkpt lat="43.1619384" lon="10.6016431"><ele>70.0</ele><time>2026-04-03T12:49:16.198Z</time></trkpt><trkpt lat="43.1620229" lon="10.6016821"><ele>69.0</ele><time>2026-04-03T12:49:18.196Z</time></trkpt><trkpt lat="43.1621027" lon="10.6017161"><ele>68.0</ele><time>2026-04-03T12:49:20.205Z</time></trkpt><trkpt lat="43.1621782" lon="10.6017517"><ele>67.0</ele><time>2026-04-03T12:49:22.206Z</time></trkpt><trkpt lat="43.1622433" lon="10.6017829"><ele>67.0</ele><time>2026-04-03T12:49:24.203Z</time></trkpt><trkpt lat="43.1623135" lon="10.6018077"><ele>67.0</ele><time>2026-04-03T12:49:26.199Z</time></trkpt><trkpt lat="43.1623834" lon="10.6018358"><ele>67.0</ele><time>2026-04-03T12:49:28.195Z</time></trkpt><trkpt lat="43.1624348" lon="10.6019005"><ele>67.0</ele><time>2026-04-03T12:49:30.182Z</time></trkpt><trkpt lat="43.1625041" lon="10.6019458"><ele>67.0</ele><time>2026-04-03T12:49:32.195Z</time></trkpt><trkpt lat="43.1625897" lon="10.6019151"><ele>67.0</ele><time>2026-04-03T12:49:34.18Z</time></trkpt><trkpt lat="43.1626755" lon="10.6018732"><ele>67.14285714285714</ele><time>2026-04-03T12:49:36.185Z</time></trkpt><trkpt lat="43.1627397" lon="10.6018786"><ele>67.28571428571428</ele><time>2026-04-03T12:49:38.197Z</time></trkpt><trkpt lat="43.162835" lon="10.6018922"><ele>67.42857142857142</ele><time>2026-04-03T12:49:41.203Z</time></trkpt><trkpt lat="43.1629056" lon="10.6018892"><ele>67.57142857142857</ele><time>2026-04-03T12:49:43.199Z</time></trkpt><trkpt lat="43.1629702" lon="10.6018958"><ele>67.71428571428571</ele><time>2026-04-03T12:49:45.208Z</time></trkpt><trkpt lat="43.1630343" lon="10.6018924"><ele>67.85714285714285</ele><time>2026-04-03T12:49:47.199Z</time></trkpt><trkpt lat="43.1631091" lon="10.6018728"><ele>68.0</ele><time>2026-04-03T12:49:49.201Z</time></trkpt><trkpt lat="43.1631769" lon="10.6018576"><ele>68.16666666666667</ele><time>2026-04-03T12:49:51.201Z</time></trkpt><trkpt lat="43.163258" lon="10.6018717"><ele>68.33333333333334</ele><time>2026-04-03T12:49:54.207Z</time></trkpt><trkpt lat="43.1633402" lon="10.6019083"><ele>68.5</ele><time>2026-04-03T12:49:57.205Z</time></trkpt><trkpt lat="43.163385" lon="10.6019717"><ele>68.66666666666667</ele><time>2026-04-03T12:49:59.199Z</time></trkpt><trkpt lat="43.1634073" lon="10.6020911"><ele>68.83333333333333</ele><time>2026-04-03T12:50:02.197Z</time></trkpt><trkpt lat="43.163356" lon="10.6021797"><ele>69.0</ele><time>2026-04-03T12:50:05.186Z</time></trkpt><trkpt lat="43.1632868" lon="10.6022028"><ele>70.14285714285714</ele><time>2026-04-03T12:50:07.198Z</time></trkpt><trkpt lat="43.1632171" lon="10.6022155"><ele>71.28571428571429</ele><time>2026-04-03T12:50:09.188Z</time></trkpt><trkpt lat="43.1631492" lon="10.602233"><ele>72.42857142857143</ele><time>2026-04-03T12:50:11.181Z</time></trkpt><trkpt lat="43.1630803" lon="10.6022481"><ele>73.57142857142857</ele><time>2026-04-03T12:50:13.177Z</time></trkpt><trkpt lat="43.1630165" lon="10.6022612"><ele>74.71428571428572</ele><time>2026-04-03T12:50:15.186Z</time></trkpt><trkpt lat="43.1629331" lon="10.6023211"><ele>75.85714285714286</ele><time>2026-04-03T12:50:18.18Z</time></trkpt><trkpt lat="43.1628726" lon="10.6023581"><ele>77.0</ele><time>2026-04-03T12:50:20.188Z</time></trkpt><trkpt lat="43.1628166" lon="10.6024031"><ele>77.0</ele><time>2026-04-03T12:50:22.191Z</time></trkpt><trkpt lat="43.1627367" lon="10.6024686"><ele>77.0</ele><time>2026-04-03T12:50:25.183Z</time></trkpt><trkpt lat="43.1626544" lon="10.6025308"><ele>77.0</ele><time>2026-04-03T12:50:28.192Z</time></trkpt><trkpt lat="43.1625921" lon="10.6025675"><ele>77.0</ele><time>2026-04-03T12:50:30.19Z</time></trkpt><trkpt lat="43.1625139" lon="10.6026288"><ele>77.0</ele><time>2026-04-03T12:50:33.188Z</time></trkpt><trkpt lat="43.1624589" lon="10.6026777"><ele>77.0</ele><time>2026-04-03T12:50:35.196Z</time></trkpt><trkpt lat="43.1624046" lon="10.6027333"><ele>77.42857142857143</ele><time>2026-04-03T12:50:37.198Z</time></trkpt><trkpt lat="43.1623526" lon="10.602801"><ele>77.85714285714286</ele><time>2026-04-03T12:50:39.206Z</time></trkpt><trkpt lat="43.1623025" lon="10.6028617"><ele>78.28571428571428</ele><time>2026-04-03T12:50:41.201Z</time></trkpt><trkpt lat="43.1622605" lon="10.6029291"><ele>78.71428571428572</ele><time>2026-04-03T12:50:43.196Z</time></trkpt><trkpt lat="43.1622075" lon="10.6030162"><ele>79.14285714285714</ele><time>2026-04-03T12:50:46.195Z</time></trkpt><trkpt lat="43.1621577" lon="10.6031162"><ele>79.57142857142857</ele><time>2026-04-03T12:50:49.193Z</time></trkpt><trkpt lat="43.1621179" lon="10.6031897"><ele>80.0</ele><time>2026-04-03T12:50:51.198Z</time></trkpt><trkpt lat="43.1620808" lon="10.6032691"><ele>80.0</ele><time>2026-04-03T12:50:53.2Z</time></trkpt><trkpt lat="43.1620549" lon="10.6033503"><ele>80.0</ele><time>2026-04-03T12:50:55.199Z</time></trkpt><trkpt lat="43.162012" lon="10.6034651"><ele>80.0</ele><time>2026-04-03T12:50:58.196Z</time></trkpt><trkpt lat="43.1619768" lon="10.6035786"><ele>80.0</ele><time>2026-04-03T12:51:01.201Z</time></trkpt><trkpt lat="43.1619461" lon="10.6036543"><ele>80.0</ele><time>2026-04-03T12:51:03.201Z</time></trkpt><trkpt lat="43.1619057" lon="10.6037664"><ele>80.0</ele><time>2026-04-03T12:51:06.205Z</time></trkpt><trkpt lat="43.1618851" lon="10.6038496"><ele>82.0</ele><time>2026-04-03T12:51:08.213Z</time></trkpt><trkpt lat="43.1618454" lon="10.6039658"><ele>84.0</ele><time>2026-04-03T12:51:11.206Z</time></trkpt><trkpt lat="43.1618062" lon="10.6040438"><ele>86.0</ele><time>2026-04-03T12:51:13.199Z</time></trkpt><trkpt lat="43.1617598" lon="10.6041073"><ele>88.0</ele><time>2026-04-03T12:51:15.204Z</time></trkpt><trkpt lat="43.1616795" lon="10.6041633"><ele>90.0</ele><time>2026-04-03T12:51:18.192Z</time></trkpt><trkpt lat="43.161592" lon="10.6041789"><ele>92.0</ele><time>2026-04-03T12:51:21.193Z</time></trkpt><trkpt lat="43.1615004" lon="10.6041973"><ele>93.71428571428572</ele><time>2026-04-03T12:51:24.191Z</time></trkpt><trkpt lat="43.1614327" lon="10.6042013"><ele>95.42857142857142</ele><time>2026-04-03T12:51:26.199Z</time></trkpt><trkpt lat="43.1613694" lon="10.604178"><ele>97.14285714285714</ele><time>2026-04-03T12:51:28.193Z</time></trkpt><trkpt lat="43.1613082" lon="10.6041313"><ele>98.85714285714286</ele><time>2026-04-03T12:51:30.192Z</time></trkpt><trkpt lat="43.1612585" lon="10.6040622"><ele>100.57142857142858</ele><time>2026-04-03T12:51:32.197Z</time></trkpt><trkpt lat="43.1612192" lon="10.6039886"><ele>102.28571428571428</ele><time>2026-04-03T12:51:34.204Z</time></trkpt><trkpt lat="43.1611779" lon="10.6039213"><ele>104.0</ele><time>2026-04-03T12:51:36.196Z</time></trkpt><trkpt lat="43.1611168" lon="10.6038317"><ele>104.0</ele><time>2026-04-03T12:51:39.198Z</time></trkpt><trkpt lat="43.1610772" lon="10.6037588"><ele>104.0</ele><time>2026-04-03T12:51:41.199Z</time></trkpt><trkpt lat="43.1610338" lon="10.6036953"><ele>104.0</ele><time>2026-04-03T12:51:43.204Z</time></trkpt><trkpt lat="43.1609581" lon="10.6036057"><ele>104.0</ele><time>2026-04-03T12:51:46.209Z</time></trkpt><trkpt lat="43.1608957" lon="10.6035639"><ele>104.0</ele><time>2026-04-03T12:51:48.206Z</time></trkpt><trkpt lat="43.1608303" lon="10.6035293"><ele>104.0</ele><time>2026-04-03T12:51:50.211Z</time></trkpt><trkpt lat="43.160771" lon="10.6034913"><ele>104.0</ele><time>2026-04-03T12:51:52.202Z</time></trkpt><trkpt lat="43.1606775" lon="10.6034725"><ele>103.57142857142857</ele><time>2026-04-03T12:51:55.208Z</time></trkpt><trkpt lat="43.1606081" lon="10.6034641"><ele>103.14285714285715</ele><time>2026-04-03T12:51:57.213Z</time></trkpt><trkpt lat="43.1605398" lon="10.6034524"><ele>102.71428571428572</ele><time>2026-04-03T12:51:59.201Z</time></trkpt><trkpt lat="43.1604723" lon="10.6034334"><ele>102.28571428571428</ele><time>2026-04-03T12:52:01.205Z</time></trkpt><trkpt lat="43.1604088" lon="10.6034022"><ele>101.85714285714286</ele><time>2026-04-03T12:52:03.201Z</time></trkpt><trkpt lat="43.1603438" lon="10.6033562"><ele>101.42857142857143</ele><time>2026-04-03T12:52:05.199Z</time></trkpt><trkpt lat="43.1602813" lon="10.6033076"><ele>101.0</ele><time>2026-04-03T12:52:07.205Z</time></trkpt><trkpt lat="43.1602213" lon="10.6032588"><ele>100.99999999999999</ele><time>2026-04-03T12:52:09.211Z</time></trkpt><trkpt lat="43.1601683" lon="10.6032052"><ele>101.0</ele><time>2026-04-03T12:52:11.202Z</time></trkpt><trkpt lat="43.1600933" lon="10.6031252"><ele>101.0</ele><time>2026-04-03T12:52:14.2Z</time></trkpt><trkpt lat="43.1600449" lon="10.6030664"><ele>101.0</ele><time>2026-04-03T12:52:16.201Z</time></trkpt><trkpt lat="43.1599943" lon="10.6030108"><ele>100.99999999999999</ele><time>2026-04-03T12:52:18.205Z</time></trkpt><trkpt lat="43.1599252" lon="10.6029352"><ele>101.0</ele><time>2026-04-03T12:52:21.206Z</time></trkpt><trkpt lat="43.1598466" lon="10.6028742"><ele>101.14285714285714</ele><time>2026-04-03T12:52:24.226Z</time></trkpt><trkpt lat="43.1597837" lon="10.6028476"><ele>101.28571428571428</ele><time>2026-04-03T12:52:26.208Z</time></trkpt><trkpt lat="43.1597133" lon="10.6028352"><ele>101.42857142857143</ele><time>2026-04-03T12:52:28.206Z</time></trkpt><trkpt lat="43.1596464" lon="10.6028199"><ele>101.57142857142857</ele><time>2026-04-03T12:52:30.199Z</time></trkpt><trkpt lat="43.1595718" lon="10.6028465"><ele>101.71428571428572</ele><time>2026-04-03T12:52:32.189Z</time></trkpt><trkpt lat="43.159502" lon="10.6028998"><ele>101.85714285714286</ele><time>2026-04-03T12:52:34.2Z</time></trkpt><trkpt lat="43.1594463" lon="10.6029452"><ele>102.0</ele><time>2026-04-03T12:52:36.2Z</time></trkpt><trkpt lat="43.1593814" lon="10.6030296"><ele>102.0</ele><time>2026-04-03T12:52:39.205Z</time></trkpt><trkpt lat="43.1593393" lon="10.6030984"><ele>102.0</ele><time>2026-04-03T12:52:41.208Z</time></trkpt><trkpt lat="43.1592924" lon="10.6031609"><ele>102.0</ele><time>2026-04-03T12:52:43.197Z</time></trkpt><trkpt lat="43.159243" lon="10.6032159"><ele>102.0</ele><time>2026-04-03T12:52:45.2Z</time></trkpt><trkpt lat="43.1591946" lon="10.6032784"><ele>102.0</ele><time>2026-04-03T12:52:47.197Z</time></trkpt><trkpt lat="43.1591293" lon="10.6033731"><ele>102.0</ele><time>2026-04-03T12:52:50.195Z</time></trkpt><trkpt lat="43.1590657" lon="10.6034661"><ele>102.0</ele><time>2026-04-03T12:52:53.191Z</time></trkpt><trkpt lat="43.1590015" lon="10.6035436"><ele>101.85714285714286</ele><time>2026-04-03T12:52:56.194Z</time></trkpt><trkpt lat="43.1589498" lon="10.6036014"><ele>101.71428571428572</ele><time>2026-04-03T12:52:58.2Z</time></trkpt><trkpt lat="43.1588944" lon="10.6036578"><ele>101.57142857142857</ele><time>2026-04-03T12:53:00.191Z</time></trkpt><trkpt lat="43.1588382" lon="10.6037151"><ele>101.42857142857143</ele><time>2026-04-03T12:53:02.189Z</time></trkpt><trkpt lat="43.1587897" lon="10.6037816"><ele>101.28571428571428</ele><time>2026-04-03T12:53:04.189Z</time></trkpt><trkpt lat="43.1587322" lon="10.6038867"><ele>101.14285714285714</ele><time>2026-04-03T12:53:07.195Z</time></trkpt><trkpt lat="43.1586958" lon="10.6039637"><ele>101.0</ele><time>2026-04-03T12:53:09.187Z</time></trkpt><trkpt lat="43.1586563" lon="10.604034"><ele>100.99999999999999</ele><time>2026-04-03T12:53:11.19Z</time></trkpt><trkpt lat="43.1586139" lon="10.6041021"><ele>101.0</ele><time>2026-04-03T12:53:13.187Z</time></trkpt><trkpt lat="43.1585533" lon="10.6041917"><ele>101.0</ele><time>2026-04-03T12:53:16.187Z</time></trkpt><trkpt lat="43.1584894" lon="10.6042868"><ele>101.0</ele><time>2026-04-03T12:53:19.195Z</time></trkpt><trkpt lat="43.15845" lon="10.604359"><ele>100.99999999999999</ele><time>2026-04-03T12:53:21.193Z</time></trkpt><trkpt lat="43.1583928" lon="10.6044608"><ele>101.0</ele><time>2026-04-03T12:53:24.195Z</time></trkpt><trkpt lat="43.1583595" lon="10.6045362"><ele>102.42857142857143</ele><time>2026-04-03T12:53:26.217Z</time></trkpt><trkpt lat="43.1583194" lon="10.6046527"><ele>103.85714285714286</ele><time>2026-04-03T12:53:29.215Z</time></trkpt><trkpt lat="43.1582957" lon="10.6047458"><ele>105.28571428571428</ele><time>2026-04-03T12:53:31.201Z</time></trkpt><trkpt lat="43.1582846" lon="10.6048359"><ele>106.71428571428572</ele><time>2026-04-03T12:53:33.201Z</time></trkpt><trkpt lat="43.1582882" lon="10.6049336"><ele>108.14285714285715</ele><time>2026-04-03T12:53:35.2Z</time></trkpt><trkpt lat="43.1582977" lon="10.6050247"><ele>109.57142857142857</ele><time>2026-04-03T12:53:37.197Z</time></trkpt><trkpt lat="43.1583143" lon="10.6051145"><ele>111.0</ele><time>2026-04-03T12:53:39.201Z</time></trkpt><trkpt lat="43.1583445" lon="10.6052012"><ele>111.0</ele><time>2026-04-03T12:53:41.197Z</time></trkpt><trkpt lat="43.1583803" lon="10.6052837"><ele>111.0</ele><time>2026-04-03T12:53:43.197Z</time></trkpt><trkpt lat="43.1584134" lon="10.6053635"><ele>111.0</ele><time>2026-04-03T12:53:45.195Z</time></trkpt><trkpt lat="43.1584474" lon="10.6054396"><ele>111.0</ele><time>2026-04-03T12:53:47.195Z</time></trkpt><trkpt lat="43.1584812" lon="10.605519"><ele>111.0</ele><time>2026-04-03T12:53:49.201Z</time></trkpt><trkpt lat="43.1585288" lon="10.6056218"><ele>111.0</ele><time>2026-04-03T12:53:52.196Z</time></trkpt><trkpt lat="43.1585561" lon="10.6057037"><ele>111.0</ele><time>2026-04-03T12:53:54.2Z</time></trkpt><trkpt lat="43.1585916" lon="10.6057775"><ele>110.57142857142857</ele><time>2026-04-03T12:53:56.207Z</time></trkpt><trkpt lat="43.1586317" lon="10.6058487"><ele>110.14285714285715</ele><time>2026-04-03T12:53:58.204Z</time></trkpt><trkpt lat="43.158673" lon="10.6059262"><ele>109.71428571428572</ele><time>2026-04-03T12:54:00.205Z</time></trkpt><trkpt lat="43.1587125" lon="10.6059957"><ele>109.28571428571428</ele><time>2026-04-03T12:54:02.195Z</time></trkpt><trkpt lat="43.1587709" lon="10.6060917"><ele>108.85714285714286</ele><time>2026-04-03T12:54:05.205Z</time></trkpt><trkpt lat="43.1588292" lon="10.6061872"><ele>108.42857142857143</ele><time>2026-04-03T12:54:08.198Z</time></trkpt><trkpt lat="43.1588706" lon="10.6062557"><ele>108.0</ele><time>2026-04-03T12:54:10.198Z</time></trkpt><trkpt lat="43.1589017" lon="10.6063367"><ele>108.0</ele><time>2026-04-03T12:54:12.198Z</time></trkpt><trkpt lat="43.1589341" lon="10.6064123"><ele>108.0</ele><time>2026-04-03T12:54:14.199Z</time></trkpt><trkpt lat="43.158968" lon="10.6065255"><ele>108.0</ele><time>2026-04-03T12:54:17.195Z</time></trkpt><trkpt lat="43.1589838" lon="10.6066514"><ele>108.0</ele><time>2026-04-03T12:54:20.194Z</time></trkpt><trkpt lat="43.1590045" lon="10.6067468"><ele>108.0</ele><time>2026-04-03T12:54:22.198Z</time></trkpt><trkpt lat="43.1590135" lon="10.6068346"><ele>108.0</ele><time>2026-04-03T12:54:24.202Z</time></trkpt><trkpt lat="43.1590402" lon="10.606954"><ele>109.5</ele><time>2026-04-03T12:54:27.189Z</time></trkpt><trkpt lat="43.1590585" lon="10.6070666"><ele>111.0</ele><time>2026-04-03T12:54:30.196Z</time></trkpt><trkpt lat="43.1590623" lon="10.6071734"><ele>112.5</ele><time>2026-04-03T12:54:33.196Z</time></trkpt><trkpt lat="43.1590447" lon="10.6072957"><ele>114.0</ele><time>2026-04-03T12:54:36.198Z</time></trkpt><trkpt lat="43.1590228" lon="10.6073767"><ele>115.5</ele><time>2026-04-03T12:54:38.204Z</time></trkpt><trkpt lat="43.1589677" lon="10.6074782"><ele>117.0</ele><time>2026-04-03T12:54:41.204Z</time></trkpt><trkpt lat="43.1588949" lon="10.6075653"><ele>117.0</ele><time>2026-04-03T12:54:44.208Z</time></trkpt><trkpt lat="43.1588247" lon="10.6076429"><ele>117.0</ele><time>2026-04-03T12:54:47.215Z</time></trkpt><trkpt lat="43.1587575" lon="10.6077244"><ele>117.0</ele><time>2026-04-03T12:54:50.21Z</time></trkpt><trkpt lat="43.158689" lon="10.6078174"><ele>117.0</ele><time>2026-04-03T12:54:53.204Z</time></trkpt><trkpt lat="43.1586436" lon="10.6078843"><ele>117.0</ele><time>2026-04-03T12:54:55.204Z</time></trkpt><trkpt lat="43.158618" lon="10.6079636"><ele>117.0</ele><time>2026-04-03T12:54:57.219Z</time></trkpt><trkpt lat="43.15861" lon="10.6080634"><ele>118.66666666666667</ele><time>2026-04-03T12:54:59.23Z</time></trkpt><trkpt lat="43.1586265" lon="10.6081635"><ele>120.33333333333334</ele><time>2026-04-03T12:55:01.209Z</time></trkpt><trkpt lat="43.1586634" lon="10.6082587"><ele>122.0</ele><time>2026-04-03T12:55:03.209Z</time></trkpt><trkpt lat="43.158707" lon="10.6083439"><ele>123.66666666666667</ele><time>2026-04-03T12:55:05.208Z</time></trkpt><trkpt lat="43.1587636" lon="10.6084221"><ele>125.33333333333334</ele><time>2026-04-03T12:55:07.214Z</time></trkpt><trkpt lat="43.1588287" lon="10.6084696"><ele>127.0</ele><time>2026-04-03T12:55:09.189Z</time></trkpt><trkpt lat="43.1588948" lon="10.6084841"><ele>127.0</ele><time>2026-04-03T12:55:11.194Z</time></trkpt><trkpt lat="43.1589656" lon="10.6084673"><ele>127.0</ele><time>2026-04-03T12:55:13.199Z</time></trkpt><trkpt lat="43.1590404" lon="10.6084305"><ele>127.0</ele><time>2026-04-03T12:55:15.181Z</time></trkpt><trkpt lat="43.1591155" lon="10.6083869"><ele>127.0</ele><time>2026-04-03T12:55:17.177Z</time></trkpt><trkpt lat="43.1591651" lon="10.6083134"><ele>127.0</ele><time>2026-04-03T12:55:19.182Z</time></trkpt><trkpt lat="43.159199" lon="10.6082222"><ele>127.0</ele><time>2026-04-03T12:55:21.181Z</time></trkpt><trkpt lat="43.1592449" lon="10.6081551"><ele>127.0</ele><time>2026-04-03T12:55:23.179Z</time></trkpt><trkpt lat="43.1592818" lon="10.6080721"><ele>127.33333333333334</ele><time>2026-04-03T12:55:25.185Z</time></trkpt><trkpt lat="43.1593046" lon="10.6079797"><ele>127.66666666666667</ele><time>2026-04-03T12:55:27.178Z</time></trkpt><trkpt lat="43.1593231" lon="10.6078883"><ele>128.0</ele><time>2026-04-03T12:55:29.179Z</time></trkpt><trkpt lat="43.1593343" lon="10.6077975"><ele>128.33333333333334</ele><time>2026-04-03T12:55:31.17Z</time></trkpt><trkpt lat="43.1593592" lon="10.6076781"><ele>128.66666666666666</ele><time>2026-04-03T12:55:34.176Z</time></trkpt><trkpt lat="43.1593945" lon="10.6075697"><ele>129.0</ele><time>2026-04-03T12:55:37.174Z</time></trkpt><trkpt lat="43.1594424" lon="10.6074859"><ele>128.99999999999997</ele><time>2026-04-03T12:55:39.178Z</time></trkpt><trkpt lat="43.1594789" lon="10.6074074"><ele>129.0</ele><time>2026-04-03T12:55:41.181Z</time></trkpt><trkpt lat="43.1595004" lon="10.6073214"><ele>129.0</ele><time>2026-04-03T12:55:43.189Z</time></trkpt><trkpt lat="43.159524" lon="10.6072381"><ele>129.0</ele><time>2026-04-03T12:55:45.203Z</time></trkpt><trkpt lat="43.1595384" lon="10.6071133"><ele>129.0</ele><time>2026-04-03T12:55:48.198Z</time></trkpt><trkpt lat="43.1595379" lon="10.6069906"><ele>128.99999999999997</ele><time>2026-04-03T12:55:51.193Z</time></trkpt><trkpt lat="43.1595342" lon="10.6069033"><ele>129.0</ele><time>2026-04-03T12:55:53.196Z</time></trkpt><trkpt lat="43.1595259" lon="10.6067767"><ele>129.14285714285714</ele><time>2026-04-03T12:55:56.192Z</time></trkpt><trkpt lat="43.1595346" lon="10.6066833"><ele>129.28571428571428</ele><time>2026-04-03T12:55:58.185Z</time></trkpt><trkpt lat="43.1595563" lon="10.6065947"><ele>129.42857142857144</ele><time>2026-04-03T12:56:00.179Z</time></trkpt><trkpt lat="43.1595795" lon="10.6064738"><ele>129.57142857142856</ele><time>2026-04-03T12:56:03.192Z</time></trkpt><trkpt lat="43.1595898" lon="10.6063875"><ele>129.71428571428572</ele><time>2026-04-03T12:56:05.184Z</time></trkpt><trkpt lat="43.1596091" lon="10.6062675"><ele>129.85714285714286</ele><time>2026-04-03T12:56:08.196Z</time></trkpt><trkpt lat="43.1596071" lon="10.6061785"><ele>130.0</ele><time>2026-04-03T12:56:10.195Z</time></trkpt><trkpt lat="43.1596007" lon="10.6060902"><ele>130.00000000000003</ele><time>2026-04-03T12:56:12.198Z</time></trkpt><trkpt lat="43.1595849" lon="10.6059597"><ele>130.0</ele><time>2026-04-03T12:56:15.19Z</time></trkpt><trkpt lat="43.1595627" lon="10.6058758"><ele>130.0</ele><time>2026-04-03T12:56:17.195Z</time></trkpt><trkpt lat="43.1595393" lon="10.6057888"><ele>130.0</ele><time>2026-04-03T12:56:19.201Z</time></trkpt><trkpt lat="43.159512" lon="10.6057022"><ele>130.0</ele><time>2026-04-03T12:56:21.196Z</time></trkpt><trkpt lat="43.1594833" lon="10.6056143"><ele>130.00000000000003</ele><time>2026-04-03T12:56:23.199Z</time></trkpt><trkpt lat="43.159458" lon="10.6055256"><ele>130.0</ele><time>2026-04-03T12:56:25.203Z</time></trkpt><trkpt lat="43.1594227" lon="10.6054077"><ele>130.5</ele><time>2026-04-03T12:56:28.193Z</time></trkpt><trkpt lat="43.1594374" lon="10.6053054"><ele>131.0</ele><time>2026-04-03T12:56:30.198Z</time></trkpt><trkpt lat="43.1594454" lon="10.6052179"><ele>131.5</ele><time>2026-04-03T12:56:32.218Z</time></trkpt><trkpt lat="43.1594672" lon="10.605101"><ele>132.0</ele><time>2026-04-03T12:56:35.212Z</time></trkpt><trkpt lat="43.1595197" lon="10.604998"><ele>132.5</ele><time>2026-04-03T12:56:38.21Z</time></trkpt><trkpt lat="43.1595829" lon="10.6049272"><ele>133.0</ele><time>2026-04-03T12:56:41.203Z</time></trkpt><trkpt lat="43.1596475" lon="10.6049081"><ele>133.0</ele><time>2026-04-03T12:56:43.207Z</time></trkpt><trkpt lat="43.1597181" lon="10.6049073"><ele>133.0</ele><time>2026-04-03T12:56:45.2Z</time></trkpt><trkpt lat="43.1597877" lon="10.604926"><ele>133.0</ele><time>2026-04-03T12:56:47.198Z</time></trkpt><trkpt lat="43.1598372" lon="10.6049862"><ele>133.0</ele><time>2026-04-03T12:56:49.205Z</time></trkpt><trkpt lat="43.159884" lon="10.6050514"><ele>133.0</ele><time>2026-04-03T12:56:51.215Z</time></trkpt><trkpt lat="43.1599232" lon="10.6051263"><ele>133.0</ele><time>2026-04-03T12:56:53.201Z</time></trkpt><trkpt lat="43.1599523" lon="10.6052037"><ele>133.0</ele><time>2026-04-03T12:56:55.199Z</time></trkpt><trkpt lat="43.1599572" lon="10.6053228"><ele>135.0</ele><time>2026-04-03T12:56:58.209Z</time></trkpt><trkpt lat="43.1599435" lon="10.6054313"><ele>137.0</ele><time>2026-04-03T12:57:01.2Z</time></trkpt><trkpt lat="43.1599268" lon="10.6055214"><ele>139.0</ele><time>2026-04-03T12:57:03.211Z</time></trkpt><trkpt lat="43.1599143" lon="10.6056134"><ele>141.0</ele><time>2026-04-03T12:57:05.203Z</time></trkpt><trkpt lat="43.1599151" lon="10.605754"><ele>143.0</ele><time>2026-04-03T12:57:08.199Z</time></trkpt><trkpt lat="43.159916" lon="10.6058444"><ele>145.0</ele><time>2026-04-03T12:57:10.19Z</time></trkpt><trkpt lat="43.1599103" lon="10.6059346"><ele>145.0</ele><time>2026-04-03T12:57:12.197Z</time></trkpt><trkpt lat="43.1599127" lon="10.6060228"><ele>145.0</ele><time>2026-04-03T12:57:14.188Z</time></trkpt><trkpt lat="43.1599267" lon="10.6061269"><ele>145.0</ele><time>2026-04-03T12:57:16.175Z</time></trkpt><trkpt lat="43.1599303" lon="10.6062258"><ele>145.0</ele><time>2026-04-03T12:57:18.181Z</time></trkpt><trkpt lat="43.1599426" lon="10.6063185"><ele>145.0</ele><time>2026-04-03T12:57:20.179Z</time></trkpt><trkpt lat="43.1599472" lon="10.6064062"><ele>145.0</ele><time>2026-04-03T12:57:22.181Z</time></trkpt><trkpt lat="43.159953" lon="10.6064997"><ele>145.0</ele><time>2026-04-03T12:57:24.181Z</time></trkpt><trkpt lat="43.1599509" lon="10.6065889"><ele>146.0</ele><time>2026-04-03T12:57:26.178Z</time></trkpt><trkpt lat="43.1599424" lon="10.6067253"><ele>147.0</ele><time>2026-04-03T12:57:29.18Z</time></trkpt><trkpt lat="43.1599455" lon="10.6068276"><ele>148.0</ele><time>2026-04-03T12:57:31.181Z</time></trkpt><trkpt lat="43.1599576" lon="10.6069191"><ele>149.0</ele><time>2026-04-03T12:57:33.185Z</time></trkpt><trkpt lat="43.1599594" lon="10.6070135"><ele>150.0</ele><time>2026-04-03T12:57:35.196Z</time></trkpt><trkpt lat="43.1599587" lon="10.6071267"><ele>151.0</ele><time>2026-04-03T12:57:38.186Z</time></trkpt><trkpt lat="43.1599492" lon="10.6072284"><ele>151.71428571428572</ele><time>2026-04-03T12:59:01.194Z</time></trkpt><trkpt lat="43.1599197" lon="10.6073324"><ele>152.42857142857144</ele><time>2026-04-03T12:59:04.172Z</time></trkpt><trkpt lat="43.1599205" lon="10.6074214"><ele>153.14285714285717</ele><time>2026-04-03T12:59:06.171Z</time></trkpt><trkpt lat="43.1599266" lon="10.6075256"><ele>153.85714285714286</ele><time>2026-04-03T12:59:08.179Z</time></trkpt><trkpt lat="43.1598979" lon="10.6076107"><ele>154.57142857142856</ele><time>2026-04-03T12:59:10.182Z</time></trkpt><trkpt lat="43.1598665" lon="10.607699"><ele>155.2857142857143</ele><time>2026-04-03T12:59:12.178Z</time></trkpt><trkpt lat="43.1598366" lon="10.607791"><ele>156.0</ele><time>2026-04-03T12:59:14.187Z</time></trkpt><trkpt lat="43.159822" lon="10.6079094"><ele>153.16666666666666</ele><time>2026-04-03T12:59:17.184Z</time></trkpt><trkpt lat="43.1598039" lon="10.6080223"><ele>150.33333333333334</ele><time>2026-04-03T12:59:20.178Z</time></trkpt><trkpt lat="43.1597928" lon="10.608142"><ele>147.5</ele><time>2026-04-03T12:59:23.196Z</time></trkpt><trkpt lat="43.1597977" lon="10.6082632"><ele>144.66666666666669</ele><time>2026-04-03T12:59:26.184Z</time></trkpt><trkpt lat="43.1598056" lon="10.6083921"><ele>141.83333333333334</ele><time>2026-04-03T12:59:29.188Z</time></trkpt><trkpt lat="43.1597942" lon="10.6084848"><ele>139.0</ele><time>2026-04-03T12:59:31.175Z</time></trkpt><trkpt lat="43.159801" lon="10.6086094"><ele>140.0</ele><time>2026-04-03T12:59:34.164Z</time></trkpt><trkpt lat="43.1598015" lon="10.6086957"><ele>141.0</ele><time>2026-04-03T12:59:36.171Z</time></trkpt><trkpt lat="43.1598123" lon="10.6088048"><ele>142.0</ele><time>2026-04-03T12:59:39.173Z</time></trkpt><trkpt lat="43.1598191" lon="10.6089313"><ele>143.0</ele><time>2026-04-03T12:59:42.173Z</time></trkpt><trkpt lat="43.1598356" lon="10.609015"><ele>144.0</ele><time>2026-04-03T12:59:44.182Z</time></trkpt><trkpt lat="43.1598504" lon="10.6091125"><ele>145.0</ele><time>2026-04-03T12:59:46.185Z</time></trkpt><trkpt lat="43.1598695" lon="10.6091992"><ele>146.0</ele><time>2026-04-03T12:59:48.184Z</time></trkpt><trkpt lat="43.1598879" lon="10.6093165"><ele>146.33333333333331</ele><time>2026-04-03T12:59:51.187Z</time></trkpt><trkpt lat="43.1598805" lon="10.6094307"><ele>146.66666666666666</ele><time>2026-04-03T12:59:54.186Z</time></trkpt><trkpt lat="43.1598888" lon="10.6095538"><ele>147.0</ele><time>2026-04-03T12:59:57.184Z</time></trkpt><trkpt lat="43.1598974" lon="10.6096749"><ele>147.33333333333334</ele><time>2026-04-03T13:00:00.175Z</time></trkpt><trkpt lat="43.1598851" lon="10.6097602"><ele>147.66666666666669</ele><time>2026-04-03T13:00:02.166Z</time></trkpt><trkpt lat="43.1598449" lon="10.6098673"><ele>148.0</ele><time>2026-04-03T13:00:05.18Z</time></trkpt><trkpt lat="43.1598217" lon="10.6099925"><ele>148.0</ele><time>2026-04-03T13:00:08.182Z</time></trkpt><trkpt lat="43.159819" lon="10.6100817"><ele>148.0</ele><time>2026-04-03T13:00:10.185Z</time></trkpt><trkpt lat="43.1598059" lon="10.6101776"><ele>148.0</ele><time>2026-04-03T13:00:12.186Z</time></trkpt><trkpt lat="43.1597675" lon="10.6102943"><ele>148.0</ele><time>2026-04-03T13:00:15.183Z</time></trkpt><trkpt lat="43.1597391" lon="10.610414"><ele>148.0</ele><time>2026-04-03T13:00:18.177Z</time></trkpt><trkpt lat="43.1597311" lon="10.6105025"><ele>148.0</ele><time>2026-04-03T13:00:20.191Z</time></trkpt><trkpt lat="43.15971" lon="10.6106346"><ele>148.66666666666669</ele><time>2026-04-03T13:00:23.184Z</time></trkpt><trkpt lat="43.1596943" lon="10.6107622"><ele>149.33333333333334</ele><time>2026-04-03T13:00:26.192Z</time></trkpt><trkpt lat="43.159673" lon="10.6108807"><ele>150.0</ele><time>2026-04-03T13:00:29.196Z</time></trkpt><trkpt lat="43.1596611" lon="10.6110033"><ele>150.66666666666666</ele><time>2026-04-03T13:00:32.198Z</time></trkpt><trkpt lat="43.1596536" lon="10.6110943"><ele>151.33333333333331</ele><time>2026-04-03T13:00:34.186Z</time></trkpt><trkpt lat="43.1596576" lon="10.6112153"><ele>152.0</ele><time>2026-04-03T13:00:37.169Z</time></trkpt><trkpt lat="43.1596834" lon="10.6113018"><ele>152.5</ele><time>2026-04-03T13:00:39.16Z</time></trkpt><trkpt lat="43.1596928" lon="10.6114001"><ele>153.0</ele><time>2026-04-03T13:00:41.161Z</time></trkpt><trkpt lat="43.1596617" lon="10.6114923"><ele>153.5</ele><time>2026-04-03T13:00:43.179Z</time></trkpt><trkpt lat="43.1596404" lon="10.6116141"><ele>154.0</ele><time>2026-04-03T13:00:46.187Z</time></trkpt><trkpt lat="43.159665" lon="10.6117386"><ele>154.5</ele><time>2026-04-03T13:00:49.189Z</time></trkpt><trkpt lat="43.1596872" lon="10.6118384"><ele>155.0</ele><time>2026-04-03T13:00:51.191Z</time></trkpt><trkpt lat="43.1597041" lon="10.6119372"><ele>154.28571428571428</ele><time>2026-04-03T13:00:53.19Z</time></trkpt><trkpt lat="43.1597256" lon="10.6120306"><ele>153.57142857142856</ele><time>2026-04-03T13:00:55.193Z</time></trkpt><trkpt lat="43.1597501" lon="10.6121246"><ele>152.85714285714283</ele><time>2026-04-03T13:00:57.192Z</time></trkpt><trkpt lat="43.1597881" lon="10.6122172"><ele>152.14285714285714</ele><time>2026-04-03T13:00:59.208Z</time></trkpt><trkpt lat="43.1598385" lon="10.6122904"><ele>151.42857142857142</ele><time>2026-04-03T13:01:01.204Z</time></trkpt><trkpt lat="43.1598834" lon="10.612376"><ele>150.7142857142857</ele><time>2026-04-03T13:01:03.2Z</time></trkpt><trkpt lat="43.1599314" lon="10.6124584"><ele>150.0</ele><time>2026-04-03T13:01:05.202Z</time></trkpt><trkpt lat="43.1599861" lon="10.6125321"><ele>152.42857142857142</ele><time>2026-04-03T13:01:07.211Z</time></trkpt><trkpt lat="43.1600363" lon="10.6125943"><ele>154.85714285714286</ele><time>2026-04-03T13:01:09.213Z</time></trkpt><trkpt lat="43.1601027" lon="10.6126654"><ele>157.28571428571428</ele><time>2026-04-03T13:01:12.199Z</time></trkpt><trkpt lat="43.1601739" lon="10.612691"><ele>159.71428571428572</ele><time>2026-04-03T13:01:15.209Z</time></trkpt><trkpt lat="43.160244" lon="10.6126804"><ele>162.14285714285714</ele><time>2026-04-03T13:01:18.207Z</time></trkpt><trkpt lat="43.1603142" lon="10.6126653"><ele>164.57142857142856</ele><time>2026-04-03T13:01:21.216Z</time></trkpt><trkpt lat="43.1603728" lon="10.6126318"><ele>167.0</ele><time>2026-04-03T13:01:23.221Z</time></trkpt><trkpt lat="43.1604498" lon="10.612583"><ele>167.0</ele><time>2026-04-03T13:01:26.222Z</time></trkpt><trkpt lat="43.1605271" lon="10.6125378"><ele>167.0</ele><time>2026-04-03T13:01:29.223Z</time></trkpt><trkpt lat="43.1605988" lon="10.6124664"><ele>167.0</ele><time>2026-04-03T13:01:32.201Z</time></trkpt><trkpt lat="43.1606766" lon="10.6124403"><ele>167.0</ele><time>2026-04-03T13:01:35.196Z</time></trkpt><trkpt lat="43.160748" lon="10.6124057"><ele>167.0</ele><time>2026-04-03T13:01:38.205Z</time></trkpt><trkpt lat="43.1608268" lon="10.6123513"><ele>167.0</ele><time>2026-04-03T13:01:41.221Z</time></trkpt><trkpt lat="43.1608881" lon="10.6123156"><ele>168.16666666666666</ele><time>2026-04-03T13:01:43.201Z</time></trkpt><trkpt lat="43.1609698" lon="10.6122859"><ele>169.33333333333331</ele><time>2026-04-03T13:01:46.197Z</time></trkpt><trkpt lat="43.1610313" lon="10.6122359"><ele>170.5</ele><time>2026-04-03T13:01:48.192Z</time></trkpt><trkpt lat="43.161118" lon="10.6122055"><ele>171.66666666666666</ele><time>2026-04-03T13:01:51.196Z</time></trkpt><trkpt lat="43.1611767" lon="10.6121739"><ele>172.83333333333334</ele><time>2026-04-03T13:01:53.191Z</time></trkpt><trkpt lat="43.1612401" lon="10.6121516"><ele>174.0</ele><time>2026-04-03T13:01:55.2Z</time></trkpt><trkpt lat="43.1613226" lon="10.6121113"><ele>174.0</ele><time>2026-04-03T13:01:58.216Z</time></trkpt><trkpt lat="43.1613929" lon="10.612075"><ele>174.0</ele><time>2026-04-03T13:02:00.209Z</time></trkpt><trkpt lat="43.1614468" lon="10.6120285"><ele>174.0</ele><time>2026-04-03T13:02:02.212Z</time></trkpt><trkpt lat="43.1615016" lon="10.6119709"><ele>174.0</ele><time>2026-04-03T13:02:04.214Z</time></trkpt><trkpt lat="43.1615554" lon="10.6119136"><ele>174.0</ele><time>2026-04-03T13:02:06.209Z</time></trkpt><trkpt lat="43.1616217" lon="10.6118511"><ele>174.0</ele><time>2026-04-03T13:02:09.208Z</time></trkpt><trkpt lat="43.1616844" lon="10.6117784"><ele>174.0</ele><time>2026-04-03T13:02:12.239Z</time></trkpt><trkpt lat="43.1617374" lon="10.6117275"><ele>175.5</ele><time>2026-04-03T13:02:14.21Z</time></trkpt><trkpt lat="43.1618034" lon="10.6116946"><ele>177.0</ele><time>2026-04-03T13:02:16.204Z</time></trkpt><trkpt lat="43.1618852" lon="10.6116365"><ele>178.5</ele><time>2026-04-03T13:02:19.201Z</time></trkpt><trkpt lat="43.1619478" lon="10.6115923"><ele>180.0</ele><time>2026-04-03T13:02:21.201Z</time></trkpt><trkpt lat="43.1620097" lon="10.61154"><ele>181.5</ele><time>2026-04-03T13:02:23.197Z</time></trkpt><trkpt lat="43.1620678" lon="10.6114513"><ele>183.0</ele><time>2026-04-03T13:02:26.199Z</time></trkpt><trkpt lat="43.1621304" lon="10.6114333"><ele>183.0</ele><time>2026-04-03T13:02:29.207Z</time></trkpt><trkpt lat="43.1620766" lon="10.6113611"><ele>183.0</ele><time>2026-04-03T13:03:03.201Z</time></trkpt><trkpt lat="43.1619978" lon="10.6113592"><ele>183.0</ele><time>2026-04-03T13:03:06.201Z</time></trkpt><trkpt lat="43.1619293" lon="10.6114322"><ele>183.0</ele><time>2026-04-03T13:03:08.193Z</time></trkpt><trkpt lat="43.1618471" lon="10.6115046"><ele>183.0</ele><time>2026-04-03T13:03:10.185Z</time></trkpt><trkpt lat="43.1617608" lon="10.6115892"><ele>183.0</ele><time>2026-04-03T13:03:12.179Z</time></trkpt><trkpt lat="43.1616886" lon="10.6116636"><ele>183.0</ele><time>2026-04-03T13:03:14.195Z</time></trkpt><trkpt lat="43.1616182" lon="10.6117527"><ele>183.0</ele><time>2026-04-03T13:03:16.172Z</time></trkpt><trkpt lat="43.1615293" lon="10.6118287"><ele>183.0</ele><time>2026-04-03T13:03:18.187Z</time></trkpt><trkpt lat="43.1614446" lon="10.6118935"><ele>183.0</ele><time>2026-04-03T13:03:20.189Z</time></trkpt><trkpt lat="43.1613434" lon="10.6119981"><ele>183.0</ele><time>2026-04-03T13:03:22.187Z</time></trkpt><trkpt lat="43.1612827" lon="10.612045"><ele>181.5</ele><time>2026-04-03T13:03:23.182Z</time></trkpt><trkpt lat="43.1612208" lon="10.6120788"><ele>180.0</ele><time>2026-04-03T13:03:24.185Z</time></trkpt><trkpt lat="43.1611544" lon="10.6121179"><ele>178.5</ele><time>2026-04-03T13:03:25.178Z</time></trkpt><trkpt lat="43.1610788" lon="10.6121619"><ele>177.0</ele><time>2026-04-03T13:03:26.18Z</time></trkpt><trkpt lat="43.1610021" lon="10.6121904"><ele>175.5</ele><time>2026-04-03T13:03:27.174Z</time></trkpt><trkpt lat="43.1609372" lon="10.6122171"><ele>174.0</ele><time>2026-04-03T13:03:28.169Z</time></trkpt><trkpt lat="43.1608359" lon="10.6122664"><ele>174.0</ele><time>2026-04-03T13:03:30.178Z</time></trkpt><trkpt lat="43.1607602" lon="10.6122648"><ele>174.0</ele><time>2026-04-03T13:03:33.172Z</time></trkpt><trkpt lat="43.1607003" lon="10.6122928"><ele>174.0</ele><time>2026-04-03T13:03:37.191Z</time></trkpt><trkpt lat="43.1606368" lon="10.6123208"><ele>174.0</ele><time>2026-04-03T13:03:40.192Z</time></trkpt><trkpt lat="43.1605627" lon="10.6123517"><ele>174.0</ele><time>2026-04-03T13:03:43.192Z</time></trkpt><trkpt lat="43.1604934" lon="10.6123875"><ele>174.0</ele><time>2026-04-03T13:03:47.187Z</time></trkpt><trkpt lat="43.160468" lon="10.6124674"><ele>174.0</ele><time>2026-04-03T13:03:50.19Z</time></trkpt><trkpt lat="43.1605571" lon="10.6125276"><ele>174.0</ele><time>2026-04-03T13:03:53.188Z</time></trkpt><trkpt lat="43.1606512" lon="10.6125036"><ele>174.0</ele><time>2026-04-03T13:03:55.19Z</time></trkpt><trkpt lat="43.1607228" lon="10.6124712"><ele>174.0</ele><time>2026-04-03T13:03:57.194Z</time></trkpt><trkpt lat="43.1607863" lon="10.6124616"><ele>174.0</ele><time>2026-04-03T13:03:59.199Z</time></trkpt><trkpt lat="43.1608079" lon="10.6123794"><ele>174.0</ele><time>2026-04-03T13:04:03.197Z</time></trkpt><trkpt lat="43.1607316" lon="10.6123871"><ele>174.0</ele><time>2026-04-03T13:04:06.195Z</time></trkpt><trkpt lat="43.1606585" lon="10.6124165"><ele>172.83333333333334</ele><time>2026-04-03T13:04:08.197Z</time></trkpt><trkpt lat="43.1605803" lon="10.6124509"><ele>171.66666666666666</ele><time>2026-04-03T13:04:10.195Z</time></trkpt><trkpt lat="43.160505" lon="10.6124788"><ele>170.5</ele><time>2026-04-03T13:04:12.201Z</time></trkpt><trkpt lat="43.1604445" lon="10.6125088"><ele>169.33333333333331</ele><time>2026-04-03T13:04:14.199Z</time></trkpt><trkpt lat="43.1603734" lon="10.6125714"><ele>168.16666666666666</ele><time>2026-04-03T13:04:17.207Z</time></trkpt><trkpt lat="43.1603031" lon="10.6125339"><ele>167.0</ele><time>2026-04-03T13:04:21.205Z</time></trkpt><trkpt lat="43.1602314" lon="10.6125531"><ele>167.0</ele><time>2026-04-03T13:04:25.193Z</time></trkpt><trkpt lat="43.1602528" lon="10.612678"><ele>167.0</ele><time>2026-04-03T13:04:27.218Z</time></trkpt><trkpt lat="43.1602995" lon="10.6127759"><ele>167.0</ele><time>2026-04-03T13:04:29.216Z</time></trkpt><trkpt lat="43.1603439" lon="10.6128471"><ele>167.0</ele><time>2026-04-03T13:04:31.201Z</time></trkpt><trkpt lat="43.1603818" lon="10.6129262"><ele>167.0</ele><time>2026-04-03T13:04:34.196Z</time></trkpt><trkpt lat="43.1604526" lon="10.6129241"><ele>167.0</ele><time>2026-04-03T13:04:50.183Z</time></trkpt><trkpt lat="43.1604695" lon="10.6128346"><ele>166.0</ele><time>2026-04-03T13:05:05.204Z</time></trkpt><trkpt lat="43.160426" lon="10.6129084"><ele>165.0</ele><time>2026-04-03T13:05:09.21Z</time></trkpt><trkpt lat="43.1604625" lon="10.6130178"><ele>164.0</ele><time>2026-04-03T13:05:13.209Z</time></trkpt><trkpt lat="43.1605103" lon="10.6131288"><ele>163.0</ele><time>2026-04-03T13:05:16.195Z</time></trkpt><trkpt lat="43.1605479" lon="10.6132238"><ele>162.0</ele><time>2026-04-03T13:05:19.199Z</time></trkpt><trkpt lat="43.1605777" lon="10.6133296"><ele>161.0</ele><time>2026-04-03T13:05:22.204Z</time></trkpt><trkpt lat="43.1605792" lon="10.613425"><ele>161.0</ele><time>2026-04-03T13:05:24.199Z</time></trkpt><trkpt lat="43.1605742" lon="10.6135286"><ele>161.0</ele><time>2026-04-03T13:05:27.203Z</time></trkpt><trkpt lat="43.1605702" lon="10.6136187"><ele>161.0</ele><time>2026-04-03T13:05:36.203Z</time></trkpt><trkpt lat="43.1605991" lon="10.6137002"><ele>161.0</ele><time>2026-04-03T13:05:41.198Z</time></trkpt><trkpt lat="43.1605992" lon="10.6138009"><ele>161.0</ele><time>2026-04-03T13:05:44.199Z</time></trkpt><trkpt lat="43.1605948" lon="10.6138907"><ele>161.0</ele><time>2026-04-03T13:05:46.196Z</time></trkpt><trkpt lat="43.1605916" lon="10.6139779"><ele>161.0</ele><time>2026-04-03T13:05:48.2Z</time></trkpt><trkpt lat="43.1606012" lon="10.6140813"><ele>160.5</ele><time>2026-04-03T13:05:50.199Z</time></trkpt><trkpt lat="43.1605999" lon="10.6141686"><ele>160.0</ele><time>2026-04-03T13:05:53.184Z</time></trkpt><trkpt lat="43.1605271" lon="10.6141431"><ele>159.5</ele><time>2026-04-03T13:06:05.195Z</time></trkpt><trkpt lat="43.1604998" lon="10.6142226"><ele>159.0</ele><time>2026-04-03T13:06:07.203Z</time></trkpt><trkpt lat="43.1604969" lon="10.6143307"><ele>158.5</ele><time>2026-04-03T13:06:09.205Z</time></trkpt><trkpt lat="43.1605077" lon="10.6144495"><ele>158.0</ele><time>2026-04-03T13:06:11.195Z</time></trkpt><trkpt lat="43.1605152" lon="10.6145803"><ele>158.0</ele><time>2026-04-03T13:06:13.2Z</time></trkpt><trkpt lat="43.1605247" lon="10.6147032"><ele>158.0</ele><time>2026-04-03T13:06:15.197Z</time></trkpt><trkpt lat="43.1605373" lon="10.6148216"><ele>158.0</ele><time>2026-04-03T13:06:17.192Z</time></trkpt><trkpt lat="43.1605318" lon="10.614949"><ele>158.0</ele><time>2026-04-03T13:06:19.193Z</time></trkpt><trkpt lat="43.1605052" lon="10.6150543"><ele>158.0</ele><time>2026-04-03T13:06:21.191Z</time></trkpt><trkpt lat="43.1604488" lon="10.6151049"><ele>158.0</ele><time>2026-04-03T13:06:23.202Z</time></trkpt><trkpt lat="43.1603876" lon="10.6151363"><ele>158.00000000000003</ele><time>2026-04-03T13:06:25.195Z</time></trkpt><trkpt lat="43.1603259" lon="10.6151645"><ele>158.0</ele><time>2026-04-03T13:06:27.184Z</time></trkpt><trkpt lat="43.1602636" lon="10.6152017"><ele>158.0</ele><time>2026-04-03T13:06:29.186Z</time></trkpt><trkpt lat="43.1602038" lon="10.6152439"><ele>158.0</ele><time>2026-04-03T13:06:31.191Z</time></trkpt><trkpt lat="43.1601443" lon="10.6152916"><ele>158.0</ele><time>2026-04-03T13:06:33.174Z</time></trkpt><trkpt lat="43.1600865" lon="10.6153384"><ele>158.00000000000003</ele><time>2026-04-03T13:06:35.178Z</time></trkpt><trkpt lat="43.1600256" lon="10.615386"><ele>158.0</ele><time>2026-04-03T13:06:37.17Z</time></trkpt><trkpt lat="43.1599669" lon="10.615442"><ele>159.83333333333331</ele><time>2026-04-03T13:06:39.173Z</time></trkpt><trkpt lat="43.1599146" lon="10.6155103"><ele>161.66666666666666</ele><time>2026-04-03T13:06:41.172Z</time></trkpt><trkpt lat="43.1598312" lon="10.6155708"><ele>163.5</ele><time>2026-04-03T13:06:44.18Z</time></trkpt><trkpt lat="43.1597562" lon="10.6156183"><ele>165.33333333333334</ele><time>2026-04-03T13:06:46.17Z</time></trkpt><trkpt lat="43.1596892" lon="10.6156665"><ele>167.16666666666669</ele><time>2026-04-03T13:06:48.18Z</time></trkpt><trkpt lat="43.159619" lon="10.615714"><ele>169.0</ele><time>2026-04-03T13:06:50.185Z</time></trkpt><trkpt lat="43.1595467" lon="10.6157647"><ele>169.0</ele><time>2026-04-03T13:06:52.177Z</time></trkpt><trkpt lat="43.1594741" lon="10.6158136"><ele>169.0</ele><time>2026-04-03T13:06:54.168Z</time></trkpt><trkpt lat="43.1594108" lon="10.6158636"><ele>169.0</ele><time>2026-04-03T13:06:56.175Z</time></trkpt><trkpt lat="43.1593548" lon="10.6159572"><ele>169.0</ele><time>2026-04-03T13:06:59.172Z</time></trkpt><trkpt lat="43.1592863" lon="10.6160399"><ele>169.0</ele><time>2026-04-03T13:07:02.177Z</time></trkpt><trkpt lat="43.1592205" lon="10.6160768"><ele>169.0</ele><time>2026-04-03T13:07:04.18Z</time></trkpt><trkpt lat="43.1591567" lon="10.6161031"><ele>169.0</ele><time>2026-04-03T13:07:06.18Z</time></trkpt><trkpt lat="43.1592039" lon="10.6161896"><ele>169.0</ele><time>2026-04-03T13:07:12.167Z</time></trkpt><trkpt lat="43.1592684" lon="10.616112"><ele>169.0</ele><time>2026-04-03T13:07:15.161Z</time></trkpt><trkpt lat="43.1592069" lon="10.6160844"><ele>169.0</ele><time>2026-04-03T13:08:07.152Z</time></trkpt><trkpt lat="43.1591658" lon="10.616158"><ele>169.0</ele><time>2026-04-03T13:08:23.156Z</time></trkpt><trkpt lat="43.1592291" lon="10.6162016"><ele>169.0</ele><time>2026-04-03T13:08:51.169Z</time></trkpt><trkpt lat="43.1591764" lon="10.6162667"><ele>169.0</ele><time>2026-04-03T13:09:49.137Z</time></trkpt><trkpt lat="43.1591023" lon="10.6162541"><ele>169.0</ele><time>2026-04-03T13:09:53.151Z</time></trkpt><trkpt lat="43.1591214" lon="10.6161699"><ele>169.0</ele><time>2026-04-03T13:10:32.174Z</time></trkpt><trkpt lat="43.1591875" lon="10.6162647"><ele>169.0</ele><time>2026-04-03T13:10:36.151Z</time></trkpt><trkpt lat="43.1592783" lon="10.6162452"><ele>169.0</ele><time>2026-04-03T13:10:40.151Z</time></trkpt><trkpt lat="43.1593534" lon="10.6162021"><ele>169.0</ele><time>2026-04-03T13:10:43.153Z</time></trkpt><trkpt lat="43.1594145" lon="10.6161648"><ele>169.0</ele><time>2026-04-03T13:10:45.156Z</time></trkpt><trkpt lat="43.1594778" lon="10.6161354"><ele>169.0</ele><time>2026-04-03T13:10:47.148Z</time></trkpt><trkpt lat="43.1595596" lon="10.6161377"><ele>169.0</ele><time>2026-04-03T13:10:50.169Z</time></trkpt><trkpt lat="43.1596392" lon="10.6161404"><ele>169.0</ele><time>2026-04-03T13:10:54.177Z</time></trkpt><trkpt lat="43.1597067" lon="10.6162063"><ele>169.0</ele><time>2026-04-03T13:10:58.203Z</time></trkpt><trkpt lat="43.1597689" lon="10.6162473"><ele>169.0</ele><time>2026-04-03T13:11:01.178Z</time></trkpt><trkpt lat="43.1598524" lon="10.6162758"><ele>169.0</ele><time>2026-04-03T13:11:05.183Z</time></trkpt><trkpt lat="43.1599166" lon="10.6162973"><ele>171.66666666666669</ele><time>2026-04-03T13:11:08.168Z</time></trkpt><trkpt lat="43.1598506" lon="10.6163267"><ele>174.33333333333334</ele><time>2026-04-03T13:11:14.165Z</time></trkpt><trkpt lat="43.1597826" lon="10.6163097"><ele>177.0</ele><time>2026-04-03T13:11:17.16Z</time></trkpt><trkpt lat="43.1597097" lon="10.616351"><ele>179.66666666666666</ele><time>2026-04-03T13:11:19.159Z</time></trkpt><trkpt lat="43.1596312" lon="10.616404"><ele>182.33333333333331</ele><time>2026-04-03T13:11:21.164Z</time></trkpt><trkpt lat="43.1596565" lon="10.616515"><ele>185.0</ele><time>2026-04-03T13:11:24.164Z</time></trkpt><trkpt lat="43.1597301" lon="10.6165304"><ele>185.0</ele><time>2026-04-03T13:11:26.171Z</time></trkpt><trkpt lat="43.1598055" lon="10.6165422"><ele>185.0</ele><time>2026-04-03T13:11:29.184Z</time></trkpt><trkpt lat="43.1598782" lon="10.6166014"><ele>185.0</ele><time>2026-04-03T13:11:33.155Z</time></trkpt><trkpt lat="43.1599573" lon="10.616637"><ele>185.0</ele><time>2026-04-03T13:11:36.164Z</time></trkpt><trkpt lat="43.1600324" lon="10.616672"><ele>185.0</ele><time>2026-04-03T13:11:40.178Z</time></trkpt><trkpt lat="43.1600905" lon="10.6167574"><ele>185.0</ele><time>2026-04-03T13:11:45.157Z</time></trkpt><trkpt lat="43.1601024" lon="10.6168463"><ele>185.33333333333331</ele><time>2026-04-03T13:11:48.145Z</time></trkpt><trkpt lat="43.1601034" lon="10.6169449"><ele>185.66666666666666</ele><time>2026-04-03T13:11:51.16Z</time></trkpt><trkpt lat="43.1601337" lon="10.6170486"><ele>186.0</ele><time>2026-04-03T13:11:55.183Z</time></trkpt><trkpt lat="43.1601232" lon="10.6171463"><ele>186.33333333333334</ele><time>2026-04-03T13:11:59.157Z</time></trkpt><trkpt lat="43.1600887" lon="10.617236"><ele>186.66666666666669</ele><time>2026-04-03T13:12:03.164Z</time></trkpt><trkpt lat="43.1600081" lon="10.6172621"><ele>187.0</ele><time>2026-04-03T13:12:07.159Z</time></trkpt><trkpt lat="43.1599657" lon="10.6173632"><ele>189.39999999999998</ele><time>2026-04-03T13:12:11.143Z</time></trkpt><trkpt lat="43.1599435" lon="10.6174468"><ele>191.79999999999998</ele><time>2026-04-03T13:12:13.134Z</time></trkpt><trkpt lat="43.1599237" lon="10.6175389"><ele>194.2</ele><time>2026-04-03T13:12:16.139Z</time></trkpt><trkpt lat="43.1597438" lon="10.6176633"><ele>196.6</ele><time>2026-04-03T13:12:25.16Z</time></trkpt><trkpt lat="43.1597085" lon="10.6177491"><ele>199.0</ele><time>2026-04-03T13:12:28.165Z</time></trkpt><trkpt lat="43.1596898" lon="10.6178471"><ele>201.28571428571428</ele><time>2026-04-03T13:12:31.177Z</time></trkpt><trkpt lat="43.1596681" lon="10.6179287"><ele>203.57142857142856</ele><time>2026-04-03T13:12:34.156Z</time></trkpt><trkpt lat="43.1596606" lon="10.6180161"><ele>205.85714285714283</ele><time>2026-04-03T13:12:36.148Z</time></trkpt><trkpt lat="43.1596589" lon="10.6181088"><ele>208.14285714285714</ele><time>2026-04-03T13:12:38.151Z</time></trkpt><trkpt lat="43.1596424" lon="10.6182156"><ele>210.42857142857144</ele><time>2026-04-03T13:12:42.156Z</time></trkpt><trkpt lat="43.1595842" lon="10.6183016"><ele>212.7142857142857</ele><time>2026-04-03T13:12:46.159Z</time></trkpt><trkpt lat="43.1595286" lon="10.6183586"><ele>215.0</ele><time>2026-04-03T13:12:49.159Z</time></trkpt><trkpt lat="43.1594829" lon="10.6184421"><ele>215.0</ele><time>2026-04-03T13:12:52.169Z</time></trkpt><trkpt lat="43.1594534" lon="10.6185268"><ele>215.0</ele><time>2026-04-03T13:12:55.169Z</time></trkpt><trkpt lat="43.1594153" lon="10.6186176"><ele>215.0</ele><time>2026-04-03T13:12:59.152Z</time></trkpt><trkpt lat="43.1593581" lon="10.61869"><ele>215.0</ele><time>2026-04-03T13:13:02.179Z</time></trkpt><trkpt lat="43.1593219" lon="10.6187639"><ele>215.0</ele><time>2026-04-03T13:13:06.158Z</time></trkpt><trkpt lat="43.1592557" lon="10.6187474"><ele>215.0</ele><time>2026-04-03T13:13:08.151Z</time></trkpt><trkpt lat="43.1591855" lon="10.6187575"><ele>215.0</ele><time>2026-04-03T13:13:11.137Z</time></trkpt><trkpt lat="43.1591298" lon="10.6188435"><ele>217.00000000000003</ele><time>2026-04-03T13:13:17.136Z</time></trkpt><trkpt lat="43.1590468" lon="10.6188822"><ele>219.0</ele><time>2026-04-03T13:13:20.137Z</time></trkpt><trkpt lat="43.1589755" lon="10.618913"><ele>221.0</ele><time>2026-04-03T13:13:23.141Z</time></trkpt><trkpt lat="43.158913" lon="10.6189825"><ele>223.0</ele><time>2026-04-03T13:13:26.151Z</time></trkpt><trkpt lat="43.1588425" lon="10.6190026"><ele>225.00000000000003</ele><time>2026-04-03T13:13:43.147Z</time></trkpt><trkpt lat="43.1587822" lon="10.6190859"><ele>227.0</ele><time>2026-04-03T13:13:45.152Z</time></trkpt><trkpt lat="43.1587169" lon="10.6190904"><ele>229.66666666666669</ele><time>2026-04-03T13:14:15.155Z</time></trkpt><trkpt lat="43.1586645" lon="10.6192277"><ele>232.33333333333334</ele><time>2026-04-03T13:14:19.136Z</time></trkpt><trkpt lat="43.1586653" lon="10.619353"><ele>235.0</ele><time>2026-04-03T13:14:21.171Z</time></trkpt><trkpt lat="43.1587527" lon="10.6193484"><ele>237.66666666666669</ele><time>2026-04-03T13:14:32.147Z</time></trkpt><trkpt lat="43.1587445" lon="10.6192586"><ele>240.33333333333334</ele><time>2026-04-03T13:14:36.153Z</time></trkpt><trkpt lat="43.1588095" lon="10.6192189"><ele>243.0</ele><time>2026-04-03T13:14:49.148Z</time></trkpt><trkpt lat="43.1587195" lon="10.6191863"><ele>243.0</ele><time>2026-04-03T13:15:19.143Z</time></trkpt><trkpt lat="43.1586578" lon="10.619228"><ele>243.0</ele><time>2026-04-03T13:15:52.174Z</time></trkpt><trkpt lat="43.1585866" lon="10.619178"><ele>243.0</ele><time>2026-04-03T13:15:56.171Z</time></trkpt><trkpt lat="43.1585154" lon="10.6191596"><ele>243.0</ele><time>2026-04-03T13:15:59.169Z</time></trkpt><trkpt lat="43.1584526" lon="10.6190945"><ele>243.0</ele><time>2026-04-03T13:16:02.154Z</time></trkpt><trkpt lat="43.1584122" lon="10.6190259"><ele>243.0</ele><time>2026-04-03T13:16:07.175Z</time></trkpt><trkpt lat="43.158343" lon="10.6189574"><ele>243.0</ele><time>2026-04-03T13:16:12.178Z</time></trkpt><trkpt lat="43.1582854" lon="10.618888"><ele>243.0</ele><time>2026-04-03T13:16:15.173Z</time></trkpt><trkpt lat="43.1582279" lon="10.6188107"><ele>243.0</ele><time>2026-04-03T13:16:18.179Z</time></trkpt><trkpt lat="43.1581539" lon="10.618775"><ele>243.0</ele><time>2026-04-03T13:16:21.181Z</time></trkpt><trkpt lat="43.1580671" lon="10.6187406"><ele>243.0</ele><time>2026-04-03T13:16:24.179Z</time></trkpt><trkpt lat="43.1579992" lon="10.6187268"><ele>243.0</ele><time>2026-04-03T13:16:27.183Z</time></trkpt><trkpt lat="43.1579305" lon="10.6187388"><ele>243.14285714285714</ele><time>2026-04-03T13:16:30.188Z</time></trkpt><trkpt lat="43.1578629" lon="10.618754"><ele>243.28571428571428</ele><time>2026-04-03T13:16:33.165Z</time></trkpt><trkpt lat="43.1578063" lon="10.618821"><ele>243.42857142857142</ele><time>2026-04-03T13:16:37.157Z</time></trkpt><trkpt lat="43.1577738" lon="10.6189042"><ele>243.57142857142856</ele><time>2026-04-03T13:16:41.15Z</time></trkpt><trkpt lat="43.1577486" lon="10.6189919"><ele>243.71428571428572</ele><time>2026-04-03T13:16:44.173Z</time></trkpt><trkpt lat="43.1577051" lon="10.6190715"><ele>243.85714285714283</ele><time>2026-04-03T13:16:47.164Z</time></trkpt><trkpt lat="43.1576487" lon="10.6191398"><ele>243.99999999999997</ele><time>2026-04-03T13:16:50.172Z</time></trkpt><trkpt lat="43.1576036" lon="10.6192224"><ele>243.99999999999997</ele><time>2026-04-03T13:16:53.186Z</time></trkpt><trkpt lat="43.1575816" lon="10.6193101"><ele>244.0</ele><time>2026-04-03T13:16:56.176Z</time></trkpt><trkpt lat="43.1575454" lon="10.6194176"><ele>244.0</ele><time>2026-04-03T13:17:00.175Z</time></trkpt><trkpt lat="43.1575193" lon="10.6195152"><ele>244.0</ele><time>2026-04-03T13:17:03.179Z</time></trkpt><trkpt lat="43.1574829" lon="10.6196087"><ele>243.99999999999997</ele><time>2026-04-03T13:17:07.18Z</time></trkpt><trkpt lat="43.1574424" lon="10.6196842"><ele>244.0</ele><time>2026-04-03T13:17:11.165Z</time></trkpt><trkpt lat="43.1574415" lon="10.6197857"><ele>245.1428571428571</ele><time>2026-04-03T13:17:15.176Z</time></trkpt><trkpt lat="43.1574146" lon="10.6198827"><ele>246.28571428571428</ele><time>2026-04-03T13:17:19.178Z</time></trkpt><trkpt lat="43.1573891" lon="10.6199712"><ele>247.42857142857142</ele><time>2026-04-03T13:17:23.175Z</time></trkpt><trkpt lat="43.1573451" lon="10.6200554"><ele>248.57142857142856</ele><time>2026-04-03T13:17:27.188Z</time></trkpt><trkpt lat="43.1573163" lon="10.6201358"><ele>249.71428571428572</ele><time>2026-04-03T13:17:31.183Z</time></trkpt><trkpt lat="43.1572803" lon="10.6202143"><ele>250.85714285714286</ele><time>2026-04-03T13:17:34.177Z</time></trkpt><trkpt lat="43.1572511" lon="10.6202983"><ele>252.0</ele><time>2026-04-03T13:17:38.186Z</time></trkpt><trkpt lat="43.1572" lon="10.6203882"><ele>255.85714285714286</ele><time>2026-04-03T13:17:42.181Z</time></trkpt><trkpt lat="43.1571771" lon="10.620487"><ele>259.7142857142857</ele><time>2026-04-03T13:17:47.166Z</time></trkpt><trkpt lat="43.1571449" lon="10.6205691"><ele>263.57142857142856</ele><time>2026-04-03T13:17:51.175Z</time></trkpt><trkpt lat="43.1570913" lon="10.6206267"><ele>267.42857142857144</ele><time>2026-04-03T13:17:55.162Z</time></trkpt><trkpt lat="43.1570225" lon="10.6206458"><ele>271.2857142857143</ele><time>2026-04-03T13:17:59.167Z</time></trkpt><trkpt lat="43.1569878" lon="10.6207213"><ele>275.1428571428571</ele><time>2026-04-03T13:18:02.179Z</time></trkpt><trkpt lat="43.1569307" lon="10.6207824"><ele>279.0</ele><time>2026-04-03T13:18:06.168Z</time></trkpt><trkpt lat="43.1568822" lon="10.6208693"><ele>279.0</ele><time>2026-04-03T13:18:10.174Z</time></trkpt><trkpt lat="43.1568575" lon="10.6209655"><ele>279.0</ele><time>2026-04-03T13:18:13.176Z</time></trkpt><trkpt lat="43.1568419" lon="10.6210568"><ele>279.0</ele><time>2026-04-03T13:18:15.169Z</time></trkpt><trkpt lat="43.1568521" lon="10.6211857"><ele>279.0</ele><time>2026-04-03T13:18:18.185Z</time></trkpt><trkpt lat="43.1568804" lon="10.6212799"><ele>279.0</ele><time>2026-04-03T13:18:21.177Z</time></trkpt><trkpt lat="43.1569417" lon="10.6213847"><ele>279.0</ele><time>2026-04-03T13:18:25.171Z</time></trkpt><trkpt lat="43.1569844" lon="10.6214797"><ele>281.1428571428571</ele><time>2026-04-03T13:18:29.163Z</time></trkpt><trkpt lat="43.1570114" lon="10.6215689"><ele>283.2857142857143</ele><time>2026-04-03T13:18:32.174Z</time></trkpt><trkpt lat="43.1570193" lon="10.6216686"><ele>285.42857142857144</ele><time>2026-04-03T13:18:35.17Z</time></trkpt><trkpt lat="43.1569925" lon="10.6217676"><ele>287.57142857142856</ele><time>2026-04-03T13:18:38.194Z</time></trkpt><trkpt lat="43.1569689" lon="10.6218491"><ele>289.7142857142857</ele><time>2026-04-03T13:18:42.18Z</time></trkpt><trkpt lat="43.1569668" lon="10.6219463"><ele>291.85714285714283</ele><time>2026-04-03T13:18:45.18Z</time></trkpt><trkpt lat="43.1569397" lon="10.6220242"><ele>294.0</ele><time>2026-04-03T13:18:48.185Z</time></trkpt><trkpt lat="43.1569131" lon="10.6221025"><ele>294.0</ele><time>2026-04-03T13:18:51.181Z</time></trkpt><trkpt lat="43.156863" lon="10.6221737"><ele>294.0</ele><time>2026-04-03T13:18:55.189Z</time></trkpt><trkpt lat="43.1568015" lon="10.6222342"><ele>294.0</ele><time>2026-04-03T13:19:00.171Z</time></trkpt><trkpt lat="43.1567487" lon="10.6222853"><ele>294.0</ele><time>2026-04-03T13:19:02.167Z</time></trkpt><trkpt lat="43.15671" lon="10.6223573"><ele>294.0</ele><time>2026-04-03T13:19:04.174Z</time></trkpt><trkpt lat="43.1566545" lon="10.6224642"><ele>294.0</ele><time>2026-04-03T13:19:07.173Z</time></trkpt><trkpt lat="43.1566047" lon="10.6225253"><ele>294.0</ele><time>2026-04-03T13:19:09.177Z</time></trkpt><trkpt lat="43.1565502" lon="10.6225754"><ele>295.6666666666667</ele><time>2026-04-03T13:19:11.18Z</time></trkpt><trkpt lat="43.1564771" lon="10.6226509"><ele>297.3333333333333</ele><time>2026-04-03T13:19:14.2Z</time></trkpt><trkpt lat="43.1564067" lon="10.6226938"><ele>299.0</ele><time>2026-04-03T13:19:17.188Z</time></trkpt><trkpt lat="43.156346" lon="10.6227233"><ele>300.66666666666663</ele><time>2026-04-03T13:19:19.186Z</time></trkpt><trkpt lat="43.1562853" lon="10.6227527"><ele>302.3333333333333</ele><time>2026-04-03T13:19:21.185Z</time></trkpt><trkpt lat="43.1561919" lon="10.6227728"><ele>304.0</ele><time>2026-04-03T13:19:24.179Z</time></trkpt><trkpt lat="43.1561264" lon="10.6227672"><ele>304.0</ele><time>2026-04-03T13:19:26.185Z</time></trkpt><trkpt lat="43.1560505" lon="10.6227588"><ele>304.0</ele><time>2026-04-03T13:19:28.182Z</time></trkpt><trkpt lat="43.1559868" lon="10.6227678"><ele>304.0</ele><time>2026-04-03T13:19:30.18Z</time></trkpt><trkpt lat="43.1559199" lon="10.6227842"><ele>304.0</ele><time>2026-04-03T13:19:32.182Z</time></trkpt><trkpt lat="43.1558455" lon="10.6227949"><ele>304.0</ele><time>2026-04-03T13:19:34.186Z</time></trkpt><trkpt lat="43.1557705" lon="10.6228179"><ele>304.0</ele><time>2026-04-03T13:19:36.184Z</time></trkpt><trkpt lat="43.1557089" lon="10.622843"><ele>304.0</ele><time>2026-04-03T13:19:38.184Z</time></trkpt><trkpt lat="43.1556572" lon="10.6228989"><ele>303.16666666666663</ele><time>2026-04-03T13:19:40.181Z</time></trkpt><trkpt lat="43.1556025" lon="10.6229856"><ele>302.3333333333333</ele><time>2026-04-03T13:19:43.18Z</time></trkpt><trkpt lat="43.155565" lon="10.6230661"><ele>301.5</ele><time>2026-04-03T13:19:45.191Z</time></trkpt><trkpt lat="43.1555208" lon="10.623143"><ele>300.6666666666667</ele><time>2026-04-03T13:19:47.17Z</time></trkpt><trkpt lat="43.1555042" lon="10.6232824"><ele>299.83333333333337</ele><time>2026-04-03T13:19:50.151Z</time></trkpt><trkpt lat="43.1554759" lon="10.623388"><ele>299.0</ele><time>2026-04-03T13:19:52.152Z</time></trkpt><trkpt lat="43.1554264" lon="10.6234749"><ele>299.0</ele><time>2026-04-03T13:19:54.155Z</time></trkpt><trkpt lat="43.1553565" lon="10.6235667"><ele>299.0</ele><time>2026-04-03T13:19:56.158Z</time></trkpt><trkpt lat="43.1553086" lon="10.6236414"><ele>299.0</ele><time>2026-04-03T13:19:58.154Z</time></trkpt><trkpt lat="43.1552585" lon="10.6237179"><ele>299.0</ele><time>2026-04-03T13:20:02.161Z</time></trkpt><trkpt lat="43.1551908" lon="10.6237106"><ele>299.0</ele><time>2026-04-03T13:20:11.159Z</time></trkpt><trkpt lat="43.1551276" lon="10.623701"><ele>299.0</ele><time>2026-04-03T13:20:14.148Z</time></trkpt><trkpt lat="43.1550557" lon="10.6236978"><ele>299.0</ele><time>2026-04-03T13:20:17.147Z</time></trkpt><trkpt lat="43.1549994" lon="10.6236526"><ele>299.57142857142856</ele><time>2026-04-03T13:20:20.155Z</time></trkpt><trkpt lat="43.1550198" lon="10.6237486"><ele>300.14285714285717</ele><time>2026-04-03T13:20:22.169Z</time></trkpt><trkpt lat="43.1549853" lon="10.6238389"><ele>300.7142857142857</ele><time>2026-04-03T13:20:24.164Z</time></trkpt><trkpt lat="43.1549375" lon="10.6239114"><ele>301.2857142857143</ele><time>2026-04-03T13:20:27.168Z</time></trkpt><trkpt lat="43.154911" lon="10.623992"><ele>301.85714285714283</ele><time>2026-04-03T13:20:30.177Z</time></trkpt><trkpt lat="43.1548675" lon="10.6240826"><ele>302.42857142857144</ele><time>2026-04-03T13:20:34.175Z</time></trkpt><trkpt lat="43.1548013" lon="10.6241423"><ele>303.0</ele><time>2026-04-03T13:20:37.174Z</time></trkpt><trkpt lat="43.1547259" lon="10.6241916"><ele>303.0</ele><time>2026-04-03T13:20:41.18Z</time></trkpt><trkpt lat="43.1546676" lon="10.6242357"><ele>303.0</ele><time>2026-04-03T13:20:44.165Z</time></trkpt><trkpt lat="43.1546107" lon="10.624308"><ele>303.0</ele><time>2026-04-03T13:20:47.168Z</time></trkpt><trkpt lat="43.1545783" lon="10.624391"><ele>303.0</ele><time>2026-04-03T13:20:50.171Z</time></trkpt><trkpt lat="43.154547" lon="10.6244937"><ele>303.0</ele><time>2026-04-03T13:20:53.148Z</time></trkpt><trkpt lat="43.1544836" lon="10.6244978"><ele>303.0</ele><time>2026-04-03T13:20:55.153Z</time></trkpt><trkpt lat="43.154413" lon="10.6245412"><ele>303.0</ele><time>2026-04-03T13:20:57.157Z</time></trkpt><trkpt lat="43.1543339" lon="10.6245763"><ele>307.8333333333333</ele><time>2026-04-03T13:21:01.164Z</time></trkpt><trkpt lat="43.1542614" lon="10.6245547"><ele>312.6666666666667</ele><time>2026-04-03T13:21:03.156Z</time></trkpt><trkpt lat="43.154191" lon="10.624525"><ele>317.5</ele><time>2026-04-03T13:21:05.158Z</time></trkpt><trkpt lat="43.1541326" lon="10.624609"><ele>322.33333333333337</ele><time>2026-04-03T13:21:08.164Z</time></trkpt><trkpt lat="43.1540497" lon="10.6245984"><ele>327.1666666666667</ele><time>2026-04-03T13:21:11.172Z</time></trkpt><trkpt lat="43.1539677" lon="10.6245866"><ele>332.0</ele><time>2026-04-03T13:21:14.167Z</time></trkpt><trkpt lat="43.153892" lon="10.6246005"><ele>332.0</ele><time>2026-04-03T13:21:17.163Z</time></trkpt><trkpt lat="43.1538194" lon="10.6246009"><ele>332.0</ele><time>2026-04-03T13:21:20.165Z</time></trkpt><trkpt lat="43.1537428" lon="10.624591"><ele>332.0</ele><time>2026-04-03T13:21:23.168Z</time></trkpt><trkpt lat="43.1536801" lon="10.6245754"><ele>332.0</ele><time>2026-04-03T13:21:26.175Z</time></trkpt><trkpt lat="43.1536031" lon="10.6245618"><ele>332.0</ele><time>2026-04-03T13:21:31.173Z</time></trkpt><trkpt lat="43.1535349" lon="10.6245752"><ele>332.0</ele><time>2026-04-03T13:21:34.163Z</time></trkpt><trkpt lat="43.1534652" lon="10.6246093"><ele>332.0</ele><time>2026-04-03T13:21:37.166Z</time></trkpt><trkpt lat="43.1533871" lon="10.6246181"><ele>332.0</ele><time>2026-04-03T13:21:41.176Z</time></trkpt><trkpt lat="43.1533146" lon="10.6246094"><ele>332.0</ele><time>2026-04-03T13:21:45.181Z</time></trkpt><trkpt lat="43.153244" lon="10.624678"><ele>332.0</ele><time>2026-04-03T13:21:49.194Z</time></trkpt><trkpt lat="43.1532297" lon="10.6247907"><ele>332.0</ele><time>2026-04-03T13:21:52.182Z</time></trkpt><trkpt lat="43.1532275" lon="10.6248837"><ele>332.0</ele><time>2026-04-03T13:21:55.189Z</time></trkpt><trkpt lat="43.1531857" lon="10.6249735"><ele>332.0</ele><time>2026-04-03T13:21:59.188Z</time></trkpt><trkpt lat="43.1531524" lon="10.6250693"><ele>329.85714285714283</ele><time>2026-04-03T13:22:03.186Z</time></trkpt><trkpt lat="43.1531153" lon="10.6251508"><ele>327.7142857142857</ele><time>2026-04-03T13:22:06.176Z</time></trkpt><trkpt lat="43.1530818" lon="10.6252388"><ele>325.57142857142856</ele><time>2026-04-03T13:22:09.188Z</time></trkpt><trkpt lat="43.1530665" lon="10.6253248"><ele>323.42857142857144</ele><time>2026-04-03T13:22:12.191Z</time></trkpt><trkpt lat="43.1530522" lon="10.6254177"><ele>321.2857142857143</ele><time>2026-04-03T13:22:16.179Z</time></trkpt><trkpt lat="43.1530412" lon="10.6255223"><ele>319.14285714285717</ele><time>2026-04-03T13:22:20.208Z</time></trkpt><trkpt lat="43.1530146" lon="10.6256179"><ele>317.0</ele><time>2026-04-03T13:22:23.18Z</time></trkpt><trkpt lat="43.1530083" lon="10.625725"><ele>317.0</ele><time>2026-04-03T13:22:27.195Z</time></trkpt><trkpt lat="43.1529841" lon="10.6258239"><ele>317.0</ele><time>2026-04-03T13:23:00.191Z</time></trkpt><trkpt lat="43.1529697" lon="10.6259441"><ele>317.0</ele><time>2026-04-03T13:23:03.19Z</time></trkpt><trkpt lat="43.1529679" lon="10.6260519"><ele>317.0</ele><time>2026-04-03T13:23:05.191Z</time></trkpt><trkpt lat="43.1529796" lon="10.6261707"><ele>317.0</ele><time>2026-04-03T13:23:07.193Z</time></trkpt><trkpt lat="43.1529929" lon="10.6262963"><ele>317.0</ele><time>2026-04-03T13:23:09.195Z</time></trkpt><trkpt lat="43.1530028" lon="10.6264164"><ele>319.5</ele><time>2026-04-03T13:23:11.181Z</time></trkpt><trkpt lat="43.1530049" lon="10.6265391"><ele>322.0</ele><time>2026-04-03T13:23:13.176Z</time></trkpt><trkpt lat="43.1530416" lon="10.626675"><ele>324.5</ele><time>2026-04-03T13:23:15.165Z</time></trkpt><trkpt lat="43.1530474" lon="10.6267935"><ele>327.0</ele><time>2026-04-03T13:23:18.182Z</time></trkpt><trkpt lat="43.1530039" lon="10.6268739"><ele>329.5</ele><time>2026-04-03T13:23:20.188Z</time></trkpt><trkpt lat="43.1529605" lon="10.6269751"><ele>332.0</ele><time>2026-04-03T13:23:23.196Z</time></trkpt><trkpt lat="43.1529299" lon="10.6270813"><ele>334.4285714285714</ele><time>2026-04-03T13:23:26.197Z</time></trkpt><trkpt lat="43.1529074" lon="10.627177"><ele>336.8571428571429</ele><time>2026-04-03T13:23:30.191Z</time></trkpt><trkpt lat="43.1528738" lon="10.6272653"><ele>339.2857142857143</ele><time>2026-04-03T13:23:35.186Z</time></trkpt><trkpt lat="43.1528242" lon="10.6273203"><ele>341.71428571428567</ele><time>2026-04-03T13:23:38.181Z</time></trkpt><trkpt lat="43.1527569" lon="10.6273189"><ele>344.1428571428571</ele><time>2026-04-03T13:23:42.182Z</time></trkpt><trkpt lat="43.1526821" lon="10.6273819"><ele>346.57142857142856</ele><time>2026-04-03T13:23:46.183Z</time></trkpt><trkpt lat="43.152617" lon="10.6274011"><ele>349.0</ele><time>2026-04-03T13:23:49.18Z</time></trkpt><trkpt lat="43.1525459" lon="10.6274279"><ele>349.0</ele><time>2026-04-03T13:23:53.19Z</time></trkpt><trkpt lat="43.1524653" lon="10.6274594"><ele>349.0</ele><time>2026-04-03T13:23:58.179Z</time></trkpt><trkpt lat="43.1524035" lon="10.6275136"><ele>349.0</ele><time>2026-04-03T13:24:02.173Z</time></trkpt><trkpt lat="43.1523647" lon="10.6275819"><ele>349.0</ele><time>2026-04-03T13:24:05.168Z</time></trkpt><trkpt lat="43.152364" lon="10.627671"><ele>349.0</ele><time>2026-04-03T13:24:07.168Z</time></trkpt><trkpt lat="43.1523421" lon="10.6277878"><ele>349.0</ele><time>2026-04-03T13:24:10.173Z</time></trkpt><trkpt lat="43.1523424" lon="10.627897"><ele>353.4285714285714</ele><time>2026-04-03T13:24:13.177Z</time></trkpt><trkpt lat="43.152341" lon="10.6279919"><ele>357.85714285714283</ele><time>2026-04-03T13:24:16.18Z</time></trkpt><trkpt lat="43.1523257" lon="10.6280878"><ele>362.2857142857143</ele><time>2026-04-03T13:24:23.191Z</time></trkpt><trkpt lat="43.1523311" lon="10.6281932"><ele>366.71428571428567</ele><time>2026-04-03T13:24:27.215Z</time></trkpt><trkpt lat="43.1523255" lon="10.6282822"><ele>371.14285714285717</ele><time>2026-04-03T13:24:31.178Z</time></trkpt><trkpt lat="43.1522805" lon="10.628365"><ele>375.57142857142856</ele><time>2026-04-03T13:24:35.18Z</time></trkpt><trkpt lat="43.1522629" lon="10.6284497"><ele>380.0</ele><time>2026-04-03T13:24:39.193Z</time></trkpt><trkpt lat="43.1522246" lon="10.6285291"><ele>380.0</ele><time>2026-04-03T13:24:43.198Z</time></trkpt><trkpt lat="43.1521751" lon="10.6285953"><ele>380.0</ele><time>2026-04-03T13:24:47.193Z</time></trkpt><trkpt lat="43.1521464" lon="10.6286953"><ele>380.0</ele><time>2026-04-03T13:24:52.201Z</time></trkpt><trkpt lat="43.1521" lon="10.6287882"><ele>380.0</ele><time>2026-04-03T13:24:57.203Z</time></trkpt><trkpt lat="43.1520365" lon="10.6288617"><ele>380.0</ele><time>2026-04-03T13:25:01.205Z</time></trkpt><trkpt lat="43.1520009" lon="10.6289452"><ele>380.0</ele><time>2026-04-03T13:25:05.203Z</time></trkpt><trkpt lat="43.1519603" lon="10.6290232"><ele>380.6666666666667</ele><time>2026-04-03T13:25:08.193Z</time></trkpt><trkpt lat="43.151908" lon="10.629101"><ele>381.33333333333337</ele><time>2026-04-03T13:25:12.208Z</time></trkpt><trkpt lat="43.1518341" lon="10.6291775"><ele>382.0</ele><time>2026-04-03T13:25:16.197Z</time></trkpt><trkpt lat="43.1517807" lon="10.6292349"><ele>382.6666666666667</ele><time>2026-04-03T13:25:18.192Z</time></trkpt><trkpt lat="43.1517398" lon="10.6293015"><ele>383.3333333333333</ele><time>2026-04-03T13:25:20.194Z</time></trkpt><trkpt lat="43.1517112" lon="10.629401"><ele>384.0</ele><time>2026-04-03T13:25:23.189Z</time></trkpt><trkpt lat="43.1516911" lon="10.6295059"><ele>383.99999999999994</ele><time>2026-04-03T13:25:26.228Z</time></trkpt><trkpt lat="43.1516523" lon="10.6296028"><ele>384.0</ele><time>2026-04-03T13:25:29.193Z</time></trkpt><trkpt lat="43.1516161" lon="10.6296754"><ele>384.0</ele><time>2026-04-03T13:25:31.191Z</time></trkpt><trkpt lat="43.1515964" lon="10.6297723"><ele>384.0</ele><time>2026-04-03T13:25:34.195Z</time></trkpt><trkpt lat="43.1515924" lon="10.6298614"><ele>384.0</ele><time>2026-04-03T13:25:37.195Z</time></trkpt><trkpt lat="43.1515641" lon="10.6299491"><ele>383.99999999999994</ele><time>2026-04-03T13:25:40.198Z</time></trkpt><trkpt lat="43.1515755" lon="10.6300553"><ele>384.0</ele><time>2026-04-03T13:25:44.198Z</time></trkpt><trkpt lat="43.1515812" lon="10.6301592"><ele>383.99999999999994</ele><time>2026-04-03T13:25:47.199Z</time></trkpt><trkpt lat="43.1515936" lon="10.6302677"><ele>384.0</ele><time>2026-04-03T13:25:50.192Z</time></trkpt><trkpt lat="43.1516099" lon="10.6303518"><ele>384.0</ele><time>2026-04-03T13:25:53.194Z</time></trkpt><trkpt lat="43.1516127" lon="10.6304423"><ele>384.0</ele><time>2026-04-03T13:25:56.213Z</time></trkpt><trkpt lat="43.1516291" lon="10.630535"><ele>384.0</ele><time>2026-04-03T13:25:59.196Z</time></trkpt><trkpt lat="43.1516413" lon="10.6306329"><ele>383.99999999999994</ele><time>2026-04-03T13:26:02.192Z</time></trkpt><trkpt lat="43.1516789" lon="10.6307114"><ele>384.0</ele><time>2026-04-03T13:26:05.193Z</time></trkpt><trkpt lat="43.1516931" lon="10.6308196"><ele>384.57142857142856</ele><time>2026-04-03T13:26:09.19Z</time></trkpt><trkpt lat="43.1517016" lon="10.6309095"><ele>385.1428571428571</ele><time>2026-04-03T13:26:12.195Z</time></trkpt><trkpt lat="43.1517158" lon="10.630996"><ele>385.71428571428567</ele><time>2026-04-03T13:26:15.194Z</time></trkpt><trkpt lat="43.1517292" lon="10.6311064"><ele>386.2857142857143</ele><time>2026-04-03T13:26:18.201Z</time></trkpt><trkpt lat="43.1517484" lon="10.6311887"><ele>386.8571428571429</ele><time>2026-04-03T13:26:21.201Z</time></trkpt><trkpt lat="43.1517447" lon="10.6312894"><ele>387.4285714285714</ele><time>2026-04-03T13:26:25.194Z</time></trkpt><trkpt lat="43.1517358" lon="10.6314017"><ele>388.0</ele><time>2026-04-03T13:26:28.196Z</time></trkpt><trkpt lat="43.1517336" lon="10.631521"><ele>389.1666666666667</ele><time>2026-04-03T13:26:31.189Z</time></trkpt><trkpt lat="43.1517031" lon="10.6316198"><ele>390.33333333333337</ele><time>2026-04-03T13:26:34.192Z</time></trkpt><trkpt lat="43.1516462" lon="10.6317278"><ele>391.5</ele><time>2026-04-03T13:26:38.17Z</time></trkpt><trkpt lat="43.1515963" lon="10.631797"><ele>392.66666666666663</ele><time>2026-04-03T13:26:40.166Z</time></trkpt><trkpt lat="43.1515462" lon="10.63185"><ele>393.8333333333333</ele><time>2026-04-03T13:26:44.171Z</time></trkpt><trkpt lat="43.1514932" lon="10.6319444"><ele>395.0</ele><time>2026-04-03T13:26:48.189Z</time></trkpt><trkpt lat="43.1514392" lon="10.6320174"><ele>396.16666666666663</ele><time>2026-04-03T13:26:51.185Z</time></trkpt><trkpt lat="43.1513826" lon="10.6320899"><ele>397.3333333333333</ele><time>2026-04-03T13:26:54.191Z</time></trkpt><trkpt lat="43.1513309" lon="10.632174"><ele>398.5</ele><time>2026-04-03T13:26:57.186Z</time></trkpt><trkpt lat="43.1512799" lon="10.6322576"><ele>399.66666666666663</ele><time>2026-04-03T13:27:00.183Z</time></trkpt><trkpt lat="43.1512289" lon="10.6323397"><ele>400.8333333333333</ele><time>2026-04-03T13:27:03.189Z</time></trkpt><trkpt lat="43.1511818" lon="10.6324049"><ele>402.0</ele><time>2026-04-03T13:27:06.189Z</time></trkpt><trkpt lat="43.1511216" lon="10.6324756"><ele>402.0</ele><time>2026-04-03T13:27:09.19Z</time></trkpt><trkpt lat="43.1510671" lon="10.6325423"><ele>402.0</ele><time>2026-04-03T13:27:11.194Z</time></trkpt><trkpt lat="43.1509992" lon="10.632598"><ele>402.0</ele><time>2026-04-03T13:27:13.188Z</time></trkpt><trkpt lat="43.1509431" lon="10.6326499"><ele>402.0</ele><time>2026-04-03T13:27:15.191Z</time></trkpt><trkpt lat="43.1508841" lon="10.6326961"><ele>402.0</ele><time>2026-04-03T13:27:17.2Z</time></trkpt><trkpt lat="43.1507957" lon="10.6327296"><ele>402.0</ele><time>2026-04-03T13:27:20.202Z</time></trkpt><trkpt lat="43.1507312" lon="10.6327625"><ele>402.0</ele><time>2026-04-03T13:27:22.201Z</time></trkpt><trkpt lat="43.1506621" lon="10.6327747"><ele>400.8333333333333</ele><time>2026-04-03T13:27:24.198Z</time></trkpt><trkpt lat="43.1505835" lon="10.6328084"><ele>399.66666666666663</ele><time>2026-04-03T13:27:27.208Z</time></trkpt><trkpt lat="43.150514" lon="10.6328401"><ele>398.5</ele><time>2026-04-03T13:27:29.215Z</time></trkpt><trkpt lat="43.1504332" lon="10.6328895"><ele>397.3333333333333</ele><time>2026-04-03T13:27:31.203Z</time></trkpt><trkpt lat="43.1503587" lon="10.6329552"><ele>396.16666666666663</ele><time>2026-04-03T13:27:33.202Z</time></trkpt><trkpt lat="43.1502759" lon="10.6330413"><ele>395.0</ele><time>2026-04-03T13:27:35.193Z</time></trkpt><trkpt lat="43.1501867" lon="10.6331718"><ele>395.0</ele><time>2026-04-03T13:27:37.204Z</time></trkpt><trkpt lat="43.1501372" lon="10.6332286"><ele>395.0</ele><time>2026-04-03T13:27:38.201Z</time></trkpt><trkpt lat="43.1500506" lon="10.6333418"><ele>395.0</ele><time>2026-04-03T13:27:40.202Z</time></trkpt><trkpt lat="43.1499573" lon="10.6334274"><ele>395.0</ele><time>2026-04-03T13:27:42.195Z</time></trkpt><trkpt lat="43.1498577" lon="10.6334536"><ele>395.0</ele><time>2026-04-03T13:27:44.196Z</time></trkpt><trkpt lat="43.1497793" lon="10.6334202"><ele>395.16666666666663</ele><time>2026-04-03T13:27:46.19Z</time></trkpt><trkpt lat="43.1496923" lon="10.6334002"><ele>395.3333333333333</ele><time>2026-04-03T13:27:48.199Z</time></trkpt><trkpt lat="43.1496114" lon="10.6333978"><ele>395.5</ele><time>2026-04-03T13:27:50.202Z</time></trkpt><trkpt lat="43.1495304" lon="10.6334149"><ele>395.66666666666663</ele><time>2026-04-03T13:27:52.198Z</time></trkpt><trkpt lat="43.1494496" lon="10.633435"><ele>395.8333333333333</ele><time>2026-04-03T13:27:54.192Z</time></trkpt><trkpt lat="43.1493665" lon="10.6334524"><ele>396.0</ele><time>2026-04-03T13:27:57.193Z</time></trkpt><trkpt lat="43.1492963" lon="10.6334855"><ele>396.0</ele><time>2026-04-03T13:28:01.198Z</time></trkpt><trkpt lat="43.1492477" lon="10.6335708"><ele>396.0</ele><time>2026-04-03T13:28:04.194Z</time></trkpt><trkpt lat="43.1492015" lon="10.6336802"><ele>396.0</ele><time>2026-04-03T13:28:07.19Z</time></trkpt><trkpt lat="43.1491698" lon="10.6338012"><ele>396.0</ele><time>2026-04-03T13:28:10.18Z</time></trkpt><trkpt lat="43.1491662" lon="10.6338935"><ele>396.0</ele><time>2026-04-03T13:28:13.164Z</time></trkpt><trkpt lat="43.1491341" lon="10.6340052"><ele>396.0</ele><time>2026-04-03T13:28:16.174Z</time></trkpt><trkpt lat="43.1491153" lon="10.634109"><ele>396.42857142857144</ele><time>2026-04-03T13:28:18.171Z</time></trkpt><trkpt lat="43.1491212" lon="10.6342122"><ele>396.85714285714283</ele><time>2026-04-03T13:28:21.194Z</time></trkpt><trkpt lat="43.1491188" lon="10.6343079"><ele>397.2857142857143</ele><time>2026-04-03T13:28:24.196Z</time></trkpt><trkpt lat="43.1490999" lon="10.6343996"><ele>397.7142857142857</ele><time>2026-04-03T13:28:27.202Z</time></trkpt><trkpt lat="43.1490886" lon="10.634492"><ele>398.1428571428571</ele><time>2026-04-03T13:28:31.225Z</time></trkpt><trkpt lat="43.1491313" lon="10.6345582"><ele>398.57142857142856</ele><time>2026-04-03T13:28:34.21Z</time></trkpt><trkpt lat="43.1491827" lon="10.6344886"><ele>399.0</ele><time>2026-04-03T13:28:38.207Z</time></trkpt><trkpt lat="43.1492044" lon="10.6344073"><ele>399.0</ele><time>2026-04-03T13:28:45.201Z</time></trkpt><trkpt lat="43.1491644" lon="10.6343358"><ele>399.0</ele><time>2026-04-03T13:30:45.191Z</time></trkpt><trkpt lat="43.1492195" lon="10.6342657"><ele>399.0</ele><time>2026-04-03T13:31:11.197Z</time></trkpt><trkpt lat="43.1492556" lon="10.6341914"><ele>399.0</ele><time>2026-04-03T13:31:13.195Z</time></trkpt><trkpt lat="43.1493013" lon="10.6340853"><ele>399.0</ele><time>2026-04-03T13:31:15.198Z</time></trkpt><trkpt lat="43.1493467" lon="10.6339577"><ele>399.0</ele><time>2026-04-03T13:31:17.194Z</time></trkpt><trkpt lat="43.1493924" lon="10.6338309"><ele>399.0</ele><time>2026-04-03T13:31:19.194Z</time></trkpt><trkpt lat="43.1493725" lon="10.6337297"><ele>399.0</ele><time>2026-04-03T13:31:23.195Z</time></trkpt><trkpt lat="43.1492942" lon="10.6336665"><ele>399.0</ele><time>2026-04-03T13:31:25.2Z</time></trkpt><trkpt lat="43.1492031" lon="10.6336622"><ele>399.0</ele><time>2026-04-03T13:31:27.204Z</time></trkpt><trkpt lat="43.1491028" lon="10.6336779"><ele>399.0</ele><time>2026-04-03T13:31:29.2Z</time></trkpt><trkpt lat="43.1490036" lon="10.6336771"><ele>398.2</ele><time>2026-04-03T13:31:31.2Z</time></trkpt><trkpt lat="43.1488956" lon="10.6336282"><ele>397.4</ele><time>2026-04-03T13:31:33.193Z</time></trkpt><trkpt lat="43.1488357" lon="10.6335581"><ele>396.6</ele><time>2026-04-03T13:31:35.189Z</time></trkpt><trkpt lat="43.1487775" lon="10.6334721"><ele>395.8</ele><time>2026-04-03T13:31:38.195Z</time></trkpt><trkpt lat="43.1487333" lon="10.6333763"><ele>395.0</ele><time>2026-04-03T13:31:41.208Z</time></trkpt><trkpt lat="43.1487013" lon="10.6332391"><ele>395.0</ele><time>2026-04-03T13:31:44.197Z</time></trkpt><trkpt lat="43.1486605" lon="10.6331115"><ele>395.0</ele><time>2026-04-03T13:31:46.195Z</time></trkpt><trkpt lat="43.1485873" lon="10.6329617"><ele>395.0</ele><time>2026-04-03T13:31:48.197Z</time></trkpt><trkpt lat="43.1485405" lon="10.6328843"><ele>395.0</ele><time>2026-04-03T13:31:49.204Z</time></trkpt><trkpt lat="43.1484915" lon="10.6328047"><ele>395.0</ele><time>2026-04-03T13:31:50.19Z</time></trkpt><trkpt lat="43.1484351" lon="10.6327348"><ele>393.49999999999994</ele><time>2026-04-03T13:31:51.185Z</time></trkpt><trkpt lat="43.1483896" lon="10.6326597"><ele>392.0</ele><time>2026-04-03T13:31:52.183Z</time></trkpt><trkpt lat="43.1483303" lon="10.6326002"><ele>390.5</ele><time>2026-04-03T13:31:53.188Z</time></trkpt><trkpt lat="43.1482676" lon="10.6325471"><ele>389.0</ele><time>2026-04-03T13:31:54.2Z</time></trkpt><trkpt lat="43.1481819" lon="10.6324276"><ele>387.49999999999994</ele><time>2026-04-03T13:31:56.174Z</time></trkpt><trkpt lat="43.1481302" lon="10.6323649"><ele>386.0</ele><time>2026-04-03T13:31:57.169Z</time></trkpt><trkpt lat="43.148083" lon="10.6322999"><ele>385.99999999999994</ele><time>2026-04-03T13:31:58.176Z</time></trkpt><trkpt lat="43.1480414" lon="10.6322257"><ele>386.0</ele><time>2026-04-03T13:31:59.17Z</time></trkpt><trkpt lat="43.1480038" lon="10.6321341"><ele>386.0</ele><time>2026-04-03T13:32:00.165Z</time></trkpt><trkpt lat="43.1479521" lon="10.6320385"><ele>386.0</ele><time>2026-04-03T13:32:01.169Z</time></trkpt><trkpt lat="43.1479006" lon="10.6319574"><ele>385.99999999999994</ele><time>2026-04-03T13:32:02.16Z</time></trkpt><trkpt lat="43.1478449" lon="10.6318782"><ele>386.0</ele><time>2026-04-03T13:32:03.157Z</time></trkpt><trkpt lat="43.1477772" lon="10.6318207"><ele>385.99999999999994</ele><time>2026-04-03T13:32:04.156Z</time></trkpt><trkpt lat="43.1477241" lon="10.6317731"><ele>386.0</ele><time>2026-04-03T13:32:05.163Z</time></trkpt><trkpt lat="43.1476432" lon="10.6317428"><ele>386.0</ele><time>2026-04-03T13:32:07.159Z</time></trkpt><trkpt lat="43.1475695" lon="10.631707"><ele>386.0</ele><time>2026-04-03T13:32:10.174Z</time></trkpt><trkpt lat="43.147513" lon="10.6315687"><ele>385.99999999999994</ele><time>2026-04-03T13:32:12.157Z</time></trkpt><trkpt lat="43.147521" lon="10.6314652"><ele>386.0</ele><time>2026-04-03T13:32:14.165Z</time></trkpt><trkpt lat="43.1473763" lon="10.6315375"><ele>386.0</ele><time>2026-04-03T13:32:17.151Z</time></trkpt><trkpt lat="43.1473264" lon="10.6316318"><ele>386.0</ele><time>2026-04-03T13:32:18.158Z</time></trkpt><trkpt lat="43.1472622" lon="10.6317196"><ele>386.0</ele><time>2026-04-03T13:32:20.156Z</time></trkpt><trkpt lat="43.147226" lon="10.631798"><ele>386.0</ele><time>2026-04-03T13:32:22.172Z</time></trkpt><trkpt lat="43.1473227" lon="10.631911"><ele>386.0</ele><time>2026-04-03T13:32:26.182Z</time></trkpt><trkpt lat="43.1474058" lon="10.6319612"><ele>385.99999999999994</ele><time>2026-04-03T13:32:28.171Z</time></trkpt><trkpt lat="43.1475172" lon="10.6320175"><ele>386.0</ele><time>2026-04-03T13:32:33.162Z</time></trkpt><trkpt lat="43.1476104" lon="10.6320572"><ele>386.0</ele><time>2026-04-03T13:32:34.168Z</time></trkpt><trkpt lat="43.1476893" lon="10.6320204"><ele>386.0</ele><time>2026-04-03T13:32:36.167Z</time></trkpt><trkpt lat="43.1476732" lon="10.6319337"><ele>385.99999999999994</ele><time>2026-04-03T13:32:38.169Z</time></trkpt><trkpt lat="43.147609" lon="10.6319702"><ele>386.0</ele><time>2026-04-03T13:32:43.169Z</time></trkpt><trkpt lat="43.1475377" lon="10.6319328"><ele>386.20000000000005</ele><time>2026-04-03T13:32:46.176Z</time></trkpt><trkpt lat="43.1474887" lon="10.6319897"><ele>386.40000000000003</ele><time>2026-04-03T13:32:49.173Z</time></trkpt><trkpt lat="43.147417" lon="10.6320631"><ele>386.6</ele><time>2026-04-03T13:32:51.17Z</time></trkpt><trkpt lat="43.147357" lon="10.632119"><ele>386.8</ele><time>2026-04-03T13:32:53.171Z</time></trkpt><trkpt lat="43.1472484" lon="10.6321714"><ele>387.0</ele><time>2026-04-03T13:32:58.172Z</time></trkpt><trkpt lat="43.1471056" lon="10.6321753"><ele>387.0</ele><time>2026-04-03T13:33:00.16Z</time></trkpt><trkpt lat="43.1470222" lon="10.6322324"><ele>387.0</ele><time>2026-04-03T13:33:01.166Z</time></trkpt><trkpt lat="43.1469614" lon="10.6322607"><ele>387.0</ele><time>2026-04-03T13:33:02.161Z</time></trkpt><trkpt lat="43.1468551" lon="10.6322803"><ele>387.0</ele><time>2026-04-03T13:33:09.183Z</time></trkpt><trkpt lat="43.1468041" lon="10.63236"><ele>387.0</ele><time>2026-04-03T13:33:11.18Z</time></trkpt><trkpt lat="43.1467599" lon="10.6324366"><ele>387.0</ele><time>2026-04-03T13:33:13.181Z</time></trkpt><trkpt lat="43.1466745" lon="10.6324394"><ele>387.0</ele><time>2026-04-03T13:33:17.18Z</time></trkpt><trkpt lat="43.1466021" lon="10.6324591"><ele>387.0</ele><time>2026-04-03T13:33:21.192Z</time></trkpt><trkpt lat="43.1465191" lon="10.6325027"><ele>387.0</ele><time>2026-04-03T13:33:27.183Z</time></trkpt><trkpt lat="43.1464576" lon="10.6325558"><ele>387.0</ele><time>2026-04-03T13:33:30.18Z</time></trkpt><trkpt lat="43.1463748" lon="10.6325551"><ele>387.0</ele><time>2026-04-03T13:33:37.207Z</time></trkpt><trkpt lat="43.14631" lon="10.6325501"><ele>387.0</ele><time>2026-04-03T13:33:39.209Z</time></trkpt><trkpt lat="43.1462267" lon="10.63253"><ele>388.6666666666667</ele><time>2026-04-03T13:33:42.211Z</time></trkpt><trkpt lat="43.1461436" lon="10.6324965"><ele>390.33333333333337</ele><time>2026-04-03T13:33:45.211Z</time></trkpt><trkpt lat="43.1460681" lon="10.6324845"><ele>392.0</ele><time>2026-04-03T13:33:48.205Z</time></trkpt><trkpt lat="43.1459911" lon="10.632494"><ele>393.6666666666667</ele><time>2026-04-03T13:33:50.203Z</time></trkpt><trkpt lat="43.1459207" lon="10.6324954"><ele>395.33333333333337</ele><time>2026-04-03T13:33:52.194Z</time></trkpt><trkpt lat="43.1458449" lon="10.6324904"><ele>397.0</ele><time>2026-04-03T13:33:54.196Z</time></trkpt><trkpt lat="43.1457779" lon="10.6324675"><ele>397.00000000000006</ele><time>2026-04-03T13:33:56.197Z</time></trkpt><trkpt lat="43.1457217" lon="10.6323916"><ele>397.0</ele><time>2026-04-03T13:34:05.206Z</time></trkpt><trkpt lat="43.1456924" lon="10.6323065"><ele>397.0</ele><time>2026-04-03T13:34:07.191Z</time></trkpt><trkpt lat="43.1455857" lon="10.6322471"><ele>397.0</ele><time>2026-04-03T13:34:09.185Z</time></trkpt><trkpt lat="43.1455231" lon="10.6322183"><ele>397.00000000000006</ele><time>2026-04-03T13:34:10.18Z</time></trkpt><trkpt lat="43.1454371" lon="10.6321846"><ele>397.0</ele><time>2026-04-03T13:34:12.197Z</time></trkpt><trkpt lat="43.1453369" lon="10.6321541"><ele>397.6666666666667</ele><time>2026-04-03T13:34:14.194Z</time></trkpt><trkpt lat="43.1452501" lon="10.6321356"><ele>398.33333333333337</ele><time>2026-04-03T13:34:16.192Z</time></trkpt><trkpt lat="43.1451584" lon="10.6321244"><ele>399.0</ele><time>2026-04-03T13:34:18.195Z</time></trkpt><trkpt lat="43.1450695" lon="10.6321468"><ele>399.66666666666663</ele><time>2026-04-03T13:34:20.193Z</time></trkpt><trkpt lat="43.1449844" lon="10.6321881"><ele>400.3333333333333</ele><time>2026-04-03T13:34:22.193Z</time></trkpt><trkpt lat="43.1449111" lon="10.6322313"><ele>401.0</ele><time>2026-04-03T13:34:24.191Z</time></trkpt><trkpt lat="43.1448355" lon="10.6322708"><ele>400.99999999999994</ele><time>2026-04-03T13:34:26.195Z</time></trkpt><trkpt lat="43.1447516" lon="10.6323409"><ele>401.0</ele><time>2026-04-03T13:34:28.189Z</time></trkpt><trkpt lat="43.1446757" lon="10.6323918"><ele>401.0</ele><time>2026-04-03T13:34:30.194Z</time></trkpt><trkpt lat="43.1445979" lon="10.6324242"><ele>401.0</ele><time>2026-04-03T13:34:32.182Z</time></trkpt><trkpt lat="43.1445071" lon="10.6324585"><ele>400.99999999999994</ele><time>2026-04-03T13:34:34.191Z</time></trkpt><trkpt lat="43.144426" lon="10.6324764"><ele>401.0</ele><time>2026-04-03T13:34:36.191Z</time></trkpt><trkpt lat="43.1443442" lon="10.6324926"><ele>400.99999999999994</ele><time>2026-04-03T13:34:38.195Z</time></trkpt><trkpt lat="43.1442551" lon="10.6325361"><ele>401.0</ele><time>2026-04-03T13:34:41.196Z</time></trkpt><trkpt lat="43.144161" lon="10.6325553"><ele>401.0</ele><time>2026-04-03T13:34:44.198Z</time></trkpt><trkpt lat="43.1440768" lon="10.6325534"><ele>401.0</ele><time>2026-04-03T13:34:47.206Z</time></trkpt><trkpt lat="43.1440035" lon="10.6325397"><ele>400.99999999999994</ele><time>2026-04-03T13:34:50.198Z</time></trkpt><trkpt lat="43.1439378" lon="10.6325118"><ele>401.0</ele><time>2026-04-03T13:34:53.192Z</time></trkpt><trkpt lat="43.1438646" lon="10.6325194"><ele>402.49999999999994</ele><time>2026-04-03T13:34:55.2Z</time></trkpt><trkpt lat="43.1437874" lon="10.6325405"><ele>404.0</ele><time>2026-04-03T13:34:57.203Z</time></trkpt><trkpt lat="43.143703" lon="10.6325505"><ele>405.5</ele><time>2026-04-03T13:35:00.203Z</time></trkpt><trkpt lat="43.1436222" lon="10.6325771"><ele>407.0</ele><time>2026-04-03T13:35:04.201Z</time></trkpt><trkpt lat="43.143551" lon="10.632597"><ele>408.49999999999994</ele><time>2026-04-03T13:35:07.197Z</time></trkpt><trkpt lat="43.1434762" lon="10.6326303"><ele>410.0</ele><time>2026-04-03T13:35:10.214Z</time></trkpt><trkpt lat="43.1434058" lon="10.6326101"><ele>409.99999999999994</ele><time>2026-04-03T13:35:15.208Z</time></trkpt><trkpt lat="43.1433258" lon="10.6325595"><ele>410.0</ele><time>2026-04-03T13:35:20.209Z</time></trkpt><trkpt lat="43.1432559" lon="10.6325727"><ele>410.0</ele><time>2026-04-03T13:35:22.196Z</time></trkpt><trkpt lat="43.143179" lon="10.6325824"><ele>410.0</ele><time>2026-04-03T13:35:26.208Z</time></trkpt><trkpt lat="43.1430992" lon="10.6326176"><ele>409.99999999999994</ele><time>2026-04-03T13:35:29.207Z</time></trkpt><trkpt lat="43.1430225" lon="10.6326272"><ele>410.0</ele><time>2026-04-03T13:35:34.203Z</time></trkpt><trkpt lat="43.142961" lon="10.6326591"><ele>412.49999999999994</ele><time>2026-04-03T13:35:38.186Z</time></trkpt><trkpt lat="43.1429354" lon="10.6325508"><ele>415.0</ele><time>2026-04-03T13:35:43.167Z</time></trkpt><trkpt lat="43.1428598" lon="10.6324617"><ele>417.5</ele><time>2026-04-03T13:35:46.186Z</time></trkpt><trkpt lat="43.1427765" lon="10.6324253"><ele>420.0</ele><time>2026-04-03T13:35:48.186Z</time></trkpt><trkpt lat="43.1427102" lon="10.632425"><ele>422.49999999999994</ele><time>2026-04-03T13:35:51.174Z</time></trkpt><trkpt lat="43.14261" lon="10.632372"><ele>425.0</ele><time>2026-04-03T13:35:53.161Z</time></trkpt><trkpt lat="43.1425341" lon="10.6323554"><ele>424.99999999999994</ele><time>2026-04-03T13:35:54.166Z</time></trkpt><trkpt lat="43.1424704" lon="10.6323299"><ele>425.0</ele><time>2026-04-03T13:35:55.163Z</time></trkpt><trkpt lat="43.1424268" lon="10.6322587"><ele>425.0</ele><time>2026-04-03T13:35:58.166Z</time></trkpt><trkpt lat="43.142391" lon="10.6321697"><ele>425.0</ele><time>2026-04-03T13:36:00.172Z</time></trkpt><trkpt lat="43.1423183" lon="10.6321692"><ele>424.99999999999994</ele><time>2026-04-03T13:36:03.17Z</time></trkpt><trkpt lat="43.1422201" lon="10.6322198"><ele>425.0</ele><time>2026-04-03T13:36:04.164Z</time></trkpt><trkpt lat="43.142096" lon="10.6322927"><ele>426.6</ele><time>2026-04-03T13:36:05.158Z</time></trkpt><trkpt lat="43.1419517" lon="10.632371"><ele>428.2</ele><time>2026-04-03T13:36:06.158Z</time></trkpt><trkpt lat="43.1418672" lon="10.6324063"><ele>429.79999999999995</ele><time>2026-04-03T13:36:07.157Z</time></trkpt><trkpt lat="43.1419225" lon="10.6323563"><ele>431.4</ele><time>2026-04-03T13:36:10.164Z</time></trkpt><trkpt lat="43.142019" lon="10.6322537"><ele>433.0</ele><time>2026-04-03T13:36:13.165Z</time></trkpt><trkpt lat="43.1419266" lon="10.63224"><ele>432.99999999999994</ele><time>2026-04-03T13:36:15.184Z</time></trkpt><trkpt lat="43.1418595" lon="10.6322228"><ele>433.0</ele><time>2026-04-03T13:36:21.176Z</time></trkpt><trkpt lat="43.1417923" lon="10.6321945"><ele>433.0</ele><time>2026-04-03T13:36:26.165Z</time></trkpt><trkpt lat="43.1417406" lon="10.6321435"><ele>433.0</ele><time>2026-04-03T13:36:28.183Z</time></trkpt><trkpt lat="43.1416793" lon="10.6321224"><ele>433.0</ele><time>2026-04-03T13:36:30.184Z</time></trkpt><trkpt lat="43.1415991" lon="10.6321453"><ele>432.99999999999994</ele><time>2026-04-03T13:36:32.179Z</time></trkpt><trkpt lat="43.1415247" lon="10.6321255"><ele>433.0</ele><time>2026-04-03T13:36:34.184Z</time></trkpt><trkpt lat="43.1414259" lon="10.6321066"><ele>433.6666666666667</ele><time>2026-04-03T13:36:36.183Z</time></trkpt><trkpt lat="43.1413606" lon="10.6320709"><ele>434.33333333333337</ele><time>2026-04-03T13:36:38.185Z</time></trkpt><trkpt lat="43.1412579" lon="10.6320287"><ele>435.0</ele><time>2026-04-03T13:36:41.185Z</time></trkpt><trkpt lat="43.1411951" lon="10.6319942"><ele>435.66666666666663</ele><time>2026-04-03T13:36:43.181Z</time></trkpt><trkpt lat="43.1411265" lon="10.6319817"><ele>436.3333333333333</ele><time>2026-04-03T13:36:45.182Z</time></trkpt><trkpt lat="43.1410583" lon="10.6320004"><ele>437.0</ele><time>2026-04-03T13:36:47.185Z</time></trkpt><trkpt lat="43.1409874" lon="10.6319942"><ele>436.99999999999994</ele><time>2026-04-03T13:36:49.179Z</time></trkpt><trkpt lat="43.1409095" lon="10.6320184"><ele>437.0</ele><time>2026-04-03T13:36:51.176Z</time></trkpt><trkpt lat="43.1408344" lon="10.6320361"><ele>437.0</ele><time>2026-04-03T13:36:53.18Z</time></trkpt><trkpt lat="43.1407609" lon="10.6320582"><ele>437.0</ele><time>2026-04-03T13:36:56.178Z</time></trkpt><trkpt lat="43.140674" lon="10.632096"><ele>436.99999999999994</ele><time>2026-04-03T13:37:00.181Z</time></trkpt><trkpt lat="43.1406094" lon="10.6321833"><ele>437.0</ele><time>2026-04-03T13:37:02.183Z</time></trkpt><trkpt lat="43.1405071" lon="10.6322008"><ele>434.66666666666663</ele><time>2026-04-03T13:37:04.184Z</time></trkpt><trkpt lat="43.1404106" lon="10.6322575"><ele>432.3333333333333</ele><time>2026-04-03T13:37:06.179Z</time></trkpt><trkpt lat="43.1403287" lon="10.6323288"><ele>430.0</ele><time>2026-04-03T13:37:08.174Z</time></trkpt><trkpt lat="43.1402759" lon="10.6323983"><ele>427.66666666666663</ele><time>2026-04-03T13:37:10.176Z</time></trkpt><trkpt lat="43.1402086" lon="10.6324413"><ele>425.3333333333333</ele><time>2026-04-03T13:37:12.17Z</time></trkpt><trkpt lat="43.1401382" lon="10.632503"><ele>423.0</ele><time>2026-04-03T13:37:14.176Z</time></trkpt><trkpt lat="43.1400808" lon="10.6325474"><ele>423.0</ele><time>2026-04-03T13:37:16.169Z</time></trkpt><trkpt lat="43.1400218" lon="10.6326018"><ele>423.0</ele><time>2026-04-03T13:37:18.173Z</time></trkpt><trkpt lat="43.1399601" lon="10.6326827"><ele>423.0</ele><time>2026-04-03T13:37:20.179Z</time></trkpt><trkpt lat="43.1399167" lon="10.6327532"><ele>423.0</ele><time>2026-04-03T13:37:22.182Z</time></trkpt><trkpt lat="43.1398569" lon="10.6328533"><ele>423.0</ele><time>2026-04-03T13:37:24.184Z</time></trkpt><trkpt lat="43.1397869" lon="10.6329262"><ele>423.0</ele><time>2026-04-03T13:37:26.182Z</time></trkpt><trkpt lat="43.1397201" lon="10.6329611"><ele>424.0</ele><time>2026-04-03T13:37:29.184Z</time></trkpt><trkpt lat="43.1397304" lon="10.6330543"><ele>425.0</ele><time>2026-04-03T13:37:51.193Z</time></trkpt><trkpt lat="43.1397801" lon="10.6331081"><ele>426.0</ele><time>2026-04-03T13:37:55.192Z</time></trkpt><trkpt lat="43.1397558" lon="10.6330132"><ele>427.0</ele><time>2026-04-03T13:40:36.198Z</time></trkpt><trkpt lat="43.1396994" lon="10.6329567"><ele>428.0</ele><time>2026-04-03T13:40:40.199Z</time></trkpt><trkpt lat="43.1396207" lon="10.6329262"><ele>429.0</ele><time>2026-04-03T13:40:43.196Z</time></trkpt><trkpt lat="43.13956" lon="10.6328619"><ele>430.0</ele><time>2026-04-03T13:40:46.184Z</time></trkpt><trkpt lat="43.1395095" lon="10.6327893"><ele>430.0</ele><time>2026-04-03T13:40:49.189Z</time></trkpt><trkpt lat="43.1394381" lon="10.6327749"><ele>430.0</ele><time>2026-04-03T13:40:52.194Z</time></trkpt><trkpt lat="43.139374" lon="10.6327773"><ele>430.0</ele><time>2026-04-03T13:40:54.217Z</time></trkpt><trkpt lat="43.1393045" lon="10.6327938"><ele>430.0</ele><time>2026-04-03T13:40:56.201Z</time></trkpt><trkpt lat="43.139239" lon="10.6327894"><ele>430.0</ele><time>2026-04-03T13:40:59.18Z</time></trkpt><trkpt lat="43.1391753" lon="10.632795"><ele>430.0</ele><time>2026-04-03T13:41:03.183Z</time></trkpt><trkpt lat="43.139105" lon="10.6328088"><ele>430.0</ele><time>2026-04-03T13:41:08.183Z</time></trkpt><trkpt lat="43.1390516" lon="10.6328631"><ele>431.2857142857143</ele><time>2026-04-03T13:41:11.177Z</time></trkpt><trkpt lat="43.138995" lon="10.6329152"><ele>432.5714285714286</ele><time>2026-04-03T13:41:17.186Z</time></trkpt><trkpt lat="43.1389068" lon="10.632919"><ele>433.8571428571429</ele><time>2026-04-03T13:41:25.207Z</time></trkpt><trkpt lat="43.1388449" lon="10.6328486"><ele>435.1428571428571</ele><time>2026-04-03T13:41:28.194Z</time></trkpt><trkpt lat="43.1387947" lon="10.6327747"><ele>436.42857142857144</ele><time>2026-04-03T13:41:32.193Z</time></trkpt><trkpt lat="43.1387353" lon="10.6327287"><ele>437.7142857142857</ele><time>2026-04-03T13:41:35.177Z</time></trkpt><trkpt lat="43.1386685" lon="10.6327516"><ele>439.0</ele><time>2026-04-03T13:41:38.184Z</time></trkpt><trkpt lat="43.1386031" lon="10.6327994"><ele>439.00000000000006</ele><time>2026-04-03T13:41:40.19Z</time></trkpt><trkpt lat="43.1385161" lon="10.6328162"><ele>439.0</ele><time>2026-04-03T13:41:42.192Z</time></trkpt><trkpt lat="43.138439" lon="10.6328223"><ele>439.0</ele><time>2026-04-03T13:41:44.197Z</time></trkpt><trkpt lat="43.138376" lon="10.6328159"><ele>439.0</ele><time>2026-04-03T13:41:46.2Z</time></trkpt><trkpt lat="43.1383071" lon="10.6328006"><ele>439.00000000000006</ele><time>2026-04-03T13:41:50.185Z</time></trkpt><trkpt lat="43.1382317" lon="10.6328292"><ele>439.0</ele><time>2026-04-03T13:41:53.187Z</time></trkpt><trkpt lat="43.1381492" lon="10.6328344"><ele>443.2857142857143</ele><time>2026-04-03T13:41:56.204Z</time></trkpt><trkpt lat="43.1380642" lon="10.632855"><ele>447.57142857142856</ele><time>2026-04-03T13:41:59.187Z</time></trkpt><trkpt lat="43.1380009" lon="10.6328808"><ele>451.8571428571429</ele><time>2026-04-03T13:42:02.19Z</time></trkpt><trkpt lat="43.1379402" lon="10.6329144"><ele>456.1428571428571</ele><time>2026-04-03T13:42:05.198Z</time></trkpt><trkpt lat="43.1378725" lon="10.63293"><ele>460.42857142857144</ele><time>2026-04-03T13:42:08.194Z</time></trkpt><trkpt lat="43.1378182" lon="10.632982"><ele>464.7142857142857</ele><time>2026-04-03T13:42:11.192Z</time></trkpt><trkpt lat="43.1377565" lon="10.6329994"><ele>469.0</ele><time>2026-04-03T13:42:15.192Z</time></trkpt><trkpt lat="43.1376934" lon="10.6329969"><ele>469.00000000000006</ele><time>2026-04-03T13:42:18.198Z</time></trkpt><trkpt lat="43.1376204" lon="10.6329784"><ele>469.0</ele><time>2026-04-03T13:42:22.196Z</time></trkpt><trkpt lat="43.1375504" lon="10.6329501"><ele>469.0</ele><time>2026-04-03T13:42:27.208Z</time></trkpt><trkpt lat="43.1374911" lon="10.6329948"><ele>469.0</ele><time>2026-04-03T13:42:29.189Z</time></trkpt><trkpt lat="43.1374214" lon="10.6329528"><ele>469.00000000000006</ele><time>2026-04-03T13:42:35.176Z</time></trkpt><trkpt lat="43.1373983" lon="10.6330972"><ele>469.0</ele><time>2026-04-03T13:42:41.153Z</time></trkpt><trkpt lat="43.1374945" lon="10.6330642"><ele>469.0</ele><time>2026-04-03T13:42:48.152Z</time></trkpt><trkpt lat="43.1375664" lon="10.633013"><ele>469.0</ele><time>2026-04-03T13:42:50.151Z</time></trkpt><trkpt lat="43.1376669" lon="10.632948"><ele>469.0</ele><time>2026-04-03T13:42:52.144Z</time></trkpt><trkpt lat="43.1375958" lon="10.6329358"><ele>469.0</ele><time>2026-04-03T13:42:53.15Z</time></trkpt><trkpt lat="43.1374405" lon="10.6329674"><ele>469.0</ele><time>2026-04-03T13:42:54.161Z</time></trkpt><trkpt lat="43.1373233" lon="10.6329938"><ele>472.6</ele><time>2026-04-03T13:42:55.161Z</time></trkpt><trkpt lat="43.1372269" lon="10.6330186"><ele>476.2</ele><time>2026-04-03T13:42:56.167Z</time></trkpt><trkpt lat="43.1371461" lon="10.6330245"><ele>479.80000000000007</ele><time>2026-04-03T13:42:57.171Z</time></trkpt><trkpt lat="43.1370412" lon="10.6330041"><ele>483.40000000000003</ele><time>2026-04-03T13:43:04.182Z</time></trkpt><trkpt lat="43.1369738" lon="10.6329953"><ele>487.0</ele><time>2026-04-03T13:43:05.177Z</time></trkpt><trkpt lat="43.1368625" lon="10.6330008"><ele>487.00000000000006</ele><time>2026-04-03T13:43:07.178Z</time></trkpt><trkpt lat="43.1367901" lon="10.6329951"><ele>487.0</ele><time>2026-04-03T13:43:10.19Z</time></trkpt><trkpt lat="43.1367126" lon="10.6329853"><ele>487.0</ele><time>2026-04-03T13:43:14.208Z</time></trkpt><trkpt lat="43.1366442" lon="10.6329535"><ele>487.0</ele><time>2026-04-03T13:43:17.191Z</time></trkpt><trkpt lat="43.136564" lon="10.6329077"><ele>487.00000000000006</ele><time>2026-04-03T13:43:20.189Z</time></trkpt><trkpt lat="43.1364935" lon="10.6329091"><ele>487.0</ele><time>2026-04-03T13:43:22.192Z</time></trkpt><trkpt lat="43.1364086" lon="10.6328847"><ele>486.8571428571429</ele><time>2026-04-03T13:43:25.194Z</time></trkpt><trkpt lat="43.1363452" lon="10.6328817"><ele>486.71428571428567</ele><time>2026-04-03T13:43:27.199Z</time></trkpt><trkpt lat="43.136284" lon="10.6328601"><ele>486.57142857142856</ele><time>2026-04-03T13:43:30.209Z</time></trkpt><trkpt lat="43.1362198" lon="10.6328205"><ele>486.42857142857144</ele><time>2026-04-03T13:43:34.194Z</time></trkpt><trkpt lat="43.1361428" lon="10.6328045"><ele>486.28571428571433</ele><time>2026-04-03T13:43:38.187Z</time></trkpt><trkpt lat="43.1360843" lon="10.6328468"><ele>486.1428571428571</ele><time>2026-04-03T13:43:40.202Z</time></trkpt><trkpt lat="43.1359963" lon="10.632875"><ele>486.0</ele><time>2026-04-03T13:43:45.195Z</time></trkpt><trkpt lat="43.1359283" lon="10.6328978"><ele>488.1428571428571</ele><time>2026-04-03T13:43:47.195Z</time></trkpt><trkpt lat="43.1358547" lon="10.6329607"><ele>490.28571428571433</ele><time>2026-04-03T13:43:49.203Z</time></trkpt><trkpt lat="43.135803" lon="10.6330163"><ele>492.42857142857144</ele><time>2026-04-03T13:43:52.195Z</time></trkpt><trkpt lat="43.1357302" lon="10.6330477"><ele>494.57142857142856</ele><time>2026-04-03T13:43:57.189Z</time></trkpt><trkpt lat="43.1356671" lon="10.6330303"><ele>496.71428571428567</ele><time>2026-04-03T13:43:59.187Z</time></trkpt><trkpt lat="43.1356011" lon="10.6330378"><ele>498.8571428571429</ele><time>2026-04-03T13:44:02.193Z</time></trkpt><trkpt lat="43.1355329" lon="10.6330521"><ele>501.0</ele><time>2026-04-03T13:44:05.199Z</time></trkpt><trkpt lat="43.1354684" lon="10.6331048"><ele>502.28571428571433</ele><time>2026-04-03T13:44:08.191Z</time></trkpt><trkpt lat="43.1354067" lon="10.6330703"><ele>503.57142857142856</ele><time>2026-04-03T13:44:12.202Z</time></trkpt><trkpt lat="43.13535" lon="10.6330315"><ele>504.8571428571429</ele><time>2026-04-03T13:44:15.197Z</time></trkpt><trkpt lat="43.1352712" lon="10.633004"><ele>506.14285714285717</ele><time>2026-04-03T13:44:19.202Z</time></trkpt><trkpt lat="43.1352006" lon="10.6330163"><ele>507.42857142857144</ele><time>2026-04-03T13:44:21.203Z</time></trkpt><trkpt lat="43.1351214" lon="10.6330319"><ele>508.7142857142857</ele><time>2026-04-03T13:44:23.206Z</time></trkpt><trkpt lat="43.1350518" lon="10.6330384"><ele>510.0</ele><time>2026-04-03T13:44:26.205Z</time></trkpt><trkpt lat="43.1349838" lon="10.6329745"><ele>510.0</ele><time>2026-04-03T13:44:29.199Z</time></trkpt><trkpt lat="43.1349011" lon="10.6329358"><ele>510.0</ele><time>2026-04-03T13:44:31.229Z</time></trkpt><trkpt lat="43.1348231" lon="10.632881"><ele>510.0</ele><time>2026-04-03T13:44:33.205Z</time></trkpt><trkpt lat="43.134746" lon="10.6328373"><ele>510.0</ele><time>2026-04-03T13:44:35.206Z</time></trkpt><trkpt lat="43.1346669" lon="10.6327964"><ele>510.0</ele><time>2026-04-03T13:44:37.206Z</time></trkpt><trkpt lat="43.134604" lon="10.6327592"><ele>510.0</ele><time>2026-04-03T13:44:39.211Z</time></trkpt><trkpt lat="43.1345373" lon="10.6327224"><ele>509.4</ele><time>2026-04-03T13:44:41.206Z</time></trkpt><trkpt lat="43.1344525" lon="10.632717"><ele>508.8</ele><time>2026-04-03T13:44:43.204Z</time></trkpt><trkpt lat="43.1343222" lon="10.6327613"><ele>508.20000000000005</ele><time>2026-04-03T13:44:45.207Z</time></trkpt><trkpt lat="43.1342326" lon="10.6327795"><ele>507.6</ele><time>2026-04-03T13:44:46.201Z</time></trkpt><trkpt lat="43.1341588" lon="10.6328086"><ele>507.0</ele><time>2026-04-03T13:44:47.199Z</time></trkpt><trkpt lat="43.1340902" lon="10.6328424"><ele>506.0</ele><time>2026-04-03T13:44:48.2Z</time></trkpt><trkpt lat="43.1339873" lon="10.6328972"><ele>505.00000000000006</ele><time>2026-04-03T13:44:50.207Z</time></trkpt><trkpt lat="43.1339013" lon="10.6328988"><ele>504.00000000000006</ele><time>2026-04-03T13:44:52.203Z</time></trkpt><trkpt lat="43.1338333" lon="10.6329392"><ele>503.0</ele><time>2026-04-03T13:44:54.202Z</time></trkpt><trkpt lat="43.1337391" lon="10.6329309"><ele>502.0</ele><time>2026-04-03T13:44:57.192Z</time></trkpt><trkpt lat="43.1336126" lon="10.6329466"><ele>502.00000000000006</ele><time>2026-04-03T13:44:59.193Z</time></trkpt><trkpt lat="43.1335476" lon="10.6329759"><ele>502.0</ele><time>2026-04-03T13:45:00.2Z</time></trkpt><trkpt lat="43.1334679" lon="10.6330236"><ele>502.0</ele><time>2026-04-03T13:45:02.18Z</time></trkpt><trkpt lat="43.1334018" lon="10.6330943"><ele>502.0</ele><time>2026-04-03T13:45:04.164Z</time></trkpt><trkpt lat="43.1333659" lon="10.6332017"><ele>502.00000000000006</ele><time>2026-04-03T13:45:10.147Z</time></trkpt><trkpt lat="43.1333332" lon="10.6332934"><ele>502.0</ele><time>2026-04-03T13:45:12.153Z</time></trkpt><trkpt lat="43.1332673" lon="10.633394"><ele>502.00000000000006</ele><time>2026-04-03T13:45:14.159Z</time></trkpt><trkpt lat="43.1332408" lon="10.6334958"><ele>502.0</ele><time>2026-04-03T13:45:18.179Z</time></trkpt><trkpt lat="43.1331996" lon="10.6336014"><ele>502.0</ele><time>2026-04-03T13:45:21.161Z</time></trkpt><trkpt lat="43.1331393" lon="10.6336768"><ele>502.0</ele><time>2026-04-03T13:45:24.16Z</time></trkpt><trkpt lat="43.1331394" lon="10.6337944"><ele>502.00000000000006</ele><time>2026-04-03T13:45:26.161Z</time></trkpt><trkpt lat="43.1331855" lon="10.6338832"><ele>502.0</ele><time>2026-04-03T13:45:29.156Z</time></trkpt><trkpt lat="43.1332172" lon="10.6340162"><ele>502.42857142857133</ele><time>2026-04-03T13:45:31.166Z</time></trkpt><trkpt lat="43.1332565" lon="10.6340958"><ele>502.85714285714283</ele><time>2026-04-03T13:45:33.182Z</time></trkpt><trkpt lat="43.1332637" lon="10.6341968"><ele>503.2857142857142</ele><time>2026-04-03T13:45:37.165Z</time></trkpt><trkpt lat="43.1331993" lon="10.6342503"><ele>503.71428571428567</ele><time>2026-04-03T13:45:42.163Z</time></trkpt><trkpt lat="43.1331441" lon="10.6342983"><ele>504.1428571428571</ele><time>2026-04-03T13:45:45.154Z</time></trkpt><trkpt lat="43.1330742" lon="10.6343209"><ele>504.57142857142856</ele><time>2026-04-03T13:45:50.135Z</time></trkpt><trkpt lat="43.1329878" lon="10.6343147"><ele>505.0</ele><time>2026-04-03T13:45:52.139Z</time></trkpt><trkpt lat="43.1329573" lon="10.6342324"><ele>505.0</ele><time>2026-04-03T13:45:58.129Z</time></trkpt><trkpt lat="43.1329835" lon="10.6343767"><ele>505.0</ele><time>2026-04-03T13:46:08.148Z</time></trkpt><trkpt lat="43.1329217" lon="10.634603"><ele>505.0</ele><time>2026-04-03T13:46:11.148Z</time></trkpt><trkpt lat="43.1329444" lon="10.6345162"><ele>505.0</ele><time>2026-04-03T13:46:18.119Z</time></trkpt><trkpt lat="43.1328735" lon="10.6344975"><ele>505.0</ele><time>2026-04-03T13:46:33.14Z</time></trkpt><trkpt lat="43.1329484" lon="10.6345443"><ele>505.00000000000006</ele><time>2026-04-03T13:46:55.117Z</time></trkpt><trkpt lat="43.1329974" lon="10.6344403"><ele>505.0</ele><time>2026-04-03T13:47:00.129Z</time></trkpt><trkpt lat="43.1330332" lon="10.634365"><ele>505.0</ele><time>2026-04-03T13:47:03.134Z</time></trkpt><trkpt lat="43.1329264" lon="10.6343661"><ele>505.0</ele><time>2026-04-03T13:47:05.141Z</time></trkpt><trkpt lat="43.1328582" lon="10.6343583"><ele>505.00000000000006</ele><time>2026-04-03T13:47:06.163Z</time></trkpt><trkpt lat="43.1327871" lon="10.6343594"><ele>505.0</ele><time>2026-04-03T13:47:07.153Z</time></trkpt><trkpt lat="43.1327017" lon="10.6344523"><ele>505.8</ele><time>2026-04-03T13:47:08.151Z</time></trkpt><trkpt lat="43.1326379" lon="10.6345337"><ele>506.6</ele><time>2026-04-03T13:47:09.15Z</time></trkpt><trkpt lat="43.1325559" lon="10.6346045"><ele>507.4</ele><time>2026-04-03T13:47:10.148Z</time></trkpt><trkpt lat="43.1324667" lon="10.6346838"><ele>508.2</ele><time>2026-04-03T13:47:11.157Z</time></trkpt><trkpt lat="43.1324037" lon="10.6347374"><ele>509.0</ele><time>2026-04-03T13:47:12.161Z</time></trkpt><trkpt lat="43.1323153" lon="10.6347639"><ele>508.99999999999994</ele><time>2026-04-03T13:47:14.156Z</time></trkpt><trkpt lat="43.132234" lon="10.6347373"><ele>509.0</ele><time>2026-04-03T13:47:16.151Z</time></trkpt><trkpt lat="43.1321668" lon="10.634772"><ele>508.99999999999994</ele><time>2026-04-03T13:47:20.16Z</time></trkpt><trkpt lat="43.1321714" lon="10.6348625"><ele>508.99999999999994</ele><time>2026-04-03T13:47:23.166Z</time></trkpt><trkpt lat="43.132215" lon="10.6349487"><ele>509.0</ele><time>2026-04-03T13:47:25.155Z</time></trkpt><trkpt lat="43.1322844" lon="10.6349908"><ele>508.99999999999994</ele><time>2026-04-03T13:47:28.154Z</time></trkpt><trkpt lat="43.1322799" lon="10.6350821"><ele>508.99999999999994</ele><time>2026-04-03T13:47:32.145Z</time></trkpt><trkpt lat="43.1322988" lon="10.6349948"><ele>508.99999999999994</ele><time>2026-04-03T13:50:14.179Z</time></trkpt><trkpt lat="43.1323179" lon="10.6348778"><ele>509.0</ele><time>2026-04-03T13:50:16.177Z</time></trkpt><trkpt lat="43.1323139" lon="10.6347847"><ele>509.0</ele><time>2026-04-03T13:50:18.167Z</time></trkpt><trkpt lat="43.1322339" lon="10.6347494"><ele>509.0</ele><time>2026-04-03T13:50:20.168Z</time></trkpt><trkpt lat="43.132145" lon="10.6346828"><ele>508.99999999999994</ele><time>2026-04-03T13:50:22.153Z</time></trkpt><trkpt lat="43.1320884" lon="10.6345966"><ele>509.0</ele><time>2026-04-03T13:50:25.134Z</time></trkpt><trkpt lat="43.1320307" lon="10.6344304"><ele>509.0</ele><time>2026-04-03T13:50:27.134Z</time></trkpt><trkpt lat="43.1319493" lon="10.63436"><ele>509.0</ele><time>2026-04-03T13:50:28.148Z</time></trkpt><trkpt lat="43.1317932" lon="10.6344571"><ele>509.0</ele><time>2026-04-03T13:50:29.168Z</time></trkpt><trkpt lat="43.1317486" lon="10.6345905"><ele>509.0</ele><time>2026-04-03T13:50:32.138Z</time></trkpt><trkpt lat="43.1317057" lon="10.6346547"><ele>509.0</ele><time>2026-04-03T13:50:34.146Z</time></trkpt><trkpt lat="43.1317627" lon="10.6346973"><ele>508.99999999999994</ele><time>2026-04-03T13:50:37.16Z</time></trkpt><trkpt lat="43.1318241" lon="10.6347219"><ele>509.0</ele><time>2026-04-03T13:50:39.171Z</time></trkpt><trkpt lat="43.131917" lon="10.6347397"><ele>509.0</ele><time>2026-04-03T13:50:43.174Z</time></trkpt><trkpt lat="43.1319722" lon="10.6346702"><ele>509.0</ele><time>2026-04-03T13:50:48.174Z</time></trkpt><trkpt lat="43.1319818" lon="10.6345351"><ele>508.99999999999994</ele><time>2026-04-03T13:50:52.165Z</time></trkpt><trkpt lat="43.1319847" lon="10.6344061"><ele>509.0</ele><time>2026-04-03T13:50:54.168Z</time></trkpt><trkpt lat="43.1319921" lon="10.6343026"><ele>508.6</ele><time>2026-04-03T13:50:55.163Z</time></trkpt><trkpt lat="43.1320007" lon="10.6342082"><ele>508.2</ele><time>2026-04-03T13:50:56.167Z</time></trkpt><trkpt lat="43.1319781" lon="10.634039"><ele>507.80000000000007</ele><time>2026-04-03T13:50:58.177Z</time></trkpt><trkpt lat="43.1319494" lon="10.6338783"><ele>507.40000000000003</ele><time>2026-04-03T13:51:00.168Z</time></trkpt><trkpt lat="43.1318909" lon="10.6337333"><ele>507.0</ele><time>2026-04-03T13:51:02.174Z</time></trkpt><trkpt lat="43.1318541" lon="10.633576"><ele>505.5</ele><time>2026-04-03T13:51:04.173Z</time></trkpt><trkpt lat="43.1318433" lon="10.6334074"><ele>504.0</ele><time>2026-04-03T13:51:06.178Z</time></trkpt><trkpt lat="43.131836" lon="10.633248"><ele>502.5</ele><time>2026-04-03T13:51:08.171Z</time></trkpt><trkpt lat="43.1318127" lon="10.6330905"><ele>501.0</ele><time>2026-04-03T13:51:10.172Z</time></trkpt><trkpt lat="43.131771" lon="10.6329425"><ele>501.0</ele><time>2026-04-03T13:51:12.158Z</time></trkpt><trkpt lat="43.1316815" lon="10.6328202"><ele>501.0</ele><time>2026-04-03T13:51:14.161Z</time></trkpt><trkpt lat="43.131614" lon="10.6327865"><ele>501.0</ele><time>2026-04-03T13:51:15.158Z</time></trkpt><trkpt lat="43.1315473" lon="10.6327548"><ele>501.0</ele><time>2026-04-03T13:51:16.156Z</time></trkpt><trkpt lat="43.1314805" lon="10.632732"><ele>501.0</ele><time>2026-04-03T13:51:17.16Z</time></trkpt><trkpt lat="43.1313818" lon="10.6326998"><ele>501.0</ele><time>2026-04-03T13:51:19.16Z</time></trkpt><trkpt lat="43.1313202" lon="10.6326783"><ele>501.0</ele><time>2026-04-03T13:51:20.163Z</time></trkpt><trkpt lat="43.1312382" lon="10.6326038"><ele>501.0</ele><time>2026-04-03T13:51:22.161Z</time></trkpt><trkpt lat="43.1311566" lon="10.6325089"><ele>501.0</ele><time>2026-04-03T13:51:24.169Z</time></trkpt><trkpt lat="43.1310636" lon="10.6324214"><ele>501.0</ele><time>2026-04-03T13:51:26.167Z</time></trkpt><trkpt lat="43.1309598" lon="10.6323478"><ele>501.0</ele><time>2026-04-03T13:51:28.167Z</time></trkpt><trkpt lat="43.1308428" lon="10.6323139"><ele>501.0</ele><time>2026-04-03T13:51:30.164Z</time></trkpt><trkpt lat="43.1307244" lon="10.6322952"><ele>501.0</ele><time>2026-04-03T13:51:32.167Z</time></trkpt><trkpt lat="43.1306143" lon="10.6322869"><ele>501.0</ele><time>2026-04-03T13:51:34.171Z</time></trkpt><trkpt lat="43.1305029" lon="10.6322798"><ele>501.0</ele><time>2026-04-03T13:51:36.162Z</time></trkpt><trkpt lat="43.1303879" lon="10.6322392"><ele>500.6666666666667</ele><time>2026-04-03T13:51:38.156Z</time></trkpt><trkpt lat="43.1302974" lon="10.6322262"><ele>500.33333333333337</ele><time>2026-04-03T13:51:40.148Z</time></trkpt><trkpt lat="43.1302187" lon="10.6322138"><ele>500.0</ele><time>2026-04-03T13:51:42.153Z</time></trkpt><trkpt lat="43.1301608" lon="10.6321798"><ele>499.6666666666667</ele><time>2026-04-03T13:51:43.159Z</time></trkpt><trkpt lat="43.1300973" lon="10.6321504"><ele>499.33333333333337</ele><time>2026-04-03T13:51:44.174Z</time></trkpt><trkpt lat="43.130007" lon="10.6320449"><ele>499.0</ele><time>2026-04-03T13:51:46.162Z</time></trkpt><trkpt lat="43.1299511" lon="10.6319108"><ele>499.0</ele><time>2026-04-03T13:51:48.163Z</time></trkpt><trkpt lat="43.1298996" lon="10.6317955"><ele>499.0</ele><time>2026-04-03T13:51:50.158Z</time></trkpt><trkpt lat="43.129836" lon="10.6317122"><ele>499.0</ele><time>2026-04-03T13:51:52.168Z</time></trkpt><trkpt lat="43.1297698" lon="10.6316322"><ele>499.0</ele><time>2026-04-03T13:51:54.169Z</time></trkpt><trkpt lat="43.129685" lon="10.6315899"><ele>499.0</ele><time>2026-04-03T13:51:56.168Z</time></trkpt><trkpt lat="43.129566" lon="10.6315659"><ele>500.79999999999995</ele><time>2026-04-03T13:51:58.172Z</time></trkpt><trkpt lat="43.1294943" lon="10.6315715"><ele>502.59999999999997</ele><time>2026-04-03T13:51:59.165Z</time></trkpt><trkpt lat="43.1294293" lon="10.6315674"><ele>504.4</ele><time>2026-04-03T13:52:00.172Z</time></trkpt><trkpt lat="43.1293074" lon="10.6315458"><ele>506.2</ele><time>2026-04-03T13:52:02.179Z</time></trkpt><trkpt lat="43.1291864" lon="10.6315248"><ele>508.0</ele><time>2026-04-03T13:52:04.165Z</time></trkpt><trkpt lat="43.1290661" lon="10.6315033"><ele>507.4</ele><time>2026-04-03T13:52:06.16Z</time></trkpt><trkpt lat="43.1289945" lon="10.6315011"><ele>506.79999999999995</ele><time>2026-04-03T13:52:07.153Z</time></trkpt><trkpt lat="43.128928" lon="10.6314959"><ele>506.2</ele><time>2026-04-03T13:52:08.165Z</time></trkpt><trkpt lat="43.1288034" lon="10.6315344"><ele>505.6</ele><time>2026-04-03T13:52:10.173Z</time></trkpt><trkpt lat="43.1286979" lon="10.6315909"><ele>505.0</ele><time>2026-04-03T13:52:12.165Z</time></trkpt><trkpt lat="43.1285993" lon="10.6316349"><ele>505.0</ele><time>2026-04-03T13:52:14.165Z</time></trkpt><trkpt lat="43.1284972" lon="10.6316675"><ele>505.0</ele><time>2026-04-03T13:52:16.158Z</time></trkpt><trkpt lat="43.128395" lon="10.6316625"><ele>505.0</ele><time>2026-04-03T13:52:18.155Z</time></trkpt><trkpt lat="43.1283078" lon="10.6316304"><ele>505.0</ele><time>2026-04-03T13:52:20.158Z</time></trkpt><trkpt lat="43.1282418" lon="10.631575"><ele>505.0</ele><time>2026-04-03T13:52:22.165Z</time></trkpt><trkpt lat="43.1281841" lon="10.6314835"><ele>505.33333333333337</ele><time>2026-04-03T13:52:24.161Z</time></trkpt><trkpt lat="43.1281493" lon="10.6313823"><ele>505.6666666666667</ele><time>2026-04-03T13:52:26.149Z</time></trkpt><trkpt lat="43.1281647" lon="10.631296"><ele>506.0</ele><time>2026-04-03T13:52:28.146Z</time></trkpt><trkpt lat="43.1281991" lon="10.6311738"><ele>506.33333333333337</ele><time>2026-04-03T13:52:31.144Z</time></trkpt><trkpt lat="43.1281832" lon="10.6310745"><ele>506.6666666666667</ele><time>2026-04-03T13:52:34.141Z</time></trkpt><trkpt lat="43.1281454" lon="10.630959"><ele>507.0</ele><time>2026-04-03T13:52:37.162Z</time></trkpt><trkpt lat="43.1280848" lon="10.6309113"><ele>507.0</ele><time>2026-04-03T13:52:39.165Z</time></trkpt><trkpt lat="43.128034" lon="10.6308553"><ele>507.0</ele><time>2026-04-03T13:52:41.167Z</time></trkpt><trkpt lat="43.1279895" lon="10.6307876"><ele>507.0</ele><time>2026-04-03T13:52:43.161Z</time></trkpt><trkpt lat="43.1279417" lon="10.6306868"><ele>507.0</ele><time>2026-04-03T13:52:45.163Z</time></trkpt><trkpt lat="43.1278992" lon="10.6305741"><ele>507.0</ele><time>2026-04-03T13:52:47.157Z</time></trkpt><trkpt lat="43.1278339" lon="10.6304605"><ele>507.0</ele><time>2026-04-03T13:52:49.16Z</time></trkpt><trkpt lat="43.1278267" lon="10.6303434"><ele>509.0</ele><time>2026-04-03T13:52:51.144Z</time></trkpt><trkpt lat="43.1277747" lon="10.6302554"><ele>511.0</ele><time>2026-04-03T13:52:53.148Z</time></trkpt><trkpt lat="43.127716" lon="10.6301827"><ele>513.0</ele><time>2026-04-03T13:52:55.15Z</time></trkpt><trkpt lat="43.1276613" lon="10.6300773"><ele>515.0</ele><time>2026-04-03T13:52:57.15Z</time></trkpt><trkpt lat="43.1276109" lon="10.6299726"><ele>517.0</ele><time>2026-04-03T13:52:59.148Z</time></trkpt><trkpt lat="43.1275824" lon="10.6298755"><ele>519.0</ele><time>2026-04-03T13:53:01.154Z</time></trkpt><trkpt lat="43.1275409" lon="10.6297978"><ele>519.0</ele><time>2026-04-03T13:53:03.154Z</time></trkpt><trkpt lat="43.1274614" lon="10.6297276"><ele>519.0</ele><time>2026-04-03T13:53:06.156Z</time></trkpt><trkpt lat="43.1274163" lon="10.6296367"><ele>519.0</ele><time>2026-04-03T13:53:09.158Z</time></trkpt><trkpt lat="43.1273991" lon="10.629543"><ele>519.0</ele><time>2026-04-03T13:53:13.162Z</time></trkpt><trkpt lat="43.1273665" lon="10.6294482"><ele>519.0</ele><time>2026-04-03T13:53:16.164Z</time></trkpt><trkpt lat="43.1273321" lon="10.6293732"><ele>519.0</ele><time>2026-04-03T13:53:18.163Z</time></trkpt><trkpt lat="43.1272436" lon="10.629305"><ele>520.0</ele><time>2026-04-03T13:53:21.167Z</time></trkpt><trkpt lat="43.1271668" lon="10.6292383"><ele>521.0</ele><time>2026-04-03T13:53:24.175Z</time></trkpt><trkpt lat="43.1272312" lon="10.6292339"><ele>522.0</ele><time>2026-04-03T13:54:29.188Z</time></trkpt><trkpt lat="43.1272832" lon="10.6291612"><ele>523.0</ele><time>2026-04-03T13:54:33.175Z</time></trkpt><trkpt lat="43.1273275" lon="10.6290629"><ele>524.0</ele><time>2026-04-03T13:54:36.177Z</time></trkpt><trkpt lat="43.1273907" lon="10.629045"><ele>525.0</ele><time>2026-04-03T13:54:38.175Z</time></trkpt><trkpt lat="43.1274733" lon="10.6291127"><ele>525.1666666666666</ele><time>2026-04-03T13:54:40.174Z</time></trkpt><trkpt lat="43.127563" lon="10.6291766"><ele>525.3333333333334</ele><time>2026-04-03T13:54:42.165Z</time></trkpt><trkpt lat="43.1276289" lon="10.6292444"><ele>525.5</ele><time>2026-04-03T13:54:44.158Z</time></trkpt><trkpt lat="43.1277018" lon="10.6293022"><ele>525.6666666666667</ele><time>2026-04-03T13:54:46.148Z</time></trkpt><trkpt lat="43.1277656" lon="10.6294122"><ele>525.8333333333334</ele><time>2026-04-03T13:54:48.148Z</time></trkpt><trkpt lat="43.1277914" lon="10.6295036"><ele>526.0</ele><time>2026-04-03T13:54:49.184Z</time></trkpt><trkpt lat="43.1278275" lon="10.62959"><ele>526.0</ele><time>2026-04-03T13:54:50.144Z</time></trkpt><trkpt lat="43.1278768" lon="10.6296613"><ele>526.0</ele><time>2026-04-03T13:54:51.137Z</time></trkpt><trkpt lat="43.1279478" lon="10.6294702"><ele>526.0</ele><time>2026-04-03T13:54:54.13Z</time></trkpt><trkpt lat="43.1279353" lon="10.6293349"><ele>526.0</ele><time>2026-04-03T13:54:55.147Z</time></trkpt><trkpt lat="43.1279028" lon="10.6292583"><ele>526.0</ele><time>2026-04-03T13:54:56.148Z</time></trkpt><trkpt lat="43.127938" lon="10.6291842"><ele>526.0</ele><time>2026-04-03T13:55:01.159Z</time></trkpt><trkpt lat="43.1280116" lon="10.6292235"><ele>526.0</ele><time>2026-04-03T13:55:09.144Z</time></trkpt><trkpt lat="43.1279845" lon="10.6291008"><ele>526.0</ele><time>2026-04-03T13:55:12.145Z</time></trkpt><trkpt lat="43.1280214" lon="10.6290066"><ele>526.0</ele><time>2026-04-03T13:55:20.173Z</time></trkpt><trkpt lat="43.1280927" lon="10.62895"><ele>526.0</ele><time>2026-04-03T13:55:22.16Z</time></trkpt><trkpt lat="43.1281316" lon="10.6288701"><ele>526.0</ele><time>2026-04-03T13:55:26.153Z</time></trkpt><trkpt lat="43.1281262" lon="10.62877"><ele>526.0</ele><time>2026-04-03T13:55:28.16Z</time></trkpt><trkpt lat="43.1281" lon="10.6286869"><ele>526.0</ele><time>2026-04-03T13:55:29.157Z</time></trkpt><trkpt lat="43.1280539" lon="10.6285772"><ele>526.0</ele><time>2026-04-03T13:55:31.149Z</time></trkpt><trkpt lat="43.1280085" lon="10.6285045"><ele>526.0</ele><time>2026-04-03T13:55:34.16Z</time></trkpt><trkpt lat="43.1279905" lon="10.628402"><ele>526.0</ele><time>2026-04-03T13:55:38.158Z</time></trkpt><trkpt lat="43.1279702" lon="10.6283152"><ele>526.0</ele><time>2026-04-03T13:55:41.16Z</time></trkpt><trkpt lat="43.1279181" lon="10.628449"><ele>525.2</ele><time>2026-04-03T13:55:50.128Z</time></trkpt><trkpt lat="43.12793" lon="10.6283056"><ele>524.4000000000001</ele><time>2026-04-03T13:55:53.125Z</time></trkpt><trkpt lat="43.1278853" lon="10.6281992"><ele>523.6</ele><time>2026-04-03T13:55:54.13Z</time></trkpt><trkpt lat="43.1278413" lon="10.628092"><ele>522.8000000000001</ele><time>2026-04-03T13:55:55.132Z</time></trkpt><trkpt lat="43.1278326" lon="10.6279967"><ele>522.0</ele><time>2026-04-03T13:55:58.141Z</time></trkpt><trkpt lat="43.1278621" lon="10.6278306"><ele>522.0</ele><time>2026-04-03T13:55:59.153Z</time></trkpt><trkpt lat="43.1279353" lon="10.6278126"><ele>522.0</ele><time>2026-04-03T13:56:04.154Z</time></trkpt><trkpt lat="43.127995" lon="10.6279879"><ele>522.0</ele><time>2026-04-03T13:56:09.161Z</time></trkpt><trkpt lat="43.1280344" lon="10.6280845"><ele>522.0</ele><time>2026-04-03T13:56:10.162Z</time></trkpt><trkpt lat="43.128047" lon="10.6281762"><ele>522.0</ele><time>2026-04-03T13:56:13.168Z</time></trkpt><trkpt lat="43.1281014" lon="10.6282235"><ele>522.0</ele><time>2026-04-03T13:56:18.164Z</time></trkpt><trkpt lat="43.1281336" lon="10.6283091"><ele>522.0</ele><time>2026-04-03T13:56:21.173Z</time></trkpt><trkpt lat="43.1281894" lon="10.6283524"><ele>522.0</ele><time>2026-04-03T13:56:41.157Z</time></trkpt><trkpt lat="43.1281317" lon="10.6282932"><ele>522.0</ele><time>2026-04-03T14:02:05.206Z</time></trkpt><trkpt lat="43.1281777" lon="10.6283909"><ele>522.0</ele><time>2026-04-03T14:02:10.181Z</time></trkpt><trkpt lat="43.1282416" lon="10.6284957"><ele>522.0</ele><time>2026-04-03T14:02:13.169Z</time></trkpt><trkpt lat="43.1282865" lon="10.6285573"><ele>522.0</ele><time>2026-04-03T14:02:15.171Z</time></trkpt><trkpt lat="43.1283512" lon="10.6286292"><ele>521.8571428571429</ele><time>2026-04-03T14:02:17.182Z</time></trkpt><trkpt lat="43.1284284" lon="10.6286424"><ele>521.7142857142857</ele><time>2026-04-03T14:02:19.185Z</time></trkpt><trkpt lat="43.1285034" lon="10.6286534"><ele>521.5714285714286</ele><time>2026-04-03T14:02:23.193Z</time></trkpt><trkpt lat="43.1285259" lon="10.6287373"><ele>521.4285714285714</ele><time>2026-04-03T14:02:26.193Z</time></trkpt><trkpt lat="43.1285703" lon="10.6288048"><ele>521.2857142857143</ele><time>2026-04-03T14:02:29.209Z</time></trkpt><trkpt lat="43.1286436" lon="10.6288048"><ele>521.1428571428571</ele><time>2026-04-03T14:02:31.196Z</time></trkpt><trkpt lat="43.1287199" lon="10.6288319"><ele>521.0</ele><time>2026-04-03T14:02:33.197Z</time></trkpt><trkpt lat="43.1288014" lon="10.6288515"><ele>521.0</ele><time>2026-04-03T14:02:35.199Z</time></trkpt><trkpt lat="43.1288955" lon="10.6288626"><ele>521.0</ele><time>2026-04-03T14:02:38.189Z</time></trkpt><trkpt lat="43.1289807" lon="10.6288585"><ele>521.0</ele><time>2026-04-03T14:02:40.196Z</time></trkpt><trkpt lat="43.1290943" lon="10.6289324"><ele>521.0</ele><time>2026-04-03T14:02:44.186Z</time></trkpt><trkpt lat="43.1291655" lon="10.629038"><ele>521.0</ele><time>2026-04-03T14:02:48.176Z</time></trkpt><trkpt lat="43.1292827" lon="10.6290245"><ele>518.0</ele><time>2026-04-03T14:02:50.183Z</time></trkpt><trkpt lat="43.1293711" lon="10.6290057"><ele>515.0</ele><time>2026-04-03T14:02:52.193Z</time></trkpt><trkpt lat="43.129439" lon="10.6289778"><ele>512.0</ele><time>2026-04-03T14:02:58.199Z</time></trkpt><trkpt lat="43.1295056" lon="10.6289419"><ele>509.0</ele><time>2026-04-03T14:03:01.207Z</time></trkpt><trkpt lat="43.1295668" lon="10.6289159"><ele>506.0</ele><time>2026-04-03T14:03:04.197Z</time></trkpt><trkpt lat="43.1296308" lon="10.6289207"><ele>503.0</ele><time>2026-04-03T14:03:07.192Z</time></trkpt><trkpt lat="43.1296953" lon="10.6289401"><ele>500.0</ele><time>2026-04-03T14:03:10.195Z</time></trkpt><trkpt lat="43.1297618" lon="10.6289285"><ele>499.99999999999994</ele><time>2026-04-03T14:03:14.195Z</time></trkpt><trkpt lat="43.1297635" lon="10.6288124"><ele>500.0</ele><time>2026-04-03T14:03:18.196Z</time></trkpt><trkpt lat="43.1297374" lon="10.6286991"><ele>500.0</ele><time>2026-04-03T14:03:21.199Z</time></trkpt><trkpt lat="43.1297293" lon="10.6285686"><ele>500.0</ele><time>2026-04-03T14:04:18.191Z</time></trkpt><trkpt lat="43.1297988" lon="10.6286253"><ele>499.99999999999994</ele><time>2026-04-03T14:04:35.217Z</time></trkpt><trkpt lat="43.1298228" lon="10.6285335"><ele>500.0</ele><time>2026-04-03T14:05:10.181Z</time></trkpt><trkpt lat="43.129878" lon="10.628486"><ele>495.8</ele><time>2026-04-03T14:05:14.175Z</time></trkpt><trkpt lat="43.1299478" lon="10.6285233"><ele>491.6</ele><time>2026-04-03T14:05:19.187Z</time></trkpt><trkpt lat="43.1299989" lon="10.6286067"><ele>487.4</ele><time>2026-04-03T14:05:22.172Z</time></trkpt><trkpt lat="43.1300476" lon="10.6287298"><ele>483.2</ele><time>2026-04-03T14:05:25.183Z</time></trkpt><trkpt lat="43.1301278" lon="10.628814"><ele>479.0</ele><time>2026-04-03T14:05:27.167Z</time></trkpt><trkpt lat="43.1301895" lon="10.6287145"><ele>476.1428571428571</ele><time>2026-04-03T14:05:32.168Z</time></trkpt><trkpt lat="43.130187" lon="10.6286194"><ele>473.28571428571433</ele><time>2026-04-03T14:05:34.169Z</time></trkpt><trkpt lat="43.1302046" lon="10.6285038"><ele>470.42857142857144</ele><time>2026-04-03T14:05:36.161Z</time></trkpt><trkpt lat="43.130187" lon="10.6283857"><ele>467.57142857142856</ele><time>2026-04-03T14:05:38.173Z</time></trkpt><trkpt lat="43.1301641" lon="10.6282924"><ele>464.71428571428567</ele><time>2026-04-03T14:05:40.178Z</time></trkpt><trkpt lat="43.1301446" lon="10.6282068"><ele>461.8571428571429</ele><time>2026-04-03T14:05:42.167Z</time></trkpt><trkpt lat="43.1301198" lon="10.6281274"><ele>459.0</ele><time>2026-04-03T14:05:44.169Z</time></trkpt><trkpt lat="43.1301043" lon="10.6280301"><ele>459.0</ele><time>2026-04-03T14:05:46.172Z</time></trkpt><trkpt lat="43.1300796" lon="10.6279141"><ele>459.0</ele><time>2026-04-03T14:05:48.171Z</time></trkpt><trkpt lat="43.1300321" lon="10.6278245"><ele>459.0</ele><time>2026-04-03T14:05:50.168Z</time></trkpt><trkpt lat="43.1299959" lon="10.6277331"><ele>459.0</ele><time>2026-04-03T14:05:52.17Z</time></trkpt><trkpt lat="43.1299581" lon="10.6276384"><ele>459.0</ele><time>2026-04-03T14:05:54.172Z</time></trkpt><trkpt lat="43.1299456" lon="10.6275466"><ele>459.0</ele><time>2026-04-03T14:05:56.17Z</time></trkpt><trkpt lat="43.1299415" lon="10.6274537"><ele>460.1666666666667</ele><time>2026-04-03T14:05:58.174Z</time></trkpt><trkpt lat="43.1299346" lon="10.6273272"><ele>461.33333333333337</ele><time>2026-04-03T14:06:00.178Z</time></trkpt><trkpt lat="43.1299135" lon="10.6272031"><ele>462.5</ele><time>2026-04-03T14:06:02.179Z</time></trkpt><trkpt lat="43.1298916" lon="10.6271114"><ele>463.6666666666667</ele><time>2026-04-03T14:06:04.167Z</time></trkpt><trkpt lat="43.1298782" lon="10.6270228"><ele>464.83333333333337</ele><time>2026-04-03T14:06:06.179Z</time></trkpt><trkpt lat="43.1298767" lon="10.6269211"><ele>466.0</ele><time>2026-04-03T14:06:13.181Z</time></trkpt><trkpt lat="43.1299052" lon="10.6268433"><ele>459.6</ele><time>2026-04-03T14:06:16.177Z</time></trkpt><trkpt lat="43.1299481" lon="10.6267014"><ele>453.20000000000005</ele><time>2026-04-03T14:06:19.179Z</time></trkpt><trkpt lat="43.1299998" lon="10.6265967"><ele>446.79999999999995</ele><time>2026-04-03T14:06:21.183Z</time></trkpt><trkpt lat="43.1300483" lon="10.6264782"><ele>440.4</ele><time>2026-04-03T14:06:23.184Z</time></trkpt><trkpt lat="43.1301133" lon="10.6263408"><ele>434.0</ele><time>2026-04-03T14:06:25.184Z</time></trkpt><trkpt lat="43.1301606" lon="10.6262156"><ele>433.4</ele><time>2026-04-03T14:06:27.199Z</time></trkpt><trkpt lat="43.1301841" lon="10.6261137"><ele>432.79999999999995</ele><time>2026-04-03T14:06:40.198Z</time></trkpt><trkpt lat="43.1302609" lon="10.6260517"><ele>432.20000000000005</ele><time>2026-04-03T14:06:45.173Z</time></trkpt><trkpt lat="43.1303782" lon="10.6260436"><ele>431.6</ele><time>2026-04-03T14:06:47.181Z</time></trkpt><trkpt lat="43.1304778" lon="10.6260379"><ele>431.0</ele><time>2026-04-03T14:06:49.18Z</time></trkpt><trkpt lat="43.1305481" lon="10.6260686"><ele>431.0</ele><time>2026-04-03T14:06:52.192Z</time></trkpt><trkpt lat="43.1306165" lon="10.6260822"><ele>431.0</ele><time>2026-04-03T14:06:54.189Z</time></trkpt><trkpt lat="43.1306868" lon="10.626105"><ele>431.0</ele><time>2026-04-03T14:06:58.193Z</time></trkpt><trkpt lat="43.1307105" lon="10.626196"><ele>431.0</ele><time>2026-04-03T14:07:02.189Z</time></trkpt><trkpt lat="43.130757" lon="10.6262681"><ele>431.0</ele><time>2026-04-03T14:07:06.202Z</time></trkpt><trkpt lat="43.1308419" lon="10.6262873"><ele>431.0</ele><time>2026-04-03T14:07:09.204Z</time></trkpt><trkpt lat="43.1309065" lon="10.6263007"><ele>431.0</ele><time>2026-04-03T14:07:11.198Z</time></trkpt><trkpt lat="43.1309606" lon="10.6262469"><ele>428.8333333333333</ele><time>2026-04-03T14:07:13.193Z</time></trkpt><trkpt lat="43.131018" lon="10.6261819"><ele>426.66666666666663</ele><time>2026-04-03T14:07:15.185Z</time></trkpt><trkpt lat="43.1310542" lon="10.6261081"><ele>424.5</ele><time>2026-04-03T14:07:17.194Z</time></trkpt><trkpt lat="43.1311126" lon="10.626033"><ele>422.33333333333337</ele><time>2026-04-03T14:07:19.183Z</time></trkpt><trkpt lat="43.1311713" lon="10.6259126"><ele>420.1666666666667</ele><time>2026-04-03T14:07:21.188Z</time></trkpt><trkpt lat="43.1312268" lon="10.6258075"><ele>418.0</ele><time>2026-04-03T14:07:23.179Z</time></trkpt><trkpt lat="43.1312706" lon="10.6256956"><ele>418.00000000000006</ele><time>2026-04-03T14:07:25.176Z</time></trkpt><trkpt lat="43.1312872" lon="10.6255701"><ele>418.0</ele><time>2026-04-03T14:07:27.173Z</time></trkpt><trkpt lat="43.1313104" lon="10.6254879"><ele>418.0</ele><time>2026-04-03T14:07:30.183Z</time></trkpt><trkpt lat="43.1313185" lon="10.6253981"><ele>418.0</ele><time>2026-04-03T14:07:48.18Z</time></trkpt><trkpt lat="43.1313886" lon="10.6252855"><ele>418.00000000000006</ele><time>2026-04-03T14:07:51.184Z</time></trkpt><trkpt lat="43.1314596" lon="10.6251576"><ele>418.0</ele><time>2026-04-03T14:07:53.166Z</time></trkpt><trkpt lat="43.1315118" lon="10.6250923"><ele>414.00000000000006</ele><time>2026-04-03T14:07:54.177Z</time></trkpt><trkpt lat="43.1315688" lon="10.6250421"><ele>410.0</ele><time>2026-04-03T14:07:55.168Z</time></trkpt><trkpt lat="43.1316363" lon="10.6249481"><ele>406.0</ele><time>2026-04-03T14:07:57.175Z</time></trkpt><trkpt lat="43.1316623" lon="10.6248045"><ele>402.0</ele><time>2026-04-03T14:07:59.171Z</time></trkpt><trkpt lat="43.1316809" lon="10.6247018"><ele>398.00000000000006</ele><time>2026-04-03T14:08:00.162Z</time></trkpt><trkpt lat="43.131704" lon="10.6246205"><ele>394.0</ele><time>2026-04-03T14:08:01.171Z</time></trkpt><trkpt lat="43.1317808" lon="10.624507"><ele>393.4</ele><time>2026-04-03T14:08:03.18Z</time></trkpt><trkpt lat="43.1318399" lon="10.6243741"><ele>392.79999999999995</ele><time>2026-04-03T14:08:05.176Z</time></trkpt><trkpt lat="43.1319192" lon="10.6242787"><ele>392.20000000000005</ele><time>2026-04-03T14:08:07.179Z</time></trkpt><trkpt lat="43.1319493" lon="10.6241542"><ele>391.6</ele><time>2026-04-03T14:08:09.18Z</time></trkpt><trkpt lat="43.1319334" lon="10.6240301"><ele>391.0</ele><time>2026-04-03T14:08:11.178Z</time></trkpt><trkpt lat="43.1319544" lon="10.6238977"><ele>391.0</ele><time>2026-04-03T14:08:13.176Z</time></trkpt><trkpt lat="43.131981" lon="10.623775"><ele>391.0</ele><time>2026-04-03T14:08:15.175Z</time></trkpt><trkpt lat="43.132016" lon="10.6236336"><ele>391.0</ele><time>2026-04-03T14:08:17.167Z</time></trkpt><trkpt lat="43.1320201" lon="10.6234567"><ele>391.0</ele><time>2026-04-03T14:08:19.179Z</time></trkpt><trkpt lat="43.1320134" lon="10.6233578"><ele>391.0</ele><time>2026-04-03T14:08:20.181Z</time></trkpt><trkpt lat="43.1320166" lon="10.6232697"><ele>389.6666666666667</ele><time>2026-04-03T14:08:21.189Z</time></trkpt><trkpt lat="43.1320483" lon="10.6231671"><ele>388.33333333333337</ele><time>2026-04-03T14:08:24.178Z</time></trkpt><trkpt lat="43.132087" lon="10.6230888"><ele>387.0</ele><time>2026-04-03T14:08:26.176Z</time></trkpt><trkpt lat="43.1321634" lon="10.6229891"><ele>385.6666666666667</ele><time>2026-04-03T14:08:28.181Z</time></trkpt><trkpt lat="43.1322178" lon="10.6229342"><ele>384.33333333333337</ele><time>2026-04-03T14:08:29.174Z</time></trkpt><trkpt lat="43.1322702" lon="10.6228733"><ele>383.0</ele><time>2026-04-03T14:08:30.177Z</time></trkpt><trkpt lat="43.1323273" lon="10.6227933"><ele>381.33333333333337</ele><time>2026-04-03T14:08:32.187Z</time></trkpt><trkpt lat="43.1323814" lon="10.6226657"><ele>379.6666666666667</ele><time>2026-04-03T14:08:34.177Z</time></trkpt><trkpt lat="43.1323922" lon="10.6225741"><ele>378.0</ele><time>2026-04-03T14:08:35.177Z</time></trkpt><trkpt lat="43.1323766" lon="10.6224639"><ele>376.3333333333333</ele><time>2026-04-03T14:08:50.177Z</time></trkpt><trkpt lat="43.1324286" lon="10.6223731"><ele>374.66666666666663</ele><time>2026-04-03T14:08:54.169Z</time></trkpt><trkpt lat="43.1324698" lon="10.6222839"><ele>373.0</ele><time>2026-04-03T14:08:56.158Z</time></trkpt><trkpt lat="43.1325246" lon="10.6222169"><ele>370.75</ele><time>2026-04-03T14:08:57.155Z</time></trkpt><trkpt lat="43.1325827" lon="10.622116"><ele>368.5</ele><time>2026-04-03T14:09:00.147Z</time></trkpt><trkpt lat="43.1325246" lon="10.6219439"><ele>366.25</ele><time>2026-04-03T14:09:01.155Z</time></trkpt><trkpt lat="43.1323937" lon="10.6218158"><ele>364.0</ele><time>2026-04-03T14:09:02.16Z</time></trkpt><trkpt lat="43.132352" lon="10.6217356"><ele>363.4</ele><time>2026-04-03T14:09:03.16Z</time></trkpt><trkpt lat="43.132466" lon="10.6217392"><ele>362.79999999999995</ele><time>2026-04-03T14:09:09.168Z</time></trkpt><trkpt lat="43.1325423" lon="10.6217643"><ele>362.20000000000005</ele><time>2026-04-03T14:09:13.165Z</time></trkpt><trkpt lat="43.1325794" lon="10.6218754"><ele>361.6</ele><time>2026-04-03T14:09:24.17Z</time></trkpt><trkpt lat="43.1326127" lon="10.6219678"><ele>361.0</ele><time>2026-04-03T14:09:30.167Z</time></trkpt><trkpt lat="43.1326969" lon="10.6220392"><ele>361.0</ele><time>2026-04-03T14:09:33.184Z</time></trkpt><trkpt lat="43.132775" lon="10.6220734"><ele>361.0</ele><time>2026-04-03T14:09:35.189Z</time></trkpt><trkpt lat="43.1328465" lon="10.6220666"><ele>361.0</ele><time>2026-04-03T14:09:37.188Z</time></trkpt><trkpt lat="43.1329383" lon="10.6220298"><ele>361.0</ele><time>2026-04-03T14:09:39.185Z</time></trkpt><trkpt lat="43.1330261" lon="10.6219869"><ele>361.0</ele><time>2026-04-03T14:09:41.181Z</time></trkpt><trkpt lat="43.1330942" lon="10.6219061"><ele>361.0</ele><time>2026-04-03T14:09:43.192Z</time></trkpt><trkpt lat="43.1331688" lon="10.6217897"><ele>360.3333333333333</ele><time>2026-04-03T14:09:45.204Z</time></trkpt><trkpt lat="43.1332209" lon="10.6217311"><ele>359.66666666666663</ele><time>2026-04-03T14:09:46.184Z</time></trkpt><trkpt lat="43.133315" lon="10.6216275"><ele>359.0</ele><time>2026-04-03T14:09:48.183Z</time></trkpt><trkpt lat="43.1333881" lon="10.6215152"><ele>358.3333333333333</ele><time>2026-04-03T14:09:50.187Z</time></trkpt><trkpt lat="43.1334029" lon="10.6214292"><ele>357.6666666666667</ele><time>2026-04-03T14:09:52.188Z</time></trkpt><trkpt lat="43.1334125" lon="10.6213232"><ele>357.0</ele><time>2026-04-03T14:09:54.192Z</time></trkpt><trkpt lat="43.133403" lon="10.6211953"><ele>354.1666666666667</ele><time>2026-04-03T14:09:56.193Z</time></trkpt><trkpt lat="43.1333875" lon="10.6210822"><ele>351.3333333333333</ele><time>2026-04-03T14:09:58.198Z</time></trkpt><trkpt lat="43.1333795" lon="10.6209709"><ele>348.5</ele><time>2026-04-03T14:10:05.193Z</time></trkpt><trkpt lat="43.133349" lon="10.6208806"><ele>345.66666666666663</ele><time>2026-04-03T14:10:09.194Z</time></trkpt><trkpt lat="43.133336" lon="10.6207539"><ele>342.8333333333333</ele><time>2026-04-03T14:11:17.202Z</time></trkpt><trkpt lat="43.1332888" lon="10.620816"><ele>340.0</ele><time>2026-04-03T14:11:32.197Z</time></trkpt><trkpt lat="43.1332577" lon="10.6209156"><ele>340.5</ele><time>2026-04-03T14:11:35.187Z</time></trkpt><trkpt lat="43.133215" lon="10.620985"><ele>341.0</ele><time>2026-04-03T14:11:37.181Z</time></trkpt><trkpt lat="43.1331933" lon="10.6210848"><ele>341.5</ele><time>2026-04-03T14:11:39.175Z</time></trkpt><trkpt lat="43.1331982" lon="10.6212035"><ele>342.0</ele><time>2026-04-03T14:11:43.194Z</time></trkpt><trkpt lat="43.1332232" lon="10.6212908"><ele>342.5</ele><time>2026-04-03T14:11:45.194Z</time></trkpt><trkpt lat="43.1332361" lon="10.6214051"><ele>343.0</ele><time>2026-04-03T14:11:48.197Z</time></trkpt><trkpt lat="43.1332269" lon="10.6215085"><ele>345.3333333333333</ele><time>2026-04-03T14:11:51.178Z</time></trkpt><trkpt lat="43.1331605" lon="10.621598"><ele>347.66666666666663</ele><time>2026-04-03T14:11:54.186Z</time></trkpt><trkpt lat="43.1331082" lon="10.6216648"><ele>350.0</ele><time>2026-04-03T14:11:57.193Z</time></trkpt><trkpt lat="43.1330266" lon="10.6217222"><ele>352.3333333333333</ele><time>2026-04-03T14:12:00.181Z</time></trkpt><trkpt lat="43.1329512" lon="10.621773"><ele>354.6666666666667</ele><time>2026-04-03T14:12:02.18Z</time></trkpt><trkpt lat="43.1328808" lon="10.6217972"><ele>357.0</ele><time>2026-04-03T14:12:05.189Z</time></trkpt><trkpt lat="43.132803" lon="10.6218109"><ele>357.0</ele><time>2026-04-03T14:12:10.192Z</time></trkpt><trkpt lat="43.1327316" lon="10.6218464"><ele>357.0</ele><time>2026-04-03T14:12:14.164Z</time></trkpt><trkpt lat="43.1326735" lon="10.6219229"><ele>357.0</ele><time>2026-04-03T14:12:21.163Z</time></trkpt><trkpt lat="43.1326102" lon="10.6219445"><ele>357.0</ele><time>2026-04-03T14:12:25.157Z</time></trkpt><trkpt lat="43.1325157" lon="10.6220284"><ele>357.0</ele><time>2026-04-03T14:12:59.193Z</time></trkpt><trkpt lat="43.1324545" lon="10.622073"><ele>357.0</ele><time>2026-04-03T14:13:04.172Z</time></trkpt><trkpt lat="43.1323997" lon="10.6221362"><ele>359.6666666666667</ele><time>2026-04-03T14:13:06.161Z</time></trkpt><trkpt lat="43.1323377" lon="10.6222159"><ele>362.3333333333333</ele><time>2026-04-03T14:13:09.163Z</time></trkpt><trkpt lat="43.1323227" lon="10.6223283"><ele>365.0</ele><time>2026-04-03T14:13:17.173Z</time></trkpt><trkpt lat="43.1322394" lon="10.6223901"><ele>367.66666666666663</ele><time>2026-04-03T14:13:29.185Z</time></trkpt><trkpt lat="43.132172" lon="10.6224285"><ele>370.3333333333333</ele><time>2026-04-03T14:13:31.189Z</time></trkpt><trkpt lat="43.1320991" lon="10.6224726"><ele>373.0</ele><time>2026-04-03T14:13:32.179Z</time></trkpt><trkpt lat="43.1320333" lon="10.6225076"><ele>373.0</ele><time>2026-04-03T14:13:33.176Z</time></trkpt><trkpt lat="43.1319555" lon="10.6225349"><ele>373.0</ele><time>2026-04-03T14:13:34.178Z</time></trkpt><trkpt lat="43.1318568" lon="10.6225743"><ele>373.0</ele><time>2026-04-03T14:13:36.179Z</time></trkpt><trkpt lat="43.1317651" lon="10.6225991"><ele>373.0</ele><time>2026-04-03T14:13:49.171Z</time></trkpt><trkpt lat="43.1316709" lon="10.6226326"><ele>373.0</ele><time>2026-04-03T14:13:56.18Z</time></trkpt><trkpt lat="43.1316004" lon="10.6226664"><ele>373.0</ele><time>2026-04-03T14:13:58.173Z</time></trkpt><trkpt lat="43.1315369" lon="10.6226834"><ele>373.4</ele><time>2026-04-03T14:14:03.187Z</time></trkpt><trkpt lat="43.1314271" lon="10.6227024"><ele>373.79999999999995</ele><time>2026-04-03T14:14:18.186Z</time></trkpt><trkpt lat="43.1313608" lon="10.622725"><ele>374.2</ele><time>2026-04-03T14:14:19.187Z</time></trkpt><trkpt lat="43.1312823" lon="10.6227564"><ele>374.6</ele><time>2026-04-03T14:14:20.182Z</time></trkpt><trkpt lat="43.1311882" lon="10.6227807"><ele>375.0</ele><time>2026-04-03T14:14:21.19Z</time></trkpt><trkpt lat="43.1310933" lon="10.6228081"><ele>377.5714285714286</ele><time>2026-04-03T14:14:23.208Z</time></trkpt><trkpt lat="43.1310173" lon="10.622864"><ele>380.1428571428571</ele><time>2026-04-03T14:14:26.187Z</time></trkpt><trkpt lat="43.130967" lon="10.6229193"><ele>382.7142857142857</ele><time>2026-04-03T14:14:28.191Z</time></trkpt><trkpt lat="43.1309156" lon="10.6229851"><ele>385.28571428571433</ele><time>2026-04-03T14:14:30.189Z</time></trkpt><trkpt lat="43.1308746" lon="10.6230604"><ele>387.8571428571429</ele><time>2026-04-03T14:14:32.195Z</time></trkpt><trkpt lat="43.13086" lon="10.6231447"><ele>390.42857142857144</ele><time>2026-04-03T14:14:34.181Z</time></trkpt><trkpt lat="43.1308314" lon="10.6232218"><ele>393.0</ele><time>2026-04-03T14:14:37.169Z</time></trkpt><trkpt lat="43.1307788" lon="10.6232835"><ele>392.3333333333333</ele><time>2026-04-03T14:14:43.174Z</time></trkpt><trkpt lat="43.1306953" lon="10.6233165"><ele>391.66666666666663</ele><time>2026-04-03T14:14:50.174Z</time></trkpt><trkpt lat="43.1306303" lon="10.6233285"><ele>391.0</ele><time>2026-04-03T14:14:52.174Z</time></trkpt><trkpt lat="43.1305417" lon="10.6233547"><ele>390.3333333333333</ele><time>2026-04-03T14:14:54.188Z</time></trkpt><trkpt lat="43.1304763" lon="10.6233959"><ele>389.66666666666663</ele><time>2026-04-03T14:14:56.171Z</time></trkpt><trkpt lat="43.1304147" lon="10.6234323"><ele>389.0</ele><time>2026-04-03T14:14:58.172Z</time></trkpt><trkpt lat="43.1303265" lon="10.6234772"><ele>388.99999999999994</ele><time>2026-04-03T14:15:00.173Z</time></trkpt><trkpt lat="43.1302261" lon="10.623533"><ele>389.0</ele><time>2026-04-03T14:15:02.165Z</time></trkpt><trkpt lat="43.1301334" lon="10.6235926"><ele>389.0</ele><time>2026-04-03T14:15:04.157Z</time></trkpt><trkpt lat="43.1300655" lon="10.6236205"><ele>389.0</ele><time>2026-04-03T14:15:06.166Z</time></trkpt><trkpt lat="43.1299903" lon="10.6236208"><ele>388.99999999999994</ele><time>2026-04-03T14:15:09.17Z</time></trkpt><trkpt lat="43.1299105" lon="10.6235982"><ele>389.0</ele><time>2026-04-03T14:15:13.168Z</time></trkpt><trkpt lat="43.1298323" lon="10.6235885"><ele>388.99999999999994</ele><time>2026-04-03T14:15:17.159Z</time></trkpt><trkpt lat="43.1297576" lon="10.6235998"><ele>389.0</ele><time>2026-04-03T14:15:19.164Z</time></trkpt><trkpt lat="43.1296648" lon="10.6236133"><ele>389.0</ele><time>2026-04-03T14:15:21.161Z</time></trkpt><trkpt lat="43.1295983" lon="10.6236085"><ele>389.0</ele><time>2026-04-03T14:15:22.157Z</time></trkpt><trkpt lat="43.1295013" lon="10.6235845"><ele>388.99999999999994</ele><time>2026-04-03T14:15:24.16Z</time></trkpt><trkpt lat="43.1294064" lon="10.6235657"><ele>389.0</ele><time>2026-04-03T14:15:27.163Z</time></trkpt><trkpt lat="43.1293353" lon="10.6235319"><ele>389.0</ele><time>2026-04-03T14:15:31.155Z</time></trkpt><trkpt lat="43.1292815" lon="10.6234709"><ele>389.0</ele><time>2026-04-03T14:15:33.16Z</time></trkpt><trkpt lat="43.1292031" lon="10.6234563"><ele>389.0</ele><time>2026-04-03T14:15:36.153Z</time></trkpt><trkpt lat="43.129135" lon="10.6235015"><ele>389.0</ele><time>2026-04-03T14:15:39.161Z</time></trkpt><trkpt lat="43.1290718" lon="10.6235289"><ele>389.0</ele><time>2026-04-03T14:15:43.167Z</time></trkpt><trkpt lat="43.1290023" lon="10.6235523"><ele>389.0</ele><time>2026-04-03T14:15:49.149Z</time></trkpt><trkpt lat="43.1289293" lon="10.623606"><ele>389.0</ele><time>2026-04-03T14:15:52.159Z</time></trkpt><trkpt lat="43.1288702" lon="10.6236433"><ele>390.49999999999994</ele><time>2026-04-03T14:15:55.162Z</time></trkpt><trkpt lat="43.1287839" lon="10.6236499"><ele>392.0</ele><time>2026-04-03T14:16:03.157Z</time></trkpt><trkpt lat="43.1286735" lon="10.6236612"><ele>393.5</ele><time>2026-04-03T14:16:05.16Z</time></trkpt><trkpt lat="43.1285942" lon="10.6236433"><ele>395.0</ele><time>2026-04-03T14:16:07.156Z</time></trkpt><trkpt lat="43.1285068" lon="10.6236404"><ele>396.49999999999994</ele><time>2026-04-03T14:16:09.156Z</time></trkpt><trkpt lat="43.1284255" lon="10.6236572"><ele>398.0</ele><time>2026-04-03T14:16:12.154Z</time></trkpt><trkpt lat="43.12833" lon="10.6236679"><ele>397.99999999999994</ele><time>2026-04-03T14:16:14.149Z</time></trkpt><trkpt lat="43.12827" lon="10.6236264"><ele>398.0</ele><time>2026-04-03T14:16:17.159Z</time></trkpt><trkpt lat="43.1281878" lon="10.6236702"><ele>398.0</ele><time>2026-04-03T14:16:46.158Z</time></trkpt><trkpt lat="43.1281386" lon="10.623727"><ele>398.0</ele><time>2026-04-03T14:16:48.162Z</time></trkpt><trkpt lat="43.1280556" lon="10.6237902"><ele>397.99999999999994</ele><time>2026-04-03T14:16:50.16Z</time></trkpt><trkpt lat="43.1279929" lon="10.6238315"><ele>398.0</ele><time>2026-04-03T14:17:41.166Z</time></trkpt><trkpt lat="43.1279304" lon="10.6238672"><ele>403.49999999999994</ele><time>2026-04-03T14:17:53.155Z</time></trkpt><trkpt lat="43.1278676" lon="10.6238873"><ele>409.0</ele><time>2026-04-03T14:17:55.154Z</time></trkpt><trkpt lat="43.1277778" lon="10.6239274"><ele>414.5</ele><time>2026-04-03T14:17:56.156Z</time></trkpt><trkpt lat="43.1277073" lon="10.6239566"><ele>420.0</ele><time>2026-04-03T14:17:58.169Z</time></trkpt><trkpt lat="43.1276197" lon="10.6239759"><ele>425.49999999999994</ele><time>2026-04-03T14:18:29.15Z</time></trkpt><trkpt lat="43.1275523" lon="10.6239831"><ele>431.0</ele><time>2026-04-03T14:18:30.153Z</time></trkpt><trkpt lat="43.1274852" lon="10.6239865"><ele>430.99999999999994</ele><time>2026-04-03T14:18:31.182Z</time></trkpt><trkpt lat="43.1274159" lon="10.6239921"><ele>431.0</ele><time>2026-04-03T14:18:32.149Z</time></trkpt><trkpt lat="43.1273101" lon="10.624007"><ele>431.0</ele><time>2026-04-03T14:18:34.152Z</time></trkpt><trkpt lat="43.1272297" lon="10.6240364"><ele>431.0</ele><time>2026-04-03T14:18:37.153Z</time></trkpt><trkpt lat="43.1271708" lon="10.6239703"><ele>430.99999999999994</ele><time>2026-04-03T14:18:41.166Z</time></trkpt><trkpt lat="43.1271885" lon="10.6238772"><ele>431.0</ele><time>2026-04-03T14:18:52.173Z</time></trkpt><trkpt lat="43.1272587" lon="10.6237655"><ele>434.8333333333333</ele><time>2026-04-03T14:18:56.166Z</time></trkpt><trkpt lat="43.1272995" lon="10.6236393"><ele>438.66666666666663</ele><time>2026-04-03T14:18:59.163Z</time></trkpt><trkpt lat="43.127312" lon="10.6235397"><ele>442.5</ele><time>2026-04-03T14:19:01.195Z</time></trkpt><trkpt lat="43.1273066" lon="10.6234161"><ele>446.33333333333337</ele><time>2026-04-03T14:19:05.185Z</time></trkpt><trkpt lat="43.127297" lon="10.6233295"><ele>450.1666666666667</ele><time>2026-04-03T14:19:25.182Z</time></trkpt><trkpt lat="43.127322" lon="10.6232235"><ele>454.0</ele><time>2026-04-03T14:19:32.194Z</time></trkpt><trkpt lat="43.1273384" lon="10.6231249"><ele>454.0</ele><time>2026-04-03T14:20:04.177Z</time></trkpt><trkpt lat="43.1273423" lon="10.6230169"><ele>454.00000000000006</ele><time>2026-04-03T14:20:08.182Z</time></trkpt><trkpt lat="43.1273396" lon="10.622924"><ele>454.0</ele><time>2026-04-03T14:20:16.175Z</time></trkpt><trkpt lat="43.1273207" lon="10.6228363"><ele>454.0</ele><time>2026-04-03T14:20:20.182Z</time></trkpt><trkpt lat="43.1272812" lon="10.6227631"><ele>454.00000000000006</ele><time>2026-04-03T14:20:24.186Z</time></trkpt><trkpt lat="43.1272319" lon="10.622691"><ele>454.0</ele><time>2026-04-03T14:20:33.187Z</time></trkpt><trkpt lat="43.127178" lon="10.6226332"><ele>454.0</ele><time>2026-04-03T14:20:39.173Z</time></trkpt><trkpt lat="43.1271169" lon="10.6226012"><ele>454.6666666666667</ele><time>2026-04-03T14:20:46.186Z</time></trkpt><trkpt lat="43.1270641" lon="10.6225382"><ele>455.33333333333337</ele><time>2026-04-03T14:20:55.179Z</time></trkpt><trkpt lat="43.1269985" lon="10.6224903"><ele>456.0</ele><time>2026-04-03T14:21:10.173Z</time></trkpt><trkpt lat="43.1269265" lon="10.6224413"><ele>456.66666666666663</ele><time>2026-04-03T14:21:18.173Z</time></trkpt><trkpt lat="43.126875" lon="10.6223447"><ele>457.3333333333333</ele><time>2026-04-03T14:21:48.179Z</time></trkpt><trkpt lat="43.126846" lon="10.6222657"><ele>458.0</ele><time>2026-04-03T14:21:51.181Z</time></trkpt><trkpt lat="43.126795" lon="10.6221925"><ele>457.99999999999994</ele><time>2026-04-03T14:22:16.179Z</time></trkpt><trkpt lat="43.1267381" lon="10.6221226"><ele>458.0</ele><time>2026-04-03T14:22:19.181Z</time></trkpt><trkpt lat="43.1266897" lon="10.6220407"><ele>458.0</ele><time>2026-04-03T14:22:22.182Z</time></trkpt><trkpt lat="43.1266355" lon="10.6219551"><ele>458.0</ele><time>2026-04-03T14:22:25.181Z</time></trkpt><trkpt lat="43.1265773" lon="10.6218626"><ele>457.99999999999994</ele><time>2026-04-03T14:22:28.187Z</time></trkpt><trkpt lat="43.1265184" lon="10.6217848"><ele>458.0</ele><time>2026-04-03T14:22:31.188Z</time></trkpt><trkpt lat="43.1264778" lon="10.6216964"><ele>461.0</ele><time>2026-04-03T14:22:34.194Z</time></trkpt><trkpt lat="43.1264252" lon="10.621622"><ele>464.0</ele><time>2026-04-03T14:22:37.191Z</time></trkpt><trkpt lat="43.1263679" lon="10.6215685"><ele>467.0</ele><time>2026-04-03T14:22:41.19Z</time></trkpt><trkpt lat="43.1263195" lon="10.6215058"><ele>470.0</ele><time>2026-04-03T14:22:44.19Z</time></trkpt><trkpt lat="43.1262639" lon="10.6214353"><ele>473.0</ele><time>2026-04-03T14:22:47.188Z</time></trkpt><trkpt lat="43.1262047" lon="10.6213647"><ele>476.0</ele><time>2026-04-03T14:22:50.182Z</time></trkpt><trkpt lat="43.1261734" lon="10.6212787"><ele>479.0</ele><time>2026-04-03T14:23:17.19Z</time></trkpt><trkpt lat="43.1261066" lon="10.6213116"><ele>479.0</ele><time>2026-04-03T14:23:26.175Z</time></trkpt><trkpt lat="43.1260581" lon="10.6213835"><ele>479.0</ele><time>2026-04-03T14:23:30.181Z</time></trkpt><trkpt lat="43.1260139" lon="10.6214685"><ele>479.0</ele><time>2026-04-03T14:23:35.187Z</time></trkpt><trkpt lat="43.125981" lon="10.6215573"><ele>479.0</ele><time>2026-04-03T14:23:38.189Z</time></trkpt><trkpt lat="43.125969" lon="10.6216711"><ele>479.0</ele><time>2026-04-03T14:23:41.178Z</time></trkpt><trkpt lat="43.1259587" lon="10.6217665"><ele>479.0</ele><time>2026-04-03T14:23:44.182Z</time></trkpt><trkpt lat="43.1259813" lon="10.6218628"><ele>479.0</ele><time>2026-04-03T14:23:48.185Z</time></trkpt><trkpt lat="43.1259685" lon="10.6220452"><ele>480.49999999999994</ele><time>2026-04-03T14:24:50.19Z</time></trkpt><trkpt lat="43.1259553" lon="10.622146"><ele>482.0</ele><time>2026-04-03T14:24:55.187Z</time></trkpt><trkpt lat="43.1259481" lon="10.6222547"><ele>483.5</ele><time>2026-04-03T14:25:13.187Z</time></trkpt><trkpt lat="43.1259432" lon="10.6223513"><ele>485.0</ele><time>2026-04-03T14:25:40.19Z</time></trkpt><trkpt lat="43.125918" lon="10.6224587"><ele>486.49999999999994</ele><time>2026-04-03T14:25:43.184Z</time></trkpt><trkpt lat="43.1259333" lon="10.6225457"><ele>488.0</ele><time>2026-04-03T14:25:45.168Z</time></trkpt><trkpt lat="43.1259688" lon="10.6226854"><ele>487.99999999999994</ele><time>2026-04-03T14:25:48.169Z</time></trkpt><trkpt lat="43.1259857" lon="10.6227742"><ele>488.0</ele><time>2026-04-03T14:25:50.176Z</time></trkpt><trkpt lat="43.1260107" lon="10.6228692"><ele>487.99999999999994</ele><time>2026-04-03T14:26:02.181Z</time></trkpt><trkpt lat="43.1259799" lon="10.6229805"><ele>487.99999999999994</ele><time>2026-04-03T14:26:19.176Z</time></trkpt><trkpt lat="43.1259635" lon="10.6230725"><ele>488.0</ele><time>2026-04-03T14:26:21.176Z</time></trkpt><trkpt lat="43.125943" lon="10.6231862"><ele>487.99999999999994</ele><time>2026-04-03T14:26:30.178Z</time></trkpt><trkpt lat="43.1259398" lon="10.6232725"><ele>487.99999999999994</ele><time>2026-04-03T14:26:33.176Z</time></trkpt><trkpt lat="43.1259295" lon="10.6234538"><ele>488.49999999999994</ele><time>2026-04-03T14:27:05.191Z</time></trkpt><trkpt lat="43.1259242" lon="10.6235552"><ele>489.0</ele><time>2026-04-03T14:27:10.188Z</time></trkpt><trkpt lat="43.1258899" lon="10.6236507"><ele>489.5</ele><time>2026-04-03T14:27:15.19Z</time></trkpt><trkpt lat="43.1258619" lon="10.6237468"><ele>490.0</ele><time>2026-04-03T14:27:21.188Z</time></trkpt><trkpt lat="43.1258188" lon="10.6238423"><ele>490.49999999999994</ele><time>2026-04-03T14:27:33.18Z</time></trkpt><trkpt lat="43.1257813" lon="10.6239153"><ele>491.0</ele><time>2026-04-03T14:27:40.172Z</time></trkpt><trkpt lat="43.1257485" lon="10.6240271"><ele>490.99999999999994</ele><time>2026-04-03T14:27:47.206Z</time></trkpt><trkpt lat="43.1257437" lon="10.6241277"><ele>491.0</ele><time>2026-04-03T14:27:49.178Z</time></trkpt><trkpt lat="43.1257506" lon="10.6242785"><ele>491.0</ele><time>2026-04-03T14:27:51.162Z</time></trkpt><trkpt lat="43.1257771" lon="10.6244036"><ele>491.0</ele><time>2026-04-03T14:27:53.171Z</time></trkpt><trkpt lat="43.1257943" lon="10.6244929"><ele>490.99999999999994</ele><time>2026-04-03T14:27:57.171Z</time></trkpt><trkpt lat="43.125811" lon="10.6245833"><ele>491.0</ele><time>2026-04-03T14:28:01.183Z</time></trkpt><trkpt lat="43.1258017" lon="10.6246818"><ele>490.2857142857143</ele><time>2026-04-03T14:28:04.175Z</time></trkpt><trkpt lat="43.1257825" lon="10.6247818"><ele>489.57142857142856</ele><time>2026-04-03T14:28:07.18Z</time></trkpt><trkpt lat="43.1257627" lon="10.6248668"><ele>488.85714285714283</ele><time>2026-04-03T14:28:11.176Z</time></trkpt><trkpt lat="43.1257359" lon="10.6249617"><ele>488.1428571428571</ele><time>2026-04-03T14:28:14.18Z</time></trkpt><trkpt lat="43.1257144" lon="10.6250723"><ele>487.42857142857144</ele><time>2026-04-03T14:28:17.201Z</time></trkpt><trkpt lat="43.1256921" lon="10.6251558"><ele>486.71428571428567</ele><time>2026-04-03T14:28:19.198Z</time></trkpt><trkpt lat="43.1256594" lon="10.6252648"><ele>486.0</ele><time>2026-04-03T14:28:22.189Z</time></trkpt><trkpt lat="43.1256484" lon="10.6253576"><ele>487.8333333333333</ele><time>2026-04-03T14:28:26.191Z</time></trkpt><trkpt lat="43.125597" lon="10.6254431"><ele>489.66666666666663</ele><time>2026-04-03T14:28:31.195Z</time></trkpt><trkpt lat="43.1255328" lon="10.6255118"><ele>491.5</ele><time>2026-04-03T14:28:35.187Z</time></trkpt><trkpt lat="43.1254713" lon="10.6255486"><ele>493.3333333333333</ele><time>2026-04-03T14:28:39.186Z</time></trkpt><trkpt lat="43.1253905" lon="10.6255795"><ele>495.16666666666663</ele><time>2026-04-03T14:28:44.18Z</time></trkpt><trkpt lat="43.1253299" lon="10.6256497"><ele>497.0</ele><time>2026-04-03T14:28:48.203Z</time></trkpt><trkpt lat="43.1252807" lon="10.6257301"><ele>497.0</ele><time>2026-04-03T14:28:51.189Z</time></trkpt><trkpt lat="43.1252441" lon="10.6258192"><ele>497.0</ele><time>2026-04-03T14:28:54.188Z</time></trkpt><trkpt lat="43.1252114" lon="10.6258981"><ele>497.0</ele><time>2026-04-03T14:28:57.2Z</time></trkpt><trkpt lat="43.1252057" lon="10.6259925"><ele>497.0</ele><time>2026-04-03T14:29:04.189Z</time></trkpt><trkpt lat="43.1252296" lon="10.6261059"><ele>497.0</ele><time>2026-04-03T14:29:08.189Z</time></trkpt><trkpt lat="43.1252546" lon="10.6261904"><ele>497.0</ele><time>2026-04-03T14:29:13.177Z</time></trkpt><trkpt lat="43.1252629" lon="10.626297"><ele>497.0</ele><time>2026-04-03T14:29:15.175Z</time></trkpt><trkpt lat="43.1252825" lon="10.626393"><ele>497.6</ele><time>2026-04-03T14:29:18.172Z</time></trkpt><trkpt lat="43.1252515" lon="10.6264731"><ele>498.20000000000005</ele><time>2026-04-03T14:29:21.187Z</time></trkpt><trkpt lat="43.1252613" lon="10.6265705"><ele>498.8</ele><time>2026-04-03T14:29:25.185Z</time></trkpt><trkpt lat="43.1252676" lon="10.6266721"><ele>499.4</ele><time>2026-04-03T14:29:29.193Z</time></trkpt><trkpt lat="43.1252434" lon="10.6268872"><ele>500.0</ele><time>2026-04-03T14:29:39.182Z</time></trkpt><trkpt lat="43.1252665" lon="10.6270218"><ele>500.0</ele><time>2026-04-03T14:29:41.167Z</time></trkpt><trkpt lat="43.1252852" lon="10.6271116"><ele>500.0</ele><time>2026-04-03T14:29:43.178Z</time></trkpt><trkpt lat="43.1253252" lon="10.6271868"><ele>500.0</ele><time>2026-04-03T14:29:47.178Z</time></trkpt><trkpt lat="43.1253695" lon="10.6272499"><ele>500.0</ele><time>2026-04-03T14:29:55.194Z</time></trkpt><trkpt lat="43.1254495" lon="10.627315"><ele>500.0</ele><time>2026-04-03T14:29:58.191Z</time></trkpt><trkpt lat="43.1255082" lon="10.6273617"><ele>500.0</ele><time>2026-04-03T14:30:00.188Z</time></trkpt><trkpt lat="43.125554" lon="10.6274627"><ele>500.0</ele><time>2026-04-03T14:30:38.177Z</time></trkpt><trkpt lat="43.1255856" lon="10.6275927"><ele>499.99999999999994</ele><time>2026-04-03T14:30:40.172Z</time></trkpt><trkpt lat="43.125627" lon="10.6276911"><ele>500.0</ele><time>2026-04-03T14:30:42.174Z</time></trkpt><trkpt lat="43.1256716" lon="10.6277956"><ele>500.0</ele><time>2026-04-03T14:30:43.17Z</time></trkpt><trkpt lat="43.1257332" lon="10.6279098"><ele>500.0</ele><time>2026-04-03T14:30:44.176Z</time></trkpt><trkpt lat="43.125784" lon="10.6279938"><ele>499.99999999999994</ele><time>2026-04-03T14:31:12.196Z</time></trkpt><trkpt lat="43.1258318" lon="10.6280672"><ele>500.0</ele><time>2026-04-03T14:31:15.191Z</time></trkpt><trkpt lat="43.1258917" lon="10.6281347"><ele>504.2</ele><time>2026-04-03T14:31:19.197Z</time></trkpt><trkpt lat="43.1259615" lon="10.6283147"><ele>508.4</ele><time>2026-04-03T14:31:31.197Z</time></trkpt><trkpt lat="43.1259997" lon="10.6284187"><ele>512.6</ele><time>2026-04-03T14:31:33.193Z</time></trkpt><trkpt lat="43.1260495" lon="10.6285175"><ele>516.8</ele><time>2026-04-03T14:31:35.191Z</time></trkpt><trkpt lat="43.1260823" lon="10.6286175"><ele>521.0</ele><time>2026-04-03T14:31:37.187Z</time></trkpt><trkpt lat="43.1261092" lon="10.6287029"><ele>521.0</ele><time>2026-04-03T14:31:39.187Z</time></trkpt><trkpt lat="43.1261701" lon="10.6287956"><ele>521.0</ele><time>2026-04-03T14:31:42.194Z</time></trkpt><trkpt lat="43.1262224" lon="10.6288778"><ele>521.0</ele><time>2026-04-03T14:31:44.191Z</time></trkpt><trkpt lat="43.1263019" lon="10.6289498"><ele>521.0</ele><time>2026-04-03T14:31:46.185Z</time></trkpt><trkpt lat="43.1263702" lon="10.6290287"><ele>521.0</ele><time>2026-04-03T14:31:48.172Z</time></trkpt><trkpt lat="43.1264196" lon="10.6290878"><ele>521.0</ele><time>2026-04-03T14:31:50.176Z</time></trkpt><trkpt lat="43.1264719" lon="10.6291373"><ele>521.0</ele><time>2026-04-03T14:31:52.178Z</time></trkpt><trkpt lat="43.1265332" lon="10.6291657"><ele>521.0</ele><time>2026-04-03T14:31:55.18Z</time></trkpt><trkpt lat="43.1265821" lon="10.6292303"><ele>521.0</ele><time>2026-04-03T14:33:15.197Z</time></trkpt><trkpt lat="43.1265326" lon="10.6291587"><ele>521.0</ele><time>2026-04-03T14:33:29.178Z</time></trkpt><trkpt lat="43.1264871" lon="10.629083"><ele>521.0</ele><time>2026-04-03T14:33:33.178Z</time></trkpt><trkpt lat="43.1264135" lon="10.6290599"><ele>521.0</ele><time>2026-04-03T14:33:40.19Z</time></trkpt><trkpt lat="43.1263447" lon="10.6290192"><ele>521.0</ele><time>2026-04-03T14:33:43.196Z</time></trkpt><trkpt lat="43.1262949" lon="10.6289645"><ele>521.0</ele><time>2026-04-03T14:33:47.183Z</time></trkpt><trkpt lat="43.1262477" lon="10.6288824"><ele>521.0</ele><time>2026-04-03T14:33:51.18Z</time></trkpt><trkpt lat="43.126224" lon="10.628791"><ele>521.0</ele><time>2026-04-03T14:33:55.184Z</time></trkpt><trkpt lat="43.1261892" lon="10.6286954"><ele>521.0</ele><time>2026-04-03T14:33:58.21Z</time></trkpt><trkpt lat="43.1261472" lon="10.6286056"><ele>521.0</ele><time>2026-04-03T14:34:01.191Z</time></trkpt><trkpt lat="43.1260978" lon="10.6285011"><ele>521.0</ele><time>2026-04-03T14:34:04.195Z</time></trkpt><trkpt lat="43.1260412" lon="10.6283935"><ele>521.0</ele><time>2026-04-03T14:34:06.18Z</time></trkpt><trkpt lat="43.1259792" lon="10.6282872"><ele>521.0</ele><time>2026-04-03T14:34:08.172Z</time></trkpt><trkpt lat="43.1259142" lon="10.6281872"><ele>521.0</ele><time>2026-04-03T14:34:10.171Z</time></trkpt><trkpt lat="43.1258627" lon="10.6280673"><ele>521.0</ele><time>2026-04-03T14:34:12.165Z</time></trkpt><trkpt lat="43.1258153" lon="10.6279317"><ele>521.0</ele><time>2026-04-03T14:34:14.172Z</time></trkpt><trkpt lat="43.1257475" lon="10.6277951"><ele>517.5</ele><time>2026-04-03T14:34:16.182Z</time></trkpt><trkpt lat="43.125717" lon="10.6277185"><ele>514.0</ele><time>2026-04-03T14:34:17.169Z</time></trkpt><trkpt lat="43.1256925" lon="10.6276334"><ele>510.5</ele><time>2026-04-03T14:34:18.174Z</time></trkpt><trkpt lat="43.125664" lon="10.6275547"><ele>507.0</ele><time>2026-04-03T14:34:19.183Z</time></trkpt><trkpt lat="43.12559" lon="10.6274578"><ele>503.49999999999994</ele><time>2026-04-03T14:34:21.186Z</time></trkpt><trkpt lat="43.1255037" lon="10.6273979"><ele>500.0</ele><time>2026-04-03T14:34:23.172Z</time></trkpt><trkpt lat="43.1254116" lon="10.6273359"><ele>499.99999999999994</ele><time>2026-04-03T14:34:25.174Z</time></trkpt><trkpt lat="43.1253565" lon="10.6272413"><ele>500.0</ele><time>2026-04-03T14:34:27.172Z</time></trkpt><trkpt lat="43.1253098" lon="10.6271491"><ele>500.0</ele><time>2026-04-03T14:34:29.196Z</time></trkpt><trkpt lat="43.1252763" lon="10.6270261"><ele>500.0</ele><time>2026-04-03T14:34:31.177Z</time></trkpt><trkpt lat="43.1252862" lon="10.6268886"><ele>499.99999999999994</ele><time>2026-04-03T14:34:33.181Z</time></trkpt><trkpt lat="43.1252897" lon="10.6267954"><ele>500.0</ele><time>2026-04-03T14:34:34.177Z</time></trkpt><trkpt lat="43.1252913" lon="10.6266942"><ele>500.1428571428571</ele><time>2026-04-03T14:34:35.17Z</time></trkpt><trkpt lat="43.125294" lon="10.626579"><ele>500.28571428571433</ele><time>2026-04-03T14:34:36.172Z</time></trkpt><trkpt lat="43.1252996" lon="10.6264747"><ele>500.42857142857144</ele><time>2026-04-03T14:34:37.178Z</time></trkpt><trkpt lat="43.1253004" lon="10.6263822"><ele>500.57142857142856</ele><time>2026-04-03T14:34:38.184Z</time></trkpt><trkpt lat="43.1252962" lon="10.6262812"><ele>500.71428571428567</ele><time>2026-04-03T14:34:40.182Z</time></trkpt><trkpt lat="43.1252613" lon="10.6262019"><ele>500.8571428571429</ele><time>2026-04-03T14:34:42.18Z</time></trkpt><trkpt lat="43.1252031" lon="10.6261409"><ele>501.0</ele><time>2026-04-03T14:34:44.176Z</time></trkpt><trkpt lat="43.1251629" lon="10.6260684"><ele>500.3333333333333</ele><time>2026-04-03T14:34:46.185Z</time></trkpt><trkpt lat="43.1251591" lon="10.6259686"><ele>499.66666666666663</ele><time>2026-04-03T14:34:51.172Z</time></trkpt><trkpt lat="43.1252059" lon="10.6258769"><ele>499.0</ele><time>2026-04-03T14:34:55.187Z</time></trkpt><trkpt lat="43.125228" lon="10.6257951"><ele>498.3333333333333</ele><time>2026-04-03T14:34:58.185Z</time></trkpt><trkpt lat="43.1252513" lon="10.6257053"><ele>497.66666666666663</ele><time>2026-04-03T14:35:02.182Z</time></trkpt><trkpt lat="43.1253033" lon="10.6257777"><ele>497.0</ele><time>2026-04-03T14:35:10.176Z</time></trkpt><trkpt lat="43.1253171" lon="10.625906"><ele>496.99999999999994</ele><time>2026-04-03T14:35:13.184Z</time></trkpt><trkpt lat="43.125345" lon="10.6260131"><ele>497.0</ele><time>2026-04-03T14:35:15.184Z</time></trkpt><trkpt lat="43.1253717" lon="10.6261228"><ele>497.0</ele><time>2026-04-03T14:35:17.192Z</time></trkpt><trkpt lat="43.1253976" lon="10.6262193"><ele>497.0</ele><time>2026-04-03T14:35:19.187Z</time></trkpt><trkpt lat="43.1254339" lon="10.6263207"><ele>496.99999999999994</ele><time>2026-04-03T14:35:22.174Z</time></trkpt><trkpt lat="43.1254762" lon="10.6263912"><ele>497.0</ele><time>2026-04-03T14:35:24.181Z</time></trkpt><trkpt lat="43.1255293" lon="10.6264664"><ele>497.66666666666663</ele><time>2026-04-03T14:35:26.179Z</time></trkpt><trkpt lat="43.1255915" lon="10.6265339"><ele>498.3333333333333</ele><time>2026-04-03T14:35:28.183Z</time></trkpt><trkpt lat="43.1256546" lon="10.6266285"><ele>499.0</ele><time>2026-04-03T14:35:31.208Z</time></trkpt><trkpt lat="43.125694" lon="10.6267161"><ele>499.66666666666663</ele><time>2026-04-03T14:35:33.181Z</time></trkpt><trkpt lat="43.1257401" lon="10.6268054"><ele>500.3333333333333</ele><time>2026-04-03T14:35:35.176Z</time></trkpt><trkpt lat="43.1257861" lon="10.6268927"><ele>501.0</ele><time>2026-04-03T14:35:38.179Z</time></trkpt><trkpt lat="43.1258471" lon="10.62699"><ele>503.6666666666667</ele><time>2026-04-03T14:35:41.185Z</time></trkpt><trkpt lat="43.1258825" lon="10.627068"><ele>506.33333333333337</ele><time>2026-04-03T14:35:43.182Z</time></trkpt><trkpt lat="43.1259128" lon="10.6271546"><ele>509.0</ele><time>2026-04-03T14:35:46.184Z</time></trkpt><trkpt lat="43.1259797" lon="10.6272353"><ele>511.6666666666667</ele><time>2026-04-03T14:35:50.175Z</time></trkpt><trkpt lat="43.1260375" lon="10.6273317"><ele>514.3333333333334</ele><time>2026-04-03T14:35:55.164Z</time></trkpt><trkpt lat="43.1261113" lon="10.6274345"><ele>517.0</ele><time>2026-04-03T14:35:57.182Z</time></trkpt><trkpt lat="43.1261637" lon="10.6275279"><ele>517.0</ele><time>2026-04-03T14:35:59.171Z</time></trkpt><trkpt lat="43.1262192" lon="10.6276123"><ele>517.0</ele><time>2026-04-03T14:36:01.169Z</time></trkpt><trkpt lat="43.1262725" lon="10.6276899"><ele>517.0</ele><time>2026-04-03T14:36:03.18Z</time></trkpt><trkpt lat="43.1263214" lon="10.6277595"><ele>517.0</ele><time>2026-04-03T14:36:05.18Z</time></trkpt><trkpt lat="43.1263907" lon="10.6278553"><ele>517.0</ele><time>2026-04-03T14:36:08.184Z</time></trkpt><trkpt lat="43.1264306" lon="10.6279241"><ele>517.0</ele><time>2026-04-03T14:36:10.184Z</time></trkpt><trkpt lat="43.1264838" lon="10.6280097"><ele>517.6666666666667</ele><time>2026-04-03T14:36:13.19Z</time></trkpt><trkpt lat="43.1265359" lon="10.6280976"><ele>518.3333333333334</ele><time>2026-04-03T14:36:16.189Z</time></trkpt><trkpt lat="43.1265705" lon="10.6281982"><ele>519.0</ele><time>2026-04-03T14:36:20.186Z</time></trkpt><trkpt lat="43.1266004" lon="10.6282895"><ele>519.6666666666666</ele><time>2026-04-03T14:36:23.174Z</time></trkpt><trkpt lat="43.1266245" lon="10.6284121"><ele>520.3333333333333</ele><time>2026-04-03T14:36:26.175Z</time></trkpt><trkpt lat="43.1266496" lon="10.6285433"><ele>521.0</ele><time>2026-04-03T14:36:28.173Z</time></trkpt><trkpt lat="43.1266612" lon="10.6286293"><ele>521.6666666666666</ele><time>2026-04-03T14:36:29.173Z</time></trkpt><trkpt lat="43.1266854" lon="10.6287809"><ele>522.3333333333333</ele><time>2026-04-03T14:36:31.17Z</time></trkpt><trkpt lat="43.1266972" lon="10.6288698"><ele>523.0</ele><time>2026-04-03T14:36:33.199Z</time></trkpt><trkpt lat="43.1267014" lon="10.6289846"><ele>523.6666666666666</ele><time>2026-04-03T14:36:36.18Z</time></trkpt><trkpt lat="43.1267017" lon="10.6290904"><ele>524.3333333333334</ele><time>2026-04-03T14:36:39.183Z</time></trkpt><trkpt lat="43.1267042" lon="10.6291885"><ele>525.0</ele><time>2026-04-03T14:36:44.169Z</time></trkpt><trkpt lat="43.1267772" lon="10.6292631"><ele>525.0</ele><time>2026-04-03T14:36:48.165Z</time></trkpt><trkpt lat="43.1268605" lon="10.6292952"><ele>525.0</ele><time>2026-04-03T14:36:51.169Z</time></trkpt><trkpt lat="43.1269458" lon="10.6292487"><ele>525.0</ele><time>2026-04-03T14:36:54.169Z</time></trkpt><trkpt lat="43.1270204" lon="10.6292319"><ele>525.0</ele><time>2026-04-03T14:36:56.171Z</time></trkpt><trkpt lat="43.1270893" lon="10.6292136"><ele>525.0</ele><time>2026-04-03T14:36:58.182Z</time></trkpt><trkpt lat="43.1271729" lon="10.6291803"><ele>525.0</ele><time>2026-04-03T14:37:00.177Z</time></trkpt><trkpt lat="43.127277" lon="10.6291638"><ele>525.0</ele><time>2026-04-03T14:37:02.179Z</time></trkpt><trkpt lat="43.127366" lon="10.6291626"><ele>525.0</ele><time>2026-04-03T14:37:04.2Z</time></trkpt><trkpt lat="43.1274417" lon="10.629166"><ele>525.0</ele><time>2026-04-03T14:37:06.179Z</time></trkpt><trkpt lat="43.1275071" lon="10.629179"><ele>525.0</ele><time>2026-04-03T14:37:08.178Z</time></trkpt><trkpt lat="43.1275685" lon="10.629203"><ele>525.0</ele><time>2026-04-03T14:37:10.179Z</time></trkpt><trkpt lat="43.127648" lon="10.6292344"><ele>525.0</ele><time>2026-04-03T14:37:13.18Z</time></trkpt><trkpt lat="43.1277308" lon="10.6292631"><ele>525.1428571428571</ele><time>2026-04-03T14:37:16.186Z</time></trkpt><trkpt lat="43.1277967" lon="10.6292346"><ele>525.2857142857142</ele><time>2026-04-03T14:37:18.181Z</time></trkpt><trkpt lat="43.1278483" lon="10.6291551"><ele>525.4285714285714</ele><time>2026-04-03T14:37:20.186Z</time></trkpt><trkpt lat="43.1279341" lon="10.629142"><ele>525.5714285714286</ele><time>2026-04-03T14:37:23.183Z</time></trkpt><trkpt lat="43.1279955" lon="10.6291034"><ele>525.7142857142857</ele><time>2026-04-03T14:37:27.181Z</time></trkpt><trkpt lat="43.1280309" lon="10.6290306"><ele>525.8571428571429</ele><time>2026-04-03T14:37:29.179Z</time></trkpt><trkpt lat="43.128056" lon="10.6289291"><ele>526.0</ele><time>2026-04-03T14:37:33.185Z</time></trkpt><trkpt lat="43.1280545" lon="10.6288359"><ele>526.0</ele><time>2026-04-03T14:37:36.185Z</time></trkpt><trkpt lat="43.1280348" lon="10.628742"><ele>526.0</ele><time>2026-04-03T14:37:40.196Z</time></trkpt><trkpt lat="43.1280085" lon="10.6286603"><ele>526.0</ele><time>2026-04-03T14:37:43.192Z</time></trkpt><trkpt lat="43.12798" lon="10.6285722"><ele>526.0</ele><time>2026-04-03T14:37:46.19Z</time></trkpt><trkpt lat="43.1279793" lon="10.6284848"><ele>526.0</ele><time>2026-04-03T14:37:51.191Z</time></trkpt><trkpt lat="43.1280107" lon="10.6283922"><ele>526.0</ele><time>2026-04-03T14:37:57.17Z</time></trkpt><trkpt lat="43.1281056" lon="10.6284285"><ele>526.0</ele><time>2026-04-03T14:38:00.178Z</time></trkpt><trkpt lat="43.1282136" lon="10.6285007"><ele>525.1666666666667</ele><time>2026-04-03T14:38:02.171Z</time></trkpt><trkpt lat="43.1282978" lon="10.6285811"><ele>524.3333333333334</ele><time>2026-04-03T14:38:04.152Z</time></trkpt><trkpt lat="43.1283369" lon="10.6286506"><ele>523.5</ele><time>2026-04-03T14:38:05.191Z</time></trkpt><trkpt lat="43.1283763" lon="10.6287439"><ele>522.6666666666666</ele><time>2026-04-03T14:38:13.181Z</time></trkpt><trkpt lat="43.128419" lon="10.6288197"><ele>521.8333333333333</ele><time>2026-04-03T14:38:17.179Z</time></trkpt><trkpt lat="43.1284806" lon="10.6288571"><ele>521.0</ele><time>2026-04-03T14:38:19.176Z</time></trkpt><trkpt lat="43.1285418" lon="10.6288972"><ele>521.0</ele><time>2026-04-03T14:38:22.167Z</time></trkpt><trkpt lat="43.1286052" lon="10.628898"><ele>521.0</ele><time>2026-04-03T14:38:23.152Z</time></trkpt><trkpt lat="43.1286773" lon="10.6288925"><ele>521.0</ele><time>2026-04-03T14:38:24.149Z</time></trkpt><trkpt lat="43.1287469" lon="10.6288896"><ele>521.0</ele><time>2026-04-03T14:38:25.151Z</time></trkpt><trkpt lat="43.1288147" lon="10.6289109"><ele>521.0</ele><time>2026-04-03T14:38:27.165Z</time></trkpt><trkpt lat="43.1289093" lon="10.6289221"><ele>521.0</ele><time>2026-04-03T14:38:28.168Z</time></trkpt><trkpt lat="43.1290217" lon="10.6289037"><ele>517.5</ele><time>2026-04-03T14:38:30.173Z</time></trkpt><trkpt lat="43.1290964" lon="10.6289032"><ele>514.0</ele><time>2026-04-03T14:38:32.179Z</time></trkpt><trkpt lat="43.129076" lon="10.6290063"><ele>510.5</ele><time>2026-04-03T14:38:35.164Z</time></trkpt><trkpt lat="43.129173" lon="10.6290438"><ele>507.0</ele><time>2026-04-03T14:38:38.171Z</time></trkpt><trkpt lat="43.129278" lon="10.6290374"><ele>503.49999999999994</ele><time>2026-04-03T14:38:40.168Z</time></trkpt><trkpt lat="43.1293468" lon="10.6290295"><ele>500.0</ele><time>2026-04-03T14:38:45.174Z</time></trkpt><trkpt lat="43.1294275" lon="10.6289779"><ele>499.99999999999994</ele><time>2026-04-03T14:38:48.174Z</time></trkpt><trkpt lat="43.1295009" lon="10.6289392"><ele>500.0</ele><time>2026-04-03T14:38:51.178Z</time></trkpt><trkpt lat="43.1295805" lon="10.6289352"><ele>500.0</ele><time>2026-04-03T14:38:54.183Z</time></trkpt><trkpt lat="43.1296533" lon="10.6289525"><ele>500.0</ele><time>2026-04-03T14:38:58.186Z</time></trkpt><trkpt lat="43.1297205" lon="10.628975"><ele>499.99999999999994</ele><time>2026-04-03T14:39:00.195Z</time></trkpt><trkpt lat="43.1297806" lon="10.6288798"><ele>500.0</ele><time>2026-04-03T14:39:05.17Z</time></trkpt><trkpt lat="43.1297561" lon="10.6287778"><ele>499.99999999999994</ele><time>2026-04-03T14:39:07.192Z</time></trkpt><trkpt lat="43.1296972" lon="10.6286923"><ele>500.0</ele><time>2026-04-03T14:39:09.177Z</time></trkpt><trkpt lat="43.1296853" lon="10.6286051"><ele>500.0</ele><time>2026-04-03T14:39:12.197Z</time></trkpt><trkpt lat="43.1297404" lon="10.6285268"><ele>500.0</ele><time>2026-04-03T14:40:26.19Z</time></trkpt><trkpt lat="43.1298294" lon="10.6285078"><ele>499.99999999999994</ele><time>2026-04-03T14:40:29.176Z</time></trkpt><trkpt lat="43.1298991" lon="10.628606"><ele>500.0</ele><time>2026-04-03T14:40:31.164Z</time></trkpt><trkpt lat="43.1299617" lon="10.6286313"><ele>496.49999999999994</ele><time>2026-04-03T14:40:46.19Z</time></trkpt><trkpt lat="43.1300321" lon="10.6286913"><ele>493.0</ele><time>2026-04-03T14:40:49.177Z</time></trkpt><trkpt lat="43.1301237" lon="10.6287856"><ele>489.5</ele><time>2026-04-03T14:40:51.179Z</time></trkpt><trkpt lat="43.130195" lon="10.6288437"><ele>486.0</ele><time>2026-04-03T14:40:53.172Z</time></trkpt><trkpt lat="43.1302361" lon="10.6287778"><ele>482.49999999999994</ele><time>2026-04-03T14:40:57.171Z</time></trkpt><trkpt lat="43.130238" lon="10.628677"><ele>479.0</ele><time>2026-04-03T14:40:59.171Z</time></trkpt><trkpt lat="43.1302426" lon="10.6285698"><ele>476.1428571428571</ele><time>2026-04-03T14:41:01.186Z</time></trkpt><trkpt lat="43.1302413" lon="10.628466"><ele>473.28571428571433</ele><time>2026-04-03T14:41:03.181Z</time></trkpt><trkpt lat="43.1302272" lon="10.6283694"><ele>470.42857142857144</ele><time>2026-04-03T14:41:05.172Z</time></trkpt><trkpt lat="43.130211" lon="10.6282783"><ele>467.57142857142856</ele><time>2026-04-03T14:41:07.181Z</time></trkpt><trkpt lat="43.1301891" lon="10.6281957"><ele>464.71428571428567</ele><time>2026-04-03T14:41:09.173Z</time></trkpt><trkpt lat="43.1301842" lon="10.628072"><ele>461.8571428571429</ele><time>2026-04-03T14:41:12.179Z</time></trkpt><trkpt lat="43.1301665" lon="10.6279699"><ele>459.0</ele><time>2026-04-03T14:41:14.181Z</time></trkpt><trkpt lat="43.1301314" lon="10.6278484"><ele>455.79999999999995</ele><time>2026-04-03T14:41:17.164Z</time></trkpt><trkpt lat="43.1300974" lon="10.6277602"><ele>452.59999999999997</ele><time>2026-04-03T14:41:18.175Z</time></trkpt><trkpt lat="43.1300582" lon="10.6276276"><ele>449.4</ele><time>2026-04-03T14:41:20.181Z</time></trkpt><trkpt lat="43.1300544" lon="10.6274912"><ele>446.2</ele><time>2026-04-03T14:41:22.176Z</time></trkpt><trkpt lat="43.1300187" lon="10.6273599"><ele>443.0</ele><time>2026-04-03T14:41:24.176Z</time></trkpt><trkpt lat="43.1299922" lon="10.6272377"><ele>443.0</ele><time>2026-04-03T14:41:26.184Z</time></trkpt><trkpt lat="43.1299731" lon="10.6271294"><ele>442.99999999999994</ele><time>2026-04-03T14:41:28.171Z</time></trkpt><trkpt lat="43.1299759" lon="10.6270079"><ele>442.99999999999994</ele><time>2026-04-03T14:41:33.174Z</time></trkpt><trkpt lat="43.1299938" lon="10.6268772"><ele>443.0</ele><time>2026-04-03T14:41:35.176Z</time></trkpt><trkpt lat="43.1299985" lon="10.6267588"><ele>443.0</ele><time>2026-04-03T14:41:37.186Z</time></trkpt><trkpt lat="43.1300233" lon="10.6266256"><ele>441.49999999999994</ele><time>2026-04-03T14:41:39.185Z</time></trkpt><trkpt lat="43.1300657" lon="10.6265155"><ele>440.0</ele><time>2026-04-03T14:41:41.178Z</time></trkpt><trkpt lat="43.1301042" lon="10.6263901"><ele>438.5</ele><time>2026-04-03T14:41:43.187Z</time></trkpt><trkpt lat="43.1301422" lon="10.6262847"><ele>437.0</ele><time>2026-04-03T14:41:45.182Z</time></trkpt><trkpt lat="43.1301651" lon="10.6261903"><ele>435.49999999999994</ele><time>2026-04-03T14:41:47.183Z</time></trkpt><trkpt lat="43.130182" lon="10.6260873"><ele>434.0</ele><time>2026-04-03T14:42:03.173Z</time></trkpt><trkpt lat="43.130263" lon="10.6260674"><ele>433.99999999999994</ele><time>2026-04-03T14:42:06.17Z</time></trkpt><trkpt lat="43.1303583" lon="10.6260544"><ele>434.0</ele><time>2026-04-03T14:42:08.174Z</time></trkpt><trkpt lat="43.1304504" lon="10.6260497"><ele>434.0</ele><time>2026-04-03T14:42:10.169Z</time></trkpt><trkpt lat="43.1305311" lon="10.6260612"><ele>434.0</ele><time>2026-04-03T14:42:12.176Z</time></trkpt><trkpt lat="43.1306207" lon="10.6260605"><ele>433.99999999999994</ele><time>2026-04-03T14:42:14.176Z</time></trkpt><trkpt lat="43.1306826" lon="10.6261143"><ele>434.0</ele><time>2026-04-03T14:42:18.187Z</time></trkpt><trkpt lat="43.1307062" lon="10.6262163"><ele>431.3333333333333</ele><time>2026-04-03T14:42:23.19Z</time></trkpt><trkpt lat="43.1307693" lon="10.6262543"><ele>428.66666666666663</ele><time>2026-04-03T14:42:25.182Z</time></trkpt><trkpt lat="43.1308459" lon="10.6262787"><ele>426.0</ele><time>2026-04-03T14:42:27.184Z</time></trkpt><trkpt lat="43.1309188" lon="10.6262749"><ele>423.33333333333337</ele><time>2026-04-03T14:42:29.178Z</time></trkpt><trkpt lat="43.1310004" lon="10.626187"><ele>420.6666666666667</ele><time>2026-04-03T14:42:32.177Z</time></trkpt><trkpt lat="43.1310485" lon="10.6260851"><ele>418.0</ele><time>2026-04-03T14:42:35.176Z</time></trkpt><trkpt lat="43.131148" lon="10.6260002"><ele>418.00000000000006</ele><time>2026-04-03T14:42:37.183Z</time></trkpt><trkpt lat="43.131218" lon="10.6259333"><ele>418.0</ele><time>2026-04-03T14:42:39.182Z</time></trkpt><trkpt lat="43.1312333" lon="10.6257983"><ele>418.0</ele><time>2026-04-03T14:42:41.163Z</time></trkpt><trkpt lat="43.1312425" lon="10.6256883"><ele>418.0</ele><time>2026-04-03T14:42:42.165Z</time></trkpt><trkpt lat="43.1312382" lon="10.6255581"><ele>418.00000000000006</ele><time>2026-04-03T14:42:43.193Z</time></trkpt><trkpt lat="43.1312409" lon="10.625441"><ele>418.0</ele><time>2026-04-03T14:42:44.171Z</time></trkpt><trkpt lat="43.1312607" lon="10.6253444"><ele>417.1666666666667</ele><time>2026-04-03T14:42:48.172Z</time></trkpt><trkpt lat="43.1313487" lon="10.625287"><ele>416.33333333333337</ele><time>2026-04-03T14:43:01.184Z</time></trkpt><trkpt lat="43.1314093" lon="10.6252396"><ele>415.5</ele><time>2026-04-03T14:43:03.178Z</time></trkpt><trkpt lat="43.1314844" lon="10.6251475"><ele>414.66666666666663</ele><time>2026-04-03T14:43:05.183Z</time></trkpt><trkpt lat="43.1315355" lon="10.6250917"><ele>413.8333333333333</ele><time>2026-04-03T14:43:06.174Z</time></trkpt><trkpt lat="43.1315846" lon="10.6250121"><ele>413.0</ele><time>2026-04-03T14:43:07.172Z</time></trkpt><trkpt lat="43.1316355" lon="10.6249044"><ele>409.2</ele><time>2026-04-03T14:43:08.165Z</time></trkpt><trkpt lat="43.1316703" lon="10.6247997"><ele>405.4</ele><time>2026-04-03T14:43:09.184Z</time></trkpt><trkpt lat="43.1317126" lon="10.6247032"><ele>401.59999999999997</ele><time>2026-04-03T14:43:10.177Z</time></trkpt><trkpt lat="43.1317861" lon="10.6245692"><ele>397.79999999999995</ele><time>2026-04-03T14:43:12.168Z</time></trkpt><trkpt lat="43.1318431" lon="10.6244404"><ele>394.0</ele><time>2026-04-03T14:43:14.192Z</time></trkpt><trkpt lat="43.1319135" lon="10.624324"><ele>393.4</ele><time>2026-04-03T14:43:16.182Z</time></trkpt><trkpt lat="43.1319286" lon="10.6242001"><ele>392.79999999999995</ele><time>2026-04-03T14:43:18.186Z</time></trkpt><trkpt lat="43.1319221" lon="10.6240781"><ele>392.20000000000005</ele><time>2026-04-03T14:43:20.181Z</time></trkpt><trkpt lat="43.1319324" lon="10.6239148"><ele>391.6</ele><time>2026-04-03T14:43:22.186Z</time></trkpt><trkpt lat="43.1319486" lon="10.623766"><ele>391.0</ele><time>2026-04-03T14:43:24.179Z</time></trkpt><trkpt lat="43.1319533" lon="10.623599"><ele>389.6666666666667</ele><time>2026-04-03T14:43:26.175Z</time></trkpt><trkpt lat="43.1319695" lon="10.6235099"><ele>388.33333333333337</ele><time>2026-04-03T14:43:27.178Z</time></trkpt><trkpt lat="43.1319854" lon="10.6234144"><ele>387.0</ele><time>2026-04-03T14:43:28.173Z</time></trkpt><trkpt lat="43.1319927" lon="10.6233212"><ele>385.6666666666667</ele><time>2026-04-03T14:43:29.18Z</time></trkpt><trkpt lat="43.1320077" lon="10.6232348"><ele>384.33333333333337</ele><time>2026-04-03T14:43:31.185Z</time></trkpt><trkpt lat="43.1320636" lon="10.6231342"><ele>383.0</ele><time>2026-04-03T14:43:34.178Z</time></trkpt><trkpt lat="43.1321455" lon="10.6230337"><ele>383.0</ele><time>2026-04-03T14:43:36.184Z</time></trkpt><trkpt lat="43.1321972" lon="10.6229791"><ele>383.0</ele><time>2026-04-03T14:43:37.181Z</time></trkpt><trkpt lat="43.1322843" lon="10.6228822"><ele>383.0</ele><time>2026-04-03T14:43:39.179Z</time></trkpt><trkpt lat="43.1323487" lon="10.6227402"><ele>383.0</ele><time>2026-04-03T14:43:41.184Z</time></trkpt><trkpt lat="43.1323333" lon="10.6226466"><ele>383.0</ele><time>2026-04-03T14:43:42.17Z</time></trkpt><trkpt lat="43.1322928" lon="10.6225106"><ele>381.33333333333337</ele><time>2026-04-03T14:43:44.177Z</time></trkpt><trkpt lat="43.1322992" lon="10.6223969"><ele>379.6666666666667</ele><time>2026-04-03T14:43:47.168Z</time></trkpt><trkpt lat="43.1323324" lon="10.6223022"><ele>378.0</ele><time>2026-04-03T14:43:49.163Z</time></trkpt><trkpt lat="43.1323862" lon="10.6222159"><ele>376.3333333333333</ele><time>2026-04-03T14:43:51.172Z</time></trkpt><trkpt lat="43.1324466" lon="10.6221466"><ele>374.66666666666663</ele><time>2026-04-03T14:43:53.172Z</time></trkpt><trkpt lat="43.1325187" lon="10.6221035"><ele>373.0</ele><time>2026-04-03T14:43:55.173Z</time></trkpt><trkpt lat="43.132593" lon="10.6220899"><ele>371.0</ele><time>2026-04-03T14:43:59.18Z</time></trkpt><trkpt lat="43.1326584" lon="10.6221493"><ele>369.0</ele><time>2026-04-03T14:44:02.18Z</time></trkpt><trkpt lat="43.132732" lon="10.6221882"><ele>367.0</ele><time>2026-04-03T14:44:05.178Z</time></trkpt><trkpt lat="43.1327947" lon="10.6221621"><ele>365.0</ele><time>2026-04-03T14:44:12.164Z</time></trkpt><trkpt lat="43.1328556" lon="10.6221349"><ele>363.0</ele><time>2026-04-03T14:44:21.171Z</time></trkpt><trkpt lat="43.1329507" lon="10.6221033"><ele>361.0</ele><time>2026-04-03T14:44:25.172Z</time></trkpt><trkpt lat="43.1330578" lon="10.6220044"><ele>360.20000000000005</ele><time>2026-04-03T14:44:27.179Z</time></trkpt><trkpt lat="43.1331144" lon="10.6218941"><ele>359.40000000000003</ele><time>2026-04-03T14:44:29.176Z</time></trkpt><trkpt lat="43.1331641" lon="10.6217965"><ele>358.6</ele><time>2026-04-03T14:44:31.176Z</time></trkpt><trkpt lat="43.133229" lon="10.6216987"><ele>357.8</ele><time>2026-04-03T14:44:33.173Z</time></trkpt><trkpt lat="43.1332866" lon="10.6216304"><ele>357.0</ele><time>2026-04-03T14:44:35.174Z</time></trkpt><trkpt lat="43.1333428" lon="10.6215208"><ele>355.0</ele><time>2026-04-03T14:44:37.164Z</time></trkpt><trkpt lat="43.1333623" lon="10.6214345"><ele>353.0</ele><time>2026-04-03T14:44:38.159Z</time></trkpt><trkpt lat="43.1333874" lon="10.6213357"><ele>351.0</ele><time>2026-04-03T14:44:40.157Z</time></trkpt><trkpt lat="43.1333792" lon="10.62122"><ele>349.0</ele><time>2026-04-03T14:44:42.163Z</time></trkpt><trkpt lat="43.1333793" lon="10.6211249"><ele>347.0</ele><time>2026-04-03T14:44:44.167Z</time></trkpt><trkpt lat="43.1333584" lon="10.6210195"><ele>345.0</ele><time>2026-04-03T14:44:46.169Z</time></trkpt><trkpt lat="43.1333366" lon="10.6209259"><ele>343.0</ele><time>2026-04-03T14:44:53.185Z</time></trkpt><trkpt lat="43.1333223" lon="10.6208413"><ele>342.5</ele><time>2026-04-03T14:45:14.177Z</time></trkpt><trkpt lat="43.1333671" lon="10.620736"><ele>342.0</ele><time>2026-04-03T14:45:18.187Z</time></trkpt><trkpt lat="43.1334123" lon="10.6206385"><ele>341.5</ele><time>2026-04-03T14:45:20.169Z</time></trkpt><trkpt lat="43.1334608" lon="10.6205379"><ele>341.0</ele><time>2026-04-03T14:45:22.179Z</time></trkpt><trkpt lat="43.1335208" lon="10.6204537"><ele>340.5</ele><time>2026-04-03T14:45:24.176Z</time></trkpt><trkpt lat="43.1335741" lon="10.6203676"><ele>340.0</ele><time>2026-04-03T14:45:27.176Z</time></trkpt><trkpt lat="43.1336381" lon="10.6203271"><ele>340.3333333333333</ele><time>2026-04-03T14:45:29.17Z</time></trkpt><trkpt lat="43.1337223" lon="10.6203047"><ele>340.66666666666663</ele><time>2026-04-03T14:45:31.16Z</time></trkpt><trkpt lat="43.1338052" lon="10.6202637"><ele>341.0</ele><time>2026-04-03T14:45:33.179Z</time></trkpt><trkpt lat="43.1338829" lon="10.6202168"><ele>341.3333333333333</ele><time>2026-04-03T14:45:36.176Z</time></trkpt><trkpt lat="43.1339497" lon="10.6201905"><ele>341.6666666666667</ele><time>2026-04-03T14:45:38.173Z</time></trkpt><trkpt lat="43.1340243" lon="10.6201878"><ele>342.0</ele><time>2026-04-03T14:45:41.168Z</time></trkpt><trkpt lat="43.1340838" lon="10.6202312"><ele>342.0</ele><time>2026-04-03T14:45:44.164Z</time></trkpt><trkpt lat="43.1341518" lon="10.6202434"><ele>342.0</ele><time>2026-04-03T14:45:46.159Z</time></trkpt><trkpt lat="43.134253" lon="10.6202435"><ele>342.0</ele><time>2026-04-03T14:45:48.161Z</time></trkpt><trkpt lat="43.1343396" lon="10.6202404"><ele>342.0</ele><time>2026-04-03T14:45:50.163Z</time></trkpt><trkpt lat="43.134446" lon="10.6202886"><ele>342.0</ele><time>2026-04-03T14:45:52.159Z</time></trkpt><trkpt lat="43.1345551" lon="10.6203453"><ele>340.8</ele><time>2026-04-03T14:45:54.165Z</time></trkpt><trkpt lat="43.1346531" lon="10.6203731"><ele>339.6</ele><time>2026-04-03T14:45:56.161Z</time></trkpt><trkpt lat="43.1347596" lon="10.6203777"><ele>338.40000000000003</ele><time>2026-04-03T14:45:58.162Z</time></trkpt><trkpt lat="43.1348829" lon="10.6203569"><ele>337.20000000000005</ele><time>2026-04-03T14:46:00.168Z</time></trkpt><trkpt lat="43.1349487" lon="10.6203422"><ele>336.0</ele><time>2026-04-03T14:46:01.161Z</time></trkpt><trkpt lat="43.1350118" lon="10.6203296"><ele>336.0</ele><time>2026-04-03T14:46:02.161Z</time></trkpt><trkpt lat="43.1351289" lon="10.620316"><ele>336.0</ele><time>2026-04-03T14:46:04.156Z</time></trkpt><trkpt lat="43.1352303" lon="10.6203173"><ele>336.0</ele><time>2026-04-03T14:46:06.157Z</time></trkpt><trkpt lat="43.1353099" lon="10.6203074"><ele>336.0</ele><time>2026-04-03T14:46:08.16Z</time></trkpt><trkpt lat="43.135384" lon="10.6202822"><ele>336.0</ele><time>2026-04-03T14:46:10.161Z</time></trkpt><trkpt lat="43.1354523" lon="10.6202482"><ele>336.0</ele><time>2026-04-03T14:46:12.162Z</time></trkpt><trkpt lat="43.1355391" lon="10.6202139"><ele>337.4</ele><time>2026-04-03T14:46:14.158Z</time></trkpt><trkpt lat="43.135626" lon="10.6201767"><ele>338.8</ele><time>2026-04-03T14:46:16.163Z</time></trkpt><trkpt lat="43.135712" lon="10.6201158"><ele>340.2</ele><time>2026-04-03T14:46:18.16Z</time></trkpt><trkpt lat="43.1357991" lon="10.6200558"><ele>341.59999999999997</ele><time>2026-04-03T14:46:20.178Z</time></trkpt><trkpt lat="43.1358878" lon="10.6200134"><ele>343.0</ele><time>2026-04-03T14:46:22.162Z</time></trkpt><trkpt lat="43.1359711" lon="10.6199946"><ele>343.0</ele><time>2026-04-03T14:46:24.161Z</time></trkpt><trkpt lat="43.1360475" lon="10.620006"><ele>343.0</ele><time>2026-04-03T14:46:26.163Z</time></trkpt><trkpt lat="43.1361216" lon="10.6200156"><ele>343.0</ele><time>2026-04-03T14:46:29.168Z</time></trkpt><trkpt lat="43.1362097" lon="10.620028"><ele>343.0</ele><time>2026-04-03T14:46:32.16Z</time></trkpt><trkpt lat="43.1362757" lon="10.6200423"><ele>343.0</ele><time>2026-04-03T14:46:34.166Z</time></trkpt><trkpt lat="43.1363452" lon="10.6200651"><ele>343.0</ele><time>2026-04-03T14:46:36.161Z</time></trkpt><trkpt lat="43.1364301" lon="10.620052"><ele>343.0</ele><time>2026-04-03T14:46:38.161Z</time></trkpt><trkpt lat="43.1365224" lon="10.6200519"><ele>343.0</ele><time>2026-04-03T14:46:40.159Z</time></trkpt><trkpt lat="43.1366188" lon="10.620049"><ele>343.0</ele><time>2026-04-03T14:46:42.163Z</time></trkpt><trkpt lat="43.1367176" lon="10.6200254"><ele>343.0</ele><time>2026-04-03T14:46:44.163Z</time></trkpt><trkpt lat="43.136807" lon="10.6199718"><ele>343.0</ele><time>2026-04-03T14:46:46.165Z</time></trkpt><trkpt lat="43.1368847" lon="10.6199171"><ele>342.79999999999995</ele><time>2026-04-03T14:46:48.163Z</time></trkpt><trkpt lat="43.1369504" lon="10.6198545"><ele>342.6</ele><time>2026-04-03T14:46:50.167Z</time></trkpt><trkpt lat="43.1369926" lon="10.6197615"><ele>342.4</ele><time>2026-04-03T14:46:56.167Z</time></trkpt><trkpt lat="43.1370603" lon="10.6197418"><ele>342.20000000000005</ele><time>2026-04-03T14:46:58.159Z</time></trkpt><trkpt lat="43.1372005" lon="10.6197078"><ele>342.0</ele><time>2026-04-03T14:47:00.159Z</time></trkpt><trkpt lat="43.1373159" lon="10.6197107"><ele>341.0</ele><time>2026-04-03T14:47:01.151Z</time></trkpt><trkpt lat="43.1374072" lon="10.6197122"><ele>340.0</ele><time>2026-04-03T14:47:02.149Z</time></trkpt><trkpt lat="43.1374833" lon="10.6197246"><ele>339.0</ele><time>2026-04-03T14:47:03.154Z</time></trkpt><trkpt lat="43.1375775" lon="10.6197499"><ele>338.0</ele><time>2026-04-03T14:47:05.166Z</time></trkpt><trkpt lat="43.1376579" lon="10.6197321"><ele>337.0</ele><time>2026-04-03T14:47:07.163Z</time></trkpt><trkpt lat="43.137756" lon="10.6197281"><ele>336.0</ele><time>2026-04-03T14:47:09.165Z</time></trkpt><trkpt lat="43.1378255" lon="10.6197297"><ele>336.0</ele><time>2026-04-03T14:47:11.169Z</time></trkpt><trkpt lat="43.1379078" lon="10.6196968"><ele>336.0</ele><time>2026-04-03T14:47:14.176Z</time></trkpt><trkpt lat="43.1380106" lon="10.6196984"><ele>336.0</ele><time>2026-04-03T14:47:17.166Z</time></trkpt><trkpt lat="43.1381324" lon="10.6196647"><ele>336.0</ele><time>2026-04-03T14:47:19.164Z</time></trkpt><trkpt lat="43.1382157" lon="10.6196181"><ele>336.0</ele><time>2026-04-03T14:47:21.186Z</time></trkpt><trkpt lat="43.1382663" lon="10.6195423"><ele>334.3333333333333</ele><time>2026-04-03T14:47:23.169Z</time></trkpt><trkpt lat="43.1383152" lon="10.6194777"><ele>332.6666666666667</ele><time>2026-04-03T14:47:25.158Z</time></trkpt><trkpt lat="43.1383764" lon="10.6193944"><ele>331.0</ele><time>2026-04-03T14:47:27.165Z</time></trkpt><trkpt lat="43.1383999" lon="10.6192959"><ele>329.33333333333337</ele><time>2026-04-03T14:47:29.166Z</time></trkpt><trkpt lat="43.1384632" lon="10.6192405"><ele>327.6666666666667</ele><time>2026-04-03T14:47:34.167Z</time></trkpt><trkpt lat="43.1385307" lon="10.619199"><ele>326.0</ele><time>2026-04-03T14:47:37.163Z</time></trkpt><trkpt lat="43.1386033" lon="10.6191673"><ele>326.0</ele><time>2026-04-03T14:47:39.154Z</time></trkpt><trkpt lat="43.1385962" lon="10.6190529"><ele>326.0</ele><time>2026-04-03T14:47:41.151Z</time></trkpt><trkpt lat="43.1387032" lon="10.6190024"><ele>326.0</ele><time>2026-04-03T14:47:44.15Z</time></trkpt><trkpt lat="43.1388033" lon="10.6189655"><ele>326.0</ele><time>2026-04-03T14:47:46.158Z</time></trkpt><trkpt lat="43.1388974" lon="10.6188929"><ele>326.0</ele><time>2026-04-03T14:47:48.162Z</time></trkpt><trkpt lat="43.1389754" lon="10.6188237"><ele>322.33333333333337</ele><time>2026-04-03T14:47:50.173Z</time></trkpt><trkpt lat="43.1390517" lon="10.6187711"><ele>318.6666666666667</ele><time>2026-04-03T14:47:52.179Z</time></trkpt><trkpt lat="43.1391155" lon="10.6188118"><ele>315.0</ele><time>2026-04-03T14:48:08.165Z</time></trkpt><trkpt lat="43.1391564" lon="10.618897"><ele>311.3333333333333</ele><time>2026-04-03T14:49:00.169Z</time></trkpt><trkpt lat="43.1392429" lon="10.6189582"><ele>307.66666666666663</ele><time>2026-04-03T14:49:03.164Z</time></trkpt><trkpt lat="43.1393119" lon="10.6190436"><ele>304.0</ele><time>2026-04-03T14:49:05.16Z</time></trkpt><trkpt lat="43.1393829" lon="10.6191441"><ele>304.0</ele><time>2026-04-03T14:49:07.167Z</time></trkpt><trkpt lat="43.1394576" lon="10.6192257"><ele>304.0</ele><time>2026-04-03T14:49:09.168Z</time></trkpt><trkpt lat="43.1395425" lon="10.619304"><ele>304.0</ele><time>2026-04-03T14:49:11.167Z</time></trkpt><trkpt lat="43.1396312" lon="10.6193359"><ele>304.0</ele><time>2026-04-03T14:49:13.166Z</time></trkpt><trkpt lat="43.1397049" lon="10.6193509"><ele>304.0</ele><time>2026-04-03T14:49:15.174Z</time></trkpt><trkpt lat="43.1397943" lon="10.6193495"><ele>302.5</ele><time>2026-04-03T14:49:17.17Z</time></trkpt><trkpt lat="43.1398891" lon="10.6193221"><ele>301.0</ele><time>2026-04-03T14:49:19.175Z</time></trkpt><trkpt lat="43.1399652" lon="10.6193425"><ele>299.5</ele><time>2026-04-03T14:49:22.164Z</time></trkpt><trkpt lat="43.1400309" lon="10.6193228"><ele>298.0</ele><time>2026-04-03T14:49:24.152Z</time></trkpt><trkpt lat="43.1400856" lon="10.6192628"><ele>296.5</ele><time>2026-04-03T14:49:26.156Z</time></trkpt><trkpt lat="43.1401663" lon="10.6192019"><ele>295.0</ele><time>2026-04-03T14:49:28.169Z</time></trkpt><trkpt lat="43.1402576" lon="10.6191804"><ele>295.0</ele><time>2026-04-03T14:49:30.164Z</time></trkpt><trkpt lat="43.1403452" lon="10.6191986"><ele>295.0</ele><time>2026-04-03T14:49:32.164Z</time></trkpt><trkpt lat="43.1404033" lon="10.6192426"><ele>295.0</ele><time>2026-04-03T14:49:36.165Z</time></trkpt><trkpt lat="43.1403983" lon="10.6193495"><ele>295.0</ele><time>2026-04-03T14:49:40.163Z</time></trkpt><trkpt lat="43.1403818" lon="10.6194598"><ele>295.0</ele><time>2026-04-03T14:49:44.159Z</time></trkpt><trkpt lat="43.1403969" lon="10.6195658"><ele>295.0</ele><time>2026-04-03T14:49:48.16Z</time></trkpt><trkpt lat="43.1404901" lon="10.6196589"><ele>290.4</ele><time>2026-04-03T14:49:51.162Z</time></trkpt><trkpt lat="43.1405917" lon="10.6196969"><ele>285.8</ele><time>2026-04-03T14:49:53.157Z</time></trkpt><trkpt lat="43.1406823" lon="10.6197833"><ele>281.2</ele><time>2026-04-03T14:49:55.158Z</time></trkpt><trkpt lat="43.1407606" lon="10.6198617"><ele>276.6</ele><time>2026-04-03T14:49:57.167Z</time></trkpt><trkpt lat="43.1408592" lon="10.6198991"><ele>272.0</ele><time>2026-04-03T14:49:59.158Z</time></trkpt><trkpt lat="43.1409554" lon="10.6199012"><ele>271.0</ele><time>2026-04-03T14:50:01.163Z</time></trkpt><trkpt lat="43.141053" lon="10.6198633"><ele>270.0</ele><time>2026-04-03T14:50:03.157Z</time></trkpt><trkpt lat="43.1411124" lon="10.6198328"><ele>269.0</ele><time>2026-04-03T14:50:04.16Z</time></trkpt><trkpt lat="43.1412282" lon="10.6197485"><ele>268.0</ele><time>2026-04-03T14:50:06.16Z</time></trkpt><trkpt lat="43.1412901" lon="10.6196973"><ele>267.0</ele><time>2026-04-03T14:50:07.152Z</time></trkpt><trkpt lat="43.1413485" lon="10.6196505"><ele>266.0</ele><time>2026-04-03T14:50:08.163Z</time></trkpt><trkpt lat="43.1414433" lon="10.6195833"><ele>266.0</ele><time>2026-04-03T14:50:10.159Z</time></trkpt><trkpt lat="43.1415154" lon="10.6195568"><ele>266.0</ele><time>2026-04-03T14:50:12.161Z</time></trkpt><trkpt lat="43.1415813" lon="10.6195472"><ele>266.0</ele><time>2026-04-03T14:50:14.161Z</time></trkpt><trkpt lat="43.1416675" lon="10.619506"><ele>266.0</ele><time>2026-04-03T14:50:17.162Z</time></trkpt><trkpt lat="43.1417364" lon="10.6194654"><ele>266.0</ele><time>2026-04-03T14:50:23.148Z</time></trkpt><trkpt lat="43.1418163" lon="10.6194379"><ele>266.0</ele><time>2026-04-03T14:50:26.151Z</time></trkpt><trkpt lat="43.1419309" lon="10.6193607"><ele>266.5</ele><time>2026-04-03T14:50:29.152Z</time></trkpt><trkpt lat="43.1420057" lon="10.6193081"><ele>267.0</ele><time>2026-04-03T14:50:30.158Z</time></trkpt><trkpt lat="43.1420689" lon="10.619266"><ele>267.5</ele><time>2026-04-03T14:50:31.153Z</time></trkpt><trkpt lat="43.1421635" lon="10.6191909"><ele>268.0</ele><time>2026-04-03T14:50:33.161Z</time></trkpt><trkpt lat="43.1422698" lon="10.6191146"><ele>268.5</ele><time>2026-04-03T14:50:35.151Z</time></trkpt><trkpt lat="43.1423326" lon="10.6190962"><ele>269.0</ele><time>2026-04-03T14:50:36.146Z</time></trkpt><trkpt lat="43.142456" lon="10.6190812"><ele>266.33333333333337</ele><time>2026-04-03T14:50:38.144Z</time></trkpt><trkpt lat="43.1425248" lon="10.6190834"><ele>263.6666666666667</ele><time>2026-04-03T14:50:39.156Z</time></trkpt><trkpt lat="43.142596" lon="10.6190816"><ele>261.0</ele><time>2026-04-03T14:50:40.152Z</time></trkpt><trkpt lat="43.1426702" lon="10.619077"><ele>258.3333333333333</ele><time>2026-04-03T14:50:41.149Z</time></trkpt><trkpt lat="43.1427538" lon="10.6190727"><ele>255.66666666666666</ele><time>2026-04-03T14:50:42.152Z</time></trkpt><trkpt lat="43.1428458" lon="10.6190584"><ele>253.0</ele><time>2026-04-03T14:50:43.144Z</time></trkpt><trkpt lat="43.1429383" lon="10.6190327"><ele>253.0</ele><time>2026-04-03T14:50:44.146Z</time></trkpt><trkpt lat="43.1430326" lon="10.6190133"><ele>253.0</ele><time>2026-04-03T14:50:45.151Z</time></trkpt><trkpt lat="43.1431284" lon="10.6189863"><ele>253.0</ele><time>2026-04-03T14:50:46.143Z</time></trkpt><trkpt lat="43.1432307" lon="10.6189629"><ele>253.0</ele><time>2026-04-03T14:50:47.145Z</time></trkpt><trkpt lat="43.1433433" lon="10.6189567"><ele>253.0</ele><time>2026-04-03T14:50:48.143Z</time></trkpt><trkpt lat="43.1434455" lon="10.6189615"><ele>252.2</ele><time>2026-04-03T14:50:49.141Z</time></trkpt><trkpt lat="43.1435183" lon="10.6189766"><ele>251.4</ele><time>2026-04-03T14:50:50.145Z</time></trkpt><trkpt lat="43.143504" lon="10.619089"><ele>250.59999999999997</ele><time>2026-04-03T14:50:55.154Z</time></trkpt><trkpt lat="43.1435348" lon="10.6189686"><ele>249.79999999999998</ele><time>2026-04-03T14:51:03.154Z</time></trkpt><trkpt lat="43.1435304" lon="10.6188331"><ele>249.0</ele><time>2026-04-03T14:51:06.159Z</time></trkpt><trkpt lat="43.1436317" lon="10.6187739"><ele>249.0</ele><time>2026-04-03T14:51:09.158Z</time></trkpt><trkpt lat="43.1437141" lon="10.6187332"><ele>249.0</ele><time>2026-04-03T14:51:11.158Z</time></trkpt><trkpt lat="43.1437924" lon="10.6187187"><ele>249.0</ele><time>2026-04-03T14:51:14.153Z</time></trkpt><trkpt lat="43.1438641" lon="10.6186854"><ele>249.0</ele><time>2026-04-03T14:51:18.154Z</time></trkpt><trkpt lat="43.1439154" lon="10.618593"><ele>249.0</ele><time>2026-04-03T14:51:23.143Z</time></trkpt><trkpt lat="43.1439704" lon="10.6185061"><ele>249.0</ele><time>2026-04-03T14:51:27.161Z</time></trkpt><trkpt lat="43.1440261" lon="10.6184389"><ele>250.33333333333334</ele><time>2026-04-03T14:51:31.155Z</time></trkpt><trkpt lat="43.1440715" lon="10.6183553"><ele>251.66666666666669</ele><time>2026-04-03T14:51:35.158Z</time></trkpt><trkpt lat="43.1440938" lon="10.6182243"><ele>253.0</ele><time>2026-04-03T14:51:38.161Z</time></trkpt><trkpt lat="43.1441315" lon="10.6181548"><ele>254.33333333333334</ele><time>2026-04-03T14:51:40.161Z</time></trkpt><trkpt lat="43.1441934" lon="10.6180922"><ele>255.66666666666669</ele><time>2026-04-03T14:51:42.157Z</time></trkpt><trkpt lat="43.1442727" lon="10.6180263"><ele>257.0</ele><time>2026-04-03T14:51:44.16Z</time></trkpt><trkpt lat="43.1443495" lon="10.6179814"><ele>257.0</ele><time>2026-04-03T14:51:46.158Z</time></trkpt><trkpt lat="43.1444354" lon="10.6179419"><ele>257.0</ele><time>2026-04-03T14:51:48.163Z</time></trkpt><trkpt lat="43.1445066" lon="10.6178793"><ele>257.0</ele><time>2026-04-03T14:51:50.165Z</time></trkpt><trkpt lat="43.1445531" lon="10.6178042"><ele>257.0</ele><time>2026-04-03T14:51:52.165Z</time></trkpt><trkpt lat="43.1446112" lon="10.6177093"><ele>257.0</ele><time>2026-04-03T14:51:55.157Z</time></trkpt><trkpt lat="43.1446436" lon="10.6176194"><ele>257.0</ele><time>2026-04-03T14:51:57.16Z</time></trkpt><trkpt lat="43.1446499" lon="10.6175191"><ele>258.0</ele><time>2026-04-03T14:52:00.181Z</time></trkpt><trkpt lat="43.144643" lon="10.6174231"><ele>259.0</ele><time>2026-04-03T14:52:04.164Z</time></trkpt><trkpt lat="43.1447088" lon="10.6174291"><ele>260.0</ele><time>2026-04-03T14:52:10.162Z</time></trkpt><trkpt lat="43.1447715" lon="10.6174387"><ele>261.0</ele><time>2026-04-03T14:52:12.165Z</time></trkpt><trkpt lat="43.1448249" lon="10.6174915"><ele>262.0</ele><time>2026-04-03T14:52:16.162Z</time></trkpt><trkpt lat="43.1448404" lon="10.6175788"><ele>263.0</ele><time>2026-04-03T14:52:18.163Z</time></trkpt><trkpt lat="43.1449219" lon="10.6176478"><ele>264.0</ele><time>2026-04-03T14:52:20.163Z</time></trkpt><trkpt lat="43.1450358" lon="10.6176661"><ele>261.0</ele><time>2026-04-03T14:52:22.16Z</time></trkpt><trkpt lat="43.145099" lon="10.6176785"><ele>258.0</ele><time>2026-04-03T14:52:23.156Z</time></trkpt><trkpt lat="43.1451625" lon="10.6176618"><ele>255.0</ele><time>2026-04-03T14:52:24.157Z</time></trkpt><trkpt lat="43.1452501" lon="10.6175821"><ele>252.0</ele><time>2026-04-03T14:52:26.159Z</time></trkpt><trkpt lat="43.1452853" lon="10.6174686"><ele>249.0</ele><time>2026-04-03T14:52:28.16Z</time></trkpt><trkpt lat="43.1453228" lon="10.6173681"><ele>246.0</ele><time>2026-04-03T14:52:31.169Z</time></trkpt><trkpt lat="43.145362" lon="10.6172765"><ele>246.0</ele><time>2026-04-03T14:52:34.16Z</time></trkpt><trkpt lat="43.1454173" lon="10.6172177"><ele>246.0</ele><time>2026-04-03T14:52:36.156Z</time></trkpt><trkpt lat="43.1455034" lon="10.6171458"><ele>246.0</ele><time>2026-04-03T14:52:38.157Z</time></trkpt><trkpt lat="43.1455662" lon="10.6170852"><ele>246.0</ele><time>2026-04-03T14:52:40.159Z</time></trkpt><trkpt lat="43.1456379" lon="10.6170452"><ele>246.0</ele><time>2026-04-03T14:52:42.16Z</time></trkpt><trkpt lat="43.1457134" lon="10.6170123"><ele>246.0</ele><time>2026-04-03T14:52:46.157Z</time></trkpt><trkpt lat="43.1458008" lon="10.6169802"><ele>244.14285714285717</ele><time>2026-04-03T14:52:49.162Z</time></trkpt><trkpt lat="43.1458679" lon="10.6169552"><ele>242.28571428571428</ele><time>2026-04-03T14:52:51.166Z</time></trkpt><trkpt lat="43.1459341" lon="10.6169173"><ele>240.42857142857144</ele><time>2026-04-03T14:52:53.155Z</time></trkpt><trkpt lat="43.145989" lon="10.6168715"><ele>238.57142857142858</ele><time>2026-04-03T14:52:56.164Z</time></trkpt><trkpt lat="43.1460695" lon="10.6168223"><ele>236.71428571428572</ele><time>2026-04-03T14:53:00.157Z</time></trkpt><trkpt lat="43.1461398" lon="10.6167774"><ele>234.85714285714286</ele><time>2026-04-03T14:53:11.165Z</time></trkpt><trkpt lat="43.1462098" lon="10.6168051"><ele>233.0</ele><time>2026-04-03T14:53:14.165Z</time></trkpt><trkpt lat="43.146273" lon="10.6168059"><ele>233.00000000000003</ele><time>2026-04-03T14:53:17.17Z</time></trkpt><trkpt lat="43.1463386" lon="10.6167268"><ele>233.0</ele><time>2026-04-03T14:53:21.171Z</time></trkpt><trkpt lat="43.1463768" lon="10.6166398"><ele>233.0</ele><time>2026-04-03T14:53:24.166Z</time></trkpt><trkpt lat="43.1464383" lon="10.6165475"><ele>233.0</ele><time>2026-04-03T14:53:27.166Z</time></trkpt><trkpt lat="43.1464971" lon="10.6164932"><ele>233.00000000000003</ele><time>2026-04-03T14:53:39.159Z</time></trkpt><trkpt lat="43.1465642" lon="10.6164492"><ele>233.0</ele><time>2026-04-03T14:53:41.155Z</time></trkpt><trkpt lat="43.1466625" lon="10.616312"><ele>230.00000000000003</ele><time>2026-04-03T14:53:43.151Z</time></trkpt><trkpt lat="43.1467299" lon="10.616217"><ele>227.0</ele><time>2026-04-03T14:53:45.153Z</time></trkpt><trkpt lat="43.1467856" lon="10.6161669"><ele>224.0</ele><time>2026-04-03T14:53:46.157Z</time></trkpt><trkpt lat="43.146858" lon="10.6160972"><ele>221.0</ele><time>2026-04-03T14:53:48.158Z</time></trkpt><trkpt lat="43.1469356" lon="10.6160713"><ele>218.00000000000003</ele><time>2026-04-03T14:53:50.162Z</time></trkpt><trkpt lat="43.1470046" lon="10.6160221"><ele>215.0</ele><time>2026-04-03T14:53:56.163Z</time></trkpt><trkpt lat="43.1470866" lon="10.6159587"><ele>215.00000000000003</ele><time>2026-04-03T14:53:59.162Z</time></trkpt><trkpt lat="43.1471559" lon="10.6159124"><ele>215.0</ele><time>2026-04-03T14:54:01.165Z</time></trkpt><trkpt lat="43.1471784" lon="10.6158317"><ele>215.0</ele><time>2026-04-03T14:54:07.164Z</time></trkpt><trkpt lat="43.147235" lon="10.6157937"><ele>215.0</ele><time>2026-04-03T14:54:12.16Z</time></trkpt><trkpt lat="43.1473174" lon="10.6157615"><ele>215.00000000000003</ele><time>2026-04-03T14:54:15.152Z</time></trkpt><trkpt lat="43.1474218" lon="10.6157477"><ele>215.0</ele><time>2026-04-03T14:54:17.159Z</time></trkpt><trkpt lat="43.147538" lon="10.6157055"><ele>212.8</ele><time>2026-04-03T14:54:19.161Z</time></trkpt><trkpt lat="43.1476335" lon="10.6156229"><ele>210.6</ele><time>2026-04-03T14:54:21.164Z</time></trkpt><trkpt lat="43.1477298" lon="10.6155166"><ele>208.39999999999998</ele><time>2026-04-03T14:54:23.161Z</time></trkpt><trkpt lat="43.1478025" lon="10.6154375"><ele>206.2</ele><time>2026-04-03T14:54:24.173Z</time></trkpt><trkpt lat="43.14787" lon="10.6153603"><ele>204.0</ele><time>2026-04-03T14:54:25.16Z</time></trkpt><trkpt lat="43.1479303" lon="10.6152716"><ele>204.0</ele><time>2026-04-03T14:54:26.156Z</time></trkpt><trkpt lat="43.1479738" lon="10.6151732"><ele>204.0</ele><time>2026-04-03T14:54:27.157Z</time></trkpt><trkpt lat="43.1480169" lon="10.6150662"><ele>204.0</ele><time>2026-04-03T14:54:28.164Z</time></trkpt><trkpt lat="43.148058" lon="10.6149277"><ele>204.0</ele><time>2026-04-03T14:54:30.152Z</time></trkpt><trkpt lat="43.1480785" lon="10.6148323"><ele>204.0</ele><time>2026-04-03T14:54:32.156Z</time></trkpt><trkpt lat="43.148133" lon="10.6147783"><ele>204.0</ele><time>2026-04-03T14:54:36.158Z</time></trkpt><trkpt lat="43.1481982" lon="10.614862"><ele>200.66666666666666</ele><time>2026-04-03T14:54:39.165Z</time></trkpt><trkpt lat="43.1482383" lon="10.6149703"><ele>197.33333333333334</ele><time>2026-04-03T14:54:42.161Z</time></trkpt><trkpt lat="43.1483134" lon="10.6150343"><ele>194.0</ele><time>2026-04-03T14:54:45.155Z</time></trkpt><trkpt lat="43.1483449" lon="10.6151479"><ele>190.66666666666669</ele><time>2026-04-03T14:54:50.162Z</time></trkpt><trkpt lat="43.1484081" lon="10.6152367"><ele>187.33333333333334</ele><time>2026-04-03T14:54:52.162Z</time></trkpt><trkpt lat="43.1484074" lon="10.6153312"><ele>184.0</ele><time>2026-04-03T14:54:55.161Z</time></trkpt><trkpt lat="43.1484787" lon="10.6154345"><ele>181.6</ele><time>2026-04-03T14:54:57.171Z</time></trkpt><trkpt lat="43.1485614" lon="10.6154926"><ele>179.2</ele><time>2026-04-03T14:54:59.168Z</time></trkpt><trkpt lat="43.148624" lon="10.6155103"><ele>176.79999999999998</ele><time>2026-04-03T14:55:01.17Z</time></trkpt><trkpt lat="43.148676" lon="10.6155635"><ele>174.39999999999998</ele><time>2026-04-03T14:56:00.171Z</time></trkpt><trkpt lat="43.1487721" lon="10.6155361"><ele>172.0</ele><time>2026-04-03T14:56:03.161Z</time></trkpt><trkpt lat="43.1488973" lon="10.6154611"><ele>172.0</ele><time>2026-04-03T14:56:05.154Z</time></trkpt><trkpt lat="43.1489698" lon="10.6154499"><ele>172.0</ele><time>2026-04-03T14:56:06.164Z</time></trkpt><trkpt lat="43.149088" lon="10.61541"><ele>172.0</ele><time>2026-04-03T14:56:08.176Z</time></trkpt><trkpt lat="43.1491784" lon="10.6153586"><ele>172.0</ele><time>2026-04-03T14:56:10.158Z</time></trkpt><trkpt lat="43.1492613" lon="10.6153229"><ele>172.0</ele><time>2026-04-03T14:56:13.155Z</time></trkpt><trkpt lat="43.1493227" lon="10.6152795"><ele>172.0</ele><time>2026-04-03T14:56:16.16Z</time></trkpt><trkpt lat="43.149365" lon="10.6153469"><ele>168.85714285714286</ele><time>2026-04-03T14:56:20.17Z</time></trkpt><trkpt lat="43.1494084" lon="10.6154114"><ele>165.71428571428572</ele><time>2026-04-03T14:56:24.17Z</time></trkpt><trkpt lat="43.1494332" lon="10.6155089"><ele>162.57142857142856</ele><time>2026-04-03T14:56:29.168Z</time></trkpt><trkpt lat="43.1494674" lon="10.6155938"><ele>159.42857142857144</ele><time>2026-04-03T14:56:32.167Z</time></trkpt><trkpt lat="43.1495239" lon="10.6156344"><ele>156.28571428571428</ele><time>2026-04-03T14:56:34.165Z</time></trkpt><trkpt lat="43.149601" lon="10.6156495"><ele>153.14285714285714</ele><time>2026-04-03T14:56:36.15Z</time></trkpt><trkpt lat="43.1496906" lon="10.6156896"><ele>150.0</ele><time>2026-04-03T14:56:38.154Z</time></trkpt><trkpt lat="43.1497827" lon="10.6156668"><ele>149.99999999999997</ele><time>2026-04-03T14:56:42.165Z</time></trkpt><trkpt lat="43.1498613" lon="10.6156875"><ele>150.0</ele><time>2026-04-03T14:56:44.173Z</time></trkpt><trkpt lat="43.1499507" lon="10.6157148"><ele>150.0</ele><time>2026-04-03T14:56:46.173Z</time></trkpt><trkpt lat="43.1500141" lon="10.6157276"><ele>150.0</ele><time>2026-04-03T14:56:47.169Z</time></trkpt><trkpt lat="43.1500822" lon="10.6157322"><ele>150.0</ele><time>2026-04-03T14:56:49.178Z</time></trkpt><trkpt lat="43.1501334" lon="10.6158059"><ele>149.99999999999997</ele><time>2026-04-03T14:56:54.165Z</time></trkpt><trkpt lat="43.1501936" lon="10.6158373"><ele>150.0</ele><time>2026-04-03T14:56:56.174Z</time></trkpt><trkpt lat="43.1502566" lon="10.6158218"><ele>147.16666666666666</ele><time>2026-04-03T14:56:58.181Z</time></trkpt><trkpt lat="43.1503328" lon="10.6158799"><ele>144.33333333333334</ele><time>2026-04-03T14:57:01.174Z</time></trkpt><trkpt lat="43.1503896" lon="10.6159333"><ele>141.5</ele><time>2026-04-03T14:57:03.165Z</time></trkpt><trkpt lat="43.1504612" lon="10.6159413"><ele>138.66666666666669</ele><time>2026-04-03T14:57:05.164Z</time></trkpt><trkpt lat="43.1505489" lon="10.6159469"><ele>135.83333333333334</ele><time>2026-04-03T14:57:07.16Z</time></trkpt><trkpt lat="43.1506153" lon="10.6159103"><ele>133.0</ele><time>2026-04-03T14:57:09.178Z</time></trkpt><trkpt lat="43.1507113" lon="10.6158868"><ele>130.5</ele><time>2026-04-03T14:57:11.169Z</time></trkpt><trkpt lat="43.1507738" lon="10.6158144"><ele>128.0</ele><time>2026-04-03T14:57:16.18Z</time></trkpt><trkpt lat="43.1508516" lon="10.6158385"><ele>125.5</ele><time>2026-04-03T14:58:20.166Z</time></trkpt><trkpt lat="43.1509327" lon="10.6158565"><ele>123.0</ele><time>2026-04-03T14:58:23.166Z</time></trkpt><trkpt lat="43.1509986" lon="10.6158307"><ele>120.50000000000001</ele><time>2026-04-03T14:58:28.18Z</time></trkpt><trkpt lat="43.1510679" lon="10.6158175"><ele>118.0</ele><time>2026-04-03T14:58:33.174Z</time></trkpt><trkpt lat="43.1511304" lon="10.6157238"><ele>118.00000000000001</ele><time>2026-04-03T14:58:39.161Z</time></trkpt><trkpt lat="43.1511916" lon="10.6155533"><ele>118.0</ele><time>2026-04-03T14:58:41.159Z</time></trkpt><trkpt lat="43.1512273" lon="10.6154493"><ele>118.0</ele><time>2026-04-03T14:58:42.169Z</time></trkpt><trkpt lat="43.1512649" lon="10.6153449"><ele>118.0</ele><time>2026-04-03T14:58:43.158Z</time></trkpt><trkpt lat="43.1512846" lon="10.6152624"><ele>118.00000000000001</ele><time>2026-04-03T14:58:44.157Z</time></trkpt><trkpt lat="43.1513033" lon="10.6151789"><ele>118.0</ele><time>2026-04-03T14:58:46.162Z</time></trkpt><trkpt lat="43.1513249" lon="10.6150859"><ele>118.50000000000001</ele><time>2026-04-03T14:58:48.156Z</time></trkpt><trkpt lat="43.1513708" lon="10.6150219"><ele>119.0</ele><time>2026-04-03T14:58:50.16Z</time></trkpt><trkpt lat="43.1514428" lon="10.6149055"><ele>119.5</ele><time>2026-04-03T14:58:52.152Z</time></trkpt><trkpt lat="43.1515333" lon="10.6148329"><ele>120.0</ele><time>2026-04-03T14:58:54.155Z</time></trkpt><trkpt lat="43.1515982" lon="10.6147814"><ele>120.50000000000001</ele><time>2026-04-03T14:58:55.16Z</time></trkpt><trkpt lat="43.1516566" lon="10.614735"><ele>121.0</ele><time>2026-04-03T14:58:56.159Z</time></trkpt><trkpt lat="43.1517162" lon="10.6146742"><ele>119.83333333333334</ele><time>2026-04-03T14:58:57.161Z</time></trkpt><trkpt lat="43.1517839" lon="10.6145902"><ele>118.66666666666667</ele><time>2026-04-03T14:58:58.16Z</time></trkpt><trkpt lat="43.1518467" lon="10.6145194"><ele>117.5</ele><time>2026-04-03T14:58:59.162Z</time></trkpt><trkpt lat="43.1519102" lon="10.6144612"><ele>116.33333333333334</ele><time>2026-04-03T14:59:00.161Z</time></trkpt><trkpt lat="43.1519764" lon="10.6144146"><ele>115.16666666666667</ele><time>2026-04-03T14:59:01.164Z</time></trkpt><trkpt lat="43.1520489" lon="10.6143787"><ele>114.0</ele><time>2026-04-03T14:59:02.168Z</time></trkpt><trkpt lat="43.1521188" lon="10.6143678"><ele>114.0</ele><time>2026-04-03T14:59:03.169Z</time></trkpt><trkpt lat="43.1522201" lon="10.614398"><ele>114.0</ele><time>2026-04-03T14:59:05.161Z</time></trkpt><trkpt lat="43.1523263" lon="10.6144245"><ele>114.0</ele><time>2026-04-03T14:59:07.159Z</time></trkpt><trkpt lat="43.1524238" lon="10.6144018"><ele>114.0</ele><time>2026-04-03T14:59:09.155Z</time></trkpt><trkpt lat="43.1524963" lon="10.6143407"><ele>114.0</ele><time>2026-04-03T14:59:11.156Z</time></trkpt><trkpt lat="43.152579" lon="10.6142715"><ele>112.66666666666667</ele><time>2026-04-03T14:59:13.171Z</time></trkpt><trkpt lat="43.1526635" lon="10.614181"><ele>111.33333333333334</ele><time>2026-04-03T14:59:15.167Z</time></trkpt><trkpt lat="43.1527381" lon="10.6141101"><ele>110.0</ele><time>2026-04-03T14:59:18.166Z</time></trkpt><trkpt lat="43.152786" lon="10.6140435"><ele>108.66666666666667</ele><time>2026-04-03T14:59:20.165Z</time></trkpt><trkpt lat="43.1528446" lon="10.6139741"><ele>107.33333333333334</ele><time>2026-04-03T14:59:22.168Z</time></trkpt><trkpt lat="43.1529037" lon="10.6139322"><ele>106.0</ele><time>2026-04-03T14:59:24.168Z</time></trkpt><trkpt lat="43.1529938" lon="10.6138741"><ele>106.0</ele><time>2026-04-03T14:59:26.169Z</time></trkpt><trkpt lat="43.1530768" lon="10.6138277"><ele>106.0</ele><time>2026-04-03T14:59:28.171Z</time></trkpt><trkpt lat="43.1531748" lon="10.6137936"><ele>106.0</ele><time>2026-04-03T14:59:30.168Z</time></trkpt><trkpt lat="43.1532842" lon="10.6137693"><ele>106.0</ele><time>2026-04-03T14:59:32.174Z</time></trkpt><trkpt lat="43.153364" lon="10.6137033"><ele>106.0</ele><time>2026-04-03T14:59:34.172Z</time></trkpt><trkpt lat="43.1533923" lon="10.6135914"><ele>105.0</ele><time>2026-04-03T14:59:47.158Z</time></trkpt><trkpt lat="43.1534538" lon="10.6135197"><ele>104.0</ele><time>2026-04-03T14:59:50.139Z</time></trkpt><trkpt lat="43.1535379" lon="10.6134512"><ele>103.0</ele><time>2026-04-03T14:59:53.147Z</time></trkpt><trkpt lat="43.1536253" lon="10.6133732"><ele>102.0</ele><time>2026-04-03T14:59:55.149Z</time></trkpt><trkpt lat="43.1537379" lon="10.6132469"><ele>101.0</ele><time>2026-04-03T14:59:57.115Z</time></trkpt><trkpt lat="43.1538048" lon="10.6132109"><ele>101.0</ele><time>2026-04-03T14:59:58.391Z</time></trkpt><trkpt lat="43.1539004" lon="10.6131468"><ele>101.0</ele><time>2026-04-03T15:00:00.168Z</time></trkpt><trkpt lat="43.1539675" lon="10.6129952"><ele>101.0</ele><time>2026-04-03T15:00:02.161Z</time></trkpt><trkpt lat="43.1539843" lon="10.612893"><ele>101.0</ele><time>2026-04-03T15:00:03.168Z</time></trkpt><trkpt lat="43.1540055" lon="10.6128011"><ele>101.0</ele><time>2026-04-03T15:00:04.159Z</time></trkpt><trkpt lat="43.1540191" lon="10.6127057"><ele>100.19999999999999</ele><time>2026-04-03T15:00:05.163Z</time></trkpt><trkpt lat="43.1540384" lon="10.612548"><ele>99.39999999999999</ele><time>2026-04-03T15:00:07.157Z</time></trkpt><trkpt lat="43.1540682" lon="10.6123646"><ele>98.6</ele><time>2026-04-03T15:00:09.168Z</time></trkpt><trkpt lat="43.1540878" lon="10.6122499"><ele>97.8</ele><time>2026-04-03T15:00:10.161Z</time></trkpt><trkpt lat="43.1541135" lon="10.6121317"><ele>97.0</ele><time>2026-04-03T15:00:11.171Z</time></trkpt><trkpt lat="43.1541461" lon="10.6120297"><ele>97.8</ele><time>2026-04-03T15:00:12.168Z</time></trkpt><trkpt lat="43.1541919" lon="10.6119285"><ele>98.6</ele><time>2026-04-03T15:00:13.179Z</time></trkpt><trkpt lat="43.1542457" lon="10.611832"><ele>99.39999999999999</ele><time>2026-04-03T15:00:14.169Z</time></trkpt><trkpt lat="43.1543099" lon="10.6117333"><ele>100.19999999999999</ele><time>2026-04-03T15:00:15.179Z</time></trkpt><trkpt lat="43.1543808" lon="10.6116412"><ele>101.0</ele><time>2026-04-03T15:00:16.173Z</time></trkpt><trkpt lat="43.1544528" lon="10.6115696"><ele>100.99999999999999</ele><time>2026-04-03T15:00:17.176Z</time></trkpt><trkpt lat="43.1545279" lon="10.6114944"><ele>101.0</ele><time>2026-04-03T15:00:18.174Z</time></trkpt><trkpt lat="43.1546084" lon="10.61143"><ele>101.0</ele><time>2026-04-03T15:00:19.175Z</time></trkpt><trkpt lat="43.1546895" lon="10.6113877"><ele>101.0</ele><time>2026-04-03T15:00:20.167Z</time></trkpt><trkpt lat="43.1547723" lon="10.6113598"><ele>100.99999999999999</ele><time>2026-04-03T15:00:21.181Z</time></trkpt><trkpt lat="43.1548512" lon="10.611343"><ele>101.0</ele><time>2026-04-03T15:00:22.176Z</time></trkpt><trkpt lat="43.1549249" lon="10.6113221"><ele>99.99999999999999</ele><time>2026-04-03T15:00:23.176Z</time></trkpt><trkpt lat="43.154992" lon="10.6112962"><ele>99.0</ele><time>2026-04-03T15:00:24.171Z</time></trkpt><trkpt lat="43.1550509" lon="10.6112586"><ele>98.0</ele><time>2026-04-03T15:00:25.171Z</time></trkpt><trkpt lat="43.155104" lon="10.6112082"><ele>97.0</ele><time>2026-04-03T15:00:26.17Z</time></trkpt><trkpt lat="43.1551585" lon="10.611091"><ele>96.0</ele><time>2026-04-03T15:00:28.195Z</time></trkpt><trkpt lat="43.155127" lon="10.6110103"><ele>95.0</ele><time>2026-04-03T15:00:30.185Z</time></trkpt><trkpt lat="43.1550674" lon="10.6109164"><ele>95.0</ele><time>2026-04-03T15:00:32.182Z</time></trkpt><trkpt lat="43.155031" lon="10.6108403"><ele>95.0</ele><time>2026-04-03T15:00:34.178Z</time></trkpt><trkpt lat="43.1549813" lon="10.6107255"><ele>95.0</ele><time>2026-04-03T15:00:37.176Z</time></trkpt><trkpt lat="43.1549727" lon="10.6105987"><ele>95.0</ele><time>2026-04-03T15:00:39.177Z</time></trkpt><trkpt lat="43.1549811" lon="10.6104849"><ele>95.0</ele><time>2026-04-03T15:00:41.171Z</time></trkpt><trkpt lat="43.1550105" lon="10.6103675"><ele>95.0</ele><time>2026-04-03T15:00:43.181Z</time></trkpt><trkpt lat="43.1550567" lon="10.6102592"><ele>95.0</ele><time>2026-04-03T15:00:45.166Z</time></trkpt><trkpt lat="43.155108" lon="10.6101324"><ele>95.0</ele><time>2026-04-03T15:00:47.174Z</time></trkpt><trkpt lat="43.1551521" lon="10.6099699"><ele>95.0</ele><time>2026-04-03T15:00:49.174Z</time></trkpt><trkpt lat="43.1551735" lon="10.6098787"><ele>95.0</ele><time>2026-04-03T15:00:50.167Z</time></trkpt><trkpt lat="43.15519" lon="10.6097946"><ele>95.0</ele><time>2026-04-03T15:00:51.176Z</time></trkpt><trkpt lat="43.1552043" lon="10.6097018"><ele>95.0</ele><time>2026-04-03T15:00:52.171Z</time></trkpt><trkpt lat="43.1552163" lon="10.6095522"><ele>95.6</ele><time>2026-04-03T15:00:54.173Z</time></trkpt><trkpt lat="43.1552327" lon="10.609395"><ele>96.2</ele><time>2026-04-03T15:00:56.173Z</time></trkpt><trkpt lat="43.1552376" lon="10.609304"><ele>96.80000000000001</ele><time>2026-04-03T15:00:57.171Z</time></trkpt><trkpt lat="43.1552399" lon="10.6092148"><ele>97.4</ele><time>2026-04-03T15:00:58.175Z</time></trkpt><trkpt lat="43.1552399" lon="10.6090769"><ele>98.0</ele><time>2026-04-03T15:01:00.188Z</time></trkpt><trkpt lat="43.1552424" lon="10.6089328"><ele>98.0</ele><time>2026-04-03T15:01:02.176Z</time></trkpt><trkpt lat="43.1552481" lon="10.6087795"><ele>98.0</ele><time>2026-04-03T15:01:04.18Z</time></trkpt><trkpt lat="43.1552503" lon="10.6086015"><ele>98.0</ele><time>2026-04-03T15:01:06.179Z</time></trkpt><trkpt lat="43.1552423" lon="10.6084567"><ele>98.0</ele><time>2026-04-03T15:01:08.176Z</time></trkpt><trkpt lat="43.1552353" lon="10.6083239"><ele>98.0</ele><time>2026-04-03T15:01:10.19Z</time></trkpt><trkpt lat="43.1552278" lon="10.6081686"><ele>97.60000000000001</ele><time>2026-04-03T15:01:12.184Z</time></trkpt><trkpt lat="43.1552228" lon="10.6080004"><ele>97.2</ele><time>2026-04-03T15:01:14.194Z</time></trkpt><trkpt lat="43.1552135" lon="10.6078474"><ele>96.8</ele><time>2026-04-03T15:01:16.194Z</time></trkpt><trkpt lat="43.1551808" lon="10.6076969"><ele>96.4</ele><time>2026-04-03T15:01:18.2Z</time></trkpt><trkpt lat="43.155115" lon="10.6076034"><ele>96.0</ele><time>2026-04-03T15:01:20.184Z</time></trkpt><trkpt lat="43.155028" lon="10.6075177"><ele>95.0</ele><time>2026-04-03T15:01:22.186Z</time></trkpt><trkpt lat="43.1549489" lon="10.607427"><ele>94.0</ele><time>2026-04-03T15:01:24.184Z</time></trkpt><trkpt lat="43.1548824" lon="10.6073234"><ele>93.0</ele><time>2026-04-03T15:01:26.174Z</time></trkpt><trkpt lat="43.1548175" lon="10.6072059"><ele>92.0</ele><time>2026-04-03T15:01:28.194Z</time></trkpt><trkpt lat="43.1547712" lon="10.607079"><ele>91.0</ele><time>2026-04-03T15:01:30.198Z</time></trkpt><trkpt lat="43.1547225" lon="10.6069646"><ele>94.0</ele><time>2026-04-03T15:01:32.186Z</time></trkpt><trkpt lat="43.1546679" lon="10.6068577"><ele>97.0</ele><time>2026-04-03T15:01:34.191Z</time></trkpt><trkpt lat="43.1546235" lon="10.6067631"><ele>100.0</ele><time>2026-04-03T15:01:36.186Z</time></trkpt><trkpt lat="43.1546004" lon="10.6066774"><ele>103.0</ele><time>2026-04-03T15:01:38.184Z</time></trkpt><trkpt lat="43.1545912" lon="10.6065735"><ele>106.00000000000001</ele><time>2026-04-03T15:01:40.19Z</time></trkpt><trkpt lat="43.1545844" lon="10.6064586"><ele>109.0</ele><time>2026-04-03T15:01:42.189Z</time></trkpt><trkpt lat="43.1545727" lon="10.6063477"><ele>109.00000000000001</ele><time>2026-04-03T15:01:44.196Z</time></trkpt><trkpt lat="43.1545491" lon="10.6062229"><ele>109.0</ele><time>2026-04-03T15:01:46.19Z</time></trkpt><trkpt lat="43.1545248" lon="10.6061016"><ele>109.0</ele><time>2026-04-03T15:01:48.188Z</time></trkpt><trkpt lat="43.154504" lon="10.6059869"><ele>109.0</ele><time>2026-04-03T15:01:50.196Z</time></trkpt><trkpt lat="43.154486" lon="10.6058661"><ele>109.00000000000001</ele><time>2026-04-03T15:01:52.193Z</time></trkpt><trkpt lat="43.1544619" lon="10.6057523"><ele>109.0</ele><time>2026-04-03T15:01:54.181Z</time></trkpt><trkpt lat="43.1544154" lon="10.6056233"><ele>108.80000000000001</ele><time>2026-04-03T15:01:56.191Z</time></trkpt><trkpt lat="43.1543537" lon="10.6054938"><ele>108.60000000000001</ele><time>2026-04-03T15:01:58.195Z</time></trkpt><trkpt lat="43.1543015" lon="10.6053709"><ele>108.4</ele><time>2026-04-03T15:02:00.2Z</time></trkpt><trkpt lat="43.1542398" lon="10.6052479"><ele>108.2</ele><time>2026-04-03T15:02:02.189Z</time></trkpt><trkpt lat="43.1541702" lon="10.6051244"><ele>108.0</ele><time>2026-04-03T15:02:04.188Z</time></trkpt><trkpt lat="43.1541229" lon="10.604986"><ele>106.66666666666667</ele><time>2026-04-03T15:02:06.193Z</time></trkpt><trkpt lat="43.1540949" lon="10.6048264"><ele>105.33333333333334</ele><time>2026-04-03T15:02:08.191Z</time></trkpt><trkpt lat="43.1540884" lon="10.6047388"><ele>104.0</ele><time>2026-04-03T15:02:09.177Z</time></trkpt><trkpt lat="43.1540945" lon="10.6046484"><ele>102.66666666666667</ele><time>2026-04-03T15:02:10.177Z</time></trkpt><trkpt lat="43.1541037" lon="10.6045522"><ele>101.33333333333334</ele><time>2026-04-03T15:02:11.188Z</time></trkpt><trkpt lat="43.1541179" lon="10.6044597"><ele>100.0</ele><time>2026-04-03T15:02:12.18Z</time></trkpt><trkpt lat="43.1541299" lon="10.6043527"><ele>98.50000000000001</ele><time>2026-04-03T15:02:13.187Z</time></trkpt><trkpt lat="43.1541441" lon="10.6042443"><ele>97.0</ele><time>2026-04-03T15:02:14.179Z</time></trkpt><trkpt lat="43.1541576" lon="10.6041421"><ele>95.5</ele><time>2026-04-03T15:02:15.192Z</time></trkpt><trkpt lat="43.1541744" lon="10.6040355"><ele>94.0</ele><time>2026-04-03T15:02:16.192Z</time></trkpt><trkpt lat="43.154193" lon="10.6039269"><ele>92.5</ele><time>2026-04-03T15:02:17.194Z</time></trkpt><trkpt lat="43.1542197" lon="10.6038143"><ele>91.0</ele><time>2026-04-03T15:02:18.198Z</time></trkpt><trkpt lat="43.1542439" lon="10.6036977"><ele>89.83333333333333</ele><time>2026-04-03T15:02:19.184Z</time></trkpt><trkpt lat="43.1542703" lon="10.6035801"><ele>88.66666666666666</ele><time>2026-04-03T15:02:20.187Z</time></trkpt><trkpt lat="43.1542939" lon="10.6034634"><ele>87.5</ele><time>2026-04-03T15:02:21.201Z</time></trkpt><trkpt lat="43.1543171" lon="10.603356"><ele>86.33333333333333</ele><time>2026-04-03T15:02:22.185Z</time></trkpt><trkpt lat="43.1543333" lon="10.6032581"><ele>85.16666666666667</ele><time>2026-04-03T15:02:23.197Z</time></trkpt><trkpt lat="43.1543338" lon="10.6031581"><ele>84.0</ele><time>2026-04-03T15:02:24.199Z</time></trkpt><trkpt lat="43.1543097" lon="10.603062"><ele>84.0</ele><time>2026-04-03T15:02:25.181Z</time></trkpt><trkpt lat="43.154281" lon="10.6029586"><ele>84.0</ele><time>2026-04-03T15:02:26.203Z</time></trkpt><trkpt lat="43.1542542" lon="10.6028521"><ele>84.0</ele><time>2026-04-03T15:02:27.202Z</time></trkpt><trkpt lat="43.1542294" lon="10.6027466"><ele>84.0</ele><time>2026-04-03T15:02:28.194Z</time></trkpt><trkpt lat="43.1542129" lon="10.60265"><ele>84.0</ele><time>2026-04-03T15:02:29.192Z</time></trkpt><trkpt lat="43.1542456" lon="10.6025043"><ele>84.0</ele><time>2026-04-03T15:02:31.191Z</time></trkpt><trkpt lat="43.1542919" lon="10.6024432"><ele>83.42857142857143</ele><time>2026-04-03T15:02:32.21Z</time></trkpt><trkpt lat="43.1543487" lon="10.6023798"><ele>82.85714285714286</ele><time>2026-04-03T15:02:33.199Z</time></trkpt><trkpt lat="43.1544022" lon="10.6023101"><ele>82.28571428571428</ele><time>2026-04-03T15:02:34.187Z</time></trkpt><trkpt lat="43.1544633" lon="10.6022453"><ele>81.71428571428572</ele><time>2026-04-03T15:02:35.193Z</time></trkpt><trkpt lat="43.1545111" lon="10.6021706"><ele>81.14285714285714</ele><time>2026-04-03T15:02:36.191Z</time></trkpt><trkpt lat="43.1545524" lon="10.6020893"><ele>80.57142857142857</ele><time>2026-04-03T15:02:37.188Z</time></trkpt><trkpt lat="43.1545821" lon="10.6020003"><ele>80.0</ele><time>2026-04-03T15:02:38.182Z</time></trkpt><trkpt lat="43.1546056" lon="10.6018965"><ele>79.5</ele><time>2026-04-03T15:02:39.175Z</time></trkpt><trkpt lat="43.1546319" lon="10.6017989"><ele>79.0</ele><time>2026-04-03T15:02:40.182Z</time></trkpt><trkpt lat="43.1546654" lon="10.6017046"><ele>78.5</ele><time>2026-04-03T15:02:41.179Z</time></trkpt><trkpt lat="43.1547128" lon="10.6016036"><ele>78.0</ele><time>2026-04-03T15:02:42.18Z</time></trkpt><trkpt lat="43.1547697" lon="10.6015099"><ele>77.5</ele><time>2026-04-03T15:02:43.172Z</time></trkpt><trkpt lat="43.1548328" lon="10.6014347"><ele>77.0</ele><time>2026-04-03T15:02:44.182Z</time></trkpt><trkpt lat="43.1548821" lon="10.6013622"><ele>76.33333333333334</ele><time>2026-04-03T15:02:45.178Z</time></trkpt><trkpt lat="43.1549336" lon="10.6012803"><ele>75.66666666666667</ele><time>2026-04-03T15:02:46.177Z</time></trkpt><trkpt lat="43.1549799" lon="10.6011977"><ele>75.0</ele><time>2026-04-03T15:02:47.187Z</time></trkpt><trkpt lat="43.1550184" lon="10.6011077"><ele>74.33333333333333</ele><time>2026-04-03T15:02:48.196Z</time></trkpt><trkpt lat="43.1550587" lon="10.6010164"><ele>73.66666666666666</ele><time>2026-04-03T15:02:49.192Z</time></trkpt><trkpt lat="43.1550973" lon="10.6009204"><ele>73.0</ele><time>2026-04-03T15:02:50.189Z</time></trkpt><trkpt lat="43.1551327" lon="10.6008244"><ele>72.57142857142857</ele><time>2026-04-03T15:02:51.184Z</time></trkpt><trkpt lat="43.1551703" lon="10.6007252"><ele>72.14285714285714</ele><time>2026-04-03T15:02:52.184Z</time></trkpt><trkpt lat="43.1552052" lon="10.6006311"><ele>71.71428571428572</ele><time>2026-04-03T15:02:53.187Z</time></trkpt><trkpt lat="43.1552427" lon="10.6005404"><ele>71.28571428571428</ele><time>2026-04-03T15:02:54.18Z</time></trkpt><trkpt lat="43.1552797" lon="10.6004505"><ele>70.85714285714286</ele><time>2026-04-03T15:02:55.183Z</time></trkpt><trkpt lat="43.1553163" lon="10.600362"><ele>70.42857142857143</ele><time>2026-04-03T15:02:56.187Z</time></trkpt><trkpt lat="43.1553402" lon="10.6002789"><ele>70.0</ele><time>2026-04-03T15:02:57.185Z</time></trkpt><trkpt lat="43.1553507" lon="10.6001935"><ele>69.66666666666666</ele><time>2026-04-03T15:02:58.192Z</time></trkpt><trkpt lat="43.1553418" lon="10.6000851"><ele>69.33333333333333</ele><time>2026-04-03T15:02:59.188Z</time></trkpt><trkpt lat="43.1553191" lon="10.5999793"><ele>69.0</ele><time>2026-04-03T15:03:00.196Z</time></trkpt><trkpt lat="43.1552976" lon="10.599881"><ele>68.66666666666667</ele><time>2026-04-03T15:03:01.2Z</time></trkpt><trkpt lat="43.1552786" lon="10.5997877"><ele>68.33333333333334</ele><time>2026-04-03T15:03:02.196Z</time></trkpt><trkpt lat="43.1552755" lon="10.5996425"><ele>68.0</ele><time>2026-04-03T15:03:04.192Z</time></trkpt><trkpt lat="43.1553017" lon="10.5995205"><ele>68.83333333333334</ele><time>2026-04-03T15:03:06.193Z</time></trkpt><trkpt lat="43.1553349" lon="10.5994091"><ele>69.66666666666667</ele><time>2026-04-03T15:03:08.192Z</time></trkpt><trkpt lat="43.1553713" lon="10.5992851"><ele>70.5</ele><time>2026-04-03T15:03:10.187Z</time></trkpt><trkpt lat="43.1554024" lon="10.5991654"><ele>71.33333333333333</ele><time>2026-04-03T15:03:12.187Z</time></trkpt><trkpt lat="43.1554345" lon="10.5990571"><ele>72.16666666666666</ele><time>2026-04-03T15:03:14.187Z</time></trkpt><trkpt lat="43.1554751" lon="10.5989554"><ele>73.0</ele><time>2026-04-03T15:03:16.187Z</time></trkpt><trkpt lat="43.1555104" lon="10.598842"><ele>73.0</ele><time>2026-04-03T15:03:18.192Z</time></trkpt><trkpt lat="43.1555437" lon="10.5987326"><ele>73.0</ele><time>2026-04-03T15:03:20.183Z</time></trkpt><trkpt lat="43.1555829" lon="10.5986089"><ele>73.0</ele><time>2026-04-03T15:03:22.185Z</time></trkpt><trkpt lat="43.155631" lon="10.5984564"><ele>73.0</ele><time>2026-04-03T15:03:24.193Z</time></trkpt><trkpt lat="43.1556604" lon="10.5983507"><ele>73.0</ele><time>2026-04-03T15:03:26.192Z</time></trkpt><trkpt lat="43.1556802" lon="10.5982462"><ele>73.0</ele><time>2026-04-03T15:03:28.206Z</time></trkpt><trkpt lat="43.1556989" lon="10.5981067"><ele>73.0</ele><time>2026-04-03T15:03:30.194Z</time></trkpt><trkpt lat="43.1557236" lon="10.597953"><ele>73.0</ele><time>2026-04-03T15:03:32.188Z</time></trkpt><trkpt lat="43.1557419" lon="10.5978655"><ele>73.0</ele><time>2026-04-03T15:03:33.179Z</time></trkpt><trkpt lat="43.1557761" lon="10.5977052"><ele>73.0</ele><time>2026-04-03T15:03:35.191Z</time></trkpt><trkpt lat="43.1558153" lon="10.5975633"><ele>73.0</ele><time>2026-04-03T15:03:37.197Z</time></trkpt><trkpt lat="43.1558657" lon="10.597405"><ele>73.0</ele><time>2026-04-03T15:03:39.185Z</time></trkpt><trkpt lat="43.1558968" lon="10.5973155"><ele>73.0</ele><time>2026-04-03T15:03:40.178Z</time></trkpt><trkpt lat="43.1559233" lon="10.5972226"><ele>73.0</ele><time>2026-04-03T15:03:41.19Z</time></trkpt><trkpt lat="43.1559435" lon="10.597128"><ele>73.0</ele><time>2026-04-03T15:03:42.188Z</time></trkpt><trkpt lat="43.1559573" lon="10.5970361"><ele>73.0</ele><time>2026-04-03T15:03:43.188Z</time></trkpt><trkpt lat="43.1559631" lon="10.5969458"><ele>72.66666666666666</ele><time>2026-04-03T15:03:44.199Z</time></trkpt><trkpt lat="43.1559309" lon="10.5967867"><ele>72.33333333333333</ele><time>2026-04-03T15:03:46.195Z</time></trkpt><trkpt lat="43.1559074" lon="10.5967065"><ele>72.0</ele><time>2026-04-03T15:03:47.196Z</time></trkpt><trkpt lat="43.1558822" lon="10.596619"><ele>71.66666666666667</ele><time>2026-04-03T15:03:48.194Z</time></trkpt><trkpt lat="43.1558582" lon="10.5965315"><ele>71.33333333333334</ele><time>2026-04-03T15:03:49.202Z</time></trkpt><trkpt lat="43.1558163" lon="10.5963841"><ele>71.0</ele><time>2026-04-03T15:03:51.204Z</time></trkpt><trkpt lat="43.1557686" lon="10.5962272"><ele>69.83333333333334</ele><time>2026-04-03T15:03:53.2Z</time></trkpt><trkpt lat="43.1557447" lon="10.5961471"><ele>68.66666666666667</ele><time>2026-04-03T15:03:54.195Z</time></trkpt><trkpt lat="43.1557208" lon="10.5960644"><ele>67.5</ele><time>2026-04-03T15:03:55.205Z</time></trkpt><trkpt lat="43.1556966" lon="10.5959046"><ele>66.33333333333333</ele><time>2026-04-03T15:03:57.201Z</time></trkpt><trkpt lat="43.1557597" lon="10.5957637"><ele>65.16666666666666</ele><time>2026-04-03T15:03:59.2Z</time></trkpt><trkpt lat="43.1558255" lon="10.5957072"><ele>64.0</ele><time>2026-04-03T15:04:00.208Z</time></trkpt><trkpt lat="43.1558958" lon="10.5956522"><ele>63.99999999999999</ele><time>2026-04-03T15:04:01.2Z</time></trkpt><trkpt lat="43.1559679" lon="10.5955988"><ele>64.0</ele><time>2026-04-03T15:04:02.207Z</time></trkpt><trkpt lat="43.1560363" lon="10.5955459"><ele>64.0</ele><time>2026-04-03T15:04:03.206Z</time></trkpt><trkpt lat="43.1561093" lon="10.5954873"><ele>64.0</ele><time>2026-04-03T15:04:04.208Z</time></trkpt><trkpt lat="43.1561917" lon="10.595425"><ele>63.99999999999999</ele><time>2026-04-03T15:04:05.209Z</time></trkpt><trkpt lat="43.1562677" lon="10.5953622"><ele>64.0</ele><time>2026-04-03T15:04:06.2Z</time></trkpt><trkpt lat="43.1563332" lon="10.5953105"><ele>63.2</ele><time>2026-04-03T15:04:07.207Z</time></trkpt><trkpt lat="43.1564002" lon="10.5952595"><ele>62.400000000000006</ele><time>2026-04-03T15:04:08.199Z</time></trkpt><trkpt lat="43.1564632" lon="10.5952165"><ele>61.6</ele><time>2026-04-03T15:04:09.204Z</time></trkpt><trkpt lat="43.1565734" lon="10.5951383"><ele>60.8</ele><time>2026-04-03T15:04:11.197Z</time></trkpt><trkpt lat="43.1566791" lon="10.5950626"><ele>60.0</ele><time>2026-04-03T15:04:13.198Z</time></trkpt><trkpt lat="43.1567771" lon="10.5949818"><ele>59.666666666666664</ele><time>2026-04-03T15:04:15.201Z</time></trkpt><trkpt lat="43.1568674" lon="10.5949167"><ele>59.33333333333333</ele><time>2026-04-03T15:04:17.206Z</time></trkpt><trkpt lat="43.1569534" lon="10.5948497"><ele>59.0</ele><time>2026-04-03T15:04:19.203Z</time></trkpt><trkpt lat="43.1570407" lon="10.5947834"><ele>58.666666666666664</ele><time>2026-04-03T15:04:21.201Z</time></trkpt><trkpt lat="43.1571151" lon="10.5947395"><ele>58.33333333333333</ele><time>2026-04-03T15:04:23.209Z</time></trkpt><trkpt lat="43.157175" lon="10.5946987"><ele>58.0</ele><time>2026-04-03T15:04:25.21Z</time></trkpt><trkpt lat="43.1572449" lon="10.5946555"><ele>57.99999999999999</ele><time>2026-04-03T15:04:27.213Z</time></trkpt><trkpt lat="43.1573096" lon="10.5946123"><ele>58.0</ele><time>2026-04-03T15:04:29.209Z</time></trkpt><trkpt lat="43.1573839" lon="10.594557"><ele>58.0</ele><time>2026-04-03T15:04:31.208Z</time></trkpt><trkpt lat="43.1574561" lon="10.5945056"><ele>58.0</ele><time>2026-04-03T15:04:33.209Z</time></trkpt><trkpt lat="43.1575243" lon="10.5944506"><ele>57.99999999999999</ele><time>2026-04-03T15:04:35.205Z</time></trkpt><trkpt lat="43.1575874" lon="10.5944127"><ele>58.0</ele><time>2026-04-03T15:04:37.206Z</time></trkpt><trkpt lat="43.1576493" lon="10.5943759"><ele>57.599999999999994</ele><time>2026-04-03T15:04:42.209Z</time></trkpt><trkpt lat="43.1576226" lon="10.5942928"><ele>57.199999999999996</ele><time>2026-04-03T15:04:44.195Z</time></trkpt><trkpt lat="43.1575726" lon="10.5941798"><ele>56.8</ele><time>2026-04-03T15:04:46.2Z</time></trkpt><trkpt lat="43.1575243" lon="10.5940542"><ele>56.4</ele><time>2026-04-03T15:04:48.197Z</time></trkpt><trkpt lat="43.1574723" lon="10.5939179"><ele>56.0</ele><time>2026-04-03T15:04:50.195Z</time></trkpt><trkpt lat="43.1574217" lon="10.5937859"><ele>55.75</ele><time>2026-04-03T15:04:52.198Z</time></trkpt><trkpt lat="43.1573704" lon="10.5936475"><ele>55.5</ele><time>2026-04-03T15:04:54.195Z</time></trkpt><trkpt lat="43.1573165" lon="10.5935011"><ele>55.25</ele><time>2026-04-03T15:04:56.2Z</time></trkpt><trkpt lat="43.1572634" lon="10.5933472"><ele>55.0</ele><time>2026-04-03T15:04:58.203Z</time></trkpt><trkpt lat="43.1572062" lon="10.5931961"><ele>55.0</ele><time>2026-04-03T15:05:00.2Z</time></trkpt><trkpt lat="43.1571523" lon="10.593048"><ele>55.0</ele><time>2026-04-03T15:05:02.2Z</time></trkpt><trkpt lat="43.1570948" lon="10.592894"><ele>55.0</ele><time>2026-04-03T15:05:04.195Z</time></trkpt><trkpt lat="43.1570482" lon="10.5927473"><ele>55.0</ele><time>2026-04-03T15:05:06.194Z</time></trkpt><trkpt lat="43.1569927" lon="10.5926022"><ele>54.4</ele><time>2026-04-03T15:05:08.196Z</time></trkpt><trkpt lat="43.1569336" lon="10.5924671"><ele>53.8</ele><time>2026-04-03T15:05:10.197Z</time></trkpt><trkpt lat="43.1568806" lon="10.5923342"><ele>53.2</ele><time>2026-04-03T15:05:12.198Z</time></trkpt><trkpt lat="43.1568289" lon="10.5922005"><ele>52.6</ele><time>2026-04-03T15:05:14.197Z</time></trkpt><trkpt lat="43.1568161" lon="10.5920732"><ele>52.0</ele><time>2026-04-03T15:05:16.196Z</time></trkpt><trkpt lat="43.1568762" lon="10.5919679"><ele>51.8</ele><time>2026-04-03T15:05:18.197Z</time></trkpt><trkpt lat="43.1569744" lon="10.5918692"><ele>51.6</ele><time>2026-04-03T15:05:20.198Z</time></trkpt><trkpt lat="43.1570712" lon="10.5917644"><ele>51.4</ele><time>2026-04-03T15:05:22.203Z</time></trkpt><trkpt lat="43.1571221" lon="10.5917128"><ele>51.199999999999996</ele><time>2026-04-03T15:05:23.2Z</time></trkpt><trkpt lat="43.1571709" lon="10.5916574"><ele>51.0</ele><time>2026-04-03T15:05:24.202Z</time></trkpt><trkpt lat="43.1572593" lon="10.5915474"><ele>51.0</ele><time>2026-04-03T15:05:26.201Z</time></trkpt><trkpt lat="43.1573508" lon="10.5914364"><ele>51.0</ele><time>2026-04-03T15:05:28.205Z</time></trkpt><trkpt lat="43.1574437" lon="10.5913329"><ele>51.0</ele><time>2026-04-03T15:05:30.196Z</time></trkpt><trkpt lat="43.1575326" lon="10.5912328"><ele>51.0</ele><time>2026-04-03T15:05:32.194Z</time></trkpt><trkpt lat="43.1576194" lon="10.5911236"><ele>50.5</ele><time>2026-04-03T15:05:34.193Z</time></trkpt><trkpt lat="43.157711" lon="10.5910185"><ele>50.0</ele><time>2026-04-03T15:05:36.2Z</time></trkpt><trkpt lat="43.1577997" lon="10.5909151"><ele>49.5</ele><time>2026-04-03T15:05:38.22Z</time></trkpt><trkpt lat="43.1578864" lon="10.5908195"><ele>49.0</ele><time>2026-04-03T15:05:40.202Z</time></trkpt><trkpt lat="43.1579722" lon="10.59072"><ele>49.0</ele><time>2026-04-03T15:05:42.199Z</time></trkpt><trkpt lat="43.158056" lon="10.5906029"><ele>49.0</ele><time>2026-04-03T15:05:44.2Z</time></trkpt><trkpt lat="43.1581475" lon="10.5904915"><ele>49.0</ele><time>2026-04-03T15:05:46.191Z</time></trkpt><trkpt lat="43.1582402" lon="10.5903874"><ele>49.0</ele><time>2026-04-03T15:05:48.196Z</time></trkpt><trkpt lat="43.1583313" lon="10.5902762"><ele>48.5</ele><time>2026-04-03T15:05:50.196Z</time></trkpt><trkpt lat="43.1584222" lon="10.5901672"><ele>48.0</ele><time>2026-04-03T15:05:52.201Z</time></trkpt><trkpt lat="43.1585131" lon="10.5900611"><ele>47.5</ele><time>2026-04-03T15:05:54.191Z</time></trkpt><trkpt lat="43.1585984" lon="10.5899636"><ele>47.0</ele><time>2026-04-03T15:05:56.196Z</time></trkpt><trkpt lat="43.1586794" lon="10.5898722"><ele>47.0</ele><time>2026-04-03T15:05:58.195Z</time></trkpt><trkpt lat="43.1587631" lon="10.5897865"><ele>47.0</ele><time>2026-04-03T15:06:00.207Z</time></trkpt><trkpt lat="43.1588574" lon="10.5897059"><ele>47.0</ele><time>2026-04-03T15:06:02.196Z</time></trkpt><trkpt lat="43.1589459" lon="10.5896284"><ele>47.0</ele><time>2026-04-03T15:06:04.202Z</time></trkpt><trkpt lat="43.159021" lon="10.5895116"><ele>47.0</ele><time>2026-04-03T15:06:06.203Z</time></trkpt><trkpt lat="43.1590979" lon="10.5893919"><ele>46.6</ele><time>2026-04-03T15:06:08.212Z</time></trkpt><trkpt lat="43.1591816" lon="10.5892854"><ele>46.2</ele><time>2026-04-03T15:06:10.201Z</time></trkpt><trkpt lat="43.1592621" lon="10.5891801"><ele>45.8</ele><time>2026-04-03T15:06:12.203Z</time></trkpt><trkpt lat="43.1593486" lon="10.589078"><ele>45.4</ele><time>2026-04-03T15:06:14.203Z</time></trkpt><trkpt lat="43.1594293" lon="10.5889804"><ele>45.0</ele><time>2026-04-03T15:06:16.207Z</time></trkpt><trkpt lat="43.1595059" lon="10.5888843"><ele>45.0</ele><time>2026-04-03T15:06:18.208Z</time></trkpt><trkpt lat="43.1595824" lon="10.5887976"><ele>45.0</ele><time>2026-04-03T15:06:20.207Z</time></trkpt><trkpt lat="43.1596521" lon="10.5887139"><ele>45.0</ele><time>2026-04-03T15:06:22.199Z</time></trkpt><trkpt lat="43.1597051" lon="10.58865"><ele>45.0</ele><time>2026-04-03T15:06:24.196Z</time></trkpt><trkpt lat="43.1596546" lon="10.5887214"><ele>45.0</ele><time>2026-04-03T15:07:26.158Z</time></trkpt><trkpt lat="43.1595592" lon="10.5888204"><ele>45.0</ele><time>2026-04-03T15:07:28.152Z</time></trkpt><trkpt lat="43.159601" lon="10.5887041"><ele>45.0</ele><time>2026-04-03T15:07:38.172Z</time></trkpt><trkpt lat="43.1596788" lon="10.5886496"><ele>45.0</ele><time>2026-04-03T15:07:40.178Z</time></trkpt><trkpt lat="43.1596764" lon="10.5887503"><ele>45.0</ele><time>2026-04-03T15:08:02.167Z</time></trkpt><trkpt lat="43.1596263" lon="10.5888189"><ele>45.0</ele><time>2026-04-03T15:08:03.171Z</time></trkpt><trkpt lat="43.1596661" lon="10.5887312"><ele>45.0</ele><time>2026-04-03T15:08:07.182Z</time></trkpt><trkpt lat="43.1597135" lon="10.5886682"><ele>45.0</ele><time>2026-04-03T15:08:33.205Z</time></trkpt><trkpt lat="43.1597578" lon="10.5885918"><ele>45.0</ele><time>2026-04-03T15:08:35.211Z</time></trkpt><trkpt lat="43.1597932" lon="10.5884892"><ele>45.0</ele><time>2026-04-03T15:08:37.206Z</time></trkpt><trkpt lat="43.1598579" lon="10.5883995"><ele>45.0</ele><time>2026-04-03T15:08:39.202Z</time></trkpt><trkpt lat="43.1599524" lon="10.5883313"><ele>45.0</ele><time>2026-04-03T15:08:41.211Z</time></trkpt><trkpt lat="43.160042" lon="10.5882509"><ele>45.0</ele><time>2026-04-03T15:08:43.215Z</time></trkpt><trkpt lat="43.160128" lon="10.5881543"><ele>45.0</ele><time>2026-04-03T15:08:45.202Z</time></trkpt><trkpt lat="43.1602118" lon="10.5880668"><ele>45.0</ele><time>2026-04-03T15:08:47.205Z</time></trkpt><trkpt lat="43.1603033" lon="10.5879746"><ele>45.0</ele><time>2026-04-03T15:08:49.201Z</time></trkpt><trkpt lat="43.1604021" lon="10.587882"><ele>44.75</ele><time>2026-04-03T15:08:51.203Z</time></trkpt><trkpt lat="43.1604879" lon="10.5877687"><ele>44.5</ele><time>2026-04-03T15:08:53.211Z</time></trkpt><trkpt lat="43.1605758" lon="10.5876489"><ele>44.25</ele><time>2026-04-03T15:08:55.201Z</time></trkpt><trkpt lat="43.1606674" lon="10.5875361"><ele>44.0</ele><time>2026-04-03T15:08:57.203Z</time></trkpt><trkpt lat="43.1607538" lon="10.5874161"><ele>43.800000000000004</ele><time>2026-04-03T15:08:59.203Z</time></trkpt><trkpt lat="43.1607992" lon="10.5873549"><ele>43.6</ele><time>2026-04-03T15:09:00.203Z</time></trkpt><trkpt lat="43.1608805" lon="10.5872499"><ele>43.4</ele><time>2026-04-03T15:09:02.199Z</time></trkpt><trkpt lat="43.1609649" lon="10.5871481"><ele>43.2</ele><time>2026-04-03T15:09:04.2Z</time></trkpt><trkpt lat="43.1610552" lon="10.587047"><ele>43.0</ele><time>2026-04-03T15:09:06.199Z</time></trkpt><trkpt lat="43.1611438" lon="10.5869419"><ele>42.8</ele><time>2026-04-03T15:09:08.2Z</time></trkpt><trkpt lat="43.1612264" lon="10.5868388"><ele>42.599999999999994</ele><time>2026-04-03T15:09:10.201Z</time></trkpt><trkpt lat="43.1613053" lon="10.5867383"><ele>42.400000000000006</ele><time>2026-04-03T15:09:12.205Z</time></trkpt><trkpt lat="43.1613802" lon="10.5866412"><ele>42.2</ele><time>2026-04-03T15:09:14.22Z</time></trkpt><trkpt lat="43.1614537" lon="10.5865464"><ele>42.0</ele><time>2026-04-03T15:09:16.215Z</time></trkpt><trkpt lat="43.1615177" lon="10.5864716"><ele>42.0</ele><time>2026-04-03T15:09:18.213Z</time></trkpt><trkpt lat="43.1615696" lon="10.5863799"><ele>42.0</ele><time>2026-04-03T15:09:21.212Z</time></trkpt><trkpt lat="43.1615632" lon="10.5862703"><ele>42.0</ele><time>2026-04-03T15:09:23.216Z</time></trkpt><trkpt lat="43.1615492" lon="10.586121"><ele>42.0</ele><time>2026-04-03T15:09:25.221Z</time></trkpt><trkpt lat="43.1615341" lon="10.5859544"><ele>42.0</ele><time>2026-04-03T15:09:27.218Z</time></trkpt><trkpt lat="43.1615188" lon="10.5857847"><ele>42.0</ele><time>2026-04-03T15:09:29.217Z</time></trkpt><trkpt lat="43.1615109" lon="10.5856969"><ele>42.0</ele><time>2026-04-03T15:09:30.221Z</time></trkpt><trkpt lat="43.161484" lon="10.5855373"><ele>42.0</ele><time>2026-04-03T15:09:32.202Z</time></trkpt><trkpt lat="43.1614451" lon="10.585394"><ele>42.0</ele><time>2026-04-03T15:09:34.204Z</time></trkpt><trkpt lat="43.1614019" lon="10.5852544"><ele>42.0</ele><time>2026-04-03T15:09:36.199Z</time></trkpt><trkpt lat="43.1613656" lon="10.585099"><ele>41.75</ele><time>2026-04-03T15:09:38.2Z</time></trkpt><trkpt lat="43.161334" lon="10.5849441"><ele>41.5</ele><time>2026-04-03T15:09:40.202Z</time></trkpt><trkpt lat="43.1613069" lon="10.5847841"><ele>41.25</ele><time>2026-04-03T15:09:42.191Z</time></trkpt><trkpt lat="43.1612793" lon="10.5846306"><ele>41.0</ele><time>2026-04-03T15:09:44.2Z</time></trkpt><trkpt lat="43.1612625" lon="10.5844718"><ele>40.75</ele><time>2026-04-03T15:09:46.199Z</time></trkpt><trkpt lat="43.1612569" lon="10.5843042"><ele>40.5</ele><time>2026-04-03T15:09:48.198Z</time></trkpt><trkpt lat="43.1612502" lon="10.5841482"><ele>40.25</ele><time>2026-04-03T15:09:50.203Z</time></trkpt><trkpt lat="43.1612417" lon="10.5839911"><ele>40.0</ele><time>2026-04-03T15:09:52.205Z</time></trkpt><trkpt lat="43.1612306" lon="10.5838334"><ele>39.6</ele><time>2026-04-03T15:09:54.201Z</time></trkpt><trkpt lat="43.1612328" lon="10.5836706"><ele>39.2</ele><time>2026-04-03T15:09:56.2Z</time></trkpt><trkpt lat="43.1612373" lon="10.5835822"><ele>38.8</ele><time>2026-04-03T15:09:57.196Z</time></trkpt><trkpt lat="43.1612344" lon="10.5834275"><ele>38.4</ele><time>2026-04-03T15:09:59.199Z</time></trkpt><trkpt lat="43.1612307" lon="10.5832817"><ele>38.0</ele><time>2026-04-03T15:10:01.203Z</time></trkpt><trkpt lat="43.161233" lon="10.583132"><ele>38.0</ele><time>2026-04-03T15:10:03.201Z</time></trkpt><trkpt lat="43.161238" lon="10.5829673"><ele>38.0</ele><time>2026-04-03T15:10:05.19Z</time></trkpt><trkpt lat="43.1612462" lon="10.5827971"><ele>38.0</ele><time>2026-04-03T15:10:07.193Z</time></trkpt><trkpt lat="43.1612487" lon="10.582634"><ele>38.0</ele><time>2026-04-03T15:10:09.193Z</time></trkpt><trkpt lat="43.1612513" lon="10.5824921"><ele>37.75</ele><time>2026-04-03T15:10:11.192Z</time></trkpt><trkpt lat="43.1612611" lon="10.5823426"><ele>37.5</ele><time>2026-04-03T15:10:13.195Z</time></trkpt><trkpt lat="43.1612763" lon="10.5821837"><ele>37.25</ele><time>2026-04-03T15:10:15.184Z</time></trkpt><trkpt lat="43.1612859" lon="10.5820181"><ele>37.0</ele><time>2026-04-03T15:10:17.192Z</time></trkpt><trkpt lat="43.1612892" lon="10.5818553"><ele>36.75</ele><time>2026-04-03T15:10:19.196Z</time></trkpt><trkpt lat="43.1612954" lon="10.5816967"><ele>36.5</ele><time>2026-04-03T15:10:21.194Z</time></trkpt><trkpt lat="43.1613004" lon="10.5815363"><ele>36.25</ele><time>2026-04-03T15:10:23.195Z</time></trkpt><trkpt lat="43.1613038" lon="10.5813772"><ele>36.0</ele><time>2026-04-03T15:10:25.194Z</time></trkpt><trkpt lat="43.1613096" lon="10.581211"><ele>36.25</ele><time>2026-04-03T15:10:27.196Z</time></trkpt><trkpt lat="43.1613171" lon="10.5810387"><ele>36.5</ele><time>2026-04-03T15:10:29.193Z</time></trkpt><trkpt lat="43.1613168" lon="10.5808764"><ele>36.75</ele><time>2026-04-03T15:10:31.194Z</time></trkpt><trkpt lat="43.1613139" lon="10.5807215"><ele>37.0</ele><time>2026-04-03T15:10:33.2Z</time></trkpt><trkpt lat="43.1613149" lon="10.5805605"><ele>37.0</ele><time>2026-04-03T15:10:35.188Z</time></trkpt><trkpt lat="43.1613117" lon="10.5803999"><ele>37.0</ele><time>2026-04-03T15:10:37.188Z</time></trkpt><trkpt lat="43.1612942" lon="10.5802425"><ele>37.0</ele><time>2026-04-03T15:10:39.19Z</time></trkpt><trkpt lat="43.1612711" lon="10.5800805"><ele>37.0</ele><time>2026-04-03T15:10:41.194Z</time></trkpt><trkpt lat="43.1612453" lon="10.5799237"><ele>36.75</ele><time>2026-04-03T15:10:43.192Z</time></trkpt><trkpt lat="43.161212" lon="10.5797679"><ele>36.5</ele><time>2026-04-03T15:10:45.187Z</time></trkpt><trkpt lat="43.161178" lon="10.5796122"><ele>36.25</ele><time>2026-04-03T15:10:47.191Z</time></trkpt><trkpt lat="43.1611455" lon="10.5794603"><ele>36.0</ele><time>2026-04-03T15:10:49.198Z</time></trkpt><trkpt lat="43.1611137" lon="10.5793016"><ele>35.5</ele><time>2026-04-03T15:10:51.195Z</time></trkpt><trkpt lat="43.1610849" lon="10.5791413"><ele>35.0</ele><time>2026-04-03T15:10:53.195Z</time></trkpt><trkpt lat="43.161053" lon="10.5789785"><ele>34.5</ele><time>2026-04-03T15:10:55.194Z</time></trkpt><trkpt lat="43.1610248" lon="10.5788238"><ele>34.0</ele><time>2026-04-03T15:10:57.181Z</time></trkpt><trkpt lat="43.16101" lon="10.5786667"><ele>33.66666666666667</ele><time>2026-04-03T15:10:59.19Z</time></trkpt><trkpt lat="43.1610371" lon="10.5784952"><ele>33.333333333333336</ele><time>2026-04-03T15:11:01.188Z</time></trkpt><trkpt lat="43.1610679" lon="10.5784165"><ele>33.0</ele><time>2026-04-03T15:11:02.19Z</time></trkpt><trkpt lat="43.1611112" lon="10.5783537"><ele>32.666666666666664</ele><time>2026-04-03T15:11:03.193Z</time></trkpt><trkpt lat="43.1611572" lon="10.5782915"><ele>32.33333333333333</ele><time>2026-04-03T15:11:04.196Z</time></trkpt><trkpt lat="43.1612062" lon="10.5782369"><ele>32.0</ele><time>2026-04-03T15:11:05.191Z</time></trkpt><trkpt lat="43.1612948" lon="10.5781472"><ele>32.0</ele><time>2026-04-03T15:11:07.185Z</time></trkpt><trkpt lat="43.1613809" lon="10.5780359"><ele>32.0</ele><time>2026-04-03T15:11:09.189Z</time></trkpt><trkpt lat="43.161429" lon="10.5779771"><ele>32.0</ele><time>2026-04-03T15:11:10.19Z</time></trkpt><trkpt lat="43.1614775" lon="10.5779196"><ele>32.0</ele><time>2026-04-03T15:11:11.189Z</time></trkpt><trkpt lat="43.1615672" lon="10.5778022"><ele>32.0</ele><time>2026-04-03T15:11:13.192Z</time></trkpt><trkpt lat="43.161651" lon="10.5776936"><ele>32.0</ele><time>2026-04-03T15:11:15.186Z</time></trkpt><trkpt lat="43.161732" lon="10.5775871"><ele>32.0</ele><time>2026-04-03T15:11:17.205Z</time></trkpt><trkpt lat="43.1618116" lon="10.5774828"><ele>32.0</ele><time>2026-04-03T15:11:19.199Z</time></trkpt><trkpt lat="43.1618964" lon="10.5773769"><ele>32.0</ele><time>2026-04-03T15:11:21.203Z</time></trkpt><trkpt lat="43.1619832" lon="10.5772717"><ele>32.0</ele><time>2026-04-03T15:11:23.202Z</time></trkpt><trkpt lat="43.162063" lon="10.5771574"><ele>32.0</ele><time>2026-04-03T15:11:25.211Z</time></trkpt><trkpt lat="43.1621465" lon="10.5770543"><ele>32.0</ele><time>2026-04-03T15:11:27.207Z</time></trkpt><trkpt lat="43.1622313" lon="10.5769465"><ele>32.0</ele><time>2026-04-03T15:11:29.212Z</time></trkpt><trkpt lat="43.1623181" lon="10.5768332"><ele>31.6</ele><time>2026-04-03T15:11:31.21Z</time></trkpt><trkpt lat="43.1624017" lon="10.5767224"><ele>31.200000000000003</ele><time>2026-04-03T15:11:33.208Z</time></trkpt><trkpt lat="43.1624837" lon="10.5766139"><ele>30.8</ele><time>2026-04-03T15:11:35.205Z</time></trkpt><trkpt lat="43.1625619" lon="10.5765043"><ele>30.4</ele><time>2026-04-03T15:11:37.205Z</time></trkpt><trkpt lat="43.1626349" lon="10.5764113"><ele>30.0</ele><time>2026-04-03T15:11:39.204Z</time></trkpt><trkpt lat="43.1627015" lon="10.576327"><ele>30.0</ele><time>2026-04-03T15:11:41.206Z</time></trkpt><trkpt lat="43.1627683" lon="10.5762446"><ele>30.0</ele><time>2026-04-03T15:11:43.208Z</time></trkpt><trkpt lat="43.1628424" lon="10.5761424"><ele>30.0</ele><time>2026-04-03T15:11:45.205Z</time></trkpt><trkpt lat="43.1629245" lon="10.5760256"><ele>30.0</ele><time>2026-04-03T15:11:47.208Z</time></trkpt><trkpt lat="43.1630042" lon="10.5759076"><ele>30.0</ele><time>2026-04-03T15:11:49.208Z</time></trkpt><trkpt lat="43.1630838" lon="10.5757924"><ele>30.0</ele><time>2026-04-03T15:11:51.205Z</time></trkpt><trkpt lat="43.1631642" lon="10.5756728"><ele>30.0</ele><time>2026-04-03T15:11:53.205Z</time></trkpt><trkpt lat="43.1632408" lon="10.5755558"><ele>30.0</ele><time>2026-04-03T15:11:55.206Z</time></trkpt><trkpt lat="43.1633228" lon="10.5754377"><ele>30.0</ele><time>2026-04-03T15:11:57.207Z</time></trkpt><trkpt lat="43.1634037" lon="10.5753194"><ele>30.0</ele><time>2026-04-03T15:11:59.213Z</time></trkpt><trkpt lat="43.1634846" lon="10.5752012"><ele>30.0</ele><time>2026-04-03T15:12:01.213Z</time></trkpt><trkpt lat="43.1635698" lon="10.5750882"><ele>30.0</ele><time>2026-04-03T15:12:03.209Z</time></trkpt><trkpt lat="43.1636545" lon="10.5749675"><ele>30.0</ele><time>2026-04-03T15:12:05.202Z</time></trkpt><trkpt lat="43.1637303" lon="10.5748536"><ele>30.0</ele><time>2026-04-03T15:12:07.196Z</time></trkpt><trkpt lat="43.1638025" lon="10.5747572"><ele>30.0</ele><time>2026-04-03T15:12:09.201Z</time></trkpt><trkpt lat="43.1638717" lon="10.574656"><ele>30.0</ele><time>2026-04-03T15:12:11.198Z</time></trkpt><trkpt lat="43.1639441" lon="10.5745497"><ele>30.0</ele><time>2026-04-03T15:12:13.203Z</time></trkpt><trkpt lat="43.1640177" lon="10.574432"><ele>30.0</ele><time>2026-04-03T15:12:15.2Z</time></trkpt><trkpt lat="43.1640896" lon="10.5743205"><ele>29.75</ele><time>2026-04-03T15:12:17.202Z</time></trkpt><trkpt lat="43.1641658" lon="10.5742145"><ele>29.5</ele><time>2026-04-03T15:12:19.219Z</time></trkpt><trkpt lat="43.1642438" lon="10.5741058"><ele>29.25</ele><time>2026-04-03T15:12:21.208Z</time></trkpt><trkpt lat="43.1643241" lon="10.5739922"><ele>29.0</ele><time>2026-04-03T15:12:23.202Z</time></trkpt><trkpt lat="43.1644026" lon="10.5738683"><ele>29.0</ele><time>2026-04-03T15:12:25.198Z</time></trkpt><trkpt lat="43.1644846" lon="10.5737497"><ele>29.0</ele><time>2026-04-03T15:12:27.198Z</time></trkpt><trkpt lat="43.1645709" lon="10.5736285"><ele>29.0</ele><time>2026-04-03T15:12:29.198Z</time></trkpt><trkpt lat="43.1646538" lon="10.5735147"><ele>29.0</ele><time>2026-04-03T15:12:31.2Z</time></trkpt><trkpt lat="43.1647277" lon="10.5734013"><ele>28.799999999999997</ele><time>2026-04-03T15:12:33.202Z</time></trkpt><trkpt lat="43.1647951" lon="10.5732929"><ele>28.599999999999998</ele><time>2026-04-03T15:12:35.2Z</time></trkpt><trkpt lat="43.1648728" lon="10.5731944"><ele>28.4</ele><time>2026-04-03T15:12:37.202Z</time></trkpt><trkpt lat="43.1649702" lon="10.5731285"><ele>28.2</ele><time>2026-04-03T15:12:39.198Z</time></trkpt><trkpt lat="43.1650715" lon="10.5730742"><ele>28.0</ele><time>2026-04-03T15:12:41.199Z</time></trkpt><trkpt lat="43.1651732" lon="10.5730264"><ele>27.75</ele><time>2026-04-03T15:12:43.195Z</time></trkpt><trkpt lat="43.1652794" lon="10.5729751"><ele>27.5</ele><time>2026-04-03T15:12:45.202Z</time></trkpt><trkpt lat="43.1653819" lon="10.5729233"><ele>27.25</ele><time>2026-04-03T15:12:47.198Z</time></trkpt><trkpt lat="43.1654871" lon="10.5728821"><ele>27.0</ele><time>2026-04-03T15:12:49.2Z</time></trkpt><trkpt lat="43.1656052" lon="10.5728395"><ele>26.75</ele><time>2026-04-03T15:12:51.198Z</time></trkpt><trkpt lat="43.1657144" lon="10.5727905"><ele>26.5</ele><time>2026-04-03T15:12:53.193Z</time></trkpt><trkpt lat="43.1658264" lon="10.5727384"><ele>26.25</ele><time>2026-04-03T15:12:55.199Z</time></trkpt><trkpt lat="43.1659438" lon="10.5726838"><ele>26.0</ele><time>2026-04-03T15:12:57.189Z</time></trkpt><trkpt lat="43.166055" lon="10.5726271"><ele>26.0</ele><time>2026-04-03T15:12:59.196Z</time></trkpt><trkpt lat="43.1661659" lon="10.5725765"><ele>26.0</ele><time>2026-04-03T15:13:01.198Z</time></trkpt><trkpt lat="43.1662726" lon="10.5725245"><ele>26.0</ele><time>2026-04-03T15:13:03.193Z</time></trkpt><trkpt lat="43.1663752" lon="10.5724809"><ele>26.0</ele><time>2026-04-03T15:13:05.202Z</time></trkpt><trkpt lat="43.1664823" lon="10.5724393"><ele>26.0</ele><time>2026-04-03T15:13:07.203Z</time></trkpt><trkpt lat="43.166589" lon="10.5723863"><ele>25.8</ele><time>2026-04-03T15:13:09.199Z</time></trkpt><trkpt lat="43.1666952" lon="10.5723346"><ele>25.6</ele><time>2026-04-03T15:13:11.196Z</time></trkpt><trkpt lat="43.1667989" lon="10.5722757"><ele>25.4</ele><time>2026-04-03T15:13:13.2Z</time></trkpt><trkpt lat="43.1668934" lon="10.5722283"><ele>25.2</ele><time>2026-04-03T15:13:15.197Z</time></trkpt><trkpt lat="43.166982" lon="10.5721829"><ele>25.0</ele><time>2026-04-03T15:13:17.199Z</time></trkpt><trkpt lat="43.1670739" lon="10.5721305"><ele>25.0</ele><time>2026-04-03T15:13:19.2Z</time></trkpt><trkpt lat="43.1671748" lon="10.5721065"><ele>25.0</ele><time>2026-04-03T15:13:21.204Z</time></trkpt><trkpt lat="43.1672557" lon="10.5720454"><ele>25.0</ele><time>2026-04-03T15:13:23.2Z</time></trkpt><trkpt lat="43.1672849" lon="10.5719123"><ele>25.0</ele><time>2026-04-03T15:13:25.194Z</time></trkpt><trkpt lat="43.1673017" lon="10.5717448"><ele>25.0</ele><time>2026-04-03T15:13:27.19Z</time></trkpt><trkpt lat="43.1673001" lon="10.5716553"><ele>25.2</ele><time>2026-04-03T15:13:28.196Z</time></trkpt><trkpt lat="43.1672953" lon="10.5714845"><ele>25.4</ele><time>2026-04-03T15:13:30.193Z</time></trkpt><trkpt lat="43.1672926" lon="10.5713219"><ele>25.6</ele><time>2026-04-03T15:13:32.201Z</time></trkpt><trkpt lat="43.1673045" lon="10.57117"><ele>25.8</ele><time>2026-04-03T15:13:34.203Z</time></trkpt><trkpt lat="43.1673019" lon="10.5710503"><ele>26.0</ele><time>2026-04-03T15:13:36.201Z</time></trkpt><trkpt lat="43.1673054" lon="10.5709631"><ele>26.0</ele><time>2026-04-03T15:13:38.205Z</time></trkpt><trkpt lat="43.1673101" lon="10.5708593"><ele>26.0</ele><time>2026-04-03T15:13:41.201Z</time></trkpt><trkpt lat="43.1673129" lon="10.5707568"><ele>26.0</ele><time>2026-04-03T15:13:43.194Z</time></trkpt><trkpt lat="43.1673278" lon="10.5706177"><ele>26.0</ele><time>2026-04-03T15:13:45.202Z</time></trkpt><trkpt lat="43.1673415" lon="10.5704595"><ele>26.0</ele><time>2026-04-03T15:13:47.198Z</time></trkpt><trkpt lat="43.1673517" lon="10.5703053"><ele>25.8</ele><time>2026-04-03T15:13:49.201Z</time></trkpt><trkpt lat="43.1673621" lon="10.570157"><ele>25.6</ele><time>2026-04-03T15:13:51.199Z</time></trkpt><trkpt lat="43.1673695" lon="10.570019"><ele>25.4</ele><time>2026-04-03T15:13:53.195Z</time></trkpt><trkpt lat="43.1673759" lon="10.5698809"><ele>25.2</ele><time>2026-04-03T15:13:55.202Z</time></trkpt><trkpt lat="43.1673843" lon="10.5697372"><ele>25.0</ele><time>2026-04-03T15:13:57.19Z</time></trkpt><trkpt lat="43.1673996" lon="10.5695987"><ele>24.500000000000004</ele><time>2026-04-03T15:13:59.19Z</time></trkpt><trkpt lat="43.1674173" lon="10.5694937"><ele>24.0</ele><time>2026-04-03T15:14:01.178Z</time></trkpt><trkpt lat="43.1674254" lon="10.5693888"><ele>23.5</ele><time>2026-04-03T15:14:05.185Z</time></trkpt><trkpt lat="43.1674311" lon="10.5692975"><ele>23.0</ele><time>2026-04-03T15:14:07.193Z</time></trkpt><trkpt lat="43.1674388" lon="10.5691801"><ele>22.5</ele><time>2026-04-03T15:14:09.19Z</time></trkpt><trkpt lat="43.1674343" lon="10.5690511"><ele>22.0</ele><time>2026-04-03T15:14:11.176Z</time></trkpt><trkpt lat="43.1674399" lon="10.5688978"><ele>22.0</ele><time>2026-04-03T15:14:13.177Z</time></trkpt><trkpt lat="43.1674448" lon="10.5688009"><ele>22.0</ele><time>2026-04-03T15:14:14.18Z</time></trkpt><trkpt lat="43.1674519" lon="10.5686991"><ele>22.0</ele><time>2026-04-03T15:14:15.184Z</time></trkpt><trkpt lat="43.1674679" lon="10.5685336"><ele>22.0</ele><time>2026-04-03T15:14:17.18Z</time></trkpt><trkpt lat="43.1674892" lon="10.5683705"><ele>22.0</ele><time>2026-04-03T15:14:19.183Z</time></trkpt><trkpt lat="43.1675058" lon="10.568215"><ele>22.0</ele><time>2026-04-03T15:14:21.182Z</time></trkpt><trkpt lat="43.1675168" lon="10.5681083"><ele>22.0</ele><time>2026-04-03T15:14:23.2Z</time></trkpt><trkpt lat="43.1675343" lon="10.5680048"><ele>22.0</ele><time>2026-04-03T15:14:25.192Z</time></trkpt><trkpt lat="43.1675495" lon="10.5678929"><ele>22.0</ele><time>2026-04-03T15:14:27.187Z</time></trkpt><trkpt lat="43.1675641" lon="10.5677793"><ele>22.0</ele><time>2026-04-03T15:14:29.185Z</time></trkpt><trkpt lat="43.16757" lon="10.5676676"><ele>22.0</ele><time>2026-04-03T15:14:31.185Z</time></trkpt><trkpt lat="43.1675814" lon="10.567574"><ele>22.0</ele><time>2026-04-03T15:14:33.188Z</time></trkpt><trkpt lat="43.1675934" lon="10.5674729"><ele>22.0</ele><time>2026-04-03T15:14:35.183Z</time></trkpt><trkpt lat="43.1676077" lon="10.567376"><ele>22.0</ele><time>2026-04-03T15:14:37.19Z</time></trkpt><trkpt lat="43.1676251" lon="10.5672761"><ele>22.0</ele><time>2026-04-03T15:14:39.193Z</time></trkpt><trkpt lat="43.1676353" lon="10.5671588"><ele>22.0</ele><time>2026-04-03T15:14:41.183Z</time></trkpt><trkpt lat="43.167651" lon="10.5670132"><ele>22.0</ele><time>2026-04-03T15:14:43.187Z</time></trkpt><trkpt lat="43.1676752" lon="10.5668593"><ele>22.0</ele><time>2026-04-03T15:14:45.19Z</time></trkpt><trkpt lat="43.167711" lon="10.5666339"><ele>22.0</ele><time>2026-04-03T15:14:48.192Z</time></trkpt><trkpt lat="43.1677298" lon="10.5664876"><ele>22.0</ele><time>2026-04-03T15:14:50.186Z</time></trkpt><trkpt lat="43.1677478" lon="10.566353"><ele>22.0</ele><time>2026-04-03T15:14:52.191Z</time></trkpt><trkpt lat="43.1677522" lon="10.5662537"><ele>22.0</ele><time>2026-04-03T15:14:54.209Z</time></trkpt><trkpt lat="43.1677438" lon="10.5661668"><ele>22.0</ele><time>2026-04-03T15:14:56.195Z</time></trkpt><trkpt lat="43.167745" lon="10.5660666"><ele>22.0</ele><time>2026-04-03T15:14:58.194Z</time></trkpt><trkpt lat="43.1677602" lon="10.5659602"><ele>22.0</ele><time>2026-04-03T15:15:00.196Z</time></trkpt><trkpt lat="43.1677894" lon="10.5658387"><ele>22.0</ele><time>2026-04-03T15:15:02.191Z</time></trkpt><trkpt lat="43.1678278" lon="10.5657061"><ele>22.0</ele><time>2026-04-03T15:15:04.181Z</time></trkpt><trkpt lat="43.1678569" lon="10.5655545"><ele>22.0</ele><time>2026-04-03T15:15:06.164Z</time></trkpt><trkpt lat="43.167873" lon="10.5654648"><ele>22.0</ele><time>2026-04-03T15:15:07.153Z</time></trkpt><trkpt lat="43.1678722" lon="10.5653169"><ele>22.0</ele><time>2026-04-03T15:15:09.176Z</time></trkpt><trkpt lat="43.1679" lon="10.565166"><ele>22.0</ele><time>2026-04-03T15:15:11.176Z</time></trkpt><trkpt lat="43.1679034" lon="10.5650415"><ele>22.0</ele><time>2026-04-03T15:15:13.174Z</time></trkpt><trkpt lat="43.1679141" lon="10.564923"><ele>22.166666666666664</ele><time>2026-04-03T15:15:15.17Z</time></trkpt><trkpt lat="43.1679294" lon="10.5648185"><ele>22.333333333333332</ele><time>2026-04-03T15:15:17.175Z</time></trkpt><trkpt lat="43.1679527" lon="10.5647283"><ele>22.5</ele><time>2026-04-03T15:15:19.182Z</time></trkpt><trkpt lat="43.1679742" lon="10.5646252"><ele>22.666666666666668</ele><time>2026-04-03T15:15:22.182Z</time></trkpt><trkpt lat="43.1680022" lon="10.5645455"><ele>22.833333333333336</ele><time>2026-04-03T15:15:28.19Z</time></trkpt><trkpt lat="43.1680911" lon="10.5645246"><ele>23.0</ele><time>2026-04-03T15:15:31.194Z</time></trkpt><trkpt lat="43.1681899" lon="10.5645402"><ele>22.599999999999998</ele><time>2026-04-03T15:15:33.197Z</time></trkpt><trkpt lat="43.1682825" lon="10.5645393"><ele>22.2</ele><time>2026-04-03T15:15:35.194Z</time></trkpt><trkpt lat="43.1683814" lon="10.5645501"><ele>21.8</ele><time>2026-04-03T15:15:37.192Z</time></trkpt><trkpt lat="43.1684825" lon="10.5645705"><ele>21.4</ele><time>2026-04-03T15:15:39.196Z</time></trkpt><trkpt lat="43.1685692" lon="10.5646017"><ele>21.0</ele><time>2026-04-03T15:15:41.204Z</time></trkpt><trkpt lat="43.1685872" lon="10.5644765"><ele>20.833333333333332</ele><time>2026-04-03T15:15:45.208Z</time></trkpt><trkpt lat="43.1685655" lon="10.564366"><ele>20.666666666666668</ele><time>2026-04-03T15:15:48.206Z</time></trkpt><trkpt lat="43.1685162" lon="10.5642987"><ele>20.5</ele><time>2026-04-03T15:15:51.202Z</time></trkpt><trkpt lat="43.1684605" lon="10.5642513"><ele>20.333333333333336</ele><time>2026-04-03T15:15:53.205Z</time></trkpt><trkpt lat="43.1683795" lon="10.5642028"><ele>20.166666666666668</ele><time>2026-04-03T15:15:55.214Z</time></trkpt><trkpt lat="43.1682952" lon="10.5641529"><ele>20.0</ele><time>2026-04-03T15:15:57.197Z</time></trkpt><trkpt lat="43.1682534" lon="10.5640614"><ele>20.0</ele><time>2026-04-03T15:16:00.194Z</time></trkpt><trkpt lat="43.1682712" lon="10.5639703"><ele>20.0</ele><time>2026-04-03T15:16:02.187Z</time></trkpt><trkpt lat="43.1682935" lon="10.5638738"><ele>20.0</ele><time>2026-04-03T15:16:04.181Z</time></trkpt><trkpt lat="43.1683161" lon="10.5637925"><ele>20.0</ele><time>2026-04-03T15:16:07.161Z</time></trkpt><trkpt lat="43.1683407" lon="10.5636982"><ele>20.0</ele><time>2026-04-03T15:16:09.181Z</time></trkpt><trkpt lat="43.1683857" lon="10.5635988"><ele>20.0</ele><time>2026-04-03T15:16:11.197Z</time></trkpt><trkpt lat="43.1684488" lon="10.5635511"><ele>20.0</ele><time>2026-04-03T15:16:13.194Z</time></trkpt><trkpt lat="43.1685236" lon="10.5635624"><ele>20.4</ele><time>2026-04-03T15:16:15.194Z</time></trkpt><trkpt lat="43.1686114" lon="10.5635821"><ele>20.8</ele><time>2026-04-03T15:16:17.202Z</time></trkpt><trkpt lat="43.1687087" lon="10.5636043"><ele>21.200000000000003</ele><time>2026-04-03T15:16:19.207Z</time></trkpt><trkpt lat="43.168815" lon="10.5636276"><ele>21.6</ele><time>2026-04-03T15:16:21.197Z</time></trkpt><trkpt lat="43.1689193" lon="10.5636696"><ele>22.0</ele><time>2026-04-03T15:16:23.195Z</time></trkpt><trkpt lat="43.1690273" lon="10.5637302"><ele>22.0</ele><time>2026-04-03T15:16:25.205Z</time></trkpt><trkpt lat="43.1691234" lon="10.5637701"><ele>22.0</ele><time>2026-04-03T15:16:27.203Z</time></trkpt><trkpt lat="43.1692228" lon="10.5637964"><ele>22.0</ele><time>2026-04-03T15:16:29.191Z</time></trkpt><trkpt lat="43.1693176" lon="10.5638059"><ele>22.0</ele><time>2026-04-03T15:16:31.202Z</time></trkpt><trkpt lat="43.1693548" lon="10.5637246"><ele>22.0</ele><time>2026-04-03T15:16:33.203Z</time></trkpt><trkpt lat="43.1693891" lon="10.563618"><ele>21.5</ele><time>2026-04-03T15:16:35.202Z</time></trkpt><trkpt lat="43.1694147" lon="10.5634817"><ele>21.0</ele><time>2026-04-03T15:16:37.202Z</time></trkpt><trkpt lat="43.1694354" lon="10.5633279"><ele>20.5</ele><time>2026-04-03T15:16:39.199Z</time></trkpt><trkpt lat="43.1694493" lon="10.5632402"><ele>20.0</ele><time>2026-04-03T15:16:40.184Z</time></trkpt><trkpt lat="43.1694607" lon="10.5631384"><ele>19.5</ele><time>2026-04-03T15:16:42.189Z</time></trkpt><trkpt lat="43.1694597" lon="10.5630409"><ele>19.0</ele><time>2026-04-03T15:16:47.189Z</time></trkpt><trkpt lat="43.1694827" lon="10.5629148"><ele>18.666666666666664</ele><time>2026-04-03T15:16:48.198Z</time></trkpt><trkpt lat="43.1694948" lon="10.5628136"><ele>18.333333333333332</ele><time>2026-04-03T15:16:49.2Z</time></trkpt><trkpt lat="43.1695147" lon="10.5627192"><ele>18.0</ele><time>2026-04-03T15:16:50.2Z</time></trkpt><trkpt lat="43.1695289" lon="10.5626253"><ele>17.666666666666668</ele><time>2026-04-03T15:16:51.201Z</time></trkpt><trkpt lat="43.1695448" lon="10.5625381"><ele>17.333333333333336</ele><time>2026-04-03T15:16:52.205Z</time></trkpt><trkpt lat="43.1695603" lon="10.5624513"><ele>17.0</ele><time>2026-04-03T15:16:53.203Z</time></trkpt><trkpt lat="43.1696001" lon="10.5622814"><ele>17.0</ele><time>2026-04-03T15:16:55.196Z</time></trkpt><trkpt lat="43.1696176" lon="10.562193"><ele>17.0</ele><time>2026-04-03T15:16:56.205Z</time></trkpt><trkpt lat="43.1696381" lon="10.5620318"><ele>17.0</ele><time>2026-04-03T15:16:58.2Z</time></trkpt><trkpt lat="43.169655" lon="10.5618736"><ele>17.0</ele><time>2026-04-03T15:17:00.202Z</time></trkpt><trkpt lat="43.1696746" lon="10.5617108"><ele>17.0</ele><time>2026-04-03T15:17:02.199Z</time></trkpt><trkpt lat="43.1696917" lon="10.5615546"><ele>17.0</ele><time>2026-04-03T15:17:04.199Z</time></trkpt><trkpt lat="43.1697082" lon="10.5614028"><ele>17.0</ele><time>2026-04-03T15:17:06.2Z</time></trkpt><trkpt lat="43.1697326" lon="10.5612462"><ele>17.0</ele><time>2026-04-03T15:17:08.202Z</time></trkpt><trkpt lat="43.1697549" lon="10.5610888"><ele>17.0</ele><time>2026-04-03T15:17:10.205Z</time></trkpt><trkpt lat="43.1697808" lon="10.5609324"><ele>17.0</ele><time>2026-04-03T15:17:12.207Z</time></trkpt><trkpt lat="43.1698048" lon="10.5607816"><ele>17.0</ele><time>2026-04-03T15:17:14.206Z</time></trkpt><trkpt lat="43.1698256" lon="10.5606229"><ele>17.0</ele><time>2026-04-03T15:17:16.201Z</time></trkpt><trkpt lat="43.1698468" lon="10.5604656"><ele>17.0</ele><time>2026-04-03T15:17:18.203Z</time></trkpt><trkpt lat="43.1698615" lon="10.560307"><ele>17.0</ele><time>2026-04-03T15:17:20.202Z</time></trkpt><trkpt lat="43.1698823" lon="10.5601485"><ele>17.0</ele><time>2026-04-03T15:17:22.196Z</time></trkpt><trkpt lat="43.1699063" lon="10.5600018"><ele>17.0</ele><time>2026-04-03T15:17:24.202Z</time></trkpt><trkpt lat="43.1699261" lon="10.5598519"><ele>17.0</ele><time>2026-04-03T15:17:26.196Z</time></trkpt><trkpt lat="43.1699491" lon="10.5597021"><ele>17.0</ele><time>2026-04-03T15:17:28.212Z</time></trkpt><trkpt lat="43.1699862" lon="10.5595514"><ele>17.0</ele><time>2026-04-03T15:17:30.203Z</time></trkpt><trkpt lat="43.1700078" lon="10.5593994"><ele>17.0</ele><time>2026-04-03T15:17:32.202Z</time></trkpt><trkpt lat="43.1700318" lon="10.5592399"><ele>17.0</ele><time>2026-04-03T15:17:34.199Z</time></trkpt><trkpt lat="43.1700567" lon="10.5590805"><ele>16.75</ele><time>2026-04-03T15:17:36.199Z</time></trkpt><trkpt lat="43.1700815" lon="10.558928"><ele>16.5</ele><time>2026-04-03T15:17:38.196Z</time></trkpt><trkpt lat="43.1701067" lon="10.5587716"><ele>16.25</ele><time>2026-04-03T15:17:40.201Z</time></trkpt><trkpt lat="43.1701348" lon="10.5586199"><ele>16.0</ele><time>2026-04-03T15:17:42.2Z</time></trkpt><trkpt lat="43.1701613" lon="10.5584685"><ele>15.75</ele><time>2026-04-03T15:17:44.202Z</time></trkpt><trkpt lat="43.1701812" lon="10.5583209"><ele>15.5</ele><time>2026-04-03T15:17:46.203Z</time></trkpt><trkpt lat="43.1702014" lon="10.5581621"><ele>15.25</ele><time>2026-04-03T15:17:48.198Z</time></trkpt><trkpt lat="43.17022" lon="10.5580044"><ele>15.0</ele><time>2026-04-03T15:17:50.198Z</time></trkpt><trkpt lat="43.1702436" lon="10.5578482"><ele>15.0</ele><time>2026-04-03T15:17:52.199Z</time></trkpt><trkpt lat="43.1702664" lon="10.5576901"><ele>15.0</ele><time>2026-04-03T15:17:54.207Z</time></trkpt><trkpt lat="43.1702844" lon="10.5575304"><ele>15.0</ele><time>2026-04-03T15:17:56.193Z</time></trkpt><trkpt lat="43.1703117" lon="10.5573713"><ele>15.0</ele><time>2026-04-03T15:17:58.201Z</time></trkpt><trkpt lat="43.1703352" lon="10.5572132"><ele>15.0</ele><time>2026-04-03T15:18:00.197Z</time></trkpt><trkpt lat="43.1703526" lon="10.5571297"><ele>15.0</ele><time>2026-04-03T15:18:01.193Z</time></trkpt><trkpt lat="43.1703764" lon="10.556965"><ele>15.0</ele><time>2026-04-03T15:18:03.194Z</time></trkpt><trkpt lat="43.1704025" lon="10.556812"><ele>15.0</ele><time>2026-04-03T15:18:05.195Z</time></trkpt><trkpt lat="43.1704233" lon="10.5566722"><ele>15.0</ele><time>2026-04-03T15:18:07.197Z</time></trkpt><trkpt lat="43.1704388" lon="10.5565441"><ele>15.0</ele><time>2026-04-03T15:18:09.2Z</time></trkpt><trkpt lat="43.1704555" lon="10.5564067"><ele>15.0</ele><time>2026-04-03T15:18:11.201Z</time></trkpt><trkpt lat="43.1704654" lon="10.5562575"><ele>15.0</ele><time>2026-04-03T15:18:13.209Z</time></trkpt><trkpt lat="43.1704937" lon="10.5560976"><ele>15.0</ele><time>2026-04-03T15:18:15.208Z</time></trkpt><trkpt lat="43.1705174" lon="10.5559368"><ele>14.75</ele><time>2026-04-03T15:18:17.21Z</time></trkpt><trkpt lat="43.1705416" lon="10.5557773"><ele>14.5</ele><time>2026-04-03T15:18:19.204Z</time></trkpt><trkpt lat="43.1705673" lon="10.5556237"><ele>14.25</ele><time>2026-04-03T15:18:21.2Z</time></trkpt><trkpt lat="43.1705883" lon="10.5554659"><ele>14.0</ele><time>2026-04-03T15:18:23.202Z</time></trkpt><trkpt lat="43.1706159" lon="10.5553066"><ele>13.25</ele><time>2026-04-03T15:18:25.202Z</time></trkpt><trkpt lat="43.1706441" lon="10.5551489"><ele>12.5</ele><time>2026-04-03T15:18:27.199Z</time></trkpt><trkpt lat="43.1706699" lon="10.5549888"><ele>11.75</ele><time>2026-04-03T15:18:29.203Z</time></trkpt><trkpt lat="43.1706917" lon="10.5548362"><ele>11.0</ele><time>2026-04-03T15:18:31.206Z</time></trkpt><trkpt lat="43.1707148" lon="10.5546833"><ele>10.75</ele><time>2026-04-03T15:18:33.208Z</time></trkpt><trkpt lat="43.1707406" lon="10.5545225"><ele>10.5</ele><time>2026-04-03T15:18:35.198Z</time></trkpt><trkpt lat="43.1707622" lon="10.5543608"><ele>10.25</ele><time>2026-04-03T15:18:37.197Z</time></trkpt><trkpt lat="43.1707855" lon="10.5542093"><ele>10.0</ele><time>2026-04-03T15:18:39.201Z</time></trkpt><trkpt lat="43.1708071" lon="10.5540563"><ele>10.0</ele><time>2026-04-03T15:18:41.203Z</time></trkpt><trkpt lat="43.1708314" lon="10.5538987"><ele>10.0</ele><time>2026-04-03T15:18:43.206Z</time></trkpt><trkpt lat="43.1708552" lon="10.5537393"><ele>10.0</ele><time>2026-04-03T15:18:45.197Z</time></trkpt><trkpt lat="43.1708766" lon="10.5535829"><ele>10.0</ele><time>2026-04-03T15:18:47.201Z</time></trkpt><trkpt lat="43.1708977" lon="10.5534309"><ele>10.0</ele><time>2026-04-03T15:18:49.198Z</time></trkpt><trkpt lat="43.170918" lon="10.55328"><ele>10.0</ele><time>2026-04-03T15:18:51.202Z</time></trkpt><trkpt lat="43.1709427" lon="10.5531293"><ele>10.0</ele><time>2026-04-03T15:18:53.198Z</time></trkpt><trkpt lat="43.1709646" lon="10.5529833"><ele>10.0</ele><time>2026-04-03T15:18:55.208Z</time></trkpt><trkpt lat="43.1709808" lon="10.5528429"><ele>10.0</ele><time>2026-04-03T15:18:57.198Z</time></trkpt><trkpt lat="43.1709996" lon="10.5527093"><ele>10.0</ele><time>2026-04-03T15:18:59.21Z</time></trkpt><trkpt lat="43.1710142" lon="10.5525871"><ele>10.0</ele><time>2026-04-03T15:19:01.211Z</time></trkpt><trkpt lat="43.1710412" lon="10.5524477"><ele>10.0</ele><time>2026-04-03T15:19:03.198Z</time></trkpt><trkpt lat="43.1710668" lon="10.5523143"><ele>10.0</ele><time>2026-04-03T15:19:05.202Z</time></trkpt><trkpt lat="43.1710954" lon="10.5521557"><ele>10.0</ele><time>2026-04-03T15:19:07.194Z</time></trkpt><trkpt lat="43.171117" lon="10.5520079"><ele>9.75</ele><time>2026-04-03T15:19:09.18Z</time></trkpt><trkpt lat="43.1711377" lon="10.5518561"><ele>9.5</ele><time>2026-04-03T15:19:11.195Z</time></trkpt><trkpt lat="43.1711633" lon="10.551703"><ele>9.25</ele><time>2026-04-03T15:19:13.189Z</time></trkpt><trkpt lat="43.1711812" lon="10.5515514"><ele>9.0</ele><time>2026-04-03T15:19:15.19Z</time></trkpt><trkpt lat="43.1712057" lon="10.5514005"><ele>9.0</ele><time>2026-04-03T15:19:17.198Z</time></trkpt><trkpt lat="43.1712229" lon="10.5512368"><ele>9.0</ele><time>2026-04-03T15:19:19.201Z</time></trkpt><trkpt lat="43.1712429" lon="10.5510812"><ele>9.0</ele><time>2026-04-03T15:19:21.198Z</time></trkpt><trkpt lat="43.1712666" lon="10.5509227"><ele>9.0</ele><time>2026-04-03T15:19:23.2Z</time></trkpt><trkpt lat="43.1712944" lon="10.5507633"><ele>8.75</ele><time>2026-04-03T15:19:25.2Z</time></trkpt><trkpt lat="43.1713199" lon="10.5506138"><ele>8.5</ele><time>2026-04-03T15:19:27.193Z</time></trkpt><trkpt lat="43.1713441" lon="10.5504586"><ele>8.25</ele><time>2026-04-03T15:19:29.192Z</time></trkpt><trkpt lat="43.1713656" lon="10.5503087"><ele>8.0</ele><time>2026-04-03T15:19:31.195Z</time></trkpt><trkpt lat="43.1713928" lon="10.5501568"><ele>8.600000000000001</ele><time>2026-04-03T15:19:33.199Z</time></trkpt><trkpt lat="43.17141" lon="10.5500029"><ele>9.200000000000001</ele><time>2026-04-03T15:19:35.195Z</time></trkpt><trkpt lat="43.1714263" lon="10.5498532"><ele>9.8</ele><time>2026-04-03T15:19:37.188Z</time></trkpt><trkpt lat="43.1714458" lon="10.5497085"><ele>10.4</ele><time>2026-04-03T15:19:39.183Z</time></trkpt><trkpt lat="43.1714629" lon="10.5495688"><ele>11.0</ele><time>2026-04-03T15:19:41.18Z</time></trkpt><trkpt lat="43.1714916" lon="10.5494633"><ele>12.5</ele><time>2026-04-03T15:19:43.176Z</time></trkpt><trkpt lat="43.1715746" lon="10.5494183"><ele>14.0</ele><time>2026-04-03T15:19:46.18Z</time></trkpt><trkpt lat="43.1716505" lon="10.5494538"><ele>15.5</ele><time>2026-04-03T15:19:48.176Z</time></trkpt><trkpt lat="43.1717403" lon="10.5494521"><ele>17.0</ele><time>2026-04-03T15:19:50.184Z</time></trkpt><trkpt lat="43.1718635" lon="10.5494523"><ele>18.5</ele><time>2026-04-03T15:19:52.181Z</time></trkpt><trkpt lat="43.1719283" lon="10.5494647"><ele>20.0</ele><time>2026-04-03T15:19:53.188Z</time></trkpt><trkpt lat="43.1719987" lon="10.5494767"><ele>20.0</ele><time>2026-04-03T15:19:54.18Z</time></trkpt><trkpt lat="43.1721147" lon="10.5495146"><ele>20.0</ele><time>2026-04-03T15:19:56.179Z</time></trkpt><trkpt lat="43.1721825" lon="10.5495205"><ele>20.0</ele><time>2026-04-03T15:19:57.186Z</time></trkpt><trkpt lat="43.1722616" lon="10.5495245"><ele>20.0</ele><time>2026-04-03T15:19:58.186Z</time></trkpt><trkpt lat="43.1723334" lon="10.5495359"><ele>20.0</ele><time>2026-04-03T15:19:59.178Z</time></trkpt><trkpt lat="43.1724093" lon="10.5495427"><ele>20.0</ele><time>2026-04-03T15:20:00.178Z</time></trkpt><trkpt lat="43.1724735" lon="10.5495473"><ele>18.0</ele><time>2026-04-03T15:20:01.175Z</time></trkpt><trkpt lat="43.1725391" lon="10.5495431"><ele>16.0</ele><time>2026-04-03T15:20:02.185Z</time></trkpt><trkpt lat="43.1726508" lon="10.549549"><ele>14.0</ele><time>2026-04-03T15:20:04.176Z</time></trkpt><trkpt lat="43.1727684" lon="10.5495845"><ele>12.0</ele><time>2026-04-03T15:20:06.179Z</time></trkpt><trkpt lat="43.1728905" lon="10.5496029"><ele>10.0</ele><time>2026-04-03T15:20:08.181Z</time></trkpt><trkpt lat="43.1730075" lon="10.5496105"><ele>10.0</ele><time>2026-04-03T15:20:10.181Z</time></trkpt><trkpt lat="43.173122" lon="10.5496227"><ele>10.0</ele><time>2026-04-03T15:20:12.183Z</time></trkpt><trkpt lat="43.1732484" lon="10.5496375"><ele>10.0</ele><time>2026-04-03T15:20:14.187Z</time></trkpt><trkpt lat="43.173318" lon="10.5496415"><ele>10.0</ele><time>2026-04-03T15:20:15.186Z</time></trkpt><trkpt lat="43.173381" lon="10.5496537"><ele>10.0</ele><time>2026-04-03T15:20:16.186Z</time></trkpt><trkpt lat="43.1734446" lon="10.5496622"><ele>10.0</ele><time>2026-04-03T15:20:17.191Z</time></trkpt><trkpt lat="43.1735657" lon="10.5496789"><ele>9.857142857142858</ele><time>2026-04-03T15:20:19.186Z</time></trkpt><trkpt lat="43.1736327" lon="10.5496869"><ele>9.714285714285715</ele><time>2026-04-03T15:20:20.187Z</time></trkpt><trkpt lat="43.1736976" lon="10.5496913"><ele>9.571428571428573</ele><time>2026-04-03T15:20:21.188Z</time></trkpt><trkpt lat="43.173763" lon="10.5496819"><ele>9.428571428571429</ele><time>2026-04-03T15:20:22.183Z</time></trkpt><trkpt lat="43.1738281" lon="10.5496827"><ele>9.285714285714286</ele><time>2026-04-03T15:20:23.18Z</time></trkpt><trkpt lat="43.1738952" lon="10.5496884"><ele>9.142857142857144</ele><time>2026-04-03T15:20:24.177Z</time></trkpt><trkpt lat="43.1739615" lon="10.5497038"><ele>9.0</ele><time>2026-04-03T15:20:25.18Z</time></trkpt><trkpt lat="43.1740248" lon="10.5497162"><ele>10.0</ele><time>2026-04-03T15:20:26.181Z</time></trkpt><trkpt lat="43.1740898" lon="10.5497289"><ele>11.0</ele><time>2026-04-03T15:20:27.178Z</time></trkpt><trkpt lat="43.1741542" lon="10.54974"><ele>12.0</ele><time>2026-04-03T15:20:28.184Z</time></trkpt><trkpt lat="43.1742717" lon="10.5497519"><ele>13.0</ele><time>2026-04-03T15:20:30.19Z</time></trkpt><trkpt lat="43.1743356" lon="10.5497532"><ele>14.0</ele><time>2026-04-03T15:20:31.181Z</time></trkpt><trkpt lat="43.1743989" lon="10.5497579"><ele>15.0</ele><time>2026-04-03T15:20:32.189Z</time></trkpt><trkpt lat="43.1745106" lon="10.5497685"><ele>15.0</ele><time>2026-04-03T15:20:34.184Z</time></trkpt><trkpt lat="43.1746208" lon="10.5497875"><ele>15.0</ele><time>2026-04-03T15:20:36.186Z</time></trkpt><trkpt lat="43.1747311" lon="10.5498107"><ele>15.0</ele><time>2026-04-03T15:20:38.189Z</time></trkpt><trkpt lat="43.1748537" lon="10.5498355"><ele>15.0</ele><time>2026-04-03T15:20:40.191Z</time></trkpt><trkpt lat="43.1749733" lon="10.549852"><ele>14.75</ele><time>2026-04-03T15:20:42.193Z</time></trkpt><trkpt lat="43.175087" lon="10.5498482"><ele>14.5</ele><time>2026-04-03T15:20:44.193Z</time></trkpt><trkpt lat="43.1751975" lon="10.549832"><ele>14.25</ele><time>2026-04-03T15:20:46.192Z</time></trkpt><trkpt lat="43.1753078" lon="10.5498134"><ele>14.0</ele><time>2026-04-03T15:20:48.187Z</time></trkpt><trkpt lat="43.1754334" lon="10.5498235"><ele>14.0</ele><time>2026-04-03T15:20:50.189Z</time></trkpt><trkpt lat="43.1755409" lon="10.5498433"><ele>13.999999999999998</ele><time>2026-04-03T15:20:52.185Z</time></trkpt><trkpt lat="43.1756418" lon="10.5498627"><ele>13.999999999999998</ele><time>2026-04-03T15:20:54.188Z</time></trkpt><trkpt lat="43.1757538" lon="10.549898"><ele>14.0</ele><time>2026-04-03T15:20:56.185Z</time></trkpt><trkpt lat="43.175858" lon="10.549935"><ele>14.0</ele><time>2026-04-03T15:20:58.189Z</time></trkpt><trkpt lat="43.1759592" lon="10.5499339"><ele>14.333333333333334</ele><time>2026-04-03T15:21:00.185Z</time></trkpt><trkpt lat="43.1760527" lon="10.5499162"><ele>14.666666666666668</ele><time>2026-04-03T15:21:02.176Z</time></trkpt><trkpt lat="43.1761357" lon="10.5499113"><ele>15.0</ele><time>2026-04-03T15:21:04.185Z</time></trkpt><trkpt lat="43.1762151" lon="10.5499325"><ele>15.333333333333332</ele><time>2026-04-03T15:21:06.177Z</time></trkpt><trkpt lat="43.1762963" lon="10.5499197"><ele>15.666666666666666</ele><time>2026-04-03T15:21:08.177Z</time></trkpt><trkpt lat="43.1763919" lon="10.5498808"><ele>16.0</ele><time>2026-04-03T15:21:10.182Z</time></trkpt><trkpt lat="43.1764921" lon="10.5498689"><ele>16.2</ele><time>2026-04-03T15:21:12.183Z</time></trkpt><trkpt lat="43.1765775" lon="10.5498854"><ele>16.400000000000002</ele><time>2026-04-03T15:21:14.187Z</time></trkpt><trkpt lat="43.1766731" lon="10.5499097"><ele>16.6</ele><time>2026-04-03T15:21:16.17Z</time></trkpt><trkpt lat="43.1767798" lon="10.5499277"><ele>16.8</ele><time>2026-04-03T15:21:18.177Z</time></trkpt><trkpt lat="43.1768877" lon="10.5499357"><ele>17.0</ele><time>2026-04-03T15:21:20.181Z</time></trkpt><trkpt lat="43.1769981" lon="10.5499504"><ele>17.0</ele><time>2026-04-03T15:21:22.181Z</time></trkpt><trkpt lat="43.1771019" lon="10.5499489"><ele>17.0</ele><time>2026-04-03T15:21:24.183Z</time></trkpt><trkpt lat="43.1772021" lon="10.5499575"><ele>17.0</ele><time>2026-04-03T15:21:26.178Z</time></trkpt><trkpt lat="43.177317" lon="10.5499892"><ele>17.0</ele><time>2026-04-03T15:21:28.182Z</time></trkpt><trkpt lat="43.1773881" lon="10.5500029"><ele>17.0</ele><time>2026-04-03T15:21:29.176Z</time></trkpt><trkpt lat="43.1774587" lon="10.5500235"><ele>17.2</ele><time>2026-04-03T15:21:30.189Z</time></trkpt><trkpt lat="43.1775979" lon="10.5500658"><ele>17.4</ele><time>2026-04-03T15:21:32.177Z</time></trkpt><trkpt lat="43.1776727" lon="10.5500632"><ele>17.6</ele><time>2026-04-03T15:21:33.184Z</time></trkpt><trkpt lat="43.1777417" lon="10.5500694"><ele>17.8</ele><time>2026-04-03T15:21:34.181Z</time></trkpt><trkpt lat="43.177811" lon="10.5500768"><ele>18.0</ele><time>2026-04-03T15:21:35.189Z</time></trkpt><trkpt lat="43.1779314" lon="10.5500583"><ele>18.0</ele><time>2026-04-03T15:21:37.183Z</time></trkpt><trkpt lat="43.1780408" lon="10.5500461"><ele>18.0</ele><time>2026-04-03T15:21:39.184Z</time></trkpt><trkpt lat="43.1781445" lon="10.5500468"><ele>18.0</ele><time>2026-04-03T15:21:41.193Z</time></trkpt><trkpt lat="43.1782498" lon="10.5500584"><ele>18.0</ele><time>2026-04-03T15:21:43.192Z</time></trkpt><trkpt lat="43.1783541" lon="10.5500847"><ele>18.0</ele><time>2026-04-03T15:21:45.186Z</time></trkpt><trkpt lat="43.1784691" lon="10.5500889"><ele>17.6</ele><time>2026-04-03T15:21:47.186Z</time></trkpt><trkpt lat="43.1785857" lon="10.5500925"><ele>17.200000000000003</ele><time>2026-04-03T15:21:49.185Z</time></trkpt><trkpt lat="43.1787041" lon="10.550095"><ele>16.8</ele><time>2026-04-03T15:21:51.193Z</time></trkpt><trkpt lat="43.1788237" lon="10.5500793"><ele>16.400000000000002</ele><time>2026-04-03T15:21:53.188Z</time></trkpt><trkpt lat="43.1788885" lon="10.5500755"><ele>16.0</ele><time>2026-04-03T15:21:54.186Z</time></trkpt><trkpt lat="43.1789604" lon="10.5500951"><ele>16.2</ele><time>2026-04-03T15:21:55.19Z</time></trkpt><trkpt lat="43.1790274" lon="10.5501066"><ele>16.400000000000002</ele><time>2026-04-03T15:21:56.193Z</time></trkpt><trkpt lat="43.1791386" lon="10.5501444"><ele>16.6</ele><time>2026-04-03T15:21:58.186Z</time></trkpt><trkpt lat="43.1791992" lon="10.5501699"><ele>16.8</ele><time>2026-04-03T15:21:59.191Z</time></trkpt><trkpt lat="43.179307" lon="10.5502109"><ele>17.0</ele><time>2026-04-03T15:22:01.192Z</time></trkpt><trkpt lat="43.1794037" lon="10.5502396"><ele>16.999999999999996</ele><time>2026-04-03T15:22:03.187Z</time></trkpt><trkpt lat="43.1794662" lon="10.5502588"><ele>17.0</ele><time>2026-04-03T15:22:05.183Z</time></trkpt><trkpt lat="43.1795399" lon="10.5502767"><ele>17.0</ele><time>2026-04-03T15:22:07.181Z</time></trkpt><trkpt lat="43.1796071" lon="10.5502876"><ele>17.0</ele><time>2026-04-03T15:22:09.188Z</time></trkpt><trkpt lat="43.179692" lon="10.550266"><ele>17.0</ele><time>2026-04-03T15:22:13.193Z</time></trkpt><trkpt lat="43.1797568" lon="10.5502777"><ele>16.999999999999996</ele><time>2026-04-03T15:22:15.193Z</time></trkpt><trkpt lat="43.1798364" lon="10.5502798"><ele>17.0</ele><time>2026-04-03T15:22:17.194Z</time></trkpt><trkpt lat="43.1799218" lon="10.5502913"><ele>16.333333333333336</ele><time>2026-04-03T15:22:19.191Z</time></trkpt><trkpt lat="43.1800125" lon="10.5503273"><ele>15.666666666666668</ele><time>2026-04-03T15:22:21.193Z</time></trkpt><trkpt lat="43.1800827" lon="10.550408"><ele>15.0</ele><time>2026-04-03T15:22:23.196Z</time></trkpt><trkpt lat="43.1801391" lon="10.5505184"><ele>14.333333333333332</ele><time>2026-04-03T15:22:25.2Z</time></trkpt><trkpt lat="43.1801829" lon="10.550581"><ele>13.666666666666666</ele><time>2026-04-03T15:22:26.199Z</time></trkpt><trkpt lat="43.1802395" lon="10.5506202"><ele>13.0</ele><time>2026-04-03T15:22:27.195Z</time></trkpt><trkpt lat="43.1803508" lon="10.5506596"><ele>12.600000000000001</ele><time>2026-04-03T15:22:29.197Z</time></trkpt><trkpt lat="43.1804127" lon="10.5506796"><ele>12.200000000000001</ele><time>2026-04-03T15:22:30.197Z</time></trkpt><trkpt lat="43.1805305" lon="10.5507176"><ele>11.8</ele><time>2026-04-03T15:22:32.19Z</time></trkpt><trkpt lat="43.1806518" lon="10.5507134"><ele>11.4</ele><time>2026-04-03T15:22:34.186Z</time></trkpt><trkpt lat="43.1807685" lon="10.5506976"><ele>11.0</ele><time>2026-04-03T15:22:36.198Z</time></trkpt><trkpt lat="43.1808314" lon="10.5506874"><ele>10.0</ele><time>2026-04-03T15:22:37.204Z</time></trkpt><trkpt lat="43.1808946" lon="10.5506826"><ele>9.0</ele><time>2026-04-03T15:22:38.195Z</time></trkpt><trkpt lat="43.1810128" lon="10.5506615"><ele>8.0</ele><time>2026-04-03T15:22:40.204Z</time></trkpt><trkpt lat="43.18113" lon="10.5506347"><ele>7.0</ele><time>2026-04-03T15:22:42.2Z</time></trkpt><trkpt lat="43.1812482" lon="10.5506145"><ele>6.0</ele><time>2026-04-03T15:22:44.202Z</time></trkpt><trkpt lat="43.1813634" lon="10.5506303"><ele>6.0</ele><time>2026-04-03T15:22:46.2Z</time></trkpt><trkpt lat="43.1814671" lon="10.5506603"><ele>6.0</ele><time>2026-04-03T15:22:48.211Z</time></trkpt><trkpt lat="43.1815638" lon="10.5506733"><ele>6.0</ele><time>2026-04-03T15:22:50.207Z</time></trkpt><trkpt lat="43.1816276" lon="10.5506461"><ele>6.0</ele><time>2026-04-03T15:22:51.205Z</time></trkpt><trkpt lat="43.1817266" lon="10.550571"><ele>6.0</ele><time>2026-04-03T15:22:53.212Z</time></trkpt><trkpt lat="43.1818273" lon="10.5504663"><ele>5.8</ele><time>2026-04-03T15:22:55.205Z</time></trkpt><trkpt lat="43.1818801" lon="10.5504165"><ele>5.6</ele><time>2026-04-03T15:22:56.209Z</time></trkpt><trkpt lat="43.1819897" lon="10.5503653"><ele>5.4</ele><time>2026-04-03T15:22:58.202Z</time></trkpt><trkpt lat="43.1820996" lon="10.5503484"><ele>5.2</ele><time>2026-04-03T15:23:00.206Z</time></trkpt><trkpt lat="43.1822136" lon="10.550307"><ele>5.0</ele><time>2026-04-03T15:23:02.211Z</time></trkpt><trkpt lat="43.1823155" lon="10.5502412"><ele>4.4</ele><time>2026-04-03T15:23:04.214Z</time></trkpt><trkpt lat="43.1824122" lon="10.5501815"><ele>3.8</ele><time>2026-04-03T15:23:06.204Z</time></trkpt><trkpt lat="43.1825088" lon="10.5501187"><ele>3.2</ele><time>2026-04-03T15:23:08.21Z</time></trkpt><trkpt lat="43.1826135" lon="10.5500388"><ele>2.6</ele><time>2026-04-03T15:23:10.21Z</time></trkpt><trkpt lat="43.1827151" lon="10.549977"><ele>2.0</ele><time>2026-04-03T15:23:12.213Z</time></trkpt><trkpt lat="43.1827984" lon="10.5499166"><ele>2.0</ele><time>2026-04-03T15:23:14.211Z</time></trkpt><trkpt lat="43.1828767" lon="10.5498644"><ele>2.0</ele><time>2026-04-03T15:23:16.218Z</time></trkpt><trkpt lat="43.1829565" lon="10.5497926"><ele>2.0</ele><time>2026-04-03T15:23:18.213Z</time></trkpt><trkpt lat="43.1830487" lon="10.5497309"><ele>2.0</ele><time>2026-04-03T15:23:20.212Z</time></trkpt><trkpt lat="43.1831493" lon="10.5496617"><ele>2.0</ele><time>2026-04-03T15:23:22.213Z</time></trkpt><trkpt lat="43.1832481" lon="10.5495915"><ele>2.0</ele><time>2026-04-03T15:23:24.222Z</time></trkpt><trkpt lat="43.1833495" lon="10.5495204"><ele>2.0</ele><time>2026-04-03T15:23:26.224Z</time></trkpt><trkpt lat="43.1834547" lon="10.5494358"><ele>2.0</ele><time>2026-04-03T15:23:28.212Z</time></trkpt><trkpt lat="43.1835626" lon="10.5493565"><ele>2.0</ele><time>2026-04-03T15:23:30.215Z</time></trkpt><trkpt lat="43.1836702" lon="10.5492813"><ele>2.0</ele><time>2026-04-03T15:23:32.214Z</time></trkpt><trkpt lat="43.1837759" lon="10.5492088"><ele>2.0</ele><time>2026-04-03T15:23:34.218Z</time></trkpt><trkpt lat="43.183878" lon="10.5491369"><ele>2.0</ele><time>2026-04-03T15:23:36.212Z</time></trkpt><trkpt lat="43.1839822" lon="10.5490708"><ele>2.0</ele><time>2026-04-03T15:23:38.216Z</time></trkpt><trkpt lat="43.1840825" lon="10.5489897"><ele>1.6</ele><time>2026-04-03T15:23:40.22Z</time></trkpt><trkpt lat="43.1841396" lon="10.5489489"><ele>1.2000000000000002</ele><time>2026-04-03T15:23:41.222Z</time></trkpt><trkpt lat="43.184249" lon="10.5488733"><ele>0.8</ele><time>2026-04-03T15:23:43.217Z</time></trkpt><trkpt lat="43.1843538" lon="10.5487978"><ele>0.4</ele><time>2026-04-03T15:23:45.218Z</time></trkpt><trkpt lat="43.1844601" lon="10.5487308"><ele>0.0</ele><time>2026-04-03T15:23:47.224Z</time></trkpt><trkpt lat="43.1845657" lon="10.5486612"><ele>0.0</ele><time>2026-04-03T15:23:49.219Z</time></trkpt><trkpt lat="43.1846652" lon="10.5485929"><ele>0.0</ele><time>2026-04-03T15:23:51.217Z</time></trkpt><trkpt lat="43.1847665" lon="10.5485292"><ele>0.0</ele><time>2026-04-03T15:23:53.222Z</time></trkpt><trkpt lat="43.1848677" lon="10.5484685"><ele>0.0</ele><time>2026-04-03T15:23:55.223Z</time></trkpt><trkpt lat="43.1849645" lon="10.5483919"><ele>0.0</ele><time>2026-04-03T15:23:57.215Z</time></trkpt><trkpt lat="43.1850613" lon="10.5483035"><ele>0.0</ele><time>2026-04-03T15:23:59.229Z</time></trkpt><trkpt lat="43.1851635" lon="10.5482268"><ele>0.0</ele><time>2026-04-03T15:24:01.214Z</time></trkpt><trkpt lat="43.1852665" lon="10.5481581"><ele>0.0</ele><time>2026-04-03T15:24:03.219Z</time></trkpt><trkpt lat="43.1853654" lon="10.5480926"><ele>0.0</ele><time>2026-04-03T15:24:05.217Z</time></trkpt><trkpt lat="43.1854553" lon="10.5480104"><ele>0.0</ele><time>2026-04-03T15:24:07.216Z</time></trkpt><trkpt lat="43.1855502" lon="10.5479244"><ele>0.0</ele><time>2026-04-03T15:24:09.215Z</time></trkpt><trkpt lat="43.1856491" lon="10.5478562"><ele>0.0</ele><time>2026-04-03T15:24:11.217Z</time></trkpt><trkpt lat="43.1857484" lon="10.5477887"><ele>0.0</ele><time>2026-04-03T15:24:13.22Z</time></trkpt><trkpt lat="43.1858451" lon="10.5477196"><ele>0.0</ele><time>2026-04-03T15:24:15.224Z</time></trkpt><trkpt lat="43.1859402" lon="10.5476607"><ele>0.0</ele><time>2026-04-03T15:24:17.224Z</time></trkpt><trkpt lat="43.1860199" lon="10.5476049"><ele>0.0</ele><time>2026-04-03T15:24:19.22Z</time></trkpt><trkpt lat="43.1861046" lon="10.5475589"><ele>0.0</ele><time>2026-04-03T15:24:21.215Z</time></trkpt><trkpt lat="43.1861732" lon="10.5475741"><ele>0.0</ele><time>2026-04-03T15:24:23.214Z</time></trkpt><trkpt lat="43.186237" lon="10.5475399"><ele>0.0</ele><time>2026-04-03T15:24:26.226Z</time></trkpt><trkpt lat="43.1862018" lon="10.5474544"><ele>0.0</ele><time>2026-04-03T15:24:28.211Z</time></trkpt><trkpt lat="43.1861398" lon="10.5473591"><ele>0.0</ele><time>2026-04-03T15:24:30.213Z</time></trkpt><trkpt lat="43.1860624" lon="10.5472537"><ele>0.0</ele><time>2026-04-03T15:24:32.217Z</time></trkpt><trkpt lat="43.1859889" lon="10.5471316"><ele>0.0</ele><time>2026-04-03T15:24:34.217Z</time></trkpt><trkpt lat="43.1859094" lon="10.5470212"><ele>0.0</ele><time>2026-04-03T15:24:36.213Z</time></trkpt><trkpt lat="43.1858242" lon="10.5469151"><ele>0.0</ele><time>2026-04-03T15:24:38.212Z</time></trkpt><trkpt lat="43.1857417" lon="10.5468049"><ele>0.0</ele><time>2026-04-03T15:24:40.226Z</time></trkpt><trkpt lat="43.1856674" lon="10.5466873"><ele>0.0</ele><time>2026-04-03T15:24:42.213Z</time></trkpt><trkpt lat="43.1855908" lon="10.5465796"><ele>0.0</ele><time>2026-04-03T15:24:44.208Z</time></trkpt><trkpt lat="43.1855119" lon="10.5464807"><ele>0.0</ele><time>2026-04-03T15:24:46.211Z</time></trkpt><trkpt lat="43.1854351" lon="10.5463816"><ele>0.0</ele><time>2026-04-03T15:24:48.213Z</time></trkpt><trkpt lat="43.1853614" lon="10.5462788"><ele>0.0</ele><time>2026-04-03T15:24:50.205Z</time></trkpt><trkpt lat="43.185287" lon="10.5461692"><ele>0.0</ele><time>2026-04-03T15:24:52.198Z</time></trkpt><trkpt lat="43.1852168" lon="10.5460649"><ele>0.0</ele><time>2026-04-03T15:24:54.206Z</time></trkpt><trkpt lat="43.1851492" lon="10.5459562"><ele>0.0</ele><time>2026-04-03T15:24:56.21Z</time></trkpt><trkpt lat="43.1850821" lon="10.5458485"><ele>0.0</ele><time>2026-04-03T15:24:58.211Z</time></trkpt><trkpt lat="43.1850268" lon="10.5457219"><ele>0.0</ele><time>2026-04-03T15:25:00.19Z</time></trkpt><trkpt lat="43.1850393" lon="10.5455739"><ele>0.0</ele><time>2026-04-03T15:25:02.192Z</time></trkpt><trkpt lat="43.1850873" lon="10.5455145"><ele>0.0</ele><time>2026-04-03T15:25:03.19Z</time></trkpt><trkpt lat="43.1851958" lon="10.5454314"><ele>0.0</ele><time>2026-04-03T15:25:05.191Z</time></trkpt><trkpt lat="43.1853003" lon="10.5453567"><ele>0.0</ele><time>2026-04-03T15:25:07.191Z</time></trkpt><trkpt lat="43.1854029" lon="10.5452864"><ele>0.6</ele><time>2026-04-03T15:25:09.192Z</time></trkpt><trkpt lat="43.1854991" lon="10.5452298"><ele>1.2</ele><time>2026-04-03T15:25:11.19Z</time></trkpt><trkpt lat="43.1855996" lon="10.545175"><ele>1.7999999999999998</ele><time>2026-04-03T15:25:13.184Z</time></trkpt><trkpt lat="43.1857014" lon="10.5451109"><ele>2.4</ele><time>2026-04-03T15:25:15.183Z</time></trkpt><trkpt lat="43.1858082" lon="10.5450351"><ele>3.0</ele><time>2026-04-03T15:25:17.196Z</time></trkpt><trkpt lat="43.1858655" lon="10.544999"><ele>3.0</ele><time>2026-04-03T15:25:18.189Z</time></trkpt><trkpt lat="43.1859724" lon="10.5449301"><ele>3.0</ele><time>2026-04-03T15:25:20.2Z</time></trkpt><trkpt lat="43.1860768" lon="10.5448562"><ele>3.0</ele><time>2026-04-03T15:25:22.2Z</time></trkpt><trkpt lat="43.186182" lon="10.5447743"><ele>3.0</ele><time>2026-04-03T15:25:24.195Z</time></trkpt><trkpt lat="43.1862815" lon="10.5446958"><ele>3.0</ele><time>2026-04-03T15:25:26.204Z</time></trkpt><trkpt lat="43.18638" lon="10.5446293"><ele>3.0</ele><time>2026-04-03T15:25:28.2Z</time></trkpt><trkpt lat="43.1864869" lon="10.5445687"><ele>3.0</ele><time>2026-04-03T15:25:30.198Z</time></trkpt><trkpt lat="43.186596" lon="10.5444971"><ele>3.0</ele><time>2026-04-03T15:25:32.203Z</time></trkpt><trkpt lat="43.1866972" lon="10.5444289"><ele>2.8</ele><time>2026-04-03T15:25:34.209Z</time></trkpt><trkpt lat="43.1867982" lon="10.5443588"><ele>2.5999999999999996</ele><time>2026-04-03T15:25:36.196Z</time></trkpt><trkpt lat="43.1868876" lon="10.5442926"><ele>2.4000000000000004</ele><time>2026-04-03T15:25:38.203Z</time></trkpt><trkpt lat="43.1869897" lon="10.5442138"><ele>2.2</ele><time>2026-04-03T15:25:40.202Z</time></trkpt><trkpt lat="43.1870863" lon="10.5441387"><ele>2.0</ele><time>2026-04-03T15:25:42.209Z</time></trkpt><trkpt lat="43.1871537" lon="10.5440323"><ele>2.0</ele><time>2026-04-03T15:25:44.203Z</time></trkpt><trkpt lat="43.1871642" lon="10.5438919"><ele>2.0</ele><time>2026-04-03T15:25:46.193Z</time></trkpt><trkpt lat="43.1871268" lon="10.5437438"><ele>2.0</ele><time>2026-04-03T15:25:48.199Z</time></trkpt><trkpt lat="43.1870669" lon="10.5436077"><ele>2.0</ele><time>2026-04-03T15:25:50.196Z</time></trkpt><trkpt lat="43.1870181" lon="10.5434606"><ele>2.6</ele><time>2026-04-03T15:25:52.187Z</time></trkpt><trkpt lat="43.1869906" lon="10.543315"><ele>3.2</ele><time>2026-04-03T15:25:54.172Z</time></trkpt><trkpt lat="43.1869663" lon="10.5431773"><ele>3.8</ele><time>2026-04-03T15:25:56.153Z</time></trkpt><trkpt lat="43.1869694" lon="10.5430891"><ele>4.4</ele><time>2026-04-03T15:25:57.158Z</time></trkpt><trkpt lat="43.1869485" lon="10.5429304"><ele>5.0</ele><time>2026-04-03T15:25:59.171Z</time></trkpt><trkpt lat="43.186914" lon="10.5428272"><ele>5.833333333333334</ele><time>2026-04-03T15:26:01.161Z</time></trkpt><trkpt lat="43.1868616" lon="10.5427151"><ele>6.666666666666667</ele><time>2026-04-03T15:26:03.174Z</time></trkpt><trkpt lat="43.1868235" lon="10.5426218"><ele>7.5</ele><time>2026-04-03T15:26:05.175Z</time></trkpt><trkpt lat="43.1867764" lon="10.5425142"><ele>8.333333333333334</ele><time>2026-04-03T15:26:08.182Z</time></trkpt><trkpt lat="43.1867884" lon="10.5424137"><ele>9.166666666666668</ele><time>2026-04-03T15:26:10.178Z</time></trkpt><trkpt lat="43.1868357" lon="10.5423131"><ele>10.0</ele><time>2026-04-03T15:26:12.174Z</time></trkpt><trkpt lat="43.1869079" lon="10.5422196"><ele>10.0</ele><time>2026-04-03T15:26:14.175Z</time></trkpt><trkpt lat="43.1869711" lon="10.5421322"><ele>10.0</ele><time>2026-04-03T15:26:16.17Z</time></trkpt><trkpt lat="43.1870264" lon="10.5420689"><ele>10.0</ele><time>2026-04-03T15:26:18.189Z</time></trkpt><trkpt lat="43.1870754" lon="10.5419815"><ele>10.0</ele><time>2026-04-03T15:26:20.178Z</time></trkpt><trkpt lat="43.187136" lon="10.5418902"><ele>10.0</ele><time>2026-04-03T15:26:22.175Z</time></trkpt><trkpt lat="43.187212" lon="10.5418446"><ele>10.0</ele><time>2026-04-03T15:26:24.183Z</time></trkpt><trkpt lat="43.1873227" lon="10.5417912"><ele>10.8</ele><time>2026-04-03T15:26:26.186Z</time></trkpt><trkpt lat="43.1874246" lon="10.5417572"><ele>11.6</ele><time>2026-04-03T15:26:28.178Z</time></trkpt><trkpt lat="43.1875439" lon="10.5417155"><ele>12.399999999999999</ele><time>2026-04-03T15:26:30.184Z</time></trkpt><trkpt lat="43.1876039" lon="10.5416857"><ele>13.2</ele><time>2026-04-03T15:26:31.194Z</time></trkpt><trkpt lat="43.1876664" lon="10.5416512"><ele>14.0</ele><time>2026-04-03T15:26:32.189Z</time></trkpt><trkpt lat="43.1877759" lon="10.5416052"><ele>14.000000000000002</ele><time>2026-04-03T15:26:34.192Z</time></trkpt><trkpt lat="43.1878808" lon="10.5415956"><ele>14.0</ele><time>2026-04-03T15:26:36.186Z</time></trkpt><trkpt lat="43.1879706" lon="10.5415564"><ele>14.0</ele><time>2026-04-03T15:26:38.188Z</time></trkpt><trkpt lat="43.188047" lon="10.5414898"><ele>14.0</ele><time>2026-04-03T15:26:40.184Z</time></trkpt><trkpt lat="43.1881144" lon="10.5414197"><ele>14.000000000000002</ele><time>2026-04-03T15:26:42.192Z</time></trkpt><trkpt lat="43.1881604" lon="10.5413586"><ele>14.0</ele><time>2026-04-03T15:26:44.195Z</time></trkpt><trkpt lat="43.1882241" lon="10.5412953"><ele>13.666666666666668</ele><time>2026-04-03T15:26:46.186Z</time></trkpt><trkpt lat="43.188284" lon="10.5412434"><ele>13.333333333333334</ele><time>2026-04-03T15:26:49.177Z</time></trkpt><trkpt lat="43.1883287" lon="10.5411291"><ele>13.0</ele><time>2026-04-03T15:26:52.168Z</time></trkpt><trkpt lat="43.1883265" lon="10.5410382"><ele>12.666666666666668</ele><time>2026-04-03T15:26:54.173Z</time></trkpt><trkpt lat="43.1883076" lon="10.5409375"><ele>12.333333333333334</ele><time>2026-04-03T15:26:56.179Z</time></trkpt><trkpt lat="43.188261" lon="10.5408421"><ele>12.0</ele><time>2026-04-03T15:26:58.178Z</time></trkpt><trkpt lat="43.1882222" lon="10.5407488"><ele>12.0</ele><time>2026-04-03T15:27:00.186Z</time></trkpt><trkpt lat="43.1881736" lon="10.5406583"><ele>13.0</ele><time>2026-04-03T15:27:02.189Z</time></trkpt><trkpt lat="43.1881728" lon="10.5405528"><ele>13.0</ele><time>2026-04-03T15:27:05.186Z</time></trkpt><trkpt lat="43.1881923" lon="10.5404681"><ele>12.0</ele><time>2026-04-03T15:27:09.185Z</time></trkpt><trkpt lat="43.188243" lon="10.5403963"><ele>12.0</ele><time>2026-04-03T15:27:13.199Z</time></trkpt><trkpt lat="43.1882668" lon="10.5403152"><ele>10.0</ele><time>2026-04-03T15:29:31.158Z</time></trkpt></trkseg></trk></gpx>